<?xml version="1.0" encoding="UTF-8" standalone="no" ?>
<gpx xmlns="http://www.topografix.com/GPX/1/1" xmlns:xsi="http://www.w3.org/2001/XMLSchema-instance" xsi:schemaLocation="http://www.topografix.com/GPX/1/1 http://www.topografix.com/GPX/1/1/gpx.xsd" version="1.1" creator="VisuGPX - https://www.visugpx.com">
  <metadata>
    <name>Autour de Foncine-le-Haut 10 mai 2013</name>
    <desc><![CDATA[Chez Valentin, Foncine-le-Haut village, puis circuit vtt 21 Chalesmes, Les Planches en Montagne, Foncine le-Bas, puis circuit vtt 20 La Bique du Mont noir, lac des Rouges Truites, La Combe du Morbier, Chapelle des bois, Le Pré d\'Haut ( 1275m ), puis descente dangereuse sur Foncine-le- haut.]]></desc>
  </metadata>
  <trk>
    <name><![CDATA[Tracé actuel: 10 MAI 2013 09:52]]></name>
    <trkseg>
      <trkpt lat="46.64847" lon="6.07448">
        <ele>956.65</ele>
        <time>2013-05-10T07:52:00Z</time>
      </trkpt>
      <trkpt lat="46.64856" lon="6.07448">
        <ele>956.65</ele>
        <time>2013-05-10T07:52:30Z</time>
      </trkpt>
      <trkpt lat="46.64856" lon="6.07446">
        <ele>960.49</ele>
        <time>2013-05-10T07:52:38Z</time>
      </trkpt>
      <trkpt lat="46.64856" lon="6.07446">
        <ele>964.34</ele>
        <time>2013-05-10T07:52:41Z</time>
      </trkpt>
      <trkpt lat="46.64855" lon="6.07445">
        <ele>966.26</ele>
        <time>2013-05-10T07:52:44Z</time>
      </trkpt>
      <trkpt lat="46.64855" lon="6.07445">
        <ele>969.15</ele>
        <time>2013-05-10T07:52:45Z</time>
      </trkpt>
      <trkpt lat="46.64855" lon="6.07445">
        <ele>969.63</ele>
        <time>2013-05-10T07:52:46Z</time>
      </trkpt>
      <trkpt lat="46.64854" lon="6.07446">
        <ele>972.51</ele>
        <time>2013-05-10T07:52:49Z</time>
      </trkpt>
      <trkpt lat="46.64854" lon="6.07446">
        <ele>972.51</ele>
        <time>2013-05-10T07:52:50Z</time>
      </trkpt>
    </trkseg>
  </trk>
  <trk>
    <name><![CDATA[Tracé actuel: 10 MAI 2013 09:52 001]]></name>
    <trkseg>
      <trkpt lat="46.64854" lon="6.07445">
        <ele>975.88</ele>
        <time>2013-05-10T07:52:54Z</time>
      </trkpt>
      <trkpt lat="46.64854" lon="6.07444">
        <ele>978.28</ele>
        <time>2013-05-10T07:52:58Z</time>
      </trkpt>
      <trkpt lat="46.64854" lon="6.07444">
        <ele>979.72</ele>
        <time>2013-05-10T07:53:00Z</time>
      </trkpt>
      <trkpt lat="46.64854" lon="6.07445">
        <ele>981.64</ele>
        <time>2013-05-10T07:53:03Z</time>
      </trkpt>
      <trkpt lat="46.64854" lon="6.07444">
        <ele>983.09</ele>
        <time>2013-05-10T07:53:07Z</time>
      </trkpt>
      <trkpt lat="46.64853" lon="6.07443">
        <ele>986.45</ele>
        <time>2013-05-10T07:53:16Z</time>
      </trkpt>
      <trkpt lat="46.6485" lon="6.07443">
        <ele>989.81</ele>
        <time>2013-05-10T07:53:31Z</time>
      </trkpt>
      <trkpt lat="46.6485" lon="6.07443">
        <ele>994.14</ele>
        <time>2013-05-10T07:53:54Z</time>
      </trkpt>
      <trkpt lat="46.6485" lon="6.07443">
        <ele>993.66</ele>
        <time>2013-05-10T07:54:10Z</time>
      </trkpt>
      <trkpt lat="46.6485" lon="6.07443">
        <ele>992.7</ele>
        <time>2013-05-10T07:54:30Z</time>
      </trkpt>
      <trkpt lat="46.64854" lon="6.07445">
        <ele>992.7</ele>
        <time>2013-05-10T07:54:41Z</time>
      </trkpt>
      <trkpt lat="46.64856" lon="6.07446">
        <ele>993.18</ele>
        <time>2013-05-10T07:54:51Z</time>
      </trkpt>
      <trkpt lat="46.64859" lon="6.07462">
        <ele>992.7</ele>
        <time>2013-05-10T07:54:58Z</time>
      </trkpt>
      <trkpt lat="46.64871" lon="6.07499">
        <ele>992.7</ele>
        <time>2013-05-10T07:55:10Z</time>
      </trkpt>
      <trkpt lat="46.64854" lon="6.07534">
        <ele>994.14</ele>
        <time>2013-05-10T07:55:25Z</time>
      </trkpt>
      <trkpt lat="46.64867" lon="6.07575">
        <ele>993.66</ele>
        <time>2013-05-10T07:55:37Z</time>
      </trkpt>
      <trkpt lat="46.64883" lon="6.07607">
        <ele>992.7</ele>
        <time>2013-05-10T07:55:45Z</time>
      </trkpt>
      <trkpt lat="46.64884" lon="6.07612">
        <ele>992.22</ele>
        <time>2013-05-10T07:55:46Z</time>
      </trkpt>
      <trkpt lat="46.64888" lon="6.07622">
        <ele>992.22</ele>
        <time>2013-05-10T07:55:48Z</time>
      </trkpt>
      <trkpt lat="46.64899" lon="6.07644">
        <ele>991.26</ele>
        <time>2013-05-10T07:55:52Z</time>
      </trkpt>
      <trkpt lat="46.64903" lon="6.07649">
        <ele>991.26</ele>
        <time>2013-05-10T07:55:53Z</time>
      </trkpt>
      <trkpt lat="46.64907" lon="6.07653">
        <ele>991.26</ele>
        <time>2013-05-10T07:55:54Z</time>
      </trkpt>
      <trkpt lat="46.64912" lon="6.07656">
        <ele>990.3</ele>
        <time>2013-05-10T07:55:55Z</time>
      </trkpt>
      <trkpt lat="46.64918" lon="6.07659">
        <ele>989.81</ele>
        <time>2013-05-10T07:55:56Z</time>
      </trkpt>
      <trkpt lat="46.64923" lon="6.07661">
        <ele>989.33</ele>
        <time>2013-05-10T07:55:57Z</time>
      </trkpt>
      <trkpt lat="46.64928" lon="6.07662">
        <ele>988.85</ele>
        <time>2013-05-10T07:55:58Z</time>
      </trkpt>
      <trkpt lat="46.64943" lon="6.07667">
        <ele>987.89</ele>
        <time>2013-05-10T07:56:01Z</time>
      </trkpt>
      <trkpt lat="46.64956" lon="6.07672">
        <ele>987.41</ele>
        <time>2013-05-10T07:56:04Z</time>
      </trkpt>
      <trkpt lat="46.6496" lon="6.07673">
        <ele>987.41</ele>
        <time>2013-05-10T07:56:05Z</time>
      </trkpt>
      <trkpt lat="46.64972" lon="6.07681">
        <ele>985.97</ele>
        <time>2013-05-10T07:56:08Z</time>
      </trkpt>
      <trkpt lat="46.64976" lon="6.07685">
        <ele>985.49</ele>
        <time>2013-05-10T07:56:09Z</time>
      </trkpt>
      <trkpt lat="46.64979" lon="6.07689">
        <ele>985.49</ele>
        <time>2013-05-10T07:56:10Z</time>
      </trkpt>
      <trkpt lat="46.65023" lon="6.07756">
        <ele>982.6</ele>
        <time>2013-05-10T07:56:22Z</time>
      </trkpt>
      <trkpt lat="46.65033" lon="6.07775">
        <ele>981.64</ele>
        <time>2013-05-10T07:56:25Z</time>
      </trkpt>
      <trkpt lat="46.65036" lon="6.07781">
        <ele>981.64</ele>
        <time>2013-05-10T07:56:26Z</time>
      </trkpt>
      <trkpt lat="46.65051" lon="6.07805">
        <ele>981.16</ele>
        <time>2013-05-10T07:56:31Z</time>
      </trkpt>
      <trkpt lat="46.65055" lon="6.07809">
        <ele>980.68</ele>
        <time>2013-05-10T07:56:32Z</time>
      </trkpt>
      <trkpt lat="46.65059" lon="6.07811">
        <ele>980.68</ele>
        <time>2013-05-10T07:56:33Z</time>
      </trkpt>
      <trkpt lat="46.65064" lon="6.07812">
        <ele>980.2</ele>
        <time>2013-05-10T07:56:34Z</time>
      </trkpt>
      <trkpt lat="46.65069" lon="6.07811">
        <ele>979.72</ele>
        <time>2013-05-10T07:56:35Z</time>
      </trkpt>
      <trkpt lat="46.65074" lon="6.07808">
        <ele>979.24</ele>
        <time>2013-05-10T07:56:36Z</time>
      </trkpt>
      <trkpt lat="46.65077" lon="6.07803">
        <ele>978.28</ele>
        <time>2013-05-10T07:56:37Z</time>
      </trkpt>
      <trkpt lat="46.6508" lon="6.07796">
        <ele>977.8</ele>
        <time>2013-05-10T07:56:38Z</time>
      </trkpt>
      <trkpt lat="46.65081" lon="6.07788">
        <ele>977.32</ele>
        <time>2013-05-10T07:56:39Z</time>
      </trkpt>
      <trkpt lat="46.65081" lon="6.0778">
        <ele>976.84</ele>
        <time>2013-05-10T07:56:40Z</time>
      </trkpt>
      <trkpt lat="46.6508" lon="6.07772">
        <ele>976.36</ele>
        <time>2013-05-10T07:56:41Z</time>
      </trkpt>
      <trkpt lat="46.65079" lon="6.07764">
        <ele>975.88</ele>
        <time>2013-05-10T07:56:42Z</time>
      </trkpt>
      <trkpt lat="46.65078" lon="6.07756">
        <ele>975.39</ele>
        <time>2013-05-10T07:56:43Z</time>
      </trkpt>
      <trkpt lat="46.65077" lon="6.07748">
        <ele>975.39</ele>
        <time>2013-05-10T07:56:44Z</time>
      </trkpt>
      <trkpt lat="46.65076" lon="6.07739">
        <ele>974.43</ele>
        <time>2013-05-10T07:56:45Z</time>
      </trkpt>
      <trkpt lat="46.65074" lon="6.07731">
        <ele>973.95</ele>
        <time>2013-05-10T07:56:46Z</time>
      </trkpt>
      <trkpt lat="46.65072" lon="6.07723">
        <ele>973.47</ele>
        <time>2013-05-10T07:56:47Z</time>
      </trkpt>
      <trkpt lat="46.65071" lon="6.07715">
        <ele>973.47</ele>
        <time>2013-05-10T07:56:48Z</time>
      </trkpt>
      <trkpt lat="46.6507" lon="6.07707">
        <ele>972.99</ele>
        <time>2013-05-10T07:56:49Z</time>
      </trkpt>
      <trkpt lat="46.65069" lon="6.07699">
        <ele>972.51</ele>
        <time>2013-05-10T07:56:50Z</time>
      </trkpt>
      <trkpt lat="46.65061" lon="6.07644">
        <ele>969.15</ele>
        <time>2013-05-10T07:56:57Z</time>
      </trkpt>
      <trkpt lat="46.65062" lon="6.07617">
        <ele>967.22</ele>
        <time>2013-05-10T07:57:00Z</time>
      </trkpt>
      <trkpt lat="46.65063" lon="6.07607">
        <ele>966.74</ele>
        <time>2013-05-10T07:57:01Z</time>
      </trkpt>
      <trkpt lat="46.65072" lon="6.07565">
        <ele>963.38</ele>
        <time>2013-05-10T07:57:05Z</time>
      </trkpt>
      <trkpt lat="46.65086" lon="6.07522">
        <ele>960.01</ele>
        <time>2013-05-10T07:57:09Z</time>
      </trkpt>
      <trkpt lat="46.6509" lon="6.0751">
        <ele>959.53</ele>
        <time>2013-05-10T07:57:10Z</time>
      </trkpt>
      <trkpt lat="46.65092" lon="6.07498">
        <ele>958.57</ele>
        <time>2013-05-10T07:57:11Z</time>
      </trkpt>
      <trkpt lat="46.65093" lon="6.07485">
        <ele>958.09</ele>
        <time>2013-05-10T07:57:12Z</time>
      </trkpt>
      <trkpt lat="46.65106" lon="6.07334">
        <ele>954.73</ele>
        <time>2013-05-10T07:57:26Z</time>
      </trkpt>
      <trkpt lat="46.65106" lon="6.07324">
        <ele>954.25</ele>
        <time>2013-05-10T07:57:27Z</time>
      </trkpt>
      <trkpt lat="46.65108" lon="6.07315">
        <ele>953.77</ele>
        <time>2013-05-10T07:57:28Z</time>
      </trkpt>
      <trkpt lat="46.65111" lon="6.07307">
        <ele>953.28</ele>
        <time>2013-05-10T07:57:29Z</time>
      </trkpt>
      <trkpt lat="46.65115" lon="6.073">
        <ele>952.32</ele>
        <time>2013-05-10T07:57:30Z</time>
      </trkpt>
      <trkpt lat="46.65121" lon="6.07295">
        <ele>951.84</ele>
        <time>2013-05-10T07:57:31Z</time>
      </trkpt>
      <trkpt lat="46.65127" lon="6.07293">
        <ele>951.84</ele>
        <time>2013-05-10T07:57:32Z</time>
      </trkpt>
      <trkpt lat="46.65134" lon="6.07295">
        <ele>951.36</ele>
        <time>2013-05-10T07:57:33Z</time>
      </trkpt>
      <trkpt lat="46.6514" lon="6.07298">
        <ele>950.88</ele>
        <time>2013-05-10T07:57:34Z</time>
      </trkpt>
      <trkpt lat="46.65146" lon="6.07304">
        <ele>950.88</ele>
        <time>2013-05-10T07:57:35Z</time>
      </trkpt>
      <trkpt lat="46.65151" lon="6.07311">
        <ele>950.4</ele>
        <time>2013-05-10T07:57:36Z</time>
      </trkpt>
      <trkpt lat="46.65171" lon="6.07338">
        <ele>949.44</ele>
        <time>2013-05-10T07:57:40Z</time>
      </trkpt>
      <trkpt lat="46.65175" lon="6.07345">
        <ele>949.44</ele>
        <time>2013-05-10T07:57:41Z</time>
      </trkpt>
      <trkpt lat="46.65177" lon="6.07353">
        <ele>948.96</ele>
        <time>2013-05-10T07:57:42Z</time>
      </trkpt>
      <trkpt lat="46.65198" lon="6.074">
        <ele>946.07</ele>
        <time>2013-05-10T07:57:48Z</time>
      </trkpt>
      <trkpt lat="46.65242" lon="6.07481">
        <ele>942.71</ele>
        <time>2013-05-10T07:57:59Z</time>
      </trkpt>
      <trkpt lat="46.65285" lon="6.07539">
        <ele>939.83</ele>
        <time>2013-05-10T07:58:08Z</time>
      </trkpt>
      <trkpt lat="46.65328" lon="6.07597">
        <ele>936.46</ele>
        <time>2013-05-10T07:58:16Z</time>
      </trkpt>
      <trkpt lat="46.65364" lon="6.07647">
        <ele>932.62</ele>
        <time>2013-05-10T07:58:22Z</time>
      </trkpt>
      <trkpt lat="46.65395" lon="6.07691">
        <ele>929.25</ele>
        <time>2013-05-10T07:58:27Z</time>
      </trkpt>
      <trkpt lat="46.65438" lon="6.0775">
        <ele>926.37</ele>
        <time>2013-05-10T07:58:34Z</time>
      </trkpt>
      <trkpt lat="46.65471" lon="6.07792">
        <ele>923</ele>
        <time>2013-05-10T07:58:39Z</time>
      </trkpt>
      <trkpt lat="46.65505" lon="6.07834">
        <ele>919.64</ele>
        <time>2013-05-10T07:58:44Z</time>
      </trkpt>
      <trkpt lat="46.65531" lon="6.0787">
        <ele>916.75</ele>
        <time>2013-05-10T07:58:48Z</time>
      </trkpt>
      <trkpt lat="46.65556" lon="6.07906">
        <ele>914.35</ele>
        <time>2013-05-10T07:58:52Z</time>
      </trkpt>
      <trkpt lat="46.65563" lon="6.07914">
        <ele>913.87</ele>
        <time>2013-05-10T07:58:53Z</time>
      </trkpt>
      <trkpt lat="46.65606" lon="6.07945">
        <ele>910.51</ele>
        <time>2013-05-10T07:58:58Z</time>
      </trkpt>
      <trkpt lat="46.65615" lon="6.07947">
        <ele>910.03</ele>
        <time>2013-05-10T07:58:59Z</time>
      </trkpt>
      <trkpt lat="46.65626" lon="6.07947">
        <ele>909.54</ele>
        <time>2013-05-10T07:59:00Z</time>
      </trkpt>
      <trkpt lat="46.65636" lon="6.07944">
        <ele>908.58</ele>
        <time>2013-05-10T07:59:01Z</time>
      </trkpt>
      <trkpt lat="46.65645" lon="6.07937">
        <ele>906.66</ele>
        <time>2013-05-10T07:59:02Z</time>
      </trkpt>
      <trkpt lat="46.65655" lon="6.07928">
        <ele>905.22</ele>
        <time>2013-05-10T07:59:03Z</time>
      </trkpt>
      <trkpt lat="46.65665" lon="6.0792">
        <ele>904.26</ele>
        <time>2013-05-10T07:59:04Z</time>
      </trkpt>
      <trkpt lat="46.65698" lon="6.07909">
        <ele>904.26</ele>
        <time>2013-05-10T07:59:08Z</time>
      </trkpt>
      <trkpt lat="46.6573" lon="6.07915">
        <ele>900.41</ele>
        <time>2013-05-10T07:59:10Z</time>
      </trkpt>
      <trkpt lat="46.65757" lon="6.07919">
        <ele>897.53</ele>
        <time>2013-05-10T07:59:13Z</time>
      </trkpt>
      <trkpt lat="46.65765" lon="6.07916">
        <ele>897.05</ele>
        <time>2013-05-10T07:59:14Z</time>
      </trkpt>
      <trkpt lat="46.65772" lon="6.07909">
        <ele>896.09</ele>
        <time>2013-05-10T07:59:15Z</time>
      </trkpt>
      <trkpt lat="46.65777" lon="6.079">
        <ele>895.61</ele>
        <time>2013-05-10T07:59:16Z</time>
      </trkpt>
      <trkpt lat="46.65781" lon="6.0789">
        <ele>895.12</ele>
        <time>2013-05-10T07:59:17Z</time>
      </trkpt>
      <trkpt lat="46.65783" lon="6.07879">
        <ele>894.64</ele>
        <time>2013-05-10T07:59:18Z</time>
      </trkpt>
      <trkpt lat="46.65784" lon="6.07868">
        <ele>894.16</ele>
        <time>2013-05-10T07:59:19Z</time>
      </trkpt>
      <trkpt lat="46.65782" lon="6.07795">
        <ele>890.32</ele>
        <time>2013-05-10T07:59:25Z</time>
      </trkpt>
      <trkpt lat="46.65775" lon="6.07738">
        <ele>887.43</ele>
        <time>2013-05-10T07:59:30Z</time>
      </trkpt>
      <trkpt lat="46.6577" lon="6.07713">
        <ele>885.99</ele>
        <time>2013-05-10T07:59:34Z</time>
      </trkpt>
      <trkpt lat="46.6577" lon="6.0771">
        <ele>885.99</ele>
        <time>2013-05-10T07:59:35Z</time>
      </trkpt>
      <trkpt lat="46.65771" lon="6.07709">
        <ele>885.51</ele>
        <time>2013-05-10T07:59:36Z</time>
      </trkpt>
      <trkpt lat="46.65773" lon="6.0771">
        <ele>885.51</ele>
        <time>2013-05-10T07:59:37Z</time>
      </trkpt>
      <trkpt lat="46.65774" lon="6.07712">
        <ele>885.51</ele>
        <time>2013-05-10T07:59:38Z</time>
      </trkpt>
      <trkpt lat="46.65775" lon="6.07716">
        <ele>885.51</ele>
        <time>2013-05-10T07:59:39Z</time>
      </trkpt>
      <trkpt lat="46.65778" lon="6.07721">
        <ele>885.03</ele>
        <time>2013-05-10T07:59:40Z</time>
      </trkpt>
      <trkpt lat="46.65781" lon="6.07725">
        <ele>884.07</ele>
        <time>2013-05-10T07:59:41Z</time>
      </trkpt>
      <trkpt lat="46.65786" lon="6.07728">
        <ele>883.59</ele>
        <time>2013-05-10T07:59:42Z</time>
      </trkpt>
      <trkpt lat="46.65791" lon="6.07727">
        <ele>883.11</ele>
        <time>2013-05-10T07:59:43Z</time>
      </trkpt>
      <trkpt lat="46.65796" lon="6.07723">
        <ele>882.15</ele>
        <time>2013-05-10T07:59:44Z</time>
      </trkpt>
      <trkpt lat="46.65801" lon="6.07718">
        <ele>881.67</ele>
        <time>2013-05-10T07:59:45Z</time>
      </trkpt>
      <trkpt lat="46.65814" lon="6.07701">
        <ele>880.22</ele>
        <time>2013-05-10T07:59:48Z</time>
      </trkpt>
      <trkpt lat="46.65817" lon="6.07695">
        <ele>879.74</ele>
        <time>2013-05-10T07:59:49Z</time>
      </trkpt>
      <trkpt lat="46.65818" lon="6.0769">
        <ele>879.26</ele>
        <time>2013-05-10T07:59:50Z</time>
      </trkpt>
      <trkpt lat="46.6582" lon="6.07686">
        <ele>879.26</ele>
        <time>2013-05-10T07:59:51Z</time>
      </trkpt>
      <trkpt lat="46.65822" lon="6.07684">
        <ele>878.78</ele>
        <time>2013-05-10T07:59:52Z</time>
      </trkpt>
      <trkpt lat="46.65825" lon="6.07681">
        <ele>878.3</ele>
        <time>2013-05-10T07:59:53Z</time>
      </trkpt>
      <trkpt lat="46.65828" lon="6.0768">
        <ele>877.34</ele>
        <time>2013-05-10T07:59:54Z</time>
      </trkpt>
      <trkpt lat="46.65832" lon="6.0768">
        <ele>876.86</ele>
        <time>2013-05-10T07:59:55Z</time>
      </trkpt>
      <trkpt lat="46.65845" lon="6.07678">
        <ele>873.5</ele>
        <time>2013-05-10T07:59:59Z</time>
      </trkpt>
      <trkpt lat="46.65849" lon="6.07676">
        <ele>872.53</ele>
        <time>2013-05-10T08:00:00Z</time>
      </trkpt>
      <trkpt lat="46.65852" lon="6.07672">
        <ele>871.57</ele>
        <time>2013-05-10T08:00:01Z</time>
      </trkpt>
      <trkpt lat="46.65855" lon="6.07668">
        <ele>870.61</ele>
        <time>2013-05-10T08:00:02Z</time>
      </trkpt>
      <trkpt lat="46.65861" lon="6.07661">
        <ele>869.65</ele>
        <time>2013-05-10T08:00:04Z</time>
      </trkpt>
      <trkpt lat="46.65865" lon="6.07653">
        <ele>869.17</ele>
        <time>2013-05-10T08:00:06Z</time>
      </trkpt>
      <trkpt lat="46.65866" lon="6.07647">
        <ele>868.69</ele>
        <time>2013-05-10T08:00:07Z</time>
      </trkpt>
      <trkpt lat="46.65868" lon="6.07624">
        <ele>868.21</ele>
        <time>2013-05-10T08:00:11Z</time>
      </trkpt>
      <trkpt lat="46.65875" lon="6.07608">
        <ele>867.73</ele>
        <time>2013-05-10T08:00:14Z</time>
      </trkpt>
      <trkpt lat="46.65877" lon="6.07602">
        <ele>867.73</ele>
        <time>2013-05-10T08:00:15Z</time>
      </trkpt>
      <trkpt lat="46.65879" lon="6.07596">
        <ele>867.25</ele>
        <time>2013-05-10T08:00:16Z</time>
      </trkpt>
      <trkpt lat="46.65912" lon="6.07549">
        <ele>866.77</ele>
        <time>2013-05-10T08:00:28Z</time>
      </trkpt>
      <trkpt lat="46.65948" lon="6.07549">
        <ele>866.29</ele>
        <time>2013-05-10T08:00:40Z</time>
      </trkpt>
      <trkpt lat="46.65979" lon="6.07548">
        <ele>866.29</ele>
        <time>2013-05-10T08:00:52Z</time>
      </trkpt>
      <trkpt lat="46.6598" lon="6.07546">
        <ele>866.29</ele>
        <time>2013-05-10T08:00:53Z</time>
      </trkpt>
      <trkpt lat="46.65981" lon="6.07543">
        <ele>866.29</ele>
        <time>2013-05-10T08:00:54Z</time>
      </trkpt>
      <trkpt lat="46.65982" lon="6.07539">
        <ele>866.29</ele>
        <time>2013-05-10T08:00:55Z</time>
      </trkpt>
      <trkpt lat="46.65983" lon="6.07535">
        <ele>866.77</ele>
        <time>2013-05-10T08:00:56Z</time>
      </trkpt>
      <trkpt lat="46.65983" lon="6.07531">
        <ele>866.77</ele>
        <time>2013-05-10T08:00:57Z</time>
      </trkpt>
      <trkpt lat="46.65982" lon="6.07527">
        <ele>866.77</ele>
        <time>2013-05-10T08:00:58Z</time>
      </trkpt>
      <trkpt lat="46.65982" lon="6.07523">
        <ele>866.77</ele>
        <time>2013-05-10T08:00:59Z</time>
      </trkpt>
      <trkpt lat="46.65983" lon="6.07519">
        <ele>866.77</ele>
        <time>2013-05-10T08:01:00Z</time>
      </trkpt>
      <trkpt lat="46.65982" lon="6.07515">
        <ele>866.77</ele>
        <time>2013-05-10T08:01:01Z</time>
      </trkpt>
      <trkpt lat="46.6598" lon="6.07462">
        <ele>866.77</ele>
        <time>2013-05-10T08:01:13Z</time>
      </trkpt>
      <trkpt lat="46.6597" lon="6.07416">
        <ele>866.77</ele>
        <time>2013-05-10T08:01:26Z</time>
      </trkpt>
      <trkpt lat="46.65948" lon="6.0737">
        <ele>866.77</ele>
        <time>2013-05-10T08:01:40Z</time>
      </trkpt>
      <trkpt lat="46.65945" lon="6.07364">
        <ele>866.77</ele>
        <time>2013-05-10T08:01:42Z</time>
      </trkpt>
      <trkpt lat="46.65943" lon="6.07361">
        <ele>866.77</ele>
        <time>2013-05-10T08:01:43Z</time>
      </trkpt>
      <trkpt lat="46.65941" lon="6.07358">
        <ele>866.77</ele>
        <time>2013-05-10T08:01:44Z</time>
      </trkpt>
      <trkpt lat="46.6594" lon="6.07355">
        <ele>867.25</ele>
        <time>2013-05-10T08:01:45Z</time>
      </trkpt>
      <trkpt lat="46.65938" lon="6.07352">
        <ele>866.77</ele>
        <time>2013-05-10T08:01:46Z</time>
      </trkpt>
      <trkpt lat="46.65936" lon="6.07349">
        <ele>866.77</ele>
        <time>2013-05-10T08:01:47Z</time>
      </trkpt>
      <trkpt lat="46.65935" lon="6.07346">
        <ele>866.77</ele>
        <time>2013-05-10T08:01:48Z</time>
      </trkpt>
      <trkpt lat="46.65921" lon="6.07319">
        <ele>866.77</ele>
        <time>2013-05-10T08:01:56Z</time>
      </trkpt>
      <trkpt lat="46.65919" lon="6.07316">
        <ele>866.77</ele>
        <time>2013-05-10T08:01:57Z</time>
      </trkpt>
      <trkpt lat="46.65905" lon="6.07293">
        <ele>866.29</ele>
        <time>2013-05-10T08:02:05Z</time>
      </trkpt>
      <trkpt lat="46.65904" lon="6.07294">
        <ele>866.29</ele>
        <time>2013-05-10T08:02:06Z</time>
      </trkpt>
      <trkpt lat="46.65904" lon="6.07299">
        <ele>866.77</ele>
        <time>2013-05-10T08:02:15Z</time>
      </trkpt>
      <trkpt lat="46.65904" lon="6.07299">
        <ele>866.29</ele>
        <time>2013-05-10T08:02:37Z</time>
      </trkpt>
      <trkpt lat="46.65904" lon="6.07298">
        <ele>866.77</ele>
        <time>2013-05-10T08:03:03Z</time>
      </trkpt>
      <trkpt lat="46.65903" lon="6.07296">
        <ele>866.77</ele>
        <time>2013-05-10T08:03:21Z</time>
      </trkpt>
      <trkpt lat="46.65903" lon="6.07296">
        <ele>866.29</ele>
        <time>2013-05-10T08:03:53Z</time>
      </trkpt>
      <trkpt lat="46.65903" lon="6.07296">
        <ele>866.77</ele>
        <time>2013-05-10T08:04:15Z</time>
      </trkpt>
      <trkpt lat="46.65902" lon="6.07297">
        <ele>866.77</ele>
        <time>2013-05-10T08:04:43Z</time>
      </trkpt>
      <trkpt lat="46.65903" lon="6.07296">
        <ele>866.77</ele>
        <time>2013-05-10T08:05:12Z</time>
      </trkpt>
      <trkpt lat="46.65903" lon="6.07296">
        <ele>866.77</ele>
        <time>2013-05-10T08:05:32Z</time>
      </trkpt>
      <trkpt lat="46.65902" lon="6.07296">
        <ele>866.77</ele>
        <time>2013-05-10T08:05:56Z</time>
      </trkpt>
      <trkpt lat="46.65902" lon="6.07296">
        <ele>866.77</ele>
        <time>2013-05-10T08:06:20Z</time>
      </trkpt>
      <trkpt lat="46.65902" lon="6.07296">
        <ele>866.77</ele>
        <time>2013-05-10T08:06:42Z</time>
      </trkpt>
      <trkpt lat="46.65904" lon="6.07297">
        <ele>866.77</ele>
        <time>2013-05-10T08:06:59Z</time>
      </trkpt>
      <trkpt lat="46.65905" lon="6.07299">
        <ele>866.77</ele>
        <time>2013-05-10T08:07:00Z</time>
      </trkpt>
      <trkpt lat="46.65907" lon="6.07301">
        <ele>866.77</ele>
        <time>2013-05-10T08:07:01Z</time>
      </trkpt>
      <trkpt lat="46.65908" lon="6.07304">
        <ele>866.77</ele>
        <time>2013-05-10T08:07:02Z</time>
      </trkpt>
      <trkpt lat="46.6591" lon="6.07306">
        <ele>866.77</ele>
        <time>2013-05-10T08:07:03Z</time>
      </trkpt>
      <trkpt lat="46.65911" lon="6.07309">
        <ele>866.77</ele>
        <time>2013-05-10T08:07:04Z</time>
      </trkpt>
      <trkpt lat="46.65912" lon="6.07311">
        <ele>866.77</ele>
        <time>2013-05-10T08:07:05Z</time>
      </trkpt>
      <trkpt lat="46.65913" lon="6.07314">
        <ele>866.77</ele>
        <time>2013-05-10T08:07:06Z</time>
      </trkpt>
      <trkpt lat="46.65915" lon="6.07317">
        <ele>866.77</ele>
        <time>2013-05-10T08:07:07Z</time>
      </trkpt>
      <trkpt lat="46.65916" lon="6.0732">
        <ele>866.77</ele>
        <time>2013-05-10T08:07:08Z</time>
      </trkpt>
      <trkpt lat="46.65917" lon="6.07323">
        <ele>867.25</ele>
        <time>2013-05-10T08:07:09Z</time>
      </trkpt>
      <trkpt lat="46.65918" lon="6.07325">
        <ele>866.77</ele>
        <time>2013-05-10T08:07:10Z</time>
      </trkpt>
      <trkpt lat="46.6592" lon="6.07328">
        <ele>867.25</ele>
        <time>2013-05-10T08:07:11Z</time>
      </trkpt>
      <trkpt lat="46.65922" lon="6.07332">
        <ele>868.69</ele>
        <time>2013-05-10T08:07:12Z</time>
      </trkpt>
      <trkpt lat="46.65953" lon="6.07388">
        <ele>867.25</ele>
        <time>2013-05-10T08:07:29Z</time>
      </trkpt>
      <trkpt lat="46.65972" lon="6.07442">
        <ele>867.25</ele>
        <time>2013-05-10T08:07:43Z</time>
      </trkpt>
      <trkpt lat="46.6598" lon="6.07493">
        <ele>866.77</ele>
        <time>2013-05-10T08:07:55Z</time>
      </trkpt>
      <trkpt lat="46.65985" lon="6.07546">
        <ele>867.25</ele>
        <time>2013-05-10T08:08:08Z</time>
      </trkpt>
      <trkpt lat="46.6601" lon="6.0757">
        <ele>867.25</ele>
        <time>2013-05-10T08:08:18Z</time>
      </trkpt>
      <trkpt lat="46.66039" lon="6.07594">
        <ele>869.17</ele>
        <time>2013-05-10T08:08:31Z</time>
      </trkpt>
      <trkpt lat="46.66071" lon="6.07624">
        <ele>870.61</ele>
        <time>2013-05-10T08:08:47Z</time>
      </trkpt>
      <trkpt lat="46.66097" lon="6.07647">
        <ele>872.05</ele>
        <time>2013-05-10T08:09:00Z</time>
      </trkpt>
      <trkpt lat="46.66121" lon="6.07671">
        <ele>875.9</ele>
        <time>2013-05-10T08:09:13Z</time>
      </trkpt>
      <trkpt lat="46.66142" lon="6.07701">
        <ele>876.86</ele>
        <time>2013-05-10T08:09:25Z</time>
      </trkpt>
      <trkpt lat="46.66162" lon="6.07736">
        <ele>878.78</ele>
        <time>2013-05-10T08:09:39Z</time>
      </trkpt>
      <trkpt lat="46.66176" lon="6.07785">
        <ele>881.19</ele>
        <time>2013-05-10T08:09:54Z</time>
      </trkpt>
      <trkpt lat="46.66194" lon="6.0784">
        <ele>882.63</ele>
        <time>2013-05-10T08:10:10Z</time>
      </trkpt>
      <trkpt lat="46.66209" lon="6.07883">
        <ele>883.59</ele>
        <time>2013-05-10T08:10:23Z</time>
      </trkpt>
      <trkpt lat="46.6622" lon="6.07934">
        <ele>884.07</ele>
        <time>2013-05-10T08:10:36Z</time>
      </trkpt>
      <trkpt lat="46.66233" lon="6.07996">
        <ele>885.03</ele>
        <time>2013-05-10T08:10:51Z</time>
      </trkpt>
      <trkpt lat="46.66246" lon="6.08061">
        <ele>885.51</ele>
        <time>2013-05-10T08:11:06Z</time>
      </trkpt>
      <trkpt lat="46.66263" lon="6.08127">
        <ele>886.95</ele>
        <time>2013-05-10T08:11:22Z</time>
      </trkpt>
      <trkpt lat="46.66271" lon="6.08158">
        <ele>887.91</ele>
        <time>2013-05-10T08:11:30Z</time>
      </trkpt>
      <trkpt lat="46.66292" lon="6.0818">
        <ele>890.8</ele>
        <time>2013-05-10T08:11:43Z</time>
      </trkpt>
      <trkpt lat="46.66307" lon="6.08194">
        <ele>894.16</ele>
        <time>2013-05-10T08:11:54Z</time>
      </trkpt>
      <trkpt lat="46.66313" lon="6.082">
        <ele>895.12</ele>
        <time>2013-05-10T08:11:59Z</time>
      </trkpt>
      <trkpt lat="46.66314" lon="6.08202">
        <ele>895.61</ele>
        <time>2013-05-10T08:12:00Z</time>
      </trkpt>
      <trkpt lat="46.66315" lon="6.08204">
        <ele>895.61</ele>
        <time>2013-05-10T08:12:01Z</time>
      </trkpt>
      <trkpt lat="46.66316" lon="6.08206">
        <ele>895.61</ele>
        <time>2013-05-10T08:12:02Z</time>
      </trkpt>
      <trkpt lat="46.66316" lon="6.08209">
        <ele>895.61</ele>
        <time>2013-05-10T08:12:03Z</time>
      </trkpt>
      <trkpt lat="46.66317" lon="6.08211">
        <ele>895.61</ele>
        <time>2013-05-10T08:12:04Z</time>
      </trkpt>
      <trkpt lat="46.66318" lon="6.08214">
        <ele>895.61</ele>
        <time>2013-05-10T08:12:05Z</time>
      </trkpt>
      <trkpt lat="46.66318" lon="6.08216">
        <ele>895.61</ele>
        <time>2013-05-10T08:12:06Z</time>
      </trkpt>
      <trkpt lat="46.66319" lon="6.08218">
        <ele>895.61</ele>
        <time>2013-05-10T08:12:07Z</time>
      </trkpt>
      <trkpt lat="46.66323" lon="6.08258">
        <ele>897.05</ele>
        <time>2013-05-10T08:12:22Z</time>
      </trkpt>
      <trkpt lat="46.66327" lon="6.08303">
        <ele>898.01</ele>
        <time>2013-05-10T08:12:39Z</time>
      </trkpt>
      <trkpt lat="46.66336" lon="6.0834">
        <ele>899.45</ele>
        <time>2013-05-10T08:12:54Z</time>
      </trkpt>
      <trkpt lat="46.66355" lon="6.08376">
        <ele>900.89</ele>
        <time>2013-05-10T08:13:10Z</time>
      </trkpt>
      <trkpt lat="46.66381" lon="6.08398">
        <ele>901.85</ele>
        <time>2013-05-10T08:13:24Z</time>
      </trkpt>
      <trkpt lat="46.66401" lon="6.08409">
        <ele>902.82</ele>
        <time>2013-05-10T08:13:36Z</time>
      </trkpt>
      <trkpt lat="46.66423" lon="6.08417">
        <ele>903.3</ele>
        <time>2013-05-10T08:13:47Z</time>
      </trkpt>
      <trkpt lat="46.66446" lon="6.08431">
        <ele>904.26</ele>
        <time>2013-05-10T08:13:59Z</time>
      </trkpt>
      <trkpt lat="46.66459" lon="6.08447">
        <ele>905.22</ele>
        <time>2013-05-10T08:14:07Z</time>
      </trkpt>
      <trkpt lat="46.6646" lon="6.08449">
        <ele>905.22</ele>
        <time>2013-05-10T08:14:08Z</time>
      </trkpt>
      <trkpt lat="46.66462" lon="6.0845">
        <ele>905.22</ele>
        <time>2013-05-10T08:14:09Z</time>
      </trkpt>
      <trkpt lat="46.66464" lon="6.08452">
        <ele>905.7</ele>
        <time>2013-05-10T08:14:10Z</time>
      </trkpt>
      <trkpt lat="46.66466" lon="6.08454">
        <ele>905.7</ele>
        <time>2013-05-10T08:14:11Z</time>
      </trkpt>
      <trkpt lat="46.66467" lon="6.08456">
        <ele>905.7</ele>
        <time>2013-05-10T08:14:12Z</time>
      </trkpt>
      <trkpt lat="46.66469" lon="6.08459">
        <ele>905.7</ele>
        <time>2013-05-10T08:14:13Z</time>
      </trkpt>
      <trkpt lat="46.66471" lon="6.08462">
        <ele>905.7</ele>
        <time>2013-05-10T08:14:14Z</time>
      </trkpt>
      <trkpt lat="46.66472" lon="6.08465">
        <ele>906.18</ele>
        <time>2013-05-10T08:14:15Z</time>
      </trkpt>
      <trkpt lat="46.66474" lon="6.08467">
        <ele>906.18</ele>
        <time>2013-05-10T08:14:16Z</time>
      </trkpt>
      <trkpt lat="46.66475" lon="6.08469">
        <ele>906.18</ele>
        <time>2013-05-10T08:14:17Z</time>
      </trkpt>
      <trkpt lat="46.66477" lon="6.08472">
        <ele>906.18</ele>
        <time>2013-05-10T08:14:18Z</time>
      </trkpt>
      <trkpt lat="46.66479" lon="6.08474">
        <ele>906.18</ele>
        <time>2013-05-10T08:14:19Z</time>
      </trkpt>
      <trkpt lat="46.66502" lon="6.08504">
        <ele>907.62</ele>
        <time>2013-05-10T08:14:32Z</time>
      </trkpt>
      <trkpt lat="46.66531" lon="6.08534">
        <ele>909.06</ele>
        <time>2013-05-10T08:14:47Z</time>
      </trkpt>
      <trkpt lat="46.66536" lon="6.08539">
        <ele>909.06</ele>
        <time>2013-05-10T08:14:50Z</time>
      </trkpt>
      <trkpt lat="46.66537" lon="6.0854">
        <ele>909.06</ele>
        <time>2013-05-10T08:14:51Z</time>
      </trkpt>
      <trkpt lat="46.66539" lon="6.08542">
        <ele>909.06</ele>
        <time>2013-05-10T08:14:52Z</time>
      </trkpt>
      <trkpt lat="46.66541" lon="6.08543">
        <ele>909.06</ele>
        <time>2013-05-10T08:14:53Z</time>
      </trkpt>
      <trkpt lat="46.66543" lon="6.08544">
        <ele>909.06</ele>
        <time>2013-05-10T08:14:54Z</time>
      </trkpt>
      <trkpt lat="46.66545" lon="6.08544">
        <ele>909.06</ele>
        <time>2013-05-10T08:14:55Z</time>
      </trkpt>
      <trkpt lat="46.66547" lon="6.08545">
        <ele>909.06</ele>
        <time>2013-05-10T08:14:56Z</time>
      </trkpt>
      <trkpt lat="46.66549" lon="6.08546">
        <ele>909.54</ele>
        <time>2013-05-10T08:14:57Z</time>
      </trkpt>
      <trkpt lat="46.66551" lon="6.08547">
        <ele>909.54</ele>
        <time>2013-05-10T08:14:58Z</time>
      </trkpt>
      <trkpt lat="46.66552" lon="6.08548">
        <ele>909.54</ele>
        <time>2013-05-10T08:14:59Z</time>
      </trkpt>
      <trkpt lat="46.66553" lon="6.08549">
        <ele>910.03</ele>
        <time>2013-05-10T08:15:00Z</time>
      </trkpt>
      <trkpt lat="46.66553" lon="6.08552">
        <ele>909.54</ele>
        <time>2013-05-10T08:15:01Z</time>
      </trkpt>
      <trkpt lat="46.66554" lon="6.08554">
        <ele>910.03</ele>
        <time>2013-05-10T08:15:02Z</time>
      </trkpt>
      <trkpt lat="46.66555" lon="6.08555">
        <ele>910.03</ele>
        <time>2013-05-10T08:15:03Z</time>
      </trkpt>
      <trkpt lat="46.66556" lon="6.08557">
        <ele>910.03</ele>
        <time>2013-05-10T08:15:04Z</time>
      </trkpt>
      <trkpt lat="46.66557" lon="6.08558">
        <ele>910.03</ele>
        <time>2013-05-10T08:15:05Z</time>
      </trkpt>
      <trkpt lat="46.66561" lon="6.08565">
        <ele>910.51</ele>
        <time>2013-05-10T08:15:11Z</time>
      </trkpt>
      <trkpt lat="46.66573" lon="6.0858">
        <ele>910.99</ele>
        <time>2013-05-10T08:15:19Z</time>
      </trkpt>
      <trkpt lat="46.66575" lon="6.08583">
        <ele>911.47</ele>
        <time>2013-05-10T08:15:20Z</time>
      </trkpt>
      <trkpt lat="46.66577" lon="6.08586">
        <ele>911.47</ele>
        <time>2013-05-10T08:15:21Z</time>
      </trkpt>
      <trkpt lat="46.66578" lon="6.08589">
        <ele>911.47</ele>
        <time>2013-05-10T08:15:22Z</time>
      </trkpt>
      <trkpt lat="46.66579" lon="6.08593">
        <ele>911.47</ele>
        <time>2013-05-10T08:15:23Z</time>
      </trkpt>
      <trkpt lat="46.6658" lon="6.08597">
        <ele>911.95</ele>
        <time>2013-05-10T08:15:24Z</time>
      </trkpt>
      <trkpt lat="46.66594" lon="6.08629">
        <ele>912.43</ele>
        <time>2013-05-10T08:15:36Z</time>
      </trkpt>
      <trkpt lat="46.66597" lon="6.08635">
        <ele>912.91</ele>
        <time>2013-05-10T08:15:39Z</time>
      </trkpt>
      <trkpt lat="46.66598" lon="6.08637">
        <ele>912.91</ele>
        <time>2013-05-10T08:15:40Z</time>
      </trkpt>
      <trkpt lat="46.66599" lon="6.0864">
        <ele>912.91</ele>
        <time>2013-05-10T08:15:41Z</time>
      </trkpt>
      <trkpt lat="46.666" lon="6.08643">
        <ele>912.91</ele>
        <time>2013-05-10T08:15:42Z</time>
      </trkpt>
      <trkpt lat="46.666" lon="6.08645">
        <ele>912.91</ele>
        <time>2013-05-10T08:15:43Z</time>
      </trkpt>
      <trkpt lat="46.66602" lon="6.08654">
        <ele>913.39</ele>
        <time>2013-05-10T08:15:47Z</time>
      </trkpt>
      <trkpt lat="46.66603" lon="6.08657">
        <ele>913.39</ele>
        <time>2013-05-10T08:15:48Z</time>
      </trkpt>
      <trkpt lat="46.66603" lon="6.08659">
        <ele>913.39</ele>
        <time>2013-05-10T08:15:49Z</time>
      </trkpt>
      <trkpt lat="46.66605" lon="6.08662">
        <ele>913.39</ele>
        <time>2013-05-10T08:15:50Z</time>
      </trkpt>
      <trkpt lat="46.66606" lon="6.08664">
        <ele>913.39</ele>
        <time>2013-05-10T08:15:51Z</time>
      </trkpt>
      <trkpt lat="46.66607" lon="6.08667">
        <ele>913.87</ele>
        <time>2013-05-10T08:15:52Z</time>
      </trkpt>
      <trkpt lat="46.66607" lon="6.0867">
        <ele>913.87</ele>
        <time>2013-05-10T08:15:53Z</time>
      </trkpt>
      <trkpt lat="46.66608" lon="6.08672">
        <ele>913.87</ele>
        <time>2013-05-10T08:15:54Z</time>
      </trkpt>
      <trkpt lat="46.66608" lon="6.08674">
        <ele>913.87</ele>
        <time>2013-05-10T08:15:55Z</time>
      </trkpt>
      <trkpt lat="46.66608" lon="6.08676">
        <ele>913.87</ele>
        <time>2013-05-10T08:15:56Z</time>
      </trkpt>
      <trkpt lat="46.66609" lon="6.08679">
        <ele>913.87</ele>
        <time>2013-05-10T08:15:57Z</time>
      </trkpt>
      <trkpt lat="46.6661" lon="6.08682">
        <ele>914.35</ele>
        <time>2013-05-10T08:15:58Z</time>
      </trkpt>
      <trkpt lat="46.6661" lon="6.08685">
        <ele>914.35</ele>
        <time>2013-05-10T08:15:59Z</time>
      </trkpt>
      <trkpt lat="46.6661" lon="6.08687">
        <ele>914.35</ele>
        <time>2013-05-10T08:16:00Z</time>
      </trkpt>
      <trkpt lat="46.6661" lon="6.0869">
        <ele>914.35</ele>
        <time>2013-05-10T08:16:01Z</time>
      </trkpt>
      <trkpt lat="46.66611" lon="6.08693">
        <ele>914.35</ele>
        <time>2013-05-10T08:16:02Z</time>
      </trkpt>
      <trkpt lat="46.66611" lon="6.08695">
        <ele>914.35</ele>
        <time>2013-05-10T08:16:03Z</time>
      </trkpt>
      <trkpt lat="46.66612" lon="6.08698">
        <ele>914.35</ele>
        <time>2013-05-10T08:16:04Z</time>
      </trkpt>
      <trkpt lat="46.66622" lon="6.0873">
        <ele>915.31</ele>
        <time>2013-05-10T08:16:17Z</time>
      </trkpt>
      <trkpt lat="46.6664" lon="6.08761">
        <ele>916.75</ele>
        <time>2013-05-10T08:16:32Z</time>
      </trkpt>
      <trkpt lat="46.6666" lon="6.08782">
        <ele>917.24</ele>
        <time>2013-05-10T08:16:46Z</time>
      </trkpt>
      <trkpt lat="46.66672" lon="6.0879">
        <ele>918.2</ele>
        <time>2013-05-10T08:16:55Z</time>
      </trkpt>
      <trkpt lat="46.66672" lon="6.08789">
        <ele>918.2</ele>
        <time>2013-05-10T08:16:56Z</time>
      </trkpt>
      <trkpt lat="46.66671" lon="6.08788">
        <ele>918.2</ele>
        <time>2013-05-10T08:17:06Z</time>
      </trkpt>
      <trkpt lat="46.66672" lon="6.08787">
        <ele>909.54</ele>
        <time>2013-05-10T08:17:20Z</time>
      </trkpt>
      <trkpt lat="46.66672" lon="6.08787">
        <ele>924.45</ele>
        <time>2013-05-10T08:17:21Z</time>
      </trkpt>
      <trkpt lat="46.66672" lon="6.08787">
        <ele>917.24</ele>
        <time>2013-05-10T08:17:22Z</time>
      </trkpt>
      <trkpt lat="46.66671" lon="6.08787">
        <ele>918.2</ele>
        <time>2013-05-10T08:17:48Z</time>
      </trkpt>
      <trkpt lat="46.66669" lon="6.08786">
        <ele>918.2</ele>
        <time>2013-05-10T08:18:05Z</time>
      </trkpt>
      <trkpt lat="46.66668" lon="6.08785">
        <ele>918.2</ele>
        <time>2013-05-10T08:18:06Z</time>
      </trkpt>
      <trkpt lat="46.66667" lon="6.08784">
        <ele>918.2</ele>
        <time>2013-05-10T08:18:07Z</time>
      </trkpt>
      <trkpt lat="46.66653" lon="6.08756">
        <ele>919.16</ele>
        <time>2013-05-10T08:18:22Z</time>
      </trkpt>
      <trkpt lat="46.66641" lon="6.0873">
        <ele>921.56</ele>
        <time>2013-05-10T08:18:36Z</time>
      </trkpt>
      <trkpt lat="46.6664" lon="6.08728">
        <ele>921.56</ele>
        <time>2013-05-10T08:18:37Z</time>
      </trkpt>
      <trkpt lat="46.66639" lon="6.08725">
        <ele>922.04</ele>
        <time>2013-05-10T08:18:38Z</time>
      </trkpt>
      <trkpt lat="46.66638" lon="6.08723">
        <ele>922.04</ele>
        <time>2013-05-10T08:18:39Z</time>
      </trkpt>
      <trkpt lat="46.66638" lon="6.08721">
        <ele>922.04</ele>
        <time>2013-05-10T08:18:40Z</time>
      </trkpt>
      <trkpt lat="46.66637" lon="6.08719">
        <ele>922.04</ele>
        <time>2013-05-10T08:18:41Z</time>
      </trkpt>
      <trkpt lat="46.66636" lon="6.08718">
        <ele>922.04</ele>
        <time>2013-05-10T08:18:42Z</time>
      </trkpt>
      <trkpt lat="46.66635" lon="6.08715">
        <ele>922.52</ele>
        <time>2013-05-10T08:18:43Z</time>
      </trkpt>
      <trkpt lat="46.66634" lon="6.08713">
        <ele>922.04</ele>
        <time>2013-05-10T08:18:44Z</time>
      </trkpt>
      <trkpt lat="46.66634" lon="6.0871">
        <ele>922.52</ele>
        <time>2013-05-10T08:18:45Z</time>
      </trkpt>
      <trkpt lat="46.66633" lon="6.08708">
        <ele>922.52</ele>
        <time>2013-05-10T08:18:46Z</time>
      </trkpt>
      <trkpt lat="46.66624" lon="6.08655">
        <ele>921.08</ele>
        <time>2013-05-10T08:19:01Z</time>
      </trkpt>
      <trkpt lat="46.66623" lon="6.08649">
        <ele>920.12</ele>
        <time>2013-05-10T08:19:02Z</time>
      </trkpt>
      <trkpt lat="46.66621" lon="6.08637">
        <ele>919.64</ele>
        <time>2013-05-10T08:19:04Z</time>
      </trkpt>
      <trkpt lat="46.66607" lon="6.08594">
        <ele>922.04</ele>
        <time>2013-05-10T08:19:15Z</time>
      </trkpt>
      <trkpt lat="46.66599" lon="6.08551">
        <ele>923.96</ele>
        <time>2013-05-10T08:19:31Z</time>
      </trkpt>
      <trkpt lat="46.66593" lon="6.08519">
        <ele>924.93</ele>
        <time>2013-05-10T08:19:44Z</time>
      </trkpt>
      <trkpt lat="46.6659" lon="6.08508">
        <ele>924.45</ele>
        <time>2013-05-10T08:19:48Z</time>
      </trkpt>
      <trkpt lat="46.66587" lon="6.08505">
        <ele>923.48</ele>
        <time>2013-05-10T08:19:49Z</time>
      </trkpt>
      <trkpt lat="46.66583" lon="6.08504">
        <ele>923</ele>
        <time>2013-05-10T08:19:50Z</time>
      </trkpt>
      <trkpt lat="46.66579" lon="6.08504">
        <ele>922.52</ele>
        <time>2013-05-10T08:19:51Z</time>
      </trkpt>
      <trkpt lat="46.66576" lon="6.08505">
        <ele>922.04</ele>
        <time>2013-05-10T08:19:52Z</time>
      </trkpt>
      <trkpt lat="46.66572" lon="6.08505">
        <ele>921.56</ele>
        <time>2013-05-10T08:19:53Z</time>
      </trkpt>
      <trkpt lat="46.66567" lon="6.08507">
        <ele>921.08</ele>
        <time>2013-05-10T08:19:54Z</time>
      </trkpt>
      <trkpt lat="46.66562" lon="6.08508">
        <ele>921.08</ele>
        <time>2013-05-10T08:19:55Z</time>
      </trkpt>
      <trkpt lat="46.66558" lon="6.08508">
        <ele>921.08</ele>
        <time>2013-05-10T08:19:56Z</time>
      </trkpt>
      <trkpt lat="46.66548" lon="6.08506">
        <ele>922.04</ele>
        <time>2013-05-10T08:19:59Z</time>
      </trkpt>
      <trkpt lat="46.66543" lon="6.085">
        <ele>923</ele>
        <time>2013-05-10T08:20:02Z</time>
      </trkpt>
      <trkpt lat="46.66541" lon="6.08499">
        <ele>923</ele>
        <time>2013-05-10T08:20:03Z</time>
      </trkpt>
      <trkpt lat="46.66539" lon="6.08498">
        <ele>923</ele>
        <time>2013-05-10T08:20:04Z</time>
      </trkpt>
      <trkpt lat="46.66536" lon="6.08495">
        <ele>923</ele>
        <time>2013-05-10T08:20:05Z</time>
      </trkpt>
      <trkpt lat="46.66534" lon="6.08493">
        <ele>922.52</ele>
        <time>2013-05-10T08:20:06Z</time>
      </trkpt>
      <trkpt lat="46.66524" lon="6.08479">
        <ele>923.48</ele>
        <time>2013-05-10T08:20:11Z</time>
      </trkpt>
      <trkpt lat="46.66522" lon="6.08477">
        <ele>923.48</ele>
        <time>2013-05-10T08:20:12Z</time>
      </trkpt>
      <trkpt lat="46.66511" lon="6.08456">
        <ele>924.93</ele>
        <time>2013-05-10T08:20:18Z</time>
      </trkpt>
      <trkpt lat="46.66511" lon="6.08452">
        <ele>925.41</ele>
        <time>2013-05-10T08:20:19Z</time>
      </trkpt>
      <trkpt lat="46.6651" lon="6.0845">
        <ele>925.41</ele>
        <time>2013-05-10T08:20:20Z</time>
      </trkpt>
      <trkpt lat="46.66509" lon="6.08446">
        <ele>925.89</ele>
        <time>2013-05-10T08:20:21Z</time>
      </trkpt>
      <trkpt lat="46.66508" lon="6.08443">
        <ele>925.89</ele>
        <time>2013-05-10T08:20:22Z</time>
      </trkpt>
      <trkpt lat="46.665" lon="6.08406">
        <ele>928.77</ele>
        <time>2013-05-10T08:20:34Z</time>
      </trkpt>
      <trkpt lat="46.66503" lon="6.08365">
        <ele>929.25</ele>
        <time>2013-05-10T08:20:47Z</time>
      </trkpt>
      <trkpt lat="46.6651" lon="6.08346">
        <ele>928.77</ele>
        <time>2013-05-10T08:20:53Z</time>
      </trkpt>
      <trkpt lat="46.66512" lon="6.08345">
        <ele>928.77</ele>
        <time>2013-05-10T08:20:54Z</time>
      </trkpt>
      <trkpt lat="46.66515" lon="6.08346">
        <ele>928.77</ele>
        <time>2013-05-10T08:20:55Z</time>
      </trkpt>
      <trkpt lat="46.66546" lon="6.08355">
        <ele>929.25</ele>
        <time>2013-05-10T08:21:10Z</time>
      </trkpt>
      <trkpt lat="46.66575" lon="6.08362">
        <ele>929.73</ele>
        <time>2013-05-10T08:21:23Z</time>
      </trkpt>
      <trkpt lat="46.66611" lon="6.08374">
        <ele>932.14</ele>
        <time>2013-05-10T08:21:38Z</time>
      </trkpt>
      <trkpt lat="46.66641" lon="6.0838">
        <ele>935.02</ele>
        <time>2013-05-10T08:21:53Z</time>
      </trkpt>
      <trkpt lat="46.66656" lon="6.08389">
        <ele>935.98</ele>
        <time>2013-05-10T08:22:01Z</time>
      </trkpt>
      <trkpt lat="46.66657" lon="6.08391">
        <ele>936.46</ele>
        <time>2013-05-10T08:22:02Z</time>
      </trkpt>
      <trkpt lat="46.66667" lon="6.08414">
        <ele>937.9</ele>
        <time>2013-05-10T08:22:12Z</time>
      </trkpt>
      <trkpt lat="46.66667" lon="6.08417">
        <ele>938.38</ele>
        <time>2013-05-10T08:22:13Z</time>
      </trkpt>
      <trkpt lat="46.66668" lon="6.08422">
        <ele>938.38</ele>
        <time>2013-05-10T08:22:15Z</time>
      </trkpt>
      <trkpt lat="46.66669" lon="6.08425">
        <ele>938.86</ele>
        <time>2013-05-10T08:22:16Z</time>
      </trkpt>
      <trkpt lat="46.66678" lon="6.08466">
        <ele>941.27</ele>
        <time>2013-05-10T08:22:31Z</time>
      </trkpt>
      <trkpt lat="46.66685" lon="6.08504">
        <ele>943.67</ele>
        <time>2013-05-10T08:22:45Z</time>
      </trkpt>
      <trkpt lat="46.66685" lon="6.08506">
        <ele>944.15</ele>
        <time>2013-05-10T08:22:46Z</time>
      </trkpt>
      <trkpt lat="46.66695" lon="6.08544">
        <ele>946.07</ele>
        <time>2013-05-10T08:23:01Z</time>
      </trkpt>
      <trkpt lat="46.66707" lon="6.08581">
        <ele>947.52</ele>
        <time>2013-05-10T08:23:15Z</time>
      </trkpt>
      <trkpt lat="46.66729" lon="6.08627">
        <ele>948.48</ele>
        <time>2013-05-10T08:23:30Z</time>
      </trkpt>
      <trkpt lat="46.66754" lon="6.08662">
        <ele>949.92</ele>
        <time>2013-05-10T08:23:45Z</time>
      </trkpt>
      <trkpt lat="46.66777" lon="6.0869">
        <ele>950.88</ele>
        <time>2013-05-10T08:23:57Z</time>
      </trkpt>
      <trkpt lat="46.66793" lon="6.08716">
        <ele>951.84</ele>
        <time>2013-05-10T08:24:08Z</time>
      </trkpt>
      <trkpt lat="46.66814" lon="6.08767">
        <ele>954.25</ele>
        <time>2013-05-10T08:24:24Z</time>
      </trkpt>
      <trkpt lat="46.66829" lon="6.08812">
        <ele>957.61</ele>
        <time>2013-05-10T08:24:40Z</time>
      </trkpt>
      <trkpt lat="46.66841" lon="6.08849">
        <ele>960.49</ele>
        <time>2013-05-10T08:24:54Z</time>
      </trkpt>
      <trkpt lat="46.66853" lon="6.08894">
        <ele>962.9</ele>
        <time>2013-05-10T08:25:10Z</time>
      </trkpt>
      <trkpt lat="46.66866" lon="6.08942">
        <ele>962.42</ele>
        <time>2013-05-10T08:25:23Z</time>
      </trkpt>
      <trkpt lat="46.66867" lon="6.08945">
        <ele>962.42</ele>
        <time>2013-05-10T08:25:24Z</time>
      </trkpt>
      <trkpt lat="46.66869" lon="6.08948">
        <ele>962.42</ele>
        <time>2013-05-10T08:25:25Z</time>
      </trkpt>
      <trkpt lat="46.66872" lon="6.08951">
        <ele>962.42</ele>
        <time>2013-05-10T08:25:26Z</time>
      </trkpt>
      <trkpt lat="46.66875" lon="6.08952">
        <ele>962.42</ele>
        <time>2013-05-10T08:25:27Z</time>
      </trkpt>
      <trkpt lat="46.66878" lon="6.08953">
        <ele>962.42</ele>
        <time>2013-05-10T08:25:28Z</time>
      </trkpt>
      <trkpt lat="46.66909" lon="6.08937">
        <ele>963.86</ele>
        <time>2013-05-10T08:25:40Z</time>
      </trkpt>
      <trkpt lat="46.66933" lon="6.0892">
        <ele>966.26</ele>
        <time>2013-05-10T08:25:53Z</time>
      </trkpt>
      <trkpt lat="46.66955" lon="6.08909">
        <ele>969.63</ele>
        <time>2013-05-10T08:26:06Z</time>
      </trkpt>
      <trkpt lat="46.66959" lon="6.08907">
        <ele>970.59</ele>
        <time>2013-05-10T08:26:09Z</time>
      </trkpt>
      <trkpt lat="46.66961" lon="6.08906">
        <ele>970.59</ele>
        <time>2013-05-10T08:26:10Z</time>
      </trkpt>
      <trkpt lat="46.66963" lon="6.08905">
        <ele>971.07</ele>
        <time>2013-05-10T08:26:11Z</time>
      </trkpt>
      <trkpt lat="46.66992" lon="6.08895">
        <ele>974.43</ele>
        <time>2013-05-10T08:26:27Z</time>
      </trkpt>
      <trkpt lat="46.67003" lon="6.08883">
        <ele>977.8</ele>
        <time>2013-05-10T08:26:35Z</time>
      </trkpt>
      <trkpt lat="46.67026" lon="6.0886">
        <ele>980.68</ele>
        <time>2013-05-10T08:26:50Z</time>
      </trkpt>
      <trkpt lat="46.67037" lon="6.08855">
        <ele>983.57</ele>
        <time>2013-05-10T08:26:58Z</time>
      </trkpt>
      <trkpt lat="46.67054" lon="6.08847">
        <ele>986.93</ele>
        <time>2013-05-10T08:27:09Z</time>
      </trkpt>
      <trkpt lat="46.67075" lon="6.08827">
        <ele>988.85</ele>
        <time>2013-05-10T08:27:24Z</time>
      </trkpt>
      <trkpt lat="46.67092" lon="6.08806">
        <ele>992.22</ele>
        <time>2013-05-10T08:27:39Z</time>
      </trkpt>
      <trkpt lat="46.67105" lon="6.08771">
        <ele>994.14</ele>
        <time>2013-05-10T08:27:55Z</time>
      </trkpt>
      <trkpt lat="46.67106" lon="6.08746">
        <ele>997.02</ele>
        <time>2013-05-10T08:28:05Z</time>
      </trkpt>
      <trkpt lat="46.67106" lon="6.08708">
        <ele>998.95</ele>
        <time>2013-05-10T08:28:21Z</time>
      </trkpt>
      <trkpt lat="46.67101" lon="6.08671">
        <ele>999.43</ele>
        <time>2013-05-10T08:28:37Z</time>
      </trkpt>
      <trkpt lat="46.67101" lon="6.08668">
        <ele>999.43</ele>
        <time>2013-05-10T08:28:38Z</time>
      </trkpt>
      <trkpt lat="46.67101" lon="6.08666">
        <ele>999.43</ele>
        <time>2013-05-10T08:28:39Z</time>
      </trkpt>
      <trkpt lat="46.67101" lon="6.08664">
        <ele>999.43</ele>
        <time>2013-05-10T08:28:40Z</time>
      </trkpt>
      <trkpt lat="46.67104" lon="6.08626">
        <ele>1000.39</ele>
        <time>2013-05-10T08:28:55Z</time>
      </trkpt>
      <trkpt lat="46.67107" lon="6.08601">
        <ele>1000.87</ele>
        <time>2013-05-10T08:29:08Z</time>
      </trkpt>
      <trkpt lat="46.67107" lon="6.08601">
        <ele>1000.87</ele>
        <time>2013-05-10T08:29:31Z</time>
      </trkpt>
      <trkpt lat="46.67107" lon="6.08601">
        <ele>1000.87</ele>
        <time>2013-05-10T08:30:01Z</time>
      </trkpt>
      <trkpt lat="46.67107" lon="6.08598">
        <ele>1000.87</ele>
        <time>2013-05-10T08:30:07Z</time>
      </trkpt>
      <trkpt lat="46.67108" lon="6.08595">
        <ele>1000.87</ele>
        <time>2013-05-10T08:30:08Z</time>
      </trkpt>
      <trkpt lat="46.67108" lon="6.08592">
        <ele>1000.87</ele>
        <time>2013-05-10T08:30:09Z</time>
      </trkpt>
      <trkpt lat="46.67109" lon="6.0859">
        <ele>1000.87</ele>
        <time>2013-05-10T08:30:10Z</time>
      </trkpt>
      <trkpt lat="46.6711" lon="6.08587">
        <ele>1000.87</ele>
        <time>2013-05-10T08:30:11Z</time>
      </trkpt>
      <trkpt lat="46.6711" lon="6.08584">
        <ele>1000.87</ele>
        <time>2013-05-10T08:30:12Z</time>
      </trkpt>
      <trkpt lat="46.67111" lon="6.08582">
        <ele>1000.87</ele>
        <time>2013-05-10T08:30:13Z</time>
      </trkpt>
      <trkpt lat="46.67111" lon="6.0858">
        <ele>1000.87</ele>
        <time>2013-05-10T08:30:14Z</time>
      </trkpt>
      <trkpt lat="46.67111" lon="6.08577">
        <ele>1000.87</ele>
        <time>2013-05-10T08:30:15Z</time>
      </trkpt>
      <trkpt lat="46.67111" lon="6.08574">
        <ele>1000.87</ele>
        <time>2013-05-10T08:30:16Z</time>
      </trkpt>
      <trkpt lat="46.67111" lon="6.08571">
        <ele>1000.87</ele>
        <time>2013-05-10T08:30:17Z</time>
      </trkpt>
      <trkpt lat="46.67112" lon="6.08554">
        <ele>1002.31</ele>
        <time>2013-05-10T08:30:23Z</time>
      </trkpt>
      <trkpt lat="46.67111" lon="6.08551">
        <ele>1002.31</ele>
        <time>2013-05-10T08:30:24Z</time>
      </trkpt>
      <trkpt lat="46.67103" lon="6.08519">
        <ele>1003.27</ele>
        <time>2013-05-10T08:30:34Z</time>
      </trkpt>
      <trkpt lat="46.67101" lon="6.0848">
        <ele>1005.2</ele>
        <time>2013-05-10T08:30:47Z</time>
      </trkpt>
      <trkpt lat="46.67105" lon="6.08445">
        <ele>1005.68</ele>
        <time>2013-05-10T08:30:57Z</time>
      </trkpt>
      <trkpt lat="46.67105" lon="6.08442">
        <ele>1006.16</ele>
        <time>2013-05-10T08:30:58Z</time>
      </trkpt>
      <trkpt lat="46.67106" lon="6.08439">
        <ele>1006.16</ele>
        <time>2013-05-10T08:30:59Z</time>
      </trkpt>
      <trkpt lat="46.67107" lon="6.08437">
        <ele>1006.16</ele>
        <time>2013-05-10T08:31:00Z</time>
      </trkpt>
      <trkpt lat="46.67108" lon="6.08434">
        <ele>1006.16</ele>
        <time>2013-05-10T08:31:01Z</time>
      </trkpt>
      <trkpt lat="46.67109" lon="6.08432">
        <ele>1006.16</ele>
        <time>2013-05-10T08:31:02Z</time>
      </trkpt>
      <trkpt lat="46.67118" lon="6.08388">
        <ele>1006.64</ele>
        <time>2013-05-10T08:31:15Z</time>
      </trkpt>
      <trkpt lat="46.67119" lon="6.08379">
        <ele>1006.64</ele>
        <time>2013-05-10T08:31:18Z</time>
      </trkpt>
      <trkpt lat="46.67119" lon="6.08375">
        <ele>1006.64</ele>
        <time>2013-05-10T08:31:19Z</time>
      </trkpt>
      <trkpt lat="46.67119" lon="6.08371">
        <ele>1006.16</ele>
        <time>2013-05-10T08:31:20Z</time>
      </trkpt>
      <trkpt lat="46.6712" lon="6.08368">
        <ele>1006.16</ele>
        <time>2013-05-10T08:31:21Z</time>
      </trkpt>
      <trkpt lat="46.67121" lon="6.08364">
        <ele>1006.16</ele>
        <time>2013-05-10T08:31:22Z</time>
      </trkpt>
      <trkpt lat="46.67121" lon="6.0836">
        <ele>1007.6</ele>
        <time>2013-05-10T08:31:23Z</time>
      </trkpt>
      <trkpt lat="46.67121" lon="6.08357">
        <ele>1006.16</ele>
        <time>2013-05-10T08:31:24Z</time>
      </trkpt>
      <trkpt lat="46.67129" lon="6.08328">
        <ele>1004.72</ele>
        <time>2013-05-10T08:31:30Z</time>
      </trkpt>
      <trkpt lat="46.67131" lon="6.08325">
        <ele>1005.2</ele>
        <time>2013-05-10T08:31:31Z</time>
      </trkpt>
      <trkpt lat="46.67133" lon="6.08322">
        <ele>1006.16</ele>
        <time>2013-05-10T08:31:33Z</time>
      </trkpt>
      <trkpt lat="46.67137" lon="6.08318">
        <ele>1008.08</ele>
        <time>2013-05-10T08:31:37Z</time>
      </trkpt>
      <trkpt lat="46.67138" lon="6.08318">
        <ele>1008.56</ele>
        <time>2013-05-10T08:31:38Z</time>
      </trkpt>
      <trkpt lat="46.6714" lon="6.08318">
        <ele>1008.56</ele>
        <time>2013-05-10T08:31:39Z</time>
      </trkpt>
      <trkpt lat="46.67141" lon="6.08318">
        <ele>1008.56</ele>
        <time>2013-05-10T08:31:40Z</time>
      </trkpt>
      <trkpt lat="46.67144" lon="6.08317">
        <ele>1008.56</ele>
        <time>2013-05-10T08:31:41Z</time>
      </trkpt>
      <trkpt lat="46.67167" lon="6.08311">
        <ele>1010.48</ele>
        <time>2013-05-10T08:31:53Z</time>
      </trkpt>
      <trkpt lat="46.67186" lon="6.08321">
        <ele>1012.89</ele>
        <time>2013-05-10T08:32:03Z</time>
      </trkpt>
      <trkpt lat="46.67193" lon="6.08323">
        <ele>1013.85</ele>
        <time>2013-05-10T08:32:07Z</time>
      </trkpt>
      <trkpt lat="46.67215" lon="6.08337">
        <ele>1017.21</ele>
        <time>2013-05-10T08:32:19Z</time>
      </trkpt>
      <trkpt lat="46.67219" lon="6.08339">
        <ele>1017.21</ele>
        <time>2013-05-10T08:32:21Z</time>
      </trkpt>
      <trkpt lat="46.67234" lon="6.08331">
        <ele>1019.13</ele>
        <time>2013-05-10T08:32:30Z</time>
      </trkpt>
      <trkpt lat="46.67234" lon="6.08329">
        <ele>1019.13</ele>
        <time>2013-05-10T08:32:31Z</time>
      </trkpt>
      <trkpt lat="46.67234" lon="6.08327">
        <ele>1019.62</ele>
        <time>2013-05-10T08:32:32Z</time>
      </trkpt>
      <trkpt lat="46.67234" lon="6.08323">
        <ele>1020.1</ele>
        <time>2013-05-10T08:32:34Z</time>
      </trkpt>
      <trkpt lat="46.67234" lon="6.08321">
        <ele>1020.1</ele>
        <time>2013-05-10T08:32:35Z</time>
      </trkpt>
      <trkpt lat="46.67234" lon="6.08319">
        <ele>1020.1</ele>
        <time>2013-05-10T08:32:36Z</time>
      </trkpt>
      <trkpt lat="46.67235" lon="6.08317">
        <ele>1020.58</ele>
        <time>2013-05-10T08:32:37Z</time>
      </trkpt>
      <trkpt lat="46.67236" lon="6.08316">
        <ele>1020.58</ele>
        <time>2013-05-10T08:32:38Z</time>
      </trkpt>
      <trkpt lat="46.67237" lon="6.08314">
        <ele>1021.06</ele>
        <time>2013-05-10T08:32:39Z</time>
      </trkpt>
      <trkpt lat="46.67239" lon="6.0831">
        <ele>1021.54</ele>
        <time>2013-05-10T08:32:42Z</time>
      </trkpt>
      <trkpt lat="46.67239" lon="6.08306">
        <ele>1022.02</ele>
        <time>2013-05-10T08:32:44Z</time>
      </trkpt>
      <trkpt lat="46.67249" lon="6.08276">
        <ele>1024.42</ele>
        <time>2013-05-10T08:32:58Z</time>
      </trkpt>
      <trkpt lat="46.67249" lon="6.08274">
        <ele>1024.42</ele>
        <time>2013-05-10T08:32:59Z</time>
      </trkpt>
      <trkpt lat="46.67249" lon="6.08271">
        <ele>1024.42</ele>
        <time>2013-05-10T08:33:00Z</time>
      </trkpt>
      <trkpt lat="46.6726" lon="6.08256">
        <ele>1027.79</ele>
        <time>2013-05-10T08:33:09Z</time>
      </trkpt>
      <trkpt lat="46.67261" lon="6.08255">
        <ele>1027.79</ele>
        <time>2013-05-10T08:33:10Z</time>
      </trkpt>
      <trkpt lat="46.67261" lon="6.08255">
        <ele>1028.27</ele>
        <time>2013-05-10T08:33:11Z</time>
      </trkpt>
      <trkpt lat="46.67263" lon="6.08253">
        <ele>1028.27</ele>
        <time>2013-05-10T08:33:12Z</time>
      </trkpt>
      <trkpt lat="46.67265" lon="6.08249">
        <ele>1028.27</ele>
        <time>2013-05-10T08:33:13Z</time>
      </trkpt>
      <trkpt lat="46.67267" lon="6.08247">
        <ele>1028.27</ele>
        <time>2013-05-10T08:33:14Z</time>
      </trkpt>
      <trkpt lat="46.67269" lon="6.08245">
        <ele>1028.27</ele>
        <time>2013-05-10T08:33:15Z</time>
      </trkpt>
      <trkpt lat="46.67274" lon="6.0824">
        <ele>1028.75</ele>
        <time>2013-05-10T08:33:19Z</time>
      </trkpt>
      <trkpt lat="46.67276" lon="6.08237">
        <ele>1028.75</ele>
        <time>2013-05-10T08:33:22Z</time>
      </trkpt>
      <trkpt lat="46.67291" lon="6.0822">
        <ele>1030.67</ele>
        <time>2013-05-10T08:33:32Z</time>
      </trkpt>
      <trkpt lat="46.67292" lon="6.08218">
        <ele>1030.67</ele>
        <time>2013-05-10T08:33:33Z</time>
      </trkpt>
      <trkpt lat="46.67293" lon="6.08216">
        <ele>1031.15</ele>
        <time>2013-05-10T08:33:34Z</time>
      </trkpt>
      <trkpt lat="46.67295" lon="6.08213">
        <ele>1031.15</ele>
        <time>2013-05-10T08:33:35Z</time>
      </trkpt>
      <trkpt lat="46.67297" lon="6.08211">
        <ele>1031.63</ele>
        <time>2013-05-10T08:33:36Z</time>
      </trkpt>
      <trkpt lat="46.67299" lon="6.08209">
        <ele>1031.63</ele>
        <time>2013-05-10T08:33:37Z</time>
      </trkpt>
      <trkpt lat="46.67301" lon="6.08208">
        <ele>1032.11</ele>
        <time>2013-05-10T08:33:38Z</time>
      </trkpt>
      <trkpt lat="46.67313" lon="6.08193">
        <ele>1033.07</ele>
        <time>2013-05-10T08:33:47Z</time>
      </trkpt>
      <trkpt lat="46.67319" lon="6.08183">
        <ele>1033.07</ele>
        <time>2013-05-10T08:34:01Z</time>
      </trkpt>
      <trkpt lat="46.67319" lon="6.08183">
        <ele>1033.07</ele>
        <time>2013-05-10T08:34:24Z</time>
      </trkpt>
      <trkpt lat="46.6732" lon="6.08183">
        <ele>1032.59</ele>
        <time>2013-05-10T08:34:53Z</time>
      </trkpt>
      <trkpt lat="46.67321" lon="6.08182">
        <ele>1032.59</ele>
        <time>2013-05-10T08:35:20Z</time>
      </trkpt>
      <trkpt lat="46.67321" lon="6.08181">
        <ele>1034.04</ele>
        <time>2013-05-10T08:35:24Z</time>
      </trkpt>
      <trkpt lat="46.67322" lon="6.08179">
        <ele>1033.07</ele>
        <time>2013-05-10T08:35:25Z</time>
      </trkpt>
      <trkpt lat="46.67323" lon="6.08176">
        <ele>1032.59</ele>
        <time>2013-05-10T08:35:26Z</time>
      </trkpt>
      <trkpt lat="46.67326" lon="6.08164">
        <ele>1033.07</ele>
        <time>2013-05-10T08:35:31Z</time>
      </trkpt>
      <trkpt lat="46.67326" lon="6.08162">
        <ele>1033.07</ele>
        <time>2013-05-10T08:35:32Z</time>
      </trkpt>
      <trkpt lat="46.67327" lon="6.0816">
        <ele>1033.07</ele>
        <time>2013-05-10T08:35:33Z</time>
      </trkpt>
      <trkpt lat="46.67328" lon="6.08158">
        <ele>1033.07</ele>
        <time>2013-05-10T08:35:34Z</time>
      </trkpt>
      <trkpt lat="46.6733" lon="6.08156">
        <ele>1033.07</ele>
        <time>2013-05-10T08:35:35Z</time>
      </trkpt>
      <trkpt lat="46.6733" lon="6.08153">
        <ele>1033.07</ele>
        <time>2013-05-10T08:35:36Z</time>
      </trkpt>
      <trkpt lat="46.67331" lon="6.08151">
        <ele>1033.07</ele>
        <time>2013-05-10T08:35:37Z</time>
      </trkpt>
      <trkpt lat="46.67332" lon="6.08148">
        <ele>1033.07</ele>
        <time>2013-05-10T08:35:38Z</time>
      </trkpt>
      <trkpt lat="46.67333" lon="6.08146">
        <ele>1033.07</ele>
        <time>2013-05-10T08:35:39Z</time>
      </trkpt>
      <trkpt lat="46.67333" lon="6.08133">
        <ele>1033.07</ele>
        <time>2013-05-10T08:35:44Z</time>
      </trkpt>
      <trkpt lat="46.67332" lon="6.08131">
        <ele>1033.07</ele>
        <time>2013-05-10T08:35:45Z</time>
      </trkpt>
      <trkpt lat="46.67323" lon="6.08094">
        <ele>1034.04</ele>
        <time>2013-05-10T08:36:00Z</time>
      </trkpt>
      <trkpt lat="46.67315" lon="6.08063">
        <ele>1036.44</ele>
        <time>2013-05-10T08:36:13Z</time>
      </trkpt>
      <trkpt lat="46.67314" lon="6.08053">
        <ele>1036.92</ele>
        <time>2013-05-10T08:36:17Z</time>
      </trkpt>
      <trkpt lat="46.67316" lon="6.08042">
        <ele>1037.4</ele>
        <time>2013-05-10T08:36:21Z</time>
      </trkpt>
      <trkpt lat="46.67316" lon="6.08039">
        <ele>1037.4</ele>
        <time>2013-05-10T08:36:22Z</time>
      </trkpt>
      <trkpt lat="46.67317" lon="6.08035">
        <ele>1037.88</ele>
        <time>2013-05-10T08:36:24Z</time>
      </trkpt>
      <trkpt lat="46.67318" lon="6.08033">
        <ele>1038.36</ele>
        <time>2013-05-10T08:36:25Z</time>
      </trkpt>
      <trkpt lat="46.67319" lon="6.08031">
        <ele>1038.36</ele>
        <time>2013-05-10T08:36:26Z</time>
      </trkpt>
      <trkpt lat="46.67319" lon="6.08028">
        <ele>1038.36</ele>
        <time>2013-05-10T08:36:27Z</time>
      </trkpt>
      <trkpt lat="46.6732" lon="6.08026">
        <ele>1038.36</ele>
        <time>2013-05-10T08:36:28Z</time>
      </trkpt>
      <trkpt lat="46.6732" lon="6.08023">
        <ele>1038.84</ele>
        <time>2013-05-10T08:36:29Z</time>
      </trkpt>
      <trkpt lat="46.6732" lon="6.08021">
        <ele>1038.84</ele>
        <time>2013-05-10T08:36:30Z</time>
      </trkpt>
      <trkpt lat="46.6732" lon="6.08018">
        <ele>1038.84</ele>
        <time>2013-05-10T08:36:31Z</time>
      </trkpt>
      <trkpt lat="46.67325" lon="6.07971">
        <ele>1039.32</ele>
        <time>2013-05-10T08:36:48Z</time>
      </trkpt>
      <trkpt lat="46.67331" lon="6.07941">
        <ele>1040.28</ele>
        <time>2013-05-10T08:37:01Z</time>
      </trkpt>
      <trkpt lat="46.67341" lon="6.07917">
        <ele>1041.73</ele>
        <time>2013-05-10T08:37:13Z</time>
      </trkpt>
      <trkpt lat="46.67359" lon="6.07884">
        <ele>1042.69</ele>
        <time>2013-05-10T08:37:27Z</time>
      </trkpt>
      <trkpt lat="46.67362" lon="6.07866">
        <ele>1042.69</ele>
        <time>2013-05-10T08:37:34Z</time>
      </trkpt>
      <trkpt lat="46.67385" lon="6.07833">
        <ele>1043.65</ele>
        <time>2013-05-10T08:37:51Z</time>
      </trkpt>
      <trkpt lat="46.67407" lon="6.07799">
        <ele>1043.65</ele>
        <time>2013-05-10T08:38:07Z</time>
      </trkpt>
      <trkpt lat="46.67408" lon="6.0779">
        <ele>1043.17</ele>
        <time>2013-05-10T08:38:10Z</time>
      </trkpt>
      <trkpt lat="46.67407" lon="6.07786">
        <ele>1043.17</ele>
        <time>2013-05-10T08:38:11Z</time>
      </trkpt>
      <trkpt lat="46.67405" lon="6.07783">
        <ele>1042.69</ele>
        <time>2013-05-10T08:38:12Z</time>
      </trkpt>
      <trkpt lat="46.67403" lon="6.07781">
        <ele>1042.21</ele>
        <time>2013-05-10T08:38:13Z</time>
      </trkpt>
      <trkpt lat="46.674" lon="6.07779">
        <ele>1042.21</ele>
        <time>2013-05-10T08:38:14Z</time>
      </trkpt>
      <trkpt lat="46.67398" lon="6.07777">
        <ele>1041.73</ele>
        <time>2013-05-10T08:38:15Z</time>
      </trkpt>
      <trkpt lat="46.67395" lon="6.07776">
        <ele>1041.73</ele>
        <time>2013-05-10T08:38:16Z</time>
      </trkpt>
      <trkpt lat="46.67392" lon="6.07775">
        <ele>1041.73</ele>
        <time>2013-05-10T08:38:17Z</time>
      </trkpt>
      <trkpt lat="46.67389" lon="6.07776">
        <ele>1041.73</ele>
        <time>2013-05-10T08:38:18Z</time>
      </trkpt>
      <trkpt lat="46.67387" lon="6.07776">
        <ele>1041.73</ele>
        <time>2013-05-10T08:38:19Z</time>
      </trkpt>
      <trkpt lat="46.67372" lon="6.07773">
        <ele>1042.21</ele>
        <time>2013-05-10T08:38:27Z</time>
      </trkpt>
      <trkpt lat="46.67351" lon="6.07756">
        <ele>1040.76</ele>
        <time>2013-05-10T08:38:37Z</time>
      </trkpt>
      <trkpt lat="46.6734" lon="6.07736">
        <ele>1041.73</ele>
        <time>2013-05-10T08:38:48Z</time>
      </trkpt>
      <trkpt lat="46.67339" lon="6.07734">
        <ele>1041.25</ele>
        <time>2013-05-10T08:38:49Z</time>
      </trkpt>
      <trkpt lat="46.67339" lon="6.07732">
        <ele>1041.25</ele>
        <time>2013-05-10T08:38:50Z</time>
      </trkpt>
      <trkpt lat="46.67337" lon="6.07729">
        <ele>1040.76</ele>
        <time>2013-05-10T08:38:51Z</time>
      </trkpt>
      <trkpt lat="46.67336" lon="6.07726">
        <ele>1040.28</ele>
        <time>2013-05-10T08:38:52Z</time>
      </trkpt>
      <trkpt lat="46.67334" lon="6.07723">
        <ele>1040.28</ele>
        <time>2013-05-10T08:38:53Z</time>
      </trkpt>
      <trkpt lat="46.67332" lon="6.07719">
        <ele>1040.28</ele>
        <time>2013-05-10T08:38:54Z</time>
      </trkpt>
      <trkpt lat="46.6733" lon="6.07716">
        <ele>1039.8</ele>
        <time>2013-05-10T08:38:55Z</time>
      </trkpt>
      <trkpt lat="46.67327" lon="6.07711">
        <ele>1040.28</ele>
        <time>2013-05-10T08:38:57Z</time>
      </trkpt>
      <trkpt lat="46.67326" lon="6.07708">
        <ele>1040.28</ele>
        <time>2013-05-10T08:38:58Z</time>
      </trkpt>
      <trkpt lat="46.67325" lon="6.07706">
        <ele>1040.28</ele>
        <time>2013-05-10T08:38:59Z</time>
      </trkpt>
      <trkpt lat="46.67318" lon="6.0769">
        <ele>1039.32</ele>
        <time>2013-05-10T08:39:06Z</time>
      </trkpt>
      <trkpt lat="46.67316" lon="6.07685">
        <ele>1039.32</ele>
        <time>2013-05-10T08:39:07Z</time>
      </trkpt>
      <trkpt lat="46.67314" lon="6.07682">
        <ele>1038.84</ele>
        <time>2013-05-10T08:39:08Z</time>
      </trkpt>
      <trkpt lat="46.67313" lon="6.07679">
        <ele>1038.36</ele>
        <time>2013-05-10T08:39:09Z</time>
      </trkpt>
      <trkpt lat="46.67311" lon="6.07676">
        <ele>1038.36</ele>
        <time>2013-05-10T08:39:10Z</time>
      </trkpt>
      <trkpt lat="46.67309" lon="6.07672">
        <ele>1037.88</ele>
        <time>2013-05-10T08:39:11Z</time>
      </trkpt>
      <trkpt lat="46.67307" lon="6.07668">
        <ele>1037.4</ele>
        <time>2013-05-10T08:39:12Z</time>
      </trkpt>
      <trkpt lat="46.67305" lon="6.07666">
        <ele>1036.92</ele>
        <time>2013-05-10T08:39:13Z</time>
      </trkpt>
      <trkpt lat="46.67303" lon="6.07664">
        <ele>1036.44</ele>
        <time>2013-05-10T08:39:14Z</time>
      </trkpt>
      <trkpt lat="46.67303" lon="6.07662">
        <ele>1035.96</ele>
        <time>2013-05-10T08:39:15Z</time>
      </trkpt>
      <trkpt lat="46.67302" lon="6.0766">
        <ele>1035.48</ele>
        <time>2013-05-10T08:39:16Z</time>
      </trkpt>
      <trkpt lat="46.673" lon="6.07658">
        <ele>1035.48</ele>
        <time>2013-05-10T08:39:17Z</time>
      </trkpt>
      <trkpt lat="46.67297" lon="6.07656">
        <ele>1035</ele>
        <time>2013-05-10T08:39:18Z</time>
      </trkpt>
      <trkpt lat="46.67295" lon="6.07653">
        <ele>1035</ele>
        <time>2013-05-10T08:39:19Z</time>
      </trkpt>
      <trkpt lat="46.67286" lon="6.07636">
        <ele>1035</ele>
        <time>2013-05-10T08:39:28Z</time>
      </trkpt>
      <trkpt lat="46.67286" lon="6.07634">
        <ele>1035</ele>
        <time>2013-05-10T08:39:31Z</time>
      </trkpt>
      <trkpt lat="46.67287" lon="6.07632">
        <ele>1035</ele>
        <time>2013-05-10T08:39:32Z</time>
      </trkpt>
      <trkpt lat="46.67288" lon="6.07632">
        <ele>1035</ele>
        <time>2013-05-10T08:39:35Z</time>
      </trkpt>
      <trkpt lat="46.67284" lon="6.07615">
        <ele>1035.48</ele>
        <time>2013-05-10T08:39:46Z</time>
      </trkpt>
      <trkpt lat="46.67278" lon="6.07608">
        <ele>1035.48</ele>
        <time>2013-05-10T08:39:58Z</time>
      </trkpt>
      <trkpt lat="46.67276" lon="6.07609">
        <ele>1035.48</ele>
        <time>2013-05-10T08:40:04Z</time>
      </trkpt>
      <trkpt lat="46.67264" lon="6.07601">
        <ele>1035</ele>
        <time>2013-05-10T08:40:16Z</time>
      </trkpt>
      <trkpt lat="46.67264" lon="6.07601">
        <ele>1035</ele>
        <time>2013-05-10T08:40:17Z</time>
      </trkpt>
      <trkpt lat="46.67264" lon="6.07597">
        <ele>1035</ele>
        <time>2013-05-10T08:40:23Z</time>
      </trkpt>
      <trkpt lat="46.67264" lon="6.07587">
        <ele>1035</ele>
        <time>2013-05-10T08:40:28Z</time>
      </trkpt>
      <trkpt lat="46.67261" lon="6.07575">
        <ele>1036.44</ele>
        <time>2013-05-10T08:40:37Z</time>
      </trkpt>
      <trkpt lat="46.6726" lon="6.07574">
        <ele>1036.92</ele>
        <time>2013-05-10T08:40:38Z</time>
      </trkpt>
      <trkpt lat="46.67258" lon="6.0757">
        <ele>1037.4</ele>
        <time>2013-05-10T08:40:41Z</time>
      </trkpt>
      <trkpt lat="46.67258" lon="6.07564">
        <ele>1037.88</ele>
        <time>2013-05-10T08:40:44Z</time>
      </trkpt>
      <trkpt lat="46.67261" lon="6.07545">
        <ele>1039.32</ele>
        <time>2013-05-10T08:40:52Z</time>
      </trkpt>
      <trkpt lat="46.67261" lon="6.07511">
        <ele>1040.76</ele>
        <time>2013-05-10T08:41:06Z</time>
      </trkpt>
      <trkpt lat="46.67263" lon="6.07477">
        <ele>1041.25</ele>
        <time>2013-05-10T08:41:19Z</time>
      </trkpt>
      <trkpt lat="46.67264" lon="6.07463">
        <ele>1041.73</ele>
        <time>2013-05-10T08:41:28Z</time>
      </trkpt>
      <trkpt lat="46.67262" lon="6.07453">
        <ele>1040.76</ele>
        <time>2013-05-10T08:41:38Z</time>
      </trkpt>
      <trkpt lat="46.67263" lon="6.0744">
        <ele>1041.25</ele>
        <time>2013-05-10T08:41:49Z</time>
      </trkpt>
      <trkpt lat="46.67265" lon="6.07423">
        <ele>1041.25</ele>
        <time>2013-05-10T08:42:00Z</time>
      </trkpt>
      <trkpt lat="46.6726" lon="6.07406">
        <ele>1040.76</ele>
        <time>2013-05-10T08:42:07Z</time>
      </trkpt>
      <trkpt lat="46.67253" lon="6.07392">
        <ele>1042.21</ele>
        <time>2013-05-10T08:42:13Z</time>
      </trkpt>
      <trkpt lat="46.67243" lon="6.07376">
        <ele>1042.69</ele>
        <time>2013-05-10T08:42:29Z</time>
      </trkpt>
      <trkpt lat="46.67242" lon="6.07376">
        <ele>1042.69</ele>
        <time>2013-05-10T08:42:47Z</time>
      </trkpt>
      <trkpt lat="46.67242" lon="6.07375">
        <ele>1042.69</ele>
        <time>2013-05-10T08:43:25Z</time>
      </trkpt>
      <trkpt lat="46.67237" lon="6.07354">
        <ele>1041.73</ele>
        <time>2013-05-10T08:43:34Z</time>
      </trkpt>
      <trkpt lat="46.67225" lon="6.07293">
        <ele>1041.25</ele>
        <time>2013-05-10T08:43:45Z</time>
      </trkpt>
      <trkpt lat="46.67215" lon="6.0726">
        <ele>1037.88</ele>
        <time>2013-05-10T08:43:51Z</time>
      </trkpt>
      <trkpt lat="46.672" lon="6.07233">
        <ele>1034.52</ele>
        <time>2013-05-10T08:43:57Z</time>
      </trkpt>
      <trkpt lat="46.67199" lon="6.07227">
        <ele>1033.55</ele>
        <time>2013-05-10T08:43:58Z</time>
      </trkpt>
      <trkpt lat="46.67198" lon="6.0721">
        <ele>1032.11</ele>
        <time>2013-05-10T08:44:02Z</time>
      </trkpt>
      <trkpt lat="46.67187" lon="6.07188">
        <ele>1030.19</ele>
        <time>2013-05-10T08:44:10Z</time>
      </trkpt>
      <trkpt lat="46.67186" lon="6.07184">
        <ele>1029.71</ele>
        <time>2013-05-10T08:44:11Z</time>
      </trkpt>
      <trkpt lat="46.67185" lon="6.0718">
        <ele>1029.23</ele>
        <time>2013-05-10T08:44:12Z</time>
      </trkpt>
      <trkpt lat="46.67182" lon="6.07177">
        <ele>1028.75</ele>
        <time>2013-05-10T08:44:13Z</time>
      </trkpt>
      <trkpt lat="46.67179" lon="6.07174">
        <ele>1028.75</ele>
        <time>2013-05-10T08:44:14Z</time>
      </trkpt>
      <trkpt lat="46.67176" lon="6.07171">
        <ele>1028.27</ele>
        <time>2013-05-10T08:44:15Z</time>
      </trkpt>
      <trkpt lat="46.67174" lon="6.07169">
        <ele>1028.27</ele>
        <time>2013-05-10T08:44:16Z</time>
      </trkpt>
      <trkpt lat="46.67169" lon="6.07164">
        <ele>1027.31</ele>
        <time>2013-05-10T08:44:19Z</time>
      </trkpt>
      <trkpt lat="46.67168" lon="6.07161">
        <ele>1026.34</ele>
        <time>2013-05-10T08:44:20Z</time>
      </trkpt>
      <trkpt lat="46.67168" lon="6.07159">
        <ele>1026.34</ele>
        <time>2013-05-10T08:44:21Z</time>
      </trkpt>
      <trkpt lat="46.67167" lon="6.07156">
        <ele>1025.86</ele>
        <time>2013-05-10T08:44:22Z</time>
      </trkpt>
      <trkpt lat="46.67166" lon="6.07154">
        <ele>1024.9</ele>
        <time>2013-05-10T08:44:23Z</time>
      </trkpt>
      <trkpt lat="46.67165" lon="6.07151">
        <ele>1024.42</ele>
        <time>2013-05-10T08:44:24Z</time>
      </trkpt>
      <trkpt lat="46.67163" lon="6.07148">
        <ele>1023.94</ele>
        <time>2013-05-10T08:44:25Z</time>
      </trkpt>
      <trkpt lat="46.67161" lon="6.07145">
        <ele>1023.46</ele>
        <time>2013-05-10T08:44:26Z</time>
      </trkpt>
      <trkpt lat="46.6716" lon="6.07141">
        <ele>1022.98</ele>
        <time>2013-05-10T08:44:27Z</time>
      </trkpt>
      <trkpt lat="46.67159" lon="6.07137">
        <ele>1022.5</ele>
        <time>2013-05-10T08:44:28Z</time>
      </trkpt>
      <trkpt lat="46.67158" lon="6.07133">
        <ele>1022.02</ele>
        <time>2013-05-10T08:44:29Z</time>
      </trkpt>
      <trkpt lat="46.67156" lon="6.07129">
        <ele>1021.06</ele>
        <time>2013-05-10T08:44:30Z</time>
      </trkpt>
      <trkpt lat="46.67155" lon="6.07125">
        <ele>1021.06</ele>
        <time>2013-05-10T08:44:31Z</time>
      </trkpt>
      <trkpt lat="46.67148" lon="6.07089">
        <ele>1019.13</ele>
        <time>2013-05-10T08:44:40Z</time>
      </trkpt>
      <trkpt lat="46.67147" lon="6.07086">
        <ele>1019.13</ele>
        <time>2013-05-10T08:44:41Z</time>
      </trkpt>
      <trkpt lat="46.67146" lon="6.07082">
        <ele>1019.13</ele>
        <time>2013-05-10T08:44:43Z</time>
      </trkpt>
      <trkpt lat="46.67146" lon="6.0708">
        <ele>1019.13</ele>
        <time>2013-05-10T08:44:44Z</time>
      </trkpt>
      <trkpt lat="46.67145" lon="6.07077">
        <ele>1019.13</ele>
        <time>2013-05-10T08:44:45Z</time>
      </trkpt>
      <trkpt lat="46.67142" lon="6.0706">
        <ele>1019.13</ele>
        <time>2013-05-10T08:44:53Z</time>
      </trkpt>
      <trkpt lat="46.67135" lon="6.07026">
        <ele>1019.62</ele>
        <time>2013-05-10T08:45:05Z</time>
      </trkpt>
      <trkpt lat="46.67133" lon="6.07022">
        <ele>1019.62</ele>
        <time>2013-05-10T08:45:07Z</time>
      </trkpt>
      <trkpt lat="46.67131" lon="6.07021">
        <ele>1019.62</ele>
        <time>2013-05-10T08:45:08Z</time>
      </trkpt>
      <trkpt lat="46.6713" lon="6.07019">
        <ele>1019.62</ele>
        <time>2013-05-10T08:45:09Z</time>
      </trkpt>
      <trkpt lat="46.67129" lon="6.07017">
        <ele>1019.62</ele>
        <time>2013-05-10T08:45:10Z</time>
      </trkpt>
      <trkpt lat="46.67128" lon="6.07014">
        <ele>1019.62</ele>
        <time>2013-05-10T08:45:11Z</time>
      </trkpt>
      <trkpt lat="46.67127" lon="6.07012">
        <ele>1020.1</ele>
        <time>2013-05-10T08:45:12Z</time>
      </trkpt>
      <trkpt lat="46.67127" lon="6.07009">
        <ele>1020.1</ele>
        <time>2013-05-10T08:45:13Z</time>
      </trkpt>
      <trkpt lat="46.67127" lon="6.07005">
        <ele>1020.1</ele>
        <time>2013-05-10T08:45:14Z</time>
      </trkpt>
      <trkpt lat="46.67126" lon="6.07001">
        <ele>1019.62</ele>
        <time>2013-05-10T08:45:15Z</time>
      </trkpt>
      <trkpt lat="46.67126" lon="6.06997">
        <ele>1019.62</ele>
        <time>2013-05-10T08:45:16Z</time>
      </trkpt>
      <trkpt lat="46.67126" lon="6.06993">
        <ele>1020.1</ele>
        <time>2013-05-10T08:45:17Z</time>
      </trkpt>
      <trkpt lat="46.67126" lon="6.0699">
        <ele>1020.1</ele>
        <time>2013-05-10T08:45:18Z</time>
      </trkpt>
      <trkpt lat="46.67125" lon="6.06987">
        <ele>1020.1</ele>
        <time>2013-05-10T08:45:19Z</time>
      </trkpt>
      <trkpt lat="46.67124" lon="6.06985">
        <ele>1020.1</ele>
        <time>2013-05-10T08:45:20Z</time>
      </trkpt>
      <trkpt lat="46.67123" lon="6.06982">
        <ele>1020.58</ele>
        <time>2013-05-10T08:45:21Z</time>
      </trkpt>
      <trkpt lat="46.67122" lon="6.0698">
        <ele>1021.06</ele>
        <time>2013-05-10T08:45:22Z</time>
      </trkpt>
      <trkpt lat="46.67109" lon="6.06953">
        <ele>1022.02</ele>
        <time>2013-05-10T08:45:33Z</time>
      </trkpt>
      <trkpt lat="46.671" lon="6.06921">
        <ele>1022.02</ele>
        <time>2013-05-10T08:45:44Z</time>
      </trkpt>
      <trkpt lat="46.67096" lon="6.06903">
        <ele>1022.5</ele>
        <time>2013-05-10T08:45:50Z</time>
      </trkpt>
      <trkpt lat="46.67094" lon="6.06901">
        <ele>1022.5</ele>
        <time>2013-05-10T08:45:51Z</time>
      </trkpt>
      <trkpt lat="46.67077" lon="6.06889">
        <ele>1022.98</ele>
        <time>2013-05-10T08:46:00Z</time>
      </trkpt>
      <trkpt lat="46.67062" lon="6.06863">
        <ele>1022.02</ele>
        <time>2013-05-10T08:46:08Z</time>
      </trkpt>
      <trkpt lat="46.67055" lon="6.06844">
        <ele>1022.02</ele>
        <time>2013-05-10T08:46:16Z</time>
      </trkpt>
      <trkpt lat="46.67054" lon="6.06842">
        <ele>1022.02</ele>
        <time>2013-05-10T08:46:17Z</time>
      </trkpt>
      <trkpt lat="46.67054" lon="6.0684">
        <ele>1022.02</ele>
        <time>2013-05-10T08:46:18Z</time>
      </trkpt>
      <trkpt lat="46.67044" lon="6.06809">
        <ele>1022.02</ele>
        <time>2013-05-10T08:46:28Z</time>
      </trkpt>
      <trkpt lat="46.67034" lon="6.06787">
        <ele>1023.46</ele>
        <time>2013-05-10T08:46:36Z</time>
      </trkpt>
      <trkpt lat="46.67033" lon="6.06784">
        <ele>1023.46</ele>
        <time>2013-05-10T08:46:37Z</time>
      </trkpt>
      <trkpt lat="46.67028" lon="6.0674">
        <ele>1023.46</ele>
        <time>2013-05-10T08:46:50Z</time>
      </trkpt>
      <trkpt lat="46.67029" lon="6.06702">
        <ele>1023.94</ele>
        <time>2013-05-10T08:47:02Z</time>
      </trkpt>
      <trkpt lat="46.67029" lon="6.06697">
        <ele>1023.94</ele>
        <time>2013-05-10T08:47:04Z</time>
      </trkpt>
      <trkpt lat="46.67029" lon="6.06694">
        <ele>1023.94</ele>
        <time>2013-05-10T08:47:05Z</time>
      </trkpt>
      <trkpt lat="46.67029" lon="6.06691">
        <ele>1023.94</ele>
        <time>2013-05-10T08:47:06Z</time>
      </trkpt>
      <trkpt lat="46.67029" lon="6.06688">
        <ele>1024.42</ele>
        <time>2013-05-10T08:47:07Z</time>
      </trkpt>
      <trkpt lat="46.67029" lon="6.06686">
        <ele>1024.42</ele>
        <time>2013-05-10T08:47:08Z</time>
      </trkpt>
      <trkpt lat="46.67029" lon="6.06684">
        <ele>1024.42</ele>
        <time>2013-05-10T08:47:09Z</time>
      </trkpt>
      <trkpt lat="46.67028" lon="6.06681">
        <ele>1024.42</ele>
        <time>2013-05-10T08:47:10Z</time>
      </trkpt>
      <trkpt lat="46.67028" lon="6.06679">
        <ele>1024.9</ele>
        <time>2013-05-10T08:47:11Z</time>
      </trkpt>
      <trkpt lat="46.67027" lon="6.06677">
        <ele>1024.9</ele>
        <time>2013-05-10T08:47:12Z</time>
      </trkpt>
      <trkpt lat="46.67026" lon="6.06672">
        <ele>1025.38</ele>
        <time>2013-05-10T08:47:14Z</time>
      </trkpt>
      <trkpt lat="46.67026" lon="6.06669">
        <ele>1025.38</ele>
        <time>2013-05-10T08:47:15Z</time>
      </trkpt>
      <trkpt lat="46.67026" lon="6.06667">
        <ele>1025.86</ele>
        <time>2013-05-10T08:47:16Z</time>
      </trkpt>
      <trkpt lat="46.67025" lon="6.06665">
        <ele>1025.86</ele>
        <time>2013-05-10T08:47:17Z</time>
      </trkpt>
      <trkpt lat="46.67025" lon="6.06663">
        <ele>1026.34</ele>
        <time>2013-05-10T08:47:18Z</time>
      </trkpt>
      <trkpt lat="46.67024" lon="6.0666">
        <ele>1026.34</ele>
        <time>2013-05-10T08:47:19Z</time>
      </trkpt>
      <trkpt lat="46.67024" lon="6.06658">
        <ele>1026.34</ele>
        <time>2013-05-10T08:47:20Z</time>
      </trkpt>
      <trkpt lat="46.67022" lon="6.06653">
        <ele>1026.83</ele>
        <time>2013-05-10T08:47:22Z</time>
      </trkpt>
      <trkpt lat="46.67022" lon="6.06651">
        <ele>1026.83</ele>
        <time>2013-05-10T08:47:23Z</time>
      </trkpt>
      <trkpt lat="46.67021" lon="6.06649">
        <ele>1027.31</ele>
        <time>2013-05-10T08:47:24Z</time>
      </trkpt>
      <trkpt lat="46.67021" lon="6.06646">
        <ele>1027.31</ele>
        <time>2013-05-10T08:47:25Z</time>
      </trkpt>
      <trkpt lat="46.6702" lon="6.06644">
        <ele>1027.31</ele>
        <time>2013-05-10T08:47:26Z</time>
      </trkpt>
      <trkpt lat="46.6702" lon="6.06633">
        <ele>1029.23</ele>
        <time>2013-05-10T08:47:31Z</time>
      </trkpt>
      <trkpt lat="46.67019" lon="6.06631">
        <ele>1028.75</ele>
        <time>2013-05-10T08:47:32Z</time>
      </trkpt>
      <trkpt lat="46.67019" lon="6.06629">
        <ele>1029.23</ele>
        <time>2013-05-10T08:47:33Z</time>
      </trkpt>
      <trkpt lat="46.67018" lon="6.06627">
        <ele>1029.23</ele>
        <time>2013-05-10T08:47:34Z</time>
      </trkpt>
      <trkpt lat="46.67017" lon="6.06626">
        <ele>1029.71</ele>
        <time>2013-05-10T08:47:35Z</time>
      </trkpt>
      <trkpt lat="46.67017" lon="6.06625">
        <ele>1029.71</ele>
        <time>2013-05-10T08:47:36Z</time>
      </trkpt>
      <trkpt lat="46.67016" lon="6.06623">
        <ele>1030.19</ele>
        <time>2013-05-10T08:47:37Z</time>
      </trkpt>
      <trkpt lat="46.67016" lon="6.0662">
        <ele>1030.67</ele>
        <time>2013-05-10T08:47:38Z</time>
      </trkpt>
      <trkpt lat="46.67017" lon="6.06618">
        <ele>1030.67</ele>
        <time>2013-05-10T08:47:39Z</time>
      </trkpt>
      <trkpt lat="46.67016" lon="6.06614">
        <ele>1031.15</ele>
        <time>2013-05-10T08:47:41Z</time>
      </trkpt>
      <trkpt lat="46.67016" lon="6.06611">
        <ele>1031.63</ele>
        <time>2013-05-10T08:47:42Z</time>
      </trkpt>
      <trkpt lat="46.67014" lon="6.06609">
        <ele>1031.63</ele>
        <time>2013-05-10T08:47:43Z</time>
      </trkpt>
      <trkpt lat="46.67013" lon="6.06605">
        <ele>1031.63</ele>
        <time>2013-05-10T08:47:44Z</time>
      </trkpt>
      <trkpt lat="46.67013" lon="6.06601">
        <ele>1032.11</ele>
        <time>2013-05-10T08:47:45Z</time>
      </trkpt>
      <trkpt lat="46.67012" lon="6.06598">
        <ele>1032.11</ele>
        <time>2013-05-10T08:47:46Z</time>
      </trkpt>
      <trkpt lat="46.67011" lon="6.06596">
        <ele>1032.11</ele>
        <time>2013-05-10T08:47:47Z</time>
      </trkpt>
      <trkpt lat="46.67001" lon="6.06569">
        <ele>1034.04</ele>
        <time>2013-05-10T08:47:59Z</time>
      </trkpt>
      <trkpt lat="46.66992" lon="6.06542">
        <ele>1035</ele>
        <time>2013-05-10T08:48:11Z</time>
      </trkpt>
      <trkpt lat="46.66991" lon="6.06537">
        <ele>1035.48</ele>
        <time>2013-05-10T08:48:13Z</time>
      </trkpt>
      <trkpt lat="46.66991" lon="6.06534">
        <ele>1035.96</ele>
        <time>2013-05-10T08:48:14Z</time>
      </trkpt>
      <trkpt lat="46.66987" lon="6.06503">
        <ele>1037.88</ele>
        <time>2013-05-10T08:48:26Z</time>
      </trkpt>
      <trkpt lat="46.66985" lon="6.06493">
        <ele>1038.84</ele>
        <time>2013-05-10T08:48:30Z</time>
      </trkpt>
      <trkpt lat="46.66985" lon="6.0649">
        <ele>1039.32</ele>
        <time>2013-05-10T08:48:31Z</time>
      </trkpt>
      <trkpt lat="46.66984" lon="6.06464">
        <ele>1039.8</ele>
        <time>2013-05-10T08:48:41Z</time>
      </trkpt>
      <trkpt lat="46.66983" lon="6.06458">
        <ele>1039.8</ele>
        <time>2013-05-10T08:48:43Z</time>
      </trkpt>
      <trkpt lat="46.66982" lon="6.06456">
        <ele>1039.8</ele>
        <time>2013-05-10T08:48:44Z</time>
      </trkpt>
      <trkpt lat="46.6698" lon="6.06452">
        <ele>1040.28</ele>
        <time>2013-05-10T08:48:46Z</time>
      </trkpt>
      <trkpt lat="46.6698" lon="6.06449">
        <ele>1039.8</ele>
        <time>2013-05-10T08:48:47Z</time>
      </trkpt>
      <trkpt lat="46.66979" lon="6.06447">
        <ele>1040.28</ele>
        <time>2013-05-10T08:48:48Z</time>
      </trkpt>
      <trkpt lat="46.66979" lon="6.06444">
        <ele>1040.28</ele>
        <time>2013-05-10T08:48:49Z</time>
      </trkpt>
      <trkpt lat="46.66978" lon="6.06441">
        <ele>1040.28</ele>
        <time>2013-05-10T08:48:50Z</time>
      </trkpt>
      <trkpt lat="46.66978" lon="6.06439">
        <ele>1040.28</ele>
        <time>2013-05-10T08:48:51Z</time>
      </trkpt>
      <trkpt lat="46.66969" lon="6.06413">
        <ele>1040.28</ele>
        <time>2013-05-10T08:49:02Z</time>
      </trkpt>
      <trkpt lat="46.66965" lon="6.06383">
        <ele>1040.76</ele>
        <time>2013-05-10T08:49:14Z</time>
      </trkpt>
      <trkpt lat="46.66966" lon="6.0638">
        <ele>1040.76</ele>
        <time>2013-05-10T08:49:15Z</time>
      </trkpt>
      <trkpt lat="46.66966" lon="6.06378">
        <ele>1040.76</ele>
        <time>2013-05-10T08:49:16Z</time>
      </trkpt>
      <trkpt lat="46.66966" lon="6.06375">
        <ele>1040.76</ele>
        <time>2013-05-10T08:49:17Z</time>
      </trkpt>
      <trkpt lat="46.66966" lon="6.06372">
        <ele>1041.25</ele>
        <time>2013-05-10T08:49:18Z</time>
      </trkpt>
      <trkpt lat="46.66967" lon="6.06369">
        <ele>1041.25</ele>
        <time>2013-05-10T08:49:19Z</time>
      </trkpt>
      <trkpt lat="46.66967" lon="6.06366">
        <ele>1041.25</ele>
        <time>2013-05-10T08:49:20Z</time>
      </trkpt>
      <trkpt lat="46.66967" lon="6.06364">
        <ele>1041.25</ele>
        <time>2013-05-10T08:49:21Z</time>
      </trkpt>
      <trkpt lat="46.66967" lon="6.06361">
        <ele>1041.25</ele>
        <time>2013-05-10T08:49:22Z</time>
      </trkpt>
      <trkpt lat="46.66967" lon="6.06358">
        <ele>1041.25</ele>
        <time>2013-05-10T08:49:23Z</time>
      </trkpt>
      <trkpt lat="46.66967" lon="6.06356">
        <ele>1041.25</ele>
        <time>2013-05-10T08:49:24Z</time>
      </trkpt>
      <trkpt lat="46.66967" lon="6.06353">
        <ele>1041.25</ele>
        <time>2013-05-10T08:49:25Z</time>
      </trkpt>
      <trkpt lat="46.66968" lon="6.06351">
        <ele>1040.76</ele>
        <time>2013-05-10T08:49:26Z</time>
      </trkpt>
      <trkpt lat="46.66969" lon="6.06348">
        <ele>1040.76</ele>
        <time>2013-05-10T08:49:27Z</time>
      </trkpt>
      <trkpt lat="46.66981" lon="6.06307">
        <ele>1039.8</ele>
        <time>2013-05-10T08:49:43Z</time>
      </trkpt>
      <trkpt lat="46.66982" lon="6.06304">
        <ele>1039.8</ele>
        <time>2013-05-10T08:49:44Z</time>
      </trkpt>
      <trkpt lat="46.66984" lon="6.06302">
        <ele>1039.8</ele>
        <time>2013-05-10T08:49:45Z</time>
      </trkpt>
      <trkpt lat="46.66984" lon="6.06299">
        <ele>1039.8</ele>
        <time>2013-05-10T08:49:46Z</time>
      </trkpt>
      <trkpt lat="46.66985" lon="6.06296">
        <ele>1039.8</ele>
        <time>2013-05-10T08:49:47Z</time>
      </trkpt>
      <trkpt lat="46.66995" lon="6.06273">
        <ele>1039.8</ele>
        <time>2013-05-10T08:49:59Z</time>
      </trkpt>
      <trkpt lat="46.66996" lon="6.0627">
        <ele>1040.28</ele>
        <time>2013-05-10T08:50:01Z</time>
      </trkpt>
      <trkpt lat="46.66996" lon="6.06267">
        <ele>1040.28</ele>
        <time>2013-05-10T08:50:02Z</time>
      </trkpt>
      <trkpt lat="46.66996" lon="6.06264">
        <ele>1040.28</ele>
        <time>2013-05-10T08:50:03Z</time>
      </trkpt>
      <trkpt lat="46.66997" lon="6.06249">
        <ele>1040.76</ele>
        <time>2013-05-10T08:50:11Z</time>
      </trkpt>
      <trkpt lat="46.66998" lon="6.06247">
        <ele>1040.76</ele>
        <time>2013-05-10T08:50:12Z</time>
      </trkpt>
      <trkpt lat="46.66998" lon="6.06245">
        <ele>1040.76</ele>
        <time>2013-05-10T08:50:13Z</time>
      </trkpt>
      <trkpt lat="46.66998" lon="6.06242">
        <ele>1040.76</ele>
        <time>2013-05-10T08:50:14Z</time>
      </trkpt>
      <trkpt lat="46.66998" lon="6.0624">
        <ele>1040.76</ele>
        <time>2013-05-10T08:50:15Z</time>
      </trkpt>
      <trkpt lat="46.66999" lon="6.06238">
        <ele>1041.25</ele>
        <time>2013-05-10T08:50:16Z</time>
      </trkpt>
      <trkpt lat="46.66999" lon="6.06235">
        <ele>1040.76</ele>
        <time>2013-05-10T08:50:17Z</time>
      </trkpt>
      <trkpt lat="46.66999" lon="6.06233">
        <ele>1041.25</ele>
        <time>2013-05-10T08:50:18Z</time>
      </trkpt>
      <trkpt lat="46.66999" lon="6.06232">
        <ele>1040.76</ele>
        <time>2013-05-10T08:50:19Z</time>
      </trkpt>
      <trkpt lat="46.66998" lon="6.0623">
        <ele>1041.25</ele>
        <time>2013-05-10T08:50:20Z</time>
      </trkpt>
      <trkpt lat="46.66998" lon="6.06228">
        <ele>1041.25</ele>
        <time>2013-05-10T08:50:21Z</time>
      </trkpt>
      <trkpt lat="46.66998" lon="6.06226">
        <ele>1041.25</ele>
        <time>2013-05-10T08:50:22Z</time>
      </trkpt>
      <trkpt lat="46.66996" lon="6.06217">
        <ele>1041.73</ele>
        <time>2013-05-10T08:50:27Z</time>
      </trkpt>
      <trkpt lat="46.66996" lon="6.06215">
        <ele>1041.73</ele>
        <time>2013-05-10T08:50:28Z</time>
      </trkpt>
      <trkpt lat="46.66996" lon="6.06213">
        <ele>1041.73</ele>
        <time>2013-05-10T08:50:29Z</time>
      </trkpt>
      <trkpt lat="46.66996" lon="6.06211">
        <ele>1041.73</ele>
        <time>2013-05-10T08:50:30Z</time>
      </trkpt>
      <trkpt lat="46.66997" lon="6.06208">
        <ele>1042.21</ele>
        <time>2013-05-10T08:50:31Z</time>
      </trkpt>
      <trkpt lat="46.66996" lon="6.06206">
        <ele>1041.73</ele>
        <time>2013-05-10T08:50:32Z</time>
      </trkpt>
      <trkpt lat="46.66994" lon="6.06197">
        <ele>1043.17</ele>
        <time>2013-05-10T08:50:37Z</time>
      </trkpt>
      <trkpt lat="46.66994" lon="6.06195">
        <ele>1043.17</ele>
        <time>2013-05-10T08:50:38Z</time>
      </trkpt>
      <trkpt lat="46.66994" lon="6.06193">
        <ele>1043.65</ele>
        <time>2013-05-10T08:50:39Z</time>
      </trkpt>
      <trkpt lat="46.66994" lon="6.06191">
        <ele>1043.65</ele>
        <time>2013-05-10T08:50:40Z</time>
      </trkpt>
      <trkpt lat="46.66994" lon="6.06189">
        <ele>1044.13</ele>
        <time>2013-05-10T08:50:41Z</time>
      </trkpt>
      <trkpt lat="46.66994" lon="6.06187">
        <ele>1044.13</ele>
        <time>2013-05-10T08:50:42Z</time>
      </trkpt>
      <trkpt lat="46.66995" lon="6.06164">
        <ele>1046.53</ele>
        <time>2013-05-10T08:50:54Z</time>
      </trkpt>
      <trkpt lat="46.66995" lon="6.06161">
        <ele>1046.53</ele>
        <time>2013-05-10T08:50:55Z</time>
      </trkpt>
      <trkpt lat="46.66997" lon="6.06149">
        <ele>1047.97</ele>
        <time>2013-05-10T08:51:01Z</time>
      </trkpt>
      <trkpt lat="46.66998" lon="6.06145">
        <ele>1048.45</ele>
        <time>2013-05-10T08:51:02Z</time>
      </trkpt>
      <trkpt lat="46.66999" lon="6.06141">
        <ele>1048.45</ele>
        <time>2013-05-10T08:51:03Z</time>
      </trkpt>
      <trkpt lat="46.67001" lon="6.06137">
        <ele>1048.94</ele>
        <time>2013-05-10T08:51:04Z</time>
      </trkpt>
      <trkpt lat="46.67001" lon="6.06134">
        <ele>1048.94</ele>
        <time>2013-05-10T08:51:05Z</time>
      </trkpt>
      <trkpt lat="46.67002" lon="6.06132">
        <ele>1049.42</ele>
        <time>2013-05-10T08:51:06Z</time>
      </trkpt>
      <trkpt lat="46.67002" lon="6.06129">
        <ele>1049.42</ele>
        <time>2013-05-10T08:51:07Z</time>
      </trkpt>
      <trkpt lat="46.67002" lon="6.06127">
        <ele>1049.9</ele>
        <time>2013-05-10T08:51:08Z</time>
      </trkpt>
      <trkpt lat="46.67003" lon="6.06123">
        <ele>1050.38</ele>
        <time>2013-05-10T08:51:10Z</time>
      </trkpt>
      <trkpt lat="46.67003" lon="6.06121">
        <ele>1050.86</ele>
        <time>2013-05-10T08:51:11Z</time>
      </trkpt>
      <trkpt lat="46.67003" lon="6.06118">
        <ele>1050.86</ele>
        <time>2013-05-10T08:51:12Z</time>
      </trkpt>
      <trkpt lat="46.67003" lon="6.06116">
        <ele>1051.34</ele>
        <time>2013-05-10T08:51:13Z</time>
      </trkpt>
      <trkpt lat="46.67003" lon="6.06113">
        <ele>1051.34</ele>
        <time>2013-05-10T08:51:14Z</time>
      </trkpt>
      <trkpt lat="46.67002" lon="6.06109">
        <ele>1051.34</ele>
        <time>2013-05-10T08:51:15Z</time>
      </trkpt>
      <trkpt lat="46.67002" lon="6.06105">
        <ele>1051.34</ele>
        <time>2013-05-10T08:51:16Z</time>
      </trkpt>
      <trkpt lat="46.67001" lon="6.06101">
        <ele>1051.34</ele>
        <time>2013-05-10T08:51:17Z</time>
      </trkpt>
      <trkpt lat="46.67001" lon="6.06097">
        <ele>1051.82</ele>
        <time>2013-05-10T08:51:18Z</time>
      </trkpt>
      <trkpt lat="46.67002" lon="6.06094">
        <ele>1051.82</ele>
        <time>2013-05-10T08:51:19Z</time>
      </trkpt>
      <trkpt lat="46.67002" lon="6.0609">
        <ele>1051.82</ele>
        <time>2013-05-10T08:51:20Z</time>
      </trkpt>
      <trkpt lat="46.67003" lon="6.06086">
        <ele>1051.82</ele>
        <time>2013-05-10T08:51:21Z</time>
      </trkpt>
      <trkpt lat="46.67003" lon="6.06081">
        <ele>1052.3</ele>
        <time>2013-05-10T08:51:22Z</time>
      </trkpt>
      <trkpt lat="46.67005" lon="6.06076">
        <ele>1052.3</ele>
        <time>2013-05-10T08:51:23Z</time>
      </trkpt>
      <trkpt lat="46.67007" lon="6.06046">
        <ele>1053.74</ele>
        <time>2013-05-10T08:51:33Z</time>
      </trkpt>
      <trkpt lat="46.67007" lon="6.06044">
        <ele>1053.74</ele>
        <time>2013-05-10T08:51:34Z</time>
      </trkpt>
      <trkpt lat="46.67007" lon="6.06042">
        <ele>1053.74</ele>
        <time>2013-05-10T08:51:35Z</time>
      </trkpt>
      <trkpt lat="46.67007" lon="6.06039">
        <ele>1053.26</ele>
        <time>2013-05-10T08:51:36Z</time>
      </trkpt>
      <trkpt lat="46.67007" lon="6.06037">
        <ele>1053.26</ele>
        <time>2013-05-10T08:51:37Z</time>
      </trkpt>
      <trkpt lat="46.67007" lon="6.06034">
        <ele>1053.26</ele>
        <time>2013-05-10T08:51:38Z</time>
      </trkpt>
      <trkpt lat="46.67007" lon="6.06032">
        <ele>1053.26</ele>
        <time>2013-05-10T08:51:39Z</time>
      </trkpt>
      <trkpt lat="46.67007" lon="6.06029">
        <ele>1052.78</ele>
        <time>2013-05-10T08:51:40Z</time>
      </trkpt>
      <trkpt lat="46.67007" lon="6.06026">
        <ele>1052.78</ele>
        <time>2013-05-10T08:51:41Z</time>
      </trkpt>
      <trkpt lat="46.67007" lon="6.06022">
        <ele>1052.3</ele>
        <time>2013-05-10T08:51:42Z</time>
      </trkpt>
      <trkpt lat="46.67008" lon="6.06018">
        <ele>1052.3</ele>
        <time>2013-05-10T08:51:43Z</time>
      </trkpt>
      <trkpt lat="46.67009" lon="6.06003">
        <ele>1051.34</ele>
        <time>2013-05-10T08:51:47Z</time>
      </trkpt>
      <trkpt lat="46.6701" lon="6.05999">
        <ele>1051.34</ele>
        <time>2013-05-10T08:51:48Z</time>
      </trkpt>
      <trkpt lat="46.67012" lon="6.05996">
        <ele>1051.34</ele>
        <time>2013-05-10T08:51:49Z</time>
      </trkpt>
      <trkpt lat="46.67012" lon="6.05994">
        <ele>1051.34</ele>
        <time>2013-05-10T08:51:50Z</time>
      </trkpt>
      <trkpt lat="46.67013" lon="6.05991">
        <ele>1051.34</ele>
        <time>2013-05-10T08:51:51Z</time>
      </trkpt>
      <trkpt lat="46.67014" lon="6.05989">
        <ele>1051.34</ele>
        <time>2013-05-10T08:51:52Z</time>
      </trkpt>
      <trkpt lat="46.67015" lon="6.05986">
        <ele>1050.86</ele>
        <time>2013-05-10T08:51:53Z</time>
      </trkpt>
      <trkpt lat="46.67016" lon="6.05983">
        <ele>1050.86</ele>
        <time>2013-05-10T08:51:54Z</time>
      </trkpt>
      <trkpt lat="46.67018" lon="6.05981">
        <ele>1050.86</ele>
        <time>2013-05-10T08:51:55Z</time>
      </trkpt>
      <trkpt lat="46.67039" lon="6.05958">
        <ele>1049.42</ele>
        <time>2013-05-10T08:52:07Z</time>
      </trkpt>
      <trkpt lat="46.67044" lon="6.05952">
        <ele>1048.94</ele>
        <time>2013-05-10T08:52:18Z</time>
      </trkpt>
      <trkpt lat="46.67046" lon="6.05948">
        <ele>1048.45</ele>
        <time>2013-05-10T08:52:24Z</time>
      </trkpt>
      <trkpt lat="46.67046" lon="6.05945">
        <ele>1048.45</ele>
        <time>2013-05-10T08:52:25Z</time>
      </trkpt>
      <trkpt lat="46.67047" lon="6.05943">
        <ele>1048.45</ele>
        <time>2013-05-10T08:52:37Z</time>
      </trkpt>
      <trkpt lat="46.67047" lon="6.05942">
        <ele>1047.97</ele>
        <time>2013-05-10T08:53:06Z</time>
      </trkpt>
      <trkpt lat="46.67048" lon="6.05939">
        <ele>1047.97</ele>
        <time>2013-05-10T08:53:07Z</time>
      </trkpt>
      <trkpt lat="46.67048" lon="6.05936">
        <ele>1047.49</ele>
        <time>2013-05-10T08:53:08Z</time>
      </trkpt>
      <trkpt lat="46.67047" lon="6.05934">
        <ele>1047.97</ele>
        <time>2013-05-10T08:53:09Z</time>
      </trkpt>
      <trkpt lat="46.67047" lon="6.05932">
        <ele>1047.97</ele>
        <time>2013-05-10T08:53:10Z</time>
      </trkpt>
      <trkpt lat="46.67047" lon="6.05929">
        <ele>1047.49</ele>
        <time>2013-05-10T08:53:11Z</time>
      </trkpt>
      <trkpt lat="46.67047" lon="6.05927">
        <ele>1047.49</ele>
        <time>2013-05-10T08:53:12Z</time>
      </trkpt>
      <trkpt lat="46.67047" lon="6.05925">
        <ele>1047.49</ele>
        <time>2013-05-10T08:53:13Z</time>
      </trkpt>
      <trkpt lat="46.67046" lon="6.05918">
        <ele>1047.49</ele>
        <time>2013-05-10T08:53:16Z</time>
      </trkpt>
      <trkpt lat="46.67046" lon="6.05916">
        <ele>1047.49</ele>
        <time>2013-05-10T08:53:17Z</time>
      </trkpt>
      <trkpt lat="46.67046" lon="6.05913">
        <ele>1047.49</ele>
        <time>2013-05-10T08:53:18Z</time>
      </trkpt>
      <trkpt lat="46.6703" lon="6.05888">
        <ele>1047.49</ele>
        <time>2013-05-10T08:53:32Z</time>
      </trkpt>
      <trkpt lat="46.67029" lon="6.05886">
        <ele>1048.94</ele>
        <time>2013-05-10T08:53:33Z</time>
      </trkpt>
      <trkpt lat="46.67028" lon="6.05884">
        <ele>1047.49</ele>
        <time>2013-05-10T08:53:34Z</time>
      </trkpt>
      <trkpt lat="46.6702" lon="6.0586">
        <ele>1047.49</ele>
        <time>2013-05-10T08:53:42Z</time>
      </trkpt>
      <trkpt lat="46.67019" lon="6.05858">
        <ele>1047.49</ele>
        <time>2013-05-10T08:53:43Z</time>
      </trkpt>
      <trkpt lat="46.67018" lon="6.05855">
        <ele>1047.49</ele>
        <time>2013-05-10T08:53:44Z</time>
      </trkpt>
      <trkpt lat="46.67017" lon="6.05852">
        <ele>1047.49</ele>
        <time>2013-05-10T08:53:45Z</time>
      </trkpt>
      <trkpt lat="46.67016" lon="6.05848">
        <ele>1047.01</ele>
        <time>2013-05-10T08:53:46Z</time>
      </trkpt>
      <trkpt lat="46.67015" lon="6.05844">
        <ele>1047.49</ele>
        <time>2013-05-10T08:53:47Z</time>
      </trkpt>
      <trkpt lat="46.67014" lon="6.05839">
        <ele>1047.01</ele>
        <time>2013-05-10T08:53:48Z</time>
      </trkpt>
      <trkpt lat="46.67007" lon="6.05788">
        <ele>1047.49</ele>
        <time>2013-05-10T08:54:01Z</time>
      </trkpt>
      <trkpt lat="46.67007" lon="6.05785">
        <ele>1047.49</ele>
        <time>2013-05-10T08:54:02Z</time>
      </trkpt>
      <trkpt lat="46.67006" lon="6.05782">
        <ele>1047.49</ele>
        <time>2013-05-10T08:54:03Z</time>
      </trkpt>
      <trkpt lat="46.67005" lon="6.05778">
        <ele>1047.49</ele>
        <time>2013-05-10T08:54:04Z</time>
      </trkpt>
      <trkpt lat="46.67004" lon="6.05775">
        <ele>1047.49</ele>
        <time>2013-05-10T08:54:05Z</time>
      </trkpt>
      <trkpt lat="46.67003" lon="6.05773">
        <ele>1047.49</ele>
        <time>2013-05-10T08:54:06Z</time>
      </trkpt>
      <trkpt lat="46.67001" lon="6.0577">
        <ele>1047.97</ele>
        <time>2013-05-10T08:54:07Z</time>
      </trkpt>
      <trkpt lat="46.66984" lon="6.05747">
        <ele>1049.42</ele>
        <time>2013-05-10T08:54:17Z</time>
      </trkpt>
      <trkpt lat="46.66981" lon="6.05743">
        <ele>1049.42</ele>
        <time>2013-05-10T08:54:19Z</time>
      </trkpt>
      <trkpt lat="46.6698" lon="6.0574">
        <ele>1049.42</ele>
        <time>2013-05-10T08:54:20Z</time>
      </trkpt>
      <trkpt lat="46.66978" lon="6.05738">
        <ele>1049.42</ele>
        <time>2013-05-10T08:54:21Z</time>
      </trkpt>
      <trkpt lat="46.66977" lon="6.05735">
        <ele>1049.42</ele>
        <time>2013-05-10T08:54:22Z</time>
      </trkpt>
      <trkpt lat="46.66975" lon="6.05732">
        <ele>1049.42</ele>
        <time>2013-05-10T08:54:23Z</time>
      </trkpt>
      <trkpt lat="46.66963" lon="6.05695">
        <ele>1050.38</ele>
        <time>2013-05-10T08:54:34Z</time>
      </trkpt>
      <trkpt lat="46.6695" lon="6.05656">
        <ele>1051.82</ele>
        <time>2013-05-10T08:54:46Z</time>
      </trkpt>
      <trkpt lat="46.66949" lon="6.05653">
        <ele>1051.82</ele>
        <time>2013-05-10T08:54:47Z</time>
      </trkpt>
      <trkpt lat="46.66948" lon="6.0565">
        <ele>1051.82</ele>
        <time>2013-05-10T08:54:48Z</time>
      </trkpt>
      <trkpt lat="46.66936" lon="6.05625">
        <ele>1052.3</ele>
        <time>2013-05-10T08:54:57Z</time>
      </trkpt>
      <trkpt lat="46.66935" lon="6.05602">
        <ele>1050.38</ele>
        <time>2013-05-10T08:55:01Z</time>
      </trkpt>
      <trkpt lat="46.66932" lon="6.0558">
        <ele>1049.9</ele>
        <time>2013-05-10T08:55:04Z</time>
      </trkpt>
      <trkpt lat="46.66931" lon="6.05573">
        <ele>1049.9</ele>
        <time>2013-05-10T08:55:05Z</time>
      </trkpt>
      <trkpt lat="46.66929" lon="6.0556">
        <ele>1049.9</ele>
        <time>2013-05-10T08:55:07Z</time>
      </trkpt>
      <trkpt lat="46.66917" lon="6.05499">
        <ele>1049.9</ele>
        <time>2013-05-10T08:55:18Z</time>
      </trkpt>
      <trkpt lat="46.66903" lon="6.05459">
        <ele>1050.86</ele>
        <time>2013-05-10T08:55:29Z</time>
      </trkpt>
      <trkpt lat="46.66897" lon="6.05438">
        <ele>1052.3</ele>
        <time>2013-05-10T08:55:34Z</time>
      </trkpt>
      <trkpt lat="46.66895" lon="6.05434">
        <ele>1051.34</ele>
        <time>2013-05-10T08:55:35Z</time>
      </trkpt>
      <trkpt lat="46.66893" lon="6.0543">
        <ele>1050.86</ele>
        <time>2013-05-10T08:55:36Z</time>
      </trkpt>
      <trkpt lat="46.66881" lon="6.05385">
        <ele>1050.38</ele>
        <time>2013-05-10T08:55:46Z</time>
      </trkpt>
      <trkpt lat="46.66871" lon="6.05336">
        <ele>1050.38</ele>
        <time>2013-05-10T08:55:57Z</time>
      </trkpt>
      <trkpt lat="46.66875" lon="6.05284">
        <ele>1051.82</ele>
        <time>2013-05-10T08:56:08Z</time>
      </trkpt>
      <trkpt lat="46.66877" lon="6.05267">
        <ele>1052.3</ele>
        <time>2013-05-10T08:56:12Z</time>
      </trkpt>
      <trkpt lat="46.66873" lon="6.05249">
        <ele>1053.26</ele>
        <time>2013-05-10T08:56:17Z</time>
      </trkpt>
      <trkpt lat="46.6686" lon="6.05228">
        <ele>1054.22</ele>
        <time>2013-05-10T08:56:28Z</time>
      </trkpt>
      <trkpt lat="46.66854" lon="6.05221">
        <ele>1053.74</ele>
        <time>2013-05-10T08:56:39Z</time>
      </trkpt>
      <trkpt lat="46.6685" lon="6.05221">
        <ele>1053.74</ele>
        <time>2013-05-10T08:56:43Z</time>
      </trkpt>
      <trkpt lat="46.66848" lon="6.0522">
        <ele>1053.74</ele>
        <time>2013-05-10T08:56:44Z</time>
      </trkpt>
      <trkpt lat="46.66847" lon="6.0522">
        <ele>1053.74</ele>
        <time>2013-05-10T08:56:45Z</time>
      </trkpt>
      <trkpt lat="46.66836" lon="6.05219">
        <ele>1053.74</ele>
        <time>2013-05-10T08:56:50Z</time>
      </trkpt>
      <trkpt lat="46.66834" lon="6.05217">
        <ele>1053.74</ele>
        <time>2013-05-10T08:56:51Z</time>
      </trkpt>
      <trkpt lat="46.66833" lon="6.05215">
        <ele>1053.74</ele>
        <time>2013-05-10T08:56:52Z</time>
      </trkpt>
      <trkpt lat="46.66832" lon="6.05213">
        <ele>1054.22</ele>
        <time>2013-05-10T08:56:53Z</time>
      </trkpt>
      <trkpt lat="46.66831" lon="6.0521">
        <ele>1054.22</ele>
        <time>2013-05-10T08:56:54Z</time>
      </trkpt>
      <trkpt lat="46.66828" lon="6.05206">
        <ele>1054.22</ele>
        <time>2013-05-10T08:56:56Z</time>
      </trkpt>
      <trkpt lat="46.66828" lon="6.05204">
        <ele>1054.7</ele>
        <time>2013-05-10T08:56:57Z</time>
      </trkpt>
      <trkpt lat="46.66826" lon="6.05194">
        <ele>1054.7</ele>
        <time>2013-05-10T08:57:03Z</time>
      </trkpt>
      <trkpt lat="46.66826" lon="6.05184">
        <ele>1055.18</ele>
        <time>2013-05-10T08:57:08Z</time>
      </trkpt>
      <trkpt lat="46.66804" lon="6.05156">
        <ele>1057.11</ele>
        <time>2013-05-10T08:57:24Z</time>
      </trkpt>
      <trkpt lat="46.668" lon="6.05149">
        <ele>1057.11</ele>
        <time>2013-05-10T08:57:28Z</time>
      </trkpt>
      <trkpt lat="46.66796" lon="6.05144">
        <ele>1057.11</ele>
        <time>2013-05-10T08:57:32Z</time>
      </trkpt>
      <trkpt lat="46.6678" lon="6.05122">
        <ele>1057.11</ele>
        <time>2013-05-10T08:57:44Z</time>
      </trkpt>
      <trkpt lat="46.66774" lon="6.05108">
        <ele>1056.63</ele>
        <time>2013-05-10T08:57:49Z</time>
      </trkpt>
      <trkpt lat="46.66766" lon="6.05069">
        <ele>1058.07</ele>
        <time>2013-05-10T08:58:01Z</time>
      </trkpt>
      <trkpt lat="46.66763" lon="6.05054">
        <ele>1058.55</ele>
        <time>2013-05-10T08:58:06Z</time>
      </trkpt>
      <trkpt lat="46.66759" lon="6.05042">
        <ele>1059.03</ele>
        <time>2013-05-10T08:58:10Z</time>
      </trkpt>
      <trkpt lat="46.66756" lon="6.0503">
        <ele>1059.51</ele>
        <time>2013-05-10T08:58:14Z</time>
      </trkpt>
      <trkpt lat="46.66748" lon="6.04992">
        <ele>1061.43</ele>
        <time>2013-05-10T08:58:26Z</time>
      </trkpt>
      <trkpt lat="46.66745" lon="6.04982">
        <ele>1061.91</ele>
        <time>2013-05-10T08:58:29Z</time>
      </trkpt>
      <trkpt lat="46.6673" lon="6.04937">
        <ele>1063.84</ele>
        <time>2013-05-10T08:58:43Z</time>
      </trkpt>
      <trkpt lat="46.66708" lon="6.049">
        <ele>1062.39</ele>
        <time>2013-05-10T08:58:54Z</time>
      </trkpt>
      <trkpt lat="46.66699" lon="6.04882">
        <ele>1061.43</ele>
        <time>2013-05-10T08:58:58Z</time>
      </trkpt>
      <trkpt lat="46.66693" lon="6.04859">
        <ele>1059.51</ele>
        <time>2013-05-10T08:59:02Z</time>
      </trkpt>
      <trkpt lat="46.66689" lon="6.04848">
        <ele>1059.03</ele>
        <time>2013-05-10T08:59:04Z</time>
      </trkpt>
      <trkpt lat="46.66688" lon="6.04842">
        <ele>1058.55</ele>
        <time>2013-05-10T08:59:05Z</time>
      </trkpt>
      <trkpt lat="46.66687" lon="6.04835">
        <ele>1058.55</ele>
        <time>2013-05-10T08:59:06Z</time>
      </trkpt>
      <trkpt lat="46.66686" lon="6.04828">
        <ele>1058.07</ele>
        <time>2013-05-10T08:59:07Z</time>
      </trkpt>
      <trkpt lat="46.66686" lon="6.04822">
        <ele>1058.07</ele>
        <time>2013-05-10T08:59:08Z</time>
      </trkpt>
      <trkpt lat="46.66686" lon="6.04816">
        <ele>1058.07</ele>
        <time>2013-05-10T08:59:09Z</time>
      </trkpt>
      <trkpt lat="46.66687" lon="6.04811">
        <ele>1058.07</ele>
        <time>2013-05-10T08:59:10Z</time>
      </trkpt>
      <trkpt lat="46.66687" lon="6.04806">
        <ele>1058.07</ele>
        <time>2013-05-10T08:59:11Z</time>
      </trkpt>
      <trkpt lat="46.66687" lon="6.048">
        <ele>1057.59</ele>
        <time>2013-05-10T08:59:12Z</time>
      </trkpt>
      <trkpt lat="46.66687" lon="6.04795">
        <ele>1057.59</ele>
        <time>2013-05-10T08:59:13Z</time>
      </trkpt>
      <trkpt lat="46.66687" lon="6.04791">
        <ele>1058.07</ele>
        <time>2013-05-10T08:59:14Z</time>
      </trkpt>
      <trkpt lat="46.66686" lon="6.04788">
        <ele>1058.07</ele>
        <time>2013-05-10T08:59:15Z</time>
      </trkpt>
      <trkpt lat="46.66687" lon="6.04785">
        <ele>1057.59</ele>
        <time>2013-05-10T08:59:16Z</time>
      </trkpt>
      <trkpt lat="46.66688" lon="6.04782">
        <ele>1057.59</ele>
        <time>2013-05-10T08:59:17Z</time>
      </trkpt>
      <trkpt lat="46.66688" lon="6.04779">
        <ele>1057.59</ele>
        <time>2013-05-10T08:59:18Z</time>
      </trkpt>
      <trkpt lat="46.66688" lon="6.04776">
        <ele>1057.59</ele>
        <time>2013-05-10T08:59:19Z</time>
      </trkpt>
      <trkpt lat="46.66688" lon="6.04773">
        <ele>1057.59</ele>
        <time>2013-05-10T08:59:20Z</time>
      </trkpt>
      <trkpt lat="46.66687" lon="6.04769">
        <ele>1057.59</ele>
        <time>2013-05-10T08:59:21Z</time>
      </trkpt>
      <trkpt lat="46.66676" lon="6.04753">
        <ele>1056.63</ele>
        <time>2013-05-10T08:59:27Z</time>
      </trkpt>
      <trkpt lat="46.66675" lon="6.0475">
        <ele>1056.63</ele>
        <time>2013-05-10T08:59:28Z</time>
      </trkpt>
      <trkpt lat="46.66676" lon="6.04747">
        <ele>1056.63</ele>
        <time>2013-05-10T08:59:29Z</time>
      </trkpt>
      <trkpt lat="46.66678" lon="6.04746">
        <ele>1057.11</ele>
        <time>2013-05-10T08:59:30Z</time>
      </trkpt>
      <trkpt lat="46.6668" lon="6.04746">
        <ele>1057.11</ele>
        <time>2013-05-10T08:59:31Z</time>
      </trkpt>
      <trkpt lat="46.66683" lon="6.04747">
        <ele>1057.11</ele>
        <time>2013-05-10T08:59:32Z</time>
      </trkpt>
      <trkpt lat="46.66685" lon="6.04747">
        <ele>1057.11</ele>
        <time>2013-05-10T08:59:33Z</time>
      </trkpt>
      <trkpt lat="46.66687" lon="6.04745">
        <ele>1057.11</ele>
        <time>2013-05-10T08:59:34Z</time>
      </trkpt>
      <trkpt lat="46.66688" lon="6.04742">
        <ele>1057.59</ele>
        <time>2013-05-10T08:59:35Z</time>
      </trkpt>
      <trkpt lat="46.66689" lon="6.04739">
        <ele>1059.03</ele>
        <time>2013-05-10T08:59:36Z</time>
      </trkpt>
      <trkpt lat="46.6669" lon="6.04737">
        <ele>1057.59</ele>
        <time>2013-05-10T08:59:37Z</time>
      </trkpt>
      <trkpt lat="46.66691" lon="6.04734">
        <ele>1058.07</ele>
        <time>2013-05-10T08:59:49Z</time>
      </trkpt>
      <trkpt lat="46.66691" lon="6.04734">
        <ele>1057.59</ele>
        <time>2013-05-10T09:00:24Z</time>
      </trkpt>
      <trkpt lat="46.66691" lon="6.04734">
        <ele>1057.59</ele>
        <time>2013-05-10T09:01:04Z</time>
      </trkpt>
      <trkpt lat="46.66691" lon="6.04734">
        <ele>1057.59</ele>
        <time>2013-05-10T09:01:21Z</time>
      </trkpt>
      <trkpt lat="46.6669" lon="6.04732">
        <ele>1057.59</ele>
        <time>2013-05-10T09:01:39Z</time>
      </trkpt>
      <trkpt lat="46.6669" lon="6.04729">
        <ele>1057.59</ele>
        <time>2013-05-10T09:01:40Z</time>
      </trkpt>
      <trkpt lat="46.6669" lon="6.04726">
        <ele>1058.07</ele>
        <time>2013-05-10T09:01:41Z</time>
      </trkpt>
      <trkpt lat="46.66703" lon="6.04684">
        <ele>1060.47</ele>
        <time>2013-05-10T09:01:56Z</time>
      </trkpt>
      <trkpt lat="46.66711" lon="6.04646">
        <ele>1062.87</ele>
        <time>2013-05-10T09:02:09Z</time>
      </trkpt>
      <trkpt lat="46.66726" lon="6.04613">
        <ele>1065.76</ele>
        <time>2013-05-10T09:02:24Z</time>
      </trkpt>
      <trkpt lat="46.66737" lon="6.04599">
        <ele>1067.68</ele>
        <time>2013-05-10T09:02:33Z</time>
      </trkpt>
      <trkpt lat="46.66739" lon="6.04598">
        <ele>1067.68</ele>
        <time>2013-05-10T09:02:34Z</time>
      </trkpt>
      <trkpt lat="46.6674" lon="6.04597">
        <ele>1067.68</ele>
        <time>2013-05-10T09:02:35Z</time>
      </trkpt>
      <trkpt lat="46.66742" lon="6.04596">
        <ele>1067.68</ele>
        <time>2013-05-10T09:02:36Z</time>
      </trkpt>
      <trkpt lat="46.66743" lon="6.04594">
        <ele>1068.16</ele>
        <time>2013-05-10T09:02:37Z</time>
      </trkpt>
      <trkpt lat="46.66754" lon="6.04577">
        <ele>1069.6</ele>
        <time>2013-05-10T09:02:47Z</time>
      </trkpt>
      <trkpt lat="46.66755" lon="6.04574">
        <ele>1069.6</ele>
        <time>2013-05-10T09:02:48Z</time>
      </trkpt>
      <trkpt lat="46.66755" lon="6.04572">
        <ele>1070.08</ele>
        <time>2013-05-10T09:02:49Z</time>
      </trkpt>
      <trkpt lat="46.66756" lon="6.04569">
        <ele>1070.08</ele>
        <time>2013-05-10T09:02:50Z</time>
      </trkpt>
      <trkpt lat="46.66757" lon="6.04567">
        <ele>1070.08</ele>
        <time>2013-05-10T09:02:51Z</time>
      </trkpt>
      <trkpt lat="46.66771" lon="6.04534">
        <ele>1072.49</ele>
        <time>2013-05-10T09:03:06Z</time>
      </trkpt>
      <trkpt lat="46.66775" lon="6.04523">
        <ele>1073.45</ele>
        <time>2013-05-10T09:03:11Z</time>
      </trkpt>
      <trkpt lat="46.66775" lon="6.04521">
        <ele>1073.93</ele>
        <time>2013-05-10T09:03:12Z</time>
      </trkpt>
      <trkpt lat="46.66775" lon="6.04519">
        <ele>1073.45</ele>
        <time>2013-05-10T09:03:13Z</time>
      </trkpt>
      <trkpt lat="46.66776" lon="6.04517">
        <ele>1073.93</ele>
        <time>2013-05-10T09:03:14Z</time>
      </trkpt>
      <trkpt lat="46.66778" lon="6.04515">
        <ele>1074.41</ele>
        <time>2013-05-10T09:03:15Z</time>
      </trkpt>
      <trkpt lat="46.66779" lon="6.04514">
        <ele>1074.41</ele>
        <time>2013-05-10T09:03:16Z</time>
      </trkpt>
      <trkpt lat="46.66784" lon="6.0451">
        <ele>1074.89</ele>
        <time>2013-05-10T09:03:20Z</time>
      </trkpt>
      <trkpt lat="46.66785" lon="6.0451">
        <ele>1074.89</ele>
        <time>2013-05-10T09:03:21Z</time>
      </trkpt>
      <trkpt lat="46.66786" lon="6.04511">
        <ele>1075.37</ele>
        <time>2013-05-10T09:03:22Z</time>
      </trkpt>
      <trkpt lat="46.66787" lon="6.04511">
        <ele>1075.37</ele>
        <time>2013-05-10T09:03:23Z</time>
      </trkpt>
      <trkpt lat="46.66789" lon="6.0451">
        <ele>1075.37</ele>
        <time>2013-05-10T09:03:24Z</time>
      </trkpt>
      <trkpt lat="46.6679" lon="6.0451">
        <ele>1075.37</ele>
        <time>2013-05-10T09:03:25Z</time>
      </trkpt>
      <trkpt lat="46.66791" lon="6.04509">
        <ele>1075.37</ele>
        <time>2013-05-10T09:03:26Z</time>
      </trkpt>
      <trkpt lat="46.66793" lon="6.04508">
        <ele>1075.85</ele>
        <time>2013-05-10T09:03:27Z</time>
      </trkpt>
      <trkpt lat="46.66794" lon="6.04507">
        <ele>1075.85</ele>
        <time>2013-05-10T09:03:28Z</time>
      </trkpt>
      <trkpt lat="46.66807" lon="6.04492">
        <ele>1079.22</ele>
        <time>2013-05-10T09:03:38Z</time>
      </trkpt>
      <trkpt lat="46.66816" lon="6.04476">
        <ele>1079.22</ele>
        <time>2013-05-10T09:03:47Z</time>
      </trkpt>
      <trkpt lat="46.66829" lon="6.04447">
        <ele>1081.62</ele>
        <time>2013-05-10T09:04:03Z</time>
      </trkpt>
      <trkpt lat="46.66842" lon="6.04425">
        <ele>1083.06</ele>
        <time>2013-05-10T09:04:16Z</time>
      </trkpt>
      <trkpt lat="46.66843" lon="6.04424">
        <ele>1083.06</ele>
        <time>2013-05-10T09:04:17Z</time>
      </trkpt>
      <trkpt lat="46.66844" lon="6.04422">
        <ele>1083.54</ele>
        <time>2013-05-10T09:04:18Z</time>
      </trkpt>
      <trkpt lat="46.66857" lon="6.04398">
        <ele>1085.47</ele>
        <time>2013-05-10T09:04:32Z</time>
      </trkpt>
      <trkpt lat="46.66874" lon="6.04368">
        <ele>1087.87</ele>
        <time>2013-05-10T09:04:49Z</time>
      </trkpt>
      <trkpt lat="46.6689" lon="6.04347">
        <ele>1090.27</ele>
        <time>2013-05-10T09:05:02Z</time>
      </trkpt>
      <trkpt lat="46.6691" lon="6.04328">
        <ele>1092.2</ele>
        <time>2013-05-10T09:05:16Z</time>
      </trkpt>
      <trkpt lat="46.66932" lon="6.04317">
        <ele>1094.12</ele>
        <time>2013-05-10T09:05:30Z</time>
      </trkpt>
      <trkpt lat="46.66937" lon="6.04315">
        <ele>1094.6</ele>
        <time>2013-05-10T09:05:33Z</time>
      </trkpt>
      <trkpt lat="46.66938" lon="6.04313">
        <ele>1094.6</ele>
        <time>2013-05-10T09:05:34Z</time>
      </trkpt>
      <trkpt lat="46.66939" lon="6.04312">
        <ele>1094.6</ele>
        <time>2013-05-10T09:05:35Z</time>
      </trkpt>
      <trkpt lat="46.6694" lon="6.04311">
        <ele>1095.08</ele>
        <time>2013-05-10T09:05:36Z</time>
      </trkpt>
      <trkpt lat="46.66941" lon="6.0431">
        <ele>1094.6</ele>
        <time>2013-05-10T09:05:37Z</time>
      </trkpt>
      <trkpt lat="46.66943" lon="6.04308">
        <ele>1096.52</ele>
        <time>2013-05-10T09:05:38Z</time>
      </trkpt>
      <trkpt lat="46.66944" lon="6.04307">
        <ele>1095.56</ele>
        <time>2013-05-10T09:05:39Z</time>
      </trkpt>
      <trkpt lat="46.66964" lon="6.04291">
        <ele>1097</ele>
        <time>2013-05-10T09:05:52Z</time>
      </trkpt>
      <trkpt lat="46.66966" lon="6.0429">
        <ele>1097</ele>
        <time>2013-05-10T09:05:53Z</time>
      </trkpt>
      <trkpt lat="46.66967" lon="6.04288">
        <ele>1097</ele>
        <time>2013-05-10T09:05:54Z</time>
      </trkpt>
      <trkpt lat="46.66969" lon="6.04287">
        <ele>1097.48</ele>
        <time>2013-05-10T09:05:55Z</time>
      </trkpt>
      <trkpt lat="46.66971" lon="6.04286">
        <ele>1097.48</ele>
        <time>2013-05-10T09:05:56Z</time>
      </trkpt>
      <trkpt lat="46.66972" lon="6.04285">
        <ele>1097.96</ele>
        <time>2013-05-10T09:05:57Z</time>
      </trkpt>
      <trkpt lat="46.66991" lon="6.04269">
        <ele>1100.37</ele>
        <time>2013-05-10T09:06:11Z</time>
      </trkpt>
      <trkpt lat="46.67009" lon="6.04254">
        <ele>1102.29</ele>
        <time>2013-05-10T09:06:23Z</time>
      </trkpt>
      <trkpt lat="46.67032" lon="6.04234">
        <ele>1104.21</ele>
        <time>2013-05-10T09:06:38Z</time>
      </trkpt>
      <trkpt lat="46.67049" lon="6.04218">
        <ele>1106.13</ele>
        <time>2013-05-10T09:06:51Z</time>
      </trkpt>
      <trkpt lat="46.67056" lon="6.04209">
        <ele>1107.1</ele>
        <time>2013-05-10T09:06:57Z</time>
      </trkpt>
      <trkpt lat="46.67058" lon="6.04208">
        <ele>1107.1</ele>
        <time>2013-05-10T09:06:58Z</time>
      </trkpt>
      <trkpt lat="46.67059" lon="6.04207">
        <ele>1107.1</ele>
        <time>2013-05-10T09:06:59Z</time>
      </trkpt>
      <trkpt lat="46.67061" lon="6.04206">
        <ele>1107.58</ele>
        <time>2013-05-10T09:07:00Z</time>
      </trkpt>
      <trkpt lat="46.67062" lon="6.04205">
        <ele>1107.58</ele>
        <time>2013-05-10T09:07:01Z</time>
      </trkpt>
      <trkpt lat="46.67063" lon="6.04205">
        <ele>1107.58</ele>
        <time>2013-05-10T09:07:02Z</time>
      </trkpt>
      <trkpt lat="46.67065" lon="6.04204">
        <ele>1107.58</ele>
        <time>2013-05-10T09:07:03Z</time>
      </trkpt>
      <trkpt lat="46.67067" lon="6.04201">
        <ele>1108.06</ele>
        <time>2013-05-10T09:07:05Z</time>
      </trkpt>
      <trkpt lat="46.67068" lon="6.04199">
        <ele>1108.06</ele>
        <time>2013-05-10T09:07:06Z</time>
      </trkpt>
      <trkpt lat="46.67069" lon="6.04197">
        <ele>1108.06</ele>
        <time>2013-05-10T09:07:07Z</time>
      </trkpt>
      <trkpt lat="46.6707" lon="6.04195">
        <ele>1108.54</ele>
        <time>2013-05-10T09:07:08Z</time>
      </trkpt>
      <trkpt lat="46.67072" lon="6.04193">
        <ele>1108.54</ele>
        <time>2013-05-10T09:07:09Z</time>
      </trkpt>
      <trkpt lat="46.67076" lon="6.04186">
        <ele>1108.54</ele>
        <time>2013-05-10T09:07:19Z</time>
      </trkpt>
      <trkpt lat="46.67077" lon="6.04185">
        <ele>1107.1</ele>
        <time>2013-05-10T09:07:40Z</time>
      </trkpt>
      <trkpt lat="46.67078" lon="6.04182">
        <ele>1106.13</ele>
        <time>2013-05-10T09:07:41Z</time>
      </trkpt>
      <trkpt lat="46.67079" lon="6.0418">
        <ele>1105.65</ele>
        <time>2013-05-10T09:07:42Z</time>
      </trkpt>
      <trkpt lat="46.67089" lon="6.04175">
        <ele>1101.81</ele>
        <time>2013-05-10T09:07:46Z</time>
      </trkpt>
      <trkpt lat="46.67095" lon="6.04173">
        <ele>1099.4</ele>
        <time>2013-05-10T09:07:48Z</time>
      </trkpt>
      <trkpt lat="46.67098" lon="6.04173">
        <ele>1098.44</ele>
        <time>2013-05-10T09:07:49Z</time>
      </trkpt>
      <trkpt lat="46.67101" lon="6.04173">
        <ele>1097.48</ele>
        <time>2013-05-10T09:07:50Z</time>
      </trkpt>
      <trkpt lat="46.67104" lon="6.04173">
        <ele>1096.04</ele>
        <time>2013-05-10T09:07:51Z</time>
      </trkpt>
      <trkpt lat="46.67106" lon="6.04171">
        <ele>1094.6</ele>
        <time>2013-05-10T09:07:52Z</time>
      </trkpt>
      <trkpt lat="46.67118" lon="6.04166">
        <ele>1091.71</ele>
        <time>2013-05-10T09:07:56Z</time>
      </trkpt>
      <trkpt lat="46.6713" lon="6.04161">
        <ele>1087.87</ele>
        <time>2013-05-10T09:08:00Z</time>
      </trkpt>
      <trkpt lat="46.67139" lon="6.04157">
        <ele>1086.43</ele>
        <time>2013-05-10T09:08:02Z</time>
      </trkpt>
      <trkpt lat="46.67146" lon="6.04156">
        <ele>1084.5</ele>
        <time>2013-05-10T09:08:04Z</time>
      </trkpt>
      <trkpt lat="46.67158" lon="6.04155">
        <ele>1081.14</ele>
        <time>2013-05-10T09:08:07Z</time>
      </trkpt>
      <trkpt lat="46.67171" lon="6.04157">
        <ele>1077.78</ele>
        <time>2013-05-10T09:08:10Z</time>
      </trkpt>
      <trkpt lat="46.67184" lon="6.0416">
        <ele>1073.93</ele>
        <time>2013-05-10T09:08:14Z</time>
      </trkpt>
      <trkpt lat="46.67194" lon="6.04164">
        <ele>1070.57</ele>
        <time>2013-05-10T09:08:17Z</time>
      </trkpt>
      <trkpt lat="46.67205" lon="6.04164">
        <ele>1069.12</ele>
        <time>2013-05-10T09:08:20Z</time>
      </trkpt>
      <trkpt lat="46.67218" lon="6.04158">
        <ele>1067.2</ele>
        <time>2013-05-10T09:08:24Z</time>
      </trkpt>
      <trkpt lat="46.67226" lon="6.04157">
        <ele>1065.76</ele>
        <time>2013-05-10T09:08:26Z</time>
      </trkpt>
      <trkpt lat="46.67239" lon="6.04156">
        <ele>1062.39</ele>
        <time>2013-05-10T09:08:29Z</time>
      </trkpt>
      <trkpt lat="46.67251" lon="6.04156">
        <ele>1059.03</ele>
        <time>2013-05-10T09:08:32Z</time>
      </trkpt>
      <trkpt lat="46.67255" lon="6.04155">
        <ele>1058.07</ele>
        <time>2013-05-10T09:08:33Z</time>
      </trkpt>
      <trkpt lat="46.67268" lon="6.04156">
        <ele>1054.7</ele>
        <time>2013-05-10T09:08:36Z</time>
      </trkpt>
      <trkpt lat="46.67281" lon="6.04159">
        <ele>1051.82</ele>
        <time>2013-05-10T09:08:39Z</time>
      </trkpt>
      <trkpt lat="46.67285" lon="6.04159">
        <ele>1049.9</ele>
        <time>2013-05-10T09:08:40Z</time>
      </trkpt>
      <trkpt lat="46.6729" lon="6.04159">
        <ele>1049.9</ele>
        <time>2013-05-10T09:08:41Z</time>
      </trkpt>
      <trkpt lat="46.67293" lon="6.04158">
        <ele>1049.42</ele>
        <time>2013-05-10T09:08:42Z</time>
      </trkpt>
      <trkpt lat="46.67296" lon="6.04157">
        <ele>1048.94</ele>
        <time>2013-05-10T09:08:43Z</time>
      </trkpt>
      <trkpt lat="46.67301" lon="6.04157">
        <ele>1048.94</ele>
        <time>2013-05-10T09:08:58Z</time>
      </trkpt>
      <trkpt lat="46.67305" lon="6.0416">
        <ele>1048.45</ele>
        <time>2013-05-10T09:09:23Z</time>
      </trkpt>
      <trkpt lat="46.67312" lon="6.04161">
        <ele>1048.45</ele>
        <time>2013-05-10T09:09:35Z</time>
      </trkpt>
      <trkpt lat="46.67312" lon="6.04161">
        <ele>1048.94</ele>
        <time>2013-05-10T09:10:03Z</time>
      </trkpt>
      <trkpt lat="46.67313" lon="6.04161">
        <ele>1049.42</ele>
        <time>2013-05-10T09:10:28Z</time>
      </trkpt>
      <trkpt lat="46.67313" lon="6.04161">
        <ele>1049.42</ele>
        <time>2013-05-10T09:10:55Z</time>
      </trkpt>
      <trkpt lat="46.67323" lon="6.04167">
        <ele>1048.94</ele>
        <time>2013-05-10T09:11:05Z</time>
      </trkpt>
      <trkpt lat="46.67336" lon="6.04175">
        <ele>1047.49</ele>
        <time>2013-05-10T09:11:10Z</time>
      </trkpt>
      <trkpt lat="46.67344" lon="6.04184">
        <ele>1045.09</ele>
        <time>2013-05-10T09:11:14Z</time>
      </trkpt>
      <trkpt lat="46.6735" lon="6.04189">
        <ele>1044.13</ele>
        <time>2013-05-10T09:11:16Z</time>
      </trkpt>
      <trkpt lat="46.67368" lon="6.04205">
        <ele>1039.8</ele>
        <time>2013-05-10T09:11:21Z</time>
      </trkpt>
      <trkpt lat="46.67386" lon="6.04228">
        <ele>1036.92</ele>
        <time>2013-05-10T09:11:26Z</time>
      </trkpt>
      <trkpt lat="46.6739" lon="6.04233">
        <ele>1036.44</ele>
        <time>2013-05-10T09:11:27Z</time>
      </trkpt>
      <trkpt lat="46.67414" lon="6.04272">
        <ele>1037.4</ele>
        <time>2013-05-10T09:11:37Z</time>
      </trkpt>
      <trkpt lat="46.67429" lon="6.04291">
        <ele>1039.8</ele>
        <time>2013-05-10T09:11:49Z</time>
      </trkpt>
      <trkpt lat="46.6743" lon="6.04292">
        <ele>1039.8</ele>
        <time>2013-05-10T09:11:50Z</time>
      </trkpt>
      <trkpt lat="46.67444" lon="6.04307">
        <ele>1041.25</ele>
        <time>2013-05-10T09:12:01Z</time>
      </trkpt>
      <trkpt lat="46.67448" lon="6.04311">
        <ele>1041.73</ele>
        <time>2013-05-10T09:12:05Z</time>
      </trkpt>
      <trkpt lat="46.67464" lon="6.04329">
        <ele>1044.13</ele>
        <time>2013-05-10T09:12:19Z</time>
      </trkpt>
      <trkpt lat="46.67483" lon="6.04344">
        <ele>1044.61</ele>
        <time>2013-05-10T09:12:30Z</time>
      </trkpt>
      <trkpt lat="46.6749" lon="6.0435">
        <ele>1044.61</ele>
        <time>2013-05-10T09:12:33Z</time>
      </trkpt>
      <trkpt lat="46.67507" lon="6.04366">
        <ele>1043.17</ele>
        <time>2013-05-10T09:12:40Z</time>
      </trkpt>
      <trkpt lat="46.67526" lon="6.04387">
        <ele>1042.21</ele>
        <time>2013-05-10T09:12:46Z</time>
      </trkpt>
      <trkpt lat="46.67541" lon="6.04396">
        <ele>1040.76</ele>
        <time>2013-05-10T09:12:50Z</time>
      </trkpt>
      <trkpt lat="46.67545" lon="6.04397">
        <ele>1039.8</ele>
        <time>2013-05-10T09:12:51Z</time>
      </trkpt>
      <trkpt lat="46.67555" lon="6.044">
        <ele>1038.84</ele>
        <time>2013-05-10T09:12:53Z</time>
      </trkpt>
      <trkpt lat="46.67568" lon="6.04405">
        <ele>1037.88</ele>
        <time>2013-05-10T09:12:56Z</time>
      </trkpt>
      <trkpt lat="46.67578" lon="6.04414">
        <ele>1037.4</ele>
        <time>2013-05-10T09:12:59Z</time>
      </trkpt>
      <trkpt lat="46.67581" lon="6.04418">
        <ele>1036.92</ele>
        <time>2013-05-10T09:13:00Z</time>
      </trkpt>
      <trkpt lat="46.67584" lon="6.04421">
        <ele>1036.92</ele>
        <time>2013-05-10T09:13:01Z</time>
      </trkpt>
      <trkpt lat="46.67586" lon="6.04426">
        <ele>1036.44</ele>
        <time>2013-05-10T09:13:03Z</time>
      </trkpt>
      <trkpt lat="46.67589" lon="6.04429">
        <ele>1036.44</ele>
        <time>2013-05-10T09:13:04Z</time>
      </trkpt>
      <trkpt lat="46.67591" lon="6.04431">
        <ele>1036.92</ele>
        <time>2013-05-10T09:13:05Z</time>
      </trkpt>
      <trkpt lat="46.67593" lon="6.04433">
        <ele>1036.92</ele>
        <time>2013-05-10T09:13:06Z</time>
      </trkpt>
      <trkpt lat="46.67595" lon="6.04435">
        <ele>1036.92</ele>
        <time>2013-05-10T09:13:07Z</time>
      </trkpt>
      <trkpt lat="46.67597" lon="6.04438">
        <ele>1036.92</ele>
        <time>2013-05-10T09:13:08Z</time>
      </trkpt>
      <trkpt lat="46.67598" lon="6.04441">
        <ele>1036.92</ele>
        <time>2013-05-10T09:13:09Z</time>
      </trkpt>
      <trkpt lat="46.676" lon="6.04445">
        <ele>1036.92</ele>
        <time>2013-05-10T09:13:10Z</time>
      </trkpt>
      <trkpt lat="46.67602" lon="6.04448">
        <ele>1036.92</ele>
        <time>2013-05-10T09:13:11Z</time>
      </trkpt>
      <trkpt lat="46.67604" lon="6.04451">
        <ele>1036.92</ele>
        <time>2013-05-10T09:13:12Z</time>
      </trkpt>
      <trkpt lat="46.67605" lon="6.04454">
        <ele>1036.92</ele>
        <time>2013-05-10T09:13:13Z</time>
      </trkpt>
      <trkpt lat="46.67608" lon="6.04457">
        <ele>1036.44</ele>
        <time>2013-05-10T09:13:14Z</time>
      </trkpt>
      <trkpt lat="46.67611" lon="6.04461">
        <ele>1036.92</ele>
        <time>2013-05-10T09:13:15Z</time>
      </trkpt>
      <trkpt lat="46.67612" lon="6.04464">
        <ele>1036.44</ele>
        <time>2013-05-10T09:13:16Z</time>
      </trkpt>
      <trkpt lat="46.67613" lon="6.04468">
        <ele>1036.44</ele>
        <time>2013-05-10T09:13:17Z</time>
      </trkpt>
      <trkpt lat="46.67614" lon="6.04472">
        <ele>1036.92</ele>
        <time>2013-05-10T09:13:18Z</time>
      </trkpt>
      <trkpt lat="46.67615" lon="6.04476">
        <ele>1036.44</ele>
        <time>2013-05-10T09:13:19Z</time>
      </trkpt>
      <trkpt lat="46.67617" lon="6.04478">
        <ele>1036.44</ele>
        <time>2013-05-10T09:13:20Z</time>
      </trkpt>
      <trkpt lat="46.67619" lon="6.04481">
        <ele>1036.44</ele>
        <time>2013-05-10T09:13:21Z</time>
      </trkpt>
      <trkpt lat="46.67623" lon="6.04488">
        <ele>1036.44</ele>
        <time>2013-05-10T09:13:23Z</time>
      </trkpt>
      <trkpt lat="46.67625" lon="6.04492">
        <ele>1036.44</ele>
        <time>2013-05-10T09:13:24Z</time>
      </trkpt>
      <trkpt lat="46.67626" lon="6.04495">
        <ele>1035.96</ele>
        <time>2013-05-10T09:13:25Z</time>
      </trkpt>
      <trkpt lat="46.67638" lon="6.04514">
        <ele>1036.44</ele>
        <time>2013-05-10T09:13:31Z</time>
      </trkpt>
      <trkpt lat="46.6764" lon="6.04516">
        <ele>1036.44</ele>
        <time>2013-05-10T09:13:32Z</time>
      </trkpt>
      <trkpt lat="46.67641" lon="6.04519">
        <ele>1036.92</ele>
        <time>2013-05-10T09:13:33Z</time>
      </trkpt>
      <trkpt lat="46.67642" lon="6.04528">
        <ele>1036.92</ele>
        <time>2013-05-10T09:13:37Z</time>
      </trkpt>
      <trkpt lat="46.67643" lon="6.04532">
        <ele>1036.92</ele>
        <time>2013-05-10T09:13:39Z</time>
      </trkpt>
      <trkpt lat="46.6766" lon="6.04556">
        <ele>1036.92</ele>
        <time>2013-05-10T09:13:49Z</time>
      </trkpt>
      <trkpt lat="46.67669" lon="6.04581">
        <ele>1036.44</ele>
        <time>2013-05-10T09:13:58Z</time>
      </trkpt>
      <trkpt lat="46.67688" lon="6.04603">
        <ele>1035.96</ele>
        <time>2013-05-10T09:14:04Z</time>
      </trkpt>
      <trkpt lat="46.67689" lon="6.04609">
        <ele>1035.48</ele>
        <time>2013-05-10T09:14:06Z</time>
      </trkpt>
      <trkpt lat="46.67711" lon="6.04621">
        <ele>1035.48</ele>
        <time>2013-05-10T09:14:16Z</time>
      </trkpt>
      <trkpt lat="46.67711" lon="6.04621">
        <ele>1035</ele>
        <time>2013-05-10T09:14:34Z</time>
      </trkpt>
      <trkpt lat="46.67719" lon="6.0463">
        <ele>1034.52</ele>
        <time>2013-05-10T09:14:45Z</time>
      </trkpt>
      <trkpt lat="46.67756" lon="6.04635">
        <ele>1034.52</ele>
        <time>2013-05-10T09:15:00Z</time>
      </trkpt>
      <trkpt lat="46.67763" lon="6.04637">
        <ele>1034.52</ele>
        <time>2013-05-10T09:15:11Z</time>
      </trkpt>
      <trkpt lat="46.67763" lon="6.04637">
        <ele>1035</ele>
        <time>2013-05-10T09:15:37Z</time>
      </trkpt>
      <trkpt lat="46.67763" lon="6.04637">
        <ele>1035</ele>
        <time>2013-05-10T09:16:00Z</time>
      </trkpt>
      <trkpt lat="46.67766" lon="6.04637">
        <ele>1035</ele>
        <time>2013-05-10T09:16:03Z</time>
      </trkpt>
      <trkpt lat="46.67774" lon="6.04635">
        <ele>1035.48</ele>
        <time>2013-05-10T09:16:09Z</time>
      </trkpt>
      <trkpt lat="46.67779" lon="6.04639">
        <ele>1035.48</ele>
        <time>2013-05-10T09:16:16Z</time>
      </trkpt>
      <trkpt lat="46.67786" lon="6.04636">
        <ele>1035</ele>
        <time>2013-05-10T09:16:21Z</time>
      </trkpt>
      <trkpt lat="46.67809" lon="6.04626">
        <ele>1035</ele>
        <time>2013-05-10T09:16:37Z</time>
      </trkpt>
      <trkpt lat="46.67824" lon="6.04622">
        <ele>1035.96</ele>
        <time>2013-05-10T09:16:44Z</time>
      </trkpt>
      <trkpt lat="46.67833" lon="6.04622">
        <ele>1036.92</ele>
        <time>2013-05-10T09:16:50Z</time>
      </trkpt>
      <trkpt lat="46.67865" lon="6.04622">
        <ele>1037.4</ele>
        <time>2013-05-10T09:17:04Z</time>
      </trkpt>
      <trkpt lat="46.67898" lon="6.04608">
        <ele>1038.36</ele>
        <time>2013-05-10T09:17:17Z</time>
      </trkpt>
      <trkpt lat="46.67928" lon="6.0458">
        <ele>1040.28</ele>
        <time>2013-05-10T09:17:32Z</time>
      </trkpt>
      <trkpt lat="46.67957" lon="6.04566">
        <ele>1042.21</ele>
        <time>2013-05-10T09:17:46Z</time>
      </trkpt>
      <trkpt lat="46.67977" lon="6.04552">
        <ele>1045.09</ele>
        <time>2013-05-10T09:17:59Z</time>
      </trkpt>
      <trkpt lat="46.67978" lon="6.0455">
        <ele>1045.57</ele>
        <time>2013-05-10T09:18:00Z</time>
      </trkpt>
      <trkpt lat="46.67984" lon="6.04544">
        <ele>1046.53</ele>
        <time>2013-05-10T09:18:04Z</time>
      </trkpt>
      <trkpt lat="46.68001" lon="6.04529">
        <ele>1048.45</ele>
        <time>2013-05-10T09:18:17Z</time>
      </trkpt>
      <trkpt lat="46.68003" lon="6.04528">
        <ele>1048.45</ele>
        <time>2013-05-10T09:18:19Z</time>
      </trkpt>
      <trkpt lat="46.68024" lon="6.04501">
        <ele>1047.01</ele>
        <time>2013-05-10T09:18:29Z</time>
      </trkpt>
      <trkpt lat="46.6802" lon="6.04482">
        <ele>1047.49</ele>
        <time>2013-05-10T09:18:36Z</time>
      </trkpt>
      <trkpt lat="46.68018" lon="6.04479">
        <ele>1047.97</ele>
        <time>2013-05-10T09:18:38Z</time>
      </trkpt>
      <trkpt lat="46.68016" lon="6.04474">
        <ele>1047.97</ele>
        <time>2013-05-10T09:18:40Z</time>
      </trkpt>
      <trkpt lat="46.68011" lon="6.04466">
        <ele>1048.45</ele>
        <time>2013-05-10T09:18:44Z</time>
      </trkpt>
      <trkpt lat="46.68003" lon="6.04441">
        <ele>1049.9</ele>
        <time>2013-05-10T09:18:54Z</time>
      </trkpt>
      <trkpt lat="46.68001" lon="6.04429">
        <ele>1050.38</ele>
        <time>2013-05-10T09:18:58Z</time>
      </trkpt>
      <trkpt lat="46.67991" lon="6.04394">
        <ele>1052.3</ele>
        <time>2013-05-10T09:19:12Z</time>
      </trkpt>
      <trkpt lat="46.67985" lon="6.04375">
        <ele>1053.74</ele>
        <time>2013-05-10T09:19:19Z</time>
      </trkpt>
      <trkpt lat="46.6798" lon="6.04359">
        <ele>1055.18</ele>
        <time>2013-05-10T09:19:27Z</time>
      </trkpt>
      <trkpt lat="46.67968" lon="6.04328">
        <ele>1057.59</ele>
        <time>2013-05-10T09:19:41Z</time>
      </trkpt>
      <trkpt lat="46.67964" lon="6.04308">
        <ele>1058.55</ele>
        <time>2013-05-10T09:19:49Z</time>
      </trkpt>
      <trkpt lat="46.67955" lon="6.04291">
        <ele>1060.47</ele>
        <time>2013-05-10T09:19:58Z</time>
      </trkpt>
      <trkpt lat="46.67953" lon="6.04285">
        <ele>1060.95</ele>
        <time>2013-05-10T09:20:00Z</time>
      </trkpt>
      <trkpt lat="46.67952" lon="6.04277">
        <ele>1061.43</ele>
        <time>2013-05-10T09:20:03Z</time>
      </trkpt>
      <trkpt lat="46.67949" lon="6.04269">
        <ele>1061.91</ele>
        <time>2013-05-10T09:20:07Z</time>
      </trkpt>
      <trkpt lat="46.67947" lon="6.04267">
        <ele>1061.91</ele>
        <time>2013-05-10T09:20:09Z</time>
      </trkpt>
      <trkpt lat="46.6794" lon="6.04254">
        <ele>1063.36</ele>
        <time>2013-05-10T09:20:15Z</time>
      </trkpt>
      <trkpt lat="46.67927" lon="6.04216">
        <ele>1065.28</ele>
        <time>2013-05-10T09:20:30Z</time>
      </trkpt>
      <trkpt lat="46.67919" lon="6.04199">
        <ele>1066.72</ele>
        <time>2013-05-10T09:20:39Z</time>
      </trkpt>
      <trkpt lat="46.67912" lon="6.04183">
        <ele>1068.16</ele>
        <time>2013-05-10T09:20:48Z</time>
      </trkpt>
      <trkpt lat="46.679" lon="6.04165">
        <ele>1069.6</ele>
        <time>2013-05-10T09:21:01Z</time>
      </trkpt>
      <trkpt lat="46.67897" lon="6.0416">
        <ele>1070.08</ele>
        <time>2013-05-10T09:21:04Z</time>
      </trkpt>
      <trkpt lat="46.67891" lon="6.04151">
        <ele>1071.05</ele>
        <time>2013-05-10T09:21:10Z</time>
      </trkpt>
      <trkpt lat="46.6788" lon="6.0413">
        <ele>1072.49</ele>
        <time>2013-05-10T09:21:22Z</time>
      </trkpt>
      <trkpt lat="46.67877" lon="6.04124">
        <ele>1072.97</ele>
        <time>2013-05-10T09:21:25Z</time>
      </trkpt>
      <trkpt lat="46.67864" lon="6.04102">
        <ele>1074.89</ele>
        <time>2013-05-10T09:21:37Z</time>
      </trkpt>
      <trkpt lat="46.67856" lon="6.04087">
        <ele>1077.29</ele>
        <time>2013-05-10T09:21:45Z</time>
      </trkpt>
      <trkpt lat="46.67845" lon="6.04055">
        <ele>1077.78</ele>
        <time>2013-05-10T09:21:58Z</time>
      </trkpt>
      <trkpt lat="46.67843" lon="6.04048">
        <ele>1078.26</ele>
        <time>2013-05-10T09:22:01Z</time>
      </trkpt>
      <trkpt lat="46.6783" lon="6.04016">
        <ele>1080.18</ele>
        <time>2013-05-10T09:22:16Z</time>
      </trkpt>
      <trkpt lat="46.6783" lon="6.04013">
        <ele>1080.66</ele>
        <time>2013-05-10T09:22:17Z</time>
      </trkpt>
      <trkpt lat="46.6783" lon="6.04004">
        <ele>1081.62</ele>
        <time>2013-05-10T09:22:21Z</time>
      </trkpt>
      <trkpt lat="46.67826" lon="6.03972">
        <ele>1083.06</ele>
        <time>2013-05-10T09:22:35Z</time>
      </trkpt>
      <trkpt lat="46.67812" lon="6.03951">
        <ele>1085.47</ele>
        <time>2013-05-10T09:22:48Z</time>
      </trkpt>
      <trkpt lat="46.67801" lon="6.03918">
        <ele>1088.35</ele>
        <time>2013-05-10T09:23:04Z</time>
      </trkpt>
      <trkpt lat="46.67807" lon="6.03895">
        <ele>1090.27</ele>
        <time>2013-05-10T09:23:14Z</time>
      </trkpt>
      <trkpt lat="46.67812" lon="6.03887">
        <ele>1091.23</ele>
        <time>2013-05-10T09:23:19Z</time>
      </trkpt>
      <trkpt lat="46.67824" lon="6.03876">
        <ele>1093.16</ele>
        <time>2013-05-10T09:23:31Z</time>
      </trkpt>
      <trkpt lat="46.67829" lon="6.03873">
        <ele>1094.6</ele>
        <time>2013-05-10T09:23:46Z</time>
      </trkpt>
      <trkpt lat="46.67829" lon="6.03873">
        <ele>1093.16</ele>
        <time>2013-05-10T09:24:11Z</time>
      </trkpt>
      <trkpt lat="46.6783" lon="6.03872">
        <ele>1093.16</ele>
        <time>2013-05-10T09:24:16Z</time>
      </trkpt>
      <trkpt lat="46.67855" lon="6.03864">
        <ele>1090.27</ele>
        <time>2013-05-10T09:24:27Z</time>
      </trkpt>
      <trkpt lat="46.67891" lon="6.03854">
        <ele>1086.91</ele>
        <time>2013-05-10T09:24:35Z</time>
      </trkpt>
      <trkpt lat="46.67909" lon="6.03847">
        <ele>1085.95</ele>
        <time>2013-05-10T09:24:39Z</time>
      </trkpt>
      <trkpt lat="46.67914" lon="6.03846">
        <ele>1085.47</ele>
        <time>2013-05-10T09:24:40Z</time>
      </trkpt>
      <trkpt lat="46.67919" lon="6.03845">
        <ele>1084.99</ele>
        <time>2013-05-10T09:24:41Z</time>
      </trkpt>
      <trkpt lat="46.67924" lon="6.03843">
        <ele>1084.5</ele>
        <time>2013-05-10T09:24:42Z</time>
      </trkpt>
      <trkpt lat="46.67928" lon="6.0384">
        <ele>1084.02</ele>
        <time>2013-05-10T09:24:43Z</time>
      </trkpt>
      <trkpt lat="46.67933" lon="6.03837">
        <ele>1083.54</ele>
        <time>2013-05-10T09:24:44Z</time>
      </trkpt>
      <trkpt lat="46.67937" lon="6.03834">
        <ele>1083.06</ele>
        <time>2013-05-10T09:24:45Z</time>
      </trkpt>
      <trkpt lat="46.6796" lon="6.0382">
        <ele>1080.18</ele>
        <time>2013-05-10T09:24:50Z</time>
      </trkpt>
      <trkpt lat="46.67965" lon="6.0382">
        <ele>1079.7</ele>
        <time>2013-05-10T09:24:51Z</time>
      </trkpt>
      <trkpt lat="46.67969" lon="6.03821">
        <ele>1079.22</ele>
        <time>2013-05-10T09:24:52Z</time>
      </trkpt>
      <trkpt lat="46.67973" lon="6.03823">
        <ele>1078.74</ele>
        <time>2013-05-10T09:24:53Z</time>
      </trkpt>
      <trkpt lat="46.67977" lon="6.03826">
        <ele>1078.26</ele>
        <time>2013-05-10T09:24:54Z</time>
      </trkpt>
      <trkpt lat="46.67982" lon="6.03828">
        <ele>1077.78</ele>
        <time>2013-05-10T09:24:55Z</time>
      </trkpt>
      <trkpt lat="46.67995" lon="6.03836">
        <ele>1075.85</ele>
        <time>2013-05-10T09:24:58Z</time>
      </trkpt>
      <trkpt lat="46.68003" lon="6.03843">
        <ele>1074.41</ele>
        <time>2013-05-10T09:25:00Z</time>
      </trkpt>
      <trkpt lat="46.68008" lon="6.03847">
        <ele>1073.93</ele>
        <time>2013-05-10T09:25:01Z</time>
      </trkpt>
      <trkpt lat="46.68017" lon="6.03854">
        <ele>1072.97</ele>
        <time>2013-05-10T09:25:03Z</time>
      </trkpt>
      <trkpt lat="46.68026" lon="6.03861">
        <ele>1072.01</ele>
        <time>2013-05-10T09:25:05Z</time>
      </trkpt>
      <trkpt lat="46.6803" lon="6.03864">
        <ele>1071.53</ele>
        <time>2013-05-10T09:25:06Z</time>
      </trkpt>
      <trkpt lat="46.68048" lon="6.03885">
        <ele>1068.64</ele>
        <time>2013-05-10T09:25:11Z</time>
      </trkpt>
      <trkpt lat="46.68058" lon="6.03897">
        <ele>1067.2</ele>
        <time>2013-05-10T09:25:14Z</time>
      </trkpt>
      <trkpt lat="46.68061" lon="6.03902">
        <ele>1066.72</ele>
        <time>2013-05-10T09:25:15Z</time>
      </trkpt>
      <trkpt lat="46.68072" lon="6.03921">
        <ele>1064.8</ele>
        <time>2013-05-10T09:25:19Z</time>
      </trkpt>
      <trkpt lat="46.68075" lon="6.03926">
        <ele>1064.32</ele>
        <time>2013-05-10T09:25:20Z</time>
      </trkpt>
      <trkpt lat="46.68078" lon="6.03929">
        <ele>1063.84</ele>
        <time>2013-05-10T09:25:21Z</time>
      </trkpt>
      <trkpt lat="46.68081" lon="6.03932">
        <ele>1063.36</ele>
        <time>2013-05-10T09:25:22Z</time>
      </trkpt>
      <trkpt lat="46.68085" lon="6.03935">
        <ele>1062.87</ele>
        <time>2013-05-10T09:25:23Z</time>
      </trkpt>
      <trkpt lat="46.68089" lon="6.03938">
        <ele>1061.91</ele>
        <time>2013-05-10T09:25:24Z</time>
      </trkpt>
      <trkpt lat="46.68093" lon="6.03942">
        <ele>1061.43</ele>
        <time>2013-05-10T09:25:25Z</time>
      </trkpt>
      <trkpt lat="46.68116" lon="6.03957">
        <ele>1058.55</ele>
        <time>2013-05-10T09:25:31Z</time>
      </trkpt>
      <trkpt lat="46.6813" lon="6.03966">
        <ele>1056.15</ele>
        <time>2013-05-10T09:25:34Z</time>
      </trkpt>
      <trkpt lat="46.68152" lon="6.03983">
        <ele>1053.26</ele>
        <time>2013-05-10T09:25:40Z</time>
      </trkpt>
      <trkpt lat="46.68157" lon="6.03985">
        <ele>1052.78</ele>
        <time>2013-05-10T09:25:42Z</time>
      </trkpt>
      <trkpt lat="46.68162" lon="6.03987">
        <ele>1052.3</ele>
        <time>2013-05-10T09:25:46Z</time>
      </trkpt>
      <trkpt lat="46.68164" lon="6.03987">
        <ele>1053.26</ele>
        <time>2013-05-10T09:25:47Z</time>
      </trkpt>
      <trkpt lat="46.68166" lon="6.03986">
        <ele>1051.82</ele>
        <time>2013-05-10T09:25:48Z</time>
      </trkpt>
      <trkpt lat="46.68168" lon="6.03986">
        <ele>1051.34</ele>
        <time>2013-05-10T09:25:49Z</time>
      </trkpt>
      <trkpt lat="46.68172" lon="6.03986">
        <ele>1050.86</ele>
        <time>2013-05-10T09:25:50Z</time>
      </trkpt>
      <trkpt lat="46.68175" lon="6.03988">
        <ele>1050.86</ele>
        <time>2013-05-10T09:25:51Z</time>
      </trkpt>
      <trkpt lat="46.68202" lon="6.04012">
        <ele>1047.49</ele>
        <time>2013-05-10T09:26:01Z</time>
      </trkpt>
      <trkpt lat="46.68225" lon="6.04048">
        <ele>1044.13</ele>
        <time>2013-05-10T09:26:09Z</time>
      </trkpt>
      <trkpt lat="46.68229" lon="6.04054">
        <ele>1043.65</ele>
        <time>2013-05-10T09:26:10Z</time>
      </trkpt>
      <trkpt lat="46.68232" lon="6.04061">
        <ele>1042.69</ele>
        <time>2013-05-10T09:26:11Z</time>
      </trkpt>
      <trkpt lat="46.68235" lon="6.04068">
        <ele>1042.21</ele>
        <time>2013-05-10T09:26:12Z</time>
      </trkpt>
      <trkpt lat="46.68238" lon="6.04075">
        <ele>1041.73</ele>
        <time>2013-05-10T09:26:13Z</time>
      </trkpt>
      <trkpt lat="46.68242" lon="6.04081">
        <ele>1041.25</ele>
        <time>2013-05-10T09:26:14Z</time>
      </trkpt>
      <trkpt lat="46.68245" lon="6.04087">
        <ele>1040.28</ele>
        <time>2013-05-10T09:26:15Z</time>
      </trkpt>
      <trkpt lat="46.68249" lon="6.04094">
        <ele>1039.8</ele>
        <time>2013-05-10T09:26:16Z</time>
      </trkpt>
      <trkpt lat="46.68254" lon="6.041">
        <ele>1038.84</ele>
        <time>2013-05-10T09:26:17Z</time>
      </trkpt>
      <trkpt lat="46.68262" lon="6.04111">
        <ele>1037.4</ele>
        <time>2013-05-10T09:26:19Z</time>
      </trkpt>
      <trkpt lat="46.68266" lon="6.04115">
        <ele>1036.92</ele>
        <time>2013-05-10T09:26:20Z</time>
      </trkpt>
      <trkpt lat="46.68274" lon="6.04126">
        <ele>1035.48</ele>
        <time>2013-05-10T09:26:23Z</time>
      </trkpt>
      <trkpt lat="46.68297" lon="6.0416">
        <ele>1032.11</ele>
        <time>2013-05-10T09:26:29Z</time>
      </trkpt>
      <trkpt lat="46.68301" lon="6.04166">
        <ele>1031.63</ele>
        <time>2013-05-10T09:26:30Z</time>
      </trkpt>
      <trkpt lat="46.68307" lon="6.04178">
        <ele>1030.19</ele>
        <time>2013-05-10T09:26:32Z</time>
      </trkpt>
      <trkpt lat="46.6831" lon="6.04183">
        <ele>1029.71</ele>
        <time>2013-05-10T09:26:33Z</time>
      </trkpt>
      <trkpt lat="46.68313" lon="6.04188">
        <ele>1029.23</ele>
        <time>2013-05-10T09:26:34Z</time>
      </trkpt>
      <trkpt lat="46.68316" lon="6.04193">
        <ele>1028.75</ele>
        <time>2013-05-10T09:26:35Z</time>
      </trkpt>
      <trkpt lat="46.6832" lon="6.042">
        <ele>1028.27</ele>
        <time>2013-05-10T09:26:36Z</time>
      </trkpt>
      <trkpt lat="46.68325" lon="6.04206">
        <ele>1027.79</ele>
        <time>2013-05-10T09:26:37Z</time>
      </trkpt>
      <trkpt lat="46.68328" lon="6.04213">
        <ele>1026.83</ele>
        <time>2013-05-10T09:26:38Z</time>
      </trkpt>
      <trkpt lat="46.68341" lon="6.04236">
        <ele>1024.9</ele>
        <time>2013-05-10T09:26:41Z</time>
      </trkpt>
      <trkpt lat="46.68345" lon="6.04242">
        <ele>1024.42</ele>
        <time>2013-05-10T09:26:42Z</time>
      </trkpt>
      <trkpt lat="46.68349" lon="6.04248">
        <ele>1023.46</ele>
        <time>2013-05-10T09:26:43Z</time>
      </trkpt>
      <trkpt lat="46.68368" lon="6.04277">
        <ele>1020.1</ele>
        <time>2013-05-10T09:26:49Z</time>
      </trkpt>
      <trkpt lat="46.68371" lon="6.04281">
        <ele>1019.62</ele>
        <time>2013-05-10T09:26:50Z</time>
      </trkpt>
      <trkpt lat="46.68375" lon="6.04285">
        <ele>1019.13</ele>
        <time>2013-05-10T09:26:51Z</time>
      </trkpt>
      <trkpt lat="46.68379" lon="6.0429">
        <ele>1018.65</ele>
        <time>2013-05-10T09:26:52Z</time>
      </trkpt>
      <trkpt lat="46.68383" lon="6.04295">
        <ele>1017.69</ele>
        <time>2013-05-10T09:26:53Z</time>
      </trkpt>
      <trkpt lat="46.68387" lon="6.043">
        <ele>1017.21</ele>
        <time>2013-05-10T09:26:54Z</time>
      </trkpt>
      <trkpt lat="46.68391" lon="6.04306">
        <ele>1016.73</ele>
        <time>2013-05-10T09:26:55Z</time>
      </trkpt>
      <trkpt lat="46.68408" lon="6.04331">
        <ele>1014.33</ele>
        <time>2013-05-10T09:26:59Z</time>
      </trkpt>
      <trkpt lat="46.68413" lon="6.04337">
        <ele>1013.85</ele>
        <time>2013-05-10T09:27:00Z</time>
      </trkpt>
      <trkpt lat="46.68437" lon="6.04372">
        <ele>1010.48</ele>
        <time>2013-05-10T09:27:06Z</time>
      </trkpt>
      <trkpt lat="46.68446" lon="6.04384">
        <ele>1008.56</ele>
        <time>2013-05-10T09:27:08Z</time>
      </trkpt>
      <trkpt lat="46.68469" lon="6.04418">
        <ele>1005.68</ele>
        <time>2013-05-10T09:27:13Z</time>
      </trkpt>
      <trkpt lat="46.6849" lon="6.04449">
        <ele>1002.31</ele>
        <time>2013-05-10T09:27:18Z</time>
      </trkpt>
      <trkpt lat="46.68505" lon="6.04468">
        <ele>1000.39</ele>
        <time>2013-05-10T09:27:21Z</time>
      </trkpt>
      <trkpt lat="46.68515" lon="6.0448">
        <ele>998.95</ele>
        <time>2013-05-10T09:27:23Z</time>
      </trkpt>
      <trkpt lat="46.6852" lon="6.04487">
        <ele>998.47</ele>
        <time>2013-05-10T09:27:24Z</time>
      </trkpt>
      <trkpt lat="46.68528" lon="6.045">
        <ele>997.02</ele>
        <time>2013-05-10T09:27:26Z</time>
      </trkpt>
      <trkpt lat="46.68532" lon="6.04508">
        <ele>996.54</ele>
        <time>2013-05-10T09:27:27Z</time>
      </trkpt>
      <trkpt lat="46.68541" lon="6.04523">
        <ele>995.1</ele>
        <time>2013-05-10T09:27:29Z</time>
      </trkpt>
      <trkpt lat="46.68556" lon="6.04552">
        <ele>991.74</ele>
        <time>2013-05-10T09:27:33Z</time>
      </trkpt>
      <trkpt lat="46.68563" lon="6.04566">
        <ele>990.78</ele>
        <time>2013-05-10T09:27:35Z</time>
      </trkpt>
      <trkpt lat="46.68566" lon="6.04572">
        <ele>990.3</ele>
        <time>2013-05-10T09:27:36Z</time>
      </trkpt>
      <trkpt lat="46.6857" lon="6.04577">
        <ele>989.81</ele>
        <time>2013-05-10T09:27:37Z</time>
      </trkpt>
      <trkpt lat="46.68604" lon="6.04611">
        <ele>986.45</ele>
        <time>2013-05-10T09:27:44Z</time>
      </trkpt>
      <trkpt lat="46.68614" lon="6.04624">
        <ele>985.49</ele>
        <time>2013-05-10T09:27:47Z</time>
      </trkpt>
      <trkpt lat="46.68618" lon="6.04629">
        <ele>985.97</ele>
        <time>2013-05-10T09:27:48Z</time>
      </trkpt>
      <trkpt lat="46.68632" lon="6.04643">
        <ele>982.6</ele>
        <time>2013-05-10T09:27:51Z</time>
      </trkpt>
      <trkpt lat="46.68637" lon="6.04648">
        <ele>982.12</ele>
        <time>2013-05-10T09:27:52Z</time>
      </trkpt>
      <trkpt lat="46.68641" lon="6.04652">
        <ele>982.12</ele>
        <time>2013-05-10T09:27:53Z</time>
      </trkpt>
      <trkpt lat="46.68646" lon="6.04657">
        <ele>980.68</ele>
        <time>2013-05-10T09:27:54Z</time>
      </trkpt>
      <trkpt lat="46.68663" lon="6.04675">
        <ele>978.76</ele>
        <time>2013-05-10T09:27:58Z</time>
      </trkpt>
      <trkpt lat="46.68685" lon="6.047">
        <ele>975.88</ele>
        <time>2013-05-10T09:28:04Z</time>
      </trkpt>
      <trkpt lat="46.68695" lon="6.04707">
        <ele>974.43</ele>
        <time>2013-05-10T09:28:06Z</time>
      </trkpt>
      <trkpt lat="46.687" lon="6.0471">
        <ele>973.95</ele>
        <time>2013-05-10T09:28:07Z</time>
      </trkpt>
      <trkpt lat="46.68726" lon="6.04721">
        <ele>970.59</ele>
        <time>2013-05-10T09:28:12Z</time>
      </trkpt>
      <trkpt lat="46.68731" lon="6.04725">
        <ele>970.11</ele>
        <time>2013-05-10T09:28:13Z</time>
      </trkpt>
      <trkpt lat="46.68746" lon="6.04733">
        <ele>968.18</ele>
        <time>2013-05-10T09:28:16Z</time>
      </trkpt>
      <trkpt lat="46.68769" lon="6.04751">
        <ele>964.82</ele>
        <time>2013-05-10T09:28:20Z</time>
      </trkpt>
      <trkpt lat="46.68802" lon="6.04771">
        <ele>962.42</ele>
        <time>2013-05-10T09:28:25Z</time>
      </trkpt>
      <trkpt lat="46.68808" lon="6.04776">
        <ele>961.94</ele>
        <time>2013-05-10T09:28:26Z</time>
      </trkpt>
      <trkpt lat="46.68818" lon="6.04783">
        <ele>961.46</ele>
        <time>2013-05-10T09:28:28Z</time>
      </trkpt>
      <trkpt lat="46.68841" lon="6.04796">
        <ele>960.49</ele>
        <time>2013-05-10T09:28:32Z</time>
      </trkpt>
      <trkpt lat="46.68846" lon="6.048">
        <ele>960.01</ele>
        <time>2013-05-10T09:28:33Z</time>
      </trkpt>
      <trkpt lat="46.68852" lon="6.04801">
        <ele>959.53</ele>
        <time>2013-05-10T09:28:34Z</time>
      </trkpt>
      <trkpt lat="46.68858" lon="6.04801">
        <ele>959.05</ele>
        <time>2013-05-10T09:28:35Z</time>
      </trkpt>
      <trkpt lat="46.68865" lon="6.04798">
        <ele>959.05</ele>
        <time>2013-05-10T09:28:36Z</time>
      </trkpt>
      <trkpt lat="46.68872" lon="6.04794">
        <ele>958.57</ele>
        <time>2013-05-10T09:28:37Z</time>
      </trkpt>
      <trkpt lat="46.68878" lon="6.0479">
        <ele>958.57</ele>
        <time>2013-05-10T09:28:38Z</time>
      </trkpt>
      <trkpt lat="46.68883" lon="6.04787">
        <ele>958.57</ele>
        <time>2013-05-10T09:28:39Z</time>
      </trkpt>
      <trkpt lat="46.68889" lon="6.04784">
        <ele>958.57</ele>
        <time>2013-05-10T09:28:40Z</time>
      </trkpt>
      <trkpt lat="46.68908" lon="6.04761">
        <ele>958.09</ele>
        <time>2013-05-10T09:28:49Z</time>
      </trkpt>
      <trkpt lat="46.68901" lon="6.04723">
        <ele>957.13</ele>
        <time>2013-05-10T09:29:01Z</time>
      </trkpt>
      <trkpt lat="46.68895" lon="6.04706">
        <ele>956.17</ele>
        <time>2013-05-10T09:29:05Z</time>
      </trkpt>
      <trkpt lat="46.68895" lon="6.04701">
        <ele>955.69</ele>
        <time>2013-05-10T09:29:06Z</time>
      </trkpt>
      <trkpt lat="46.68894" lon="6.04696">
        <ele>955.21</ele>
        <time>2013-05-10T09:29:07Z</time>
      </trkpt>
      <trkpt lat="46.68892" lon="6.04691">
        <ele>955.69</ele>
        <time>2013-05-10T09:29:08Z</time>
      </trkpt>
      <trkpt lat="46.68891" lon="6.04685">
        <ele>955.21</ele>
        <time>2013-05-10T09:29:09Z</time>
      </trkpt>
      <trkpt lat="46.68869" lon="6.04608">
        <ele>954.25</ele>
        <time>2013-05-10T09:29:21Z</time>
      </trkpt>
      <trkpt lat="46.68868" lon="6.04602">
        <ele>954.25</ele>
        <time>2013-05-10T09:29:22Z</time>
      </trkpt>
      <trkpt lat="46.68866" lon="6.04596">
        <ele>953.77</ele>
        <time>2013-05-10T09:29:23Z</time>
      </trkpt>
      <trkpt lat="46.68865" lon="6.04591">
        <ele>953.77</ele>
        <time>2013-05-10T09:29:24Z</time>
      </trkpt>
      <trkpt lat="46.68864" lon="6.04586">
        <ele>954.25</ele>
        <time>2013-05-10T09:29:25Z</time>
      </trkpt>
      <trkpt lat="46.68863" lon="6.0458">
        <ele>953.77</ele>
        <time>2013-05-10T09:29:26Z</time>
      </trkpt>
      <trkpt lat="46.68862" lon="6.04576">
        <ele>953.77</ele>
        <time>2013-05-10T09:29:27Z</time>
      </trkpt>
      <trkpt lat="46.68861" lon="6.04571">
        <ele>953.77</ele>
        <time>2013-05-10T09:29:28Z</time>
      </trkpt>
      <trkpt lat="46.68864" lon="6.04523">
        <ele>953.77</ele>
        <time>2013-05-10T09:29:37Z</time>
      </trkpt>
      <trkpt lat="46.68866" lon="6.04465">
        <ele>953.77</ele>
        <time>2013-05-10T09:29:48Z</time>
      </trkpt>
      <trkpt lat="46.68866" lon="6.04456">
        <ele>953.77</ele>
        <time>2013-05-10T09:29:50Z</time>
      </trkpt>
      <trkpt lat="46.68866" lon="6.04451">
        <ele>953.28</ele>
        <time>2013-05-10T09:29:51Z</time>
      </trkpt>
      <trkpt lat="46.68865" lon="6.04446">
        <ele>953.28</ele>
        <time>2013-05-10T09:29:52Z</time>
      </trkpt>
      <trkpt lat="46.68865" lon="6.04441">
        <ele>953.28</ele>
        <time>2013-05-10T09:29:53Z</time>
      </trkpt>
      <trkpt lat="46.68864" lon="6.04435">
        <ele>953.28</ele>
        <time>2013-05-10T09:29:54Z</time>
      </trkpt>
      <trkpt lat="46.68864" lon="6.04417">
        <ele>952.8</ele>
        <time>2013-05-10T09:29:57Z</time>
      </trkpt>
      <trkpt lat="46.68865" lon="6.04404">
        <ele>952.32</ele>
        <time>2013-05-10T09:29:59Z</time>
      </trkpt>
      <trkpt lat="46.68867" lon="6.04391">
        <ele>951.84</ele>
        <time>2013-05-10T09:30:01Z</time>
      </trkpt>
      <trkpt lat="46.6887" lon="6.04378">
        <ele>951.36</ele>
        <time>2013-05-10T09:30:03Z</time>
      </trkpt>
      <trkpt lat="46.68875" lon="6.04365">
        <ele>950.88</ele>
        <time>2013-05-10T09:30:05Z</time>
      </trkpt>
      <trkpt lat="46.68878" lon="6.04358">
        <ele>950.4</ele>
        <time>2013-05-10T09:30:06Z</time>
      </trkpt>
      <trkpt lat="46.68882" lon="6.04352">
        <ele>949.92</ele>
        <time>2013-05-10T09:30:07Z</time>
      </trkpt>
      <trkpt lat="46.68886" lon="6.04347">
        <ele>949.44</ele>
        <time>2013-05-10T09:30:08Z</time>
      </trkpt>
      <trkpt lat="46.68891" lon="6.04342">
        <ele>948.96</ele>
        <time>2013-05-10T09:30:09Z</time>
      </trkpt>
      <trkpt lat="46.68896" lon="6.04337">
        <ele>948.96</ele>
        <time>2013-05-10T09:30:10Z</time>
      </trkpt>
      <trkpt lat="46.68916" lon="6.0432">
        <ele>948</ele>
        <time>2013-05-10T09:30:14Z</time>
      </trkpt>
      <trkpt lat="46.68954" lon="6.04284">
        <ele>945.59</ele>
        <time>2013-05-10T09:30:21Z</time>
      </trkpt>
      <trkpt lat="46.69032" lon="6.0422">
        <ele>943.67</ele>
        <time>2013-05-10T09:30:34Z</time>
      </trkpt>
      <trkpt lat="46.69075" lon="6.04184">
        <ele>944.63</ele>
        <time>2013-05-10T09:30:46Z</time>
      </trkpt>
      <trkpt lat="46.69118" lon="6.04168">
        <ele>944.15</ele>
        <time>2013-05-10T09:30:58Z</time>
      </trkpt>
      <trkpt lat="46.69148" lon="6.04156">
        <ele>944.15</ele>
        <time>2013-05-10T09:31:05Z</time>
      </trkpt>
      <trkpt lat="46.69196" lon="6.04104">
        <ele>943.67</ele>
        <time>2013-05-10T09:31:20Z</time>
      </trkpt>
      <trkpt lat="46.69204" lon="6.04091">
        <ele>944.15</ele>
        <time>2013-05-10T09:31:23Z</time>
      </trkpt>
      <trkpt lat="46.69206" lon="6.04086">
        <ele>943.67</ele>
        <time>2013-05-10T09:31:24Z</time>
      </trkpt>
      <trkpt lat="46.69208" lon="6.0408">
        <ele>943.67</ele>
        <time>2013-05-10T09:31:25Z</time>
      </trkpt>
      <trkpt lat="46.69211" lon="6.04075">
        <ele>943.67</ele>
        <time>2013-05-10T09:31:26Z</time>
      </trkpt>
      <trkpt lat="46.69213" lon="6.04069">
        <ele>943.19</ele>
        <time>2013-05-10T09:31:27Z</time>
      </trkpt>
      <trkpt lat="46.69215" lon="6.04063">
        <ele>943.19</ele>
        <time>2013-05-10T09:31:28Z</time>
      </trkpt>
      <trkpt lat="46.69218" lon="6.04057">
        <ele>943.19</ele>
        <time>2013-05-10T09:31:29Z</time>
      </trkpt>
      <trkpt lat="46.6922" lon="6.0405">
        <ele>942.71</ele>
        <time>2013-05-10T09:31:30Z</time>
      </trkpt>
      <trkpt lat="46.69222" lon="6.04044">
        <ele>942.71</ele>
        <time>2013-05-10T09:31:31Z</time>
      </trkpt>
      <trkpt lat="46.69223" lon="6.04038">
        <ele>942.71</ele>
        <time>2013-05-10T09:31:32Z</time>
      </trkpt>
      <trkpt lat="46.69224" lon="6.04032">
        <ele>942.71</ele>
        <time>2013-05-10T09:31:33Z</time>
      </trkpt>
      <trkpt lat="46.69226" lon="6.04026">
        <ele>942.71</ele>
        <time>2013-05-10T09:31:34Z</time>
      </trkpt>
      <trkpt lat="46.69229" lon="6.03995">
        <ele>942.23</ele>
        <time>2013-05-10T09:31:43Z</time>
      </trkpt>
      <trkpt lat="46.69227" lon="6.03967">
        <ele>939.35</ele>
        <time>2013-05-10T09:31:53Z</time>
      </trkpt>
      <trkpt lat="46.69208" lon="6.03939">
        <ele>937.9</ele>
        <time>2013-05-10T09:32:02Z</time>
      </trkpt>
      <trkpt lat="46.69179" lon="6.03907">
        <ele>937.42</ele>
        <time>2013-05-10T09:32:12Z</time>
      </trkpt>
      <trkpt lat="46.69143" lon="6.03862">
        <ele>935.98</ele>
        <time>2013-05-10T09:32:25Z</time>
      </trkpt>
      <trkpt lat="46.69132" lon="6.03852">
        <ele>935.98</ele>
        <time>2013-05-10T09:32:29Z</time>
      </trkpt>
      <trkpt lat="46.69132" lon="6.03848">
        <ele>935.98</ele>
        <time>2013-05-10T09:32:30Z</time>
      </trkpt>
      <trkpt lat="46.69131" lon="6.03844">
        <ele>935.5</ele>
        <time>2013-05-10T09:32:31Z</time>
      </trkpt>
      <trkpt lat="46.69129" lon="6.0384">
        <ele>935.02</ele>
        <time>2013-05-10T09:32:32Z</time>
      </trkpt>
      <trkpt lat="46.69127" lon="6.03836">
        <ele>934.54</ele>
        <time>2013-05-10T09:32:33Z</time>
      </trkpt>
      <trkpt lat="46.69125" lon="6.03833">
        <ele>934.54</ele>
        <time>2013-05-10T09:32:34Z</time>
      </trkpt>
      <trkpt lat="46.69103" lon="6.03797">
        <ele>932.62</ele>
        <time>2013-05-10T09:32:45Z</time>
      </trkpt>
      <trkpt lat="46.69075" lon="6.03752">
        <ele>930.69</ele>
        <time>2013-05-10T09:32:57Z</time>
      </trkpt>
      <trkpt lat="46.6906" lon="6.0373">
        <ele>929.25</ele>
        <time>2013-05-10T09:33:02Z</time>
      </trkpt>
      <trkpt lat="46.69057" lon="6.03725">
        <ele>929.25</ele>
        <time>2013-05-10T09:33:03Z</time>
      </trkpt>
      <trkpt lat="46.69054" lon="6.0372">
        <ele>928.77</ele>
        <time>2013-05-10T09:33:04Z</time>
      </trkpt>
      <trkpt lat="46.69014" lon="6.03658">
        <ele>927.81</ele>
        <time>2013-05-10T09:33:18Z</time>
      </trkpt>
      <trkpt lat="46.68987" lon="6.03629">
        <ele>928.77</ele>
        <time>2013-05-10T09:33:29Z</time>
      </trkpt>
      <trkpt lat="46.68953" lon="6.03579">
        <ele>929.73</ele>
        <time>2013-05-10T09:33:44Z</time>
      </trkpt>
      <trkpt lat="46.68936" lon="6.03512">
        <ele>929.73</ele>
        <time>2013-05-10T09:33:59Z</time>
      </trkpt>
      <trkpt lat="46.6891" lon="6.03457">
        <ele>928.77</ele>
        <time>2013-05-10T09:34:13Z</time>
      </trkpt>
      <trkpt lat="46.68879" lon="6.03417">
        <ele>928.77</ele>
        <time>2013-05-10T09:34:26Z</time>
      </trkpt>
      <trkpt lat="46.68858" lon="6.03389">
        <ele>928.77</ele>
        <time>2013-05-10T09:34:37Z</time>
      </trkpt>
      <trkpt lat="46.68857" lon="6.03387">
        <ele>928.77</ele>
        <time>2013-05-10T09:34:38Z</time>
      </trkpt>
      <trkpt lat="46.68856" lon="6.03386">
        <ele>928.77</ele>
        <time>2013-05-10T09:34:39Z</time>
      </trkpt>
      <trkpt lat="46.68855" lon="6.03384">
        <ele>928.77</ele>
        <time>2013-05-10T09:34:40Z</time>
      </trkpt>
      <trkpt lat="46.68854" lon="6.03382">
        <ele>928.77</ele>
        <time>2013-05-10T09:34:41Z</time>
      </trkpt>
      <trkpt lat="46.68853" lon="6.03379">
        <ele>928.77</ele>
        <time>2013-05-10T09:34:42Z</time>
      </trkpt>
      <trkpt lat="46.68827" lon="6.03336">
        <ele>926.85</ele>
        <time>2013-05-10T09:34:57Z</time>
      </trkpt>
      <trkpt lat="46.68814" lon="6.03318">
        <ele>925.89</ele>
        <time>2013-05-10T09:35:01Z</time>
      </trkpt>
      <trkpt lat="46.68809" lon="6.03313">
        <ele>925.41</ele>
        <time>2013-05-10T09:35:02Z</time>
      </trkpt>
      <trkpt lat="46.68775" lon="6.03268">
        <ele>923.96</ele>
        <time>2013-05-10T09:35:11Z</time>
      </trkpt>
      <trkpt lat="46.6877" lon="6.03255">
        <ele>923.96</ele>
        <time>2013-05-10T09:35:13Z</time>
      </trkpt>
      <trkpt lat="46.68768" lon="6.03248">
        <ele>923.96</ele>
        <time>2013-05-10T09:35:14Z</time>
      </trkpt>
      <trkpt lat="46.68751" lon="6.03142">
        <ele>921.08</ele>
        <time>2013-05-10T09:35:29Z</time>
      </trkpt>
      <trkpt lat="46.68741" lon="6.03082">
        <ele>918.2</ele>
        <time>2013-05-10T09:35:37Z</time>
      </trkpt>
      <trkpt lat="46.68739" lon="6.03066">
        <ele>917.24</ele>
        <time>2013-05-10T09:35:39Z</time>
      </trkpt>
      <trkpt lat="46.68738" lon="6.03057">
        <ele>916.75</ele>
        <time>2013-05-10T09:35:40Z</time>
      </trkpt>
      <trkpt lat="46.68737" lon="6.02993">
        <ele>914.83</ele>
        <time>2013-05-10T09:35:48Z</time>
      </trkpt>
      <trkpt lat="46.68731" lon="6.02922">
        <ele>911.47</ele>
        <time>2013-05-10T09:35:56Z</time>
      </trkpt>
      <trkpt lat="46.6873" lon="6.02911">
        <ele>910.99</ele>
        <time>2013-05-10T09:35:57Z</time>
      </trkpt>
      <trkpt lat="46.68728" lon="6.02902">
        <ele>910.99</ele>
        <time>2013-05-10T09:35:58Z</time>
      </trkpt>
      <trkpt lat="46.68725" lon="6.02892">
        <ele>910.51</ele>
        <time>2013-05-10T09:35:59Z</time>
      </trkpt>
      <trkpt lat="46.68722" lon="6.02884">
        <ele>910.99</ele>
        <time>2013-05-10T09:36:00Z</time>
      </trkpt>
      <trkpt lat="46.68718" lon="6.02875">
        <ele>910.51</ele>
        <time>2013-05-10T09:36:01Z</time>
      </trkpt>
      <trkpt lat="46.68715" lon="6.02868">
        <ele>910.51</ele>
        <time>2013-05-10T09:36:02Z</time>
      </trkpt>
      <trkpt lat="46.68672" lon="6.02794">
        <ele>910.51</ele>
        <time>2013-05-10T09:36:15Z</time>
      </trkpt>
      <trkpt lat="46.68663" lon="6.02779">
        <ele>910.51</ele>
        <time>2013-05-10T09:36:18Z</time>
      </trkpt>
      <trkpt lat="46.6866" lon="6.02774">
        <ele>910.99</ele>
        <time>2013-05-10T09:36:19Z</time>
      </trkpt>
      <trkpt lat="46.68658" lon="6.02769">
        <ele>910.51</ele>
        <time>2013-05-10T09:36:20Z</time>
      </trkpt>
      <trkpt lat="46.68646" lon="6.0275">
        <ele>910.51</ele>
        <time>2013-05-10T09:36:24Z</time>
      </trkpt>
      <trkpt lat="46.68643" lon="6.02745">
        <ele>910.03</ele>
        <time>2013-05-10T09:36:25Z</time>
      </trkpt>
      <trkpt lat="46.68613" lon="6.02687">
        <ele>908.58</ele>
        <time>2013-05-10T09:36:36Z</time>
      </trkpt>
      <trkpt lat="46.68587" lon="6.02612">
        <ele>908.58</ele>
        <time>2013-05-10T09:36:49Z</time>
      </trkpt>
      <trkpt lat="46.68569" lon="6.02552">
        <ele>910.03</ele>
        <time>2013-05-10T09:37:03Z</time>
      </trkpt>
      <trkpt lat="46.68568" lon="6.0255">
        <ele>910.03</ele>
        <time>2013-05-10T09:37:04Z</time>
      </trkpt>
      <trkpt lat="46.68566" lon="6.02548">
        <ele>910.03</ele>
        <time>2013-05-10T09:37:05Z</time>
      </trkpt>
      <trkpt lat="46.68565" lon="6.02546">
        <ele>910.03</ele>
        <time>2013-05-10T09:37:06Z</time>
      </trkpt>
      <trkpt lat="46.68564" lon="6.02545">
        <ele>910.03</ele>
        <time>2013-05-10T09:37:07Z</time>
      </trkpt>
      <trkpt lat="46.68565" lon="6.02541">
        <ele>910.03</ele>
        <time>2013-05-10T09:37:14Z</time>
      </trkpt>
      <trkpt lat="46.68564" lon="6.0254">
        <ele>910.51</ele>
        <time>2013-05-10T09:37:23Z</time>
      </trkpt>
      <trkpt lat="46.68564" lon="6.02539">
        <ele>909.54</ele>
        <time>2013-05-10T09:37:39Z</time>
      </trkpt>
      <trkpt lat="46.68564" lon="6.02539">
        <ele>909.54</ele>
        <time>2013-05-10T09:38:16Z</time>
      </trkpt>
      <trkpt lat="46.68564" lon="6.02539">
        <ele>909.54</ele>
        <time>2013-05-10T09:38:52Z</time>
      </trkpt>
      <trkpt lat="46.68564" lon="6.02539">
        <ele>910.03</ele>
        <time>2013-05-10T09:39:30Z</time>
      </trkpt>
      <trkpt lat="46.68564" lon="6.02539">
        <ele>910.03</ele>
        <time>2013-05-10T09:40:09Z</time>
      </trkpt>
      <trkpt lat="46.68565" lon="6.02539">
        <ele>910.03</ele>
        <time>2013-05-10T09:40:47Z</time>
      </trkpt>
      <trkpt lat="46.68565" lon="6.0254">
        <ele>910.03</ele>
        <time>2013-05-10T09:41:28Z</time>
      </trkpt>
      <trkpt lat="46.68564" lon="6.02541">
        <ele>910.99</ele>
        <time>2013-05-10T09:41:59Z</time>
      </trkpt>
      <trkpt lat="46.68564" lon="6.02541">
        <ele>910.99</ele>
        <time>2013-05-10T09:42:33Z</time>
      </trkpt>
      <trkpt lat="46.68562" lon="6.0254">
        <ele>910.99</ele>
        <time>2013-05-10T09:42:56Z</time>
      </trkpt>
      <trkpt lat="46.68561" lon="6.02539">
        <ele>910.51</ele>
        <time>2013-05-10T09:42:57Z</time>
      </trkpt>
      <trkpt lat="46.6856" lon="6.02538">
        <ele>910.51</ele>
        <time>2013-05-10T09:42:58Z</time>
      </trkpt>
      <trkpt lat="46.68559" lon="6.02536">
        <ele>910.51</ele>
        <time>2013-05-10T09:42:59Z</time>
      </trkpt>
      <trkpt lat="46.68558" lon="6.02534">
        <ele>910.51</ele>
        <time>2013-05-10T09:43:00Z</time>
      </trkpt>
      <trkpt lat="46.68557" lon="6.02532">
        <ele>910.51</ele>
        <time>2013-05-10T09:43:01Z</time>
      </trkpt>
      <trkpt lat="46.68556" lon="6.0253">
        <ele>910.51</ele>
        <time>2013-05-10T09:43:02Z</time>
      </trkpt>
      <trkpt lat="46.68555" lon="6.02527">
        <ele>910.03</ele>
        <time>2013-05-10T09:43:03Z</time>
      </trkpt>
      <trkpt lat="46.68527" lon="6.02483">
        <ele>910.03</ele>
        <time>2013-05-10T09:43:16Z</time>
      </trkpt>
      <trkpt lat="46.68492" lon="6.02435">
        <ele>909.54</ele>
        <time>2013-05-10T09:43:30Z</time>
      </trkpt>
      <trkpt lat="46.68451" lon="6.02388">
        <ele>906.18</ele>
        <time>2013-05-10T09:43:41Z</time>
      </trkpt>
      <trkpt lat="46.68392" lon="6.0233">
        <ele>902.82</ele>
        <time>2013-05-10T09:43:52Z</time>
      </trkpt>
      <trkpt lat="46.68338" lon="6.02278">
        <ele>899.45</ele>
        <time>2013-05-10T09:44:02Z</time>
      </trkpt>
      <trkpt lat="46.68322" lon="6.0226">
        <ele>898.01</ele>
        <time>2013-05-10T09:44:05Z</time>
      </trkpt>
      <trkpt lat="46.68289" lon="6.02222">
        <ele>894.16</ele>
        <time>2013-05-10T09:44:11Z</time>
      </trkpt>
      <trkpt lat="46.68264" lon="6.02195">
        <ele>890.8</ele>
        <time>2013-05-10T09:44:16Z</time>
      </trkpt>
      <trkpt lat="46.68229" lon="6.0216">
        <ele>887.43</ele>
        <time>2013-05-10T09:44:24Z</time>
      </trkpt>
      <trkpt lat="46.682" lon="6.02133">
        <ele>884.07</ele>
        <time>2013-05-10T09:44:33Z</time>
      </trkpt>
      <trkpt lat="46.68183" lon="6.02115">
        <ele>881.19</ele>
        <time>2013-05-10T09:44:39Z</time>
      </trkpt>
      <trkpt lat="46.68182" lon="6.0211">
        <ele>880.71</ele>
        <time>2013-05-10T09:44:40Z</time>
      </trkpt>
      <trkpt lat="46.68182" lon="6.02106">
        <ele>881.19</ele>
        <time>2013-05-10T09:44:41Z</time>
      </trkpt>
      <trkpt lat="46.68182" lon="6.02102">
        <ele>881.19</ele>
        <time>2013-05-10T09:44:42Z</time>
      </trkpt>
      <trkpt lat="46.68183" lon="6.02098">
        <ele>881.19</ele>
        <time>2013-05-10T09:44:43Z</time>
      </trkpt>
      <trkpt lat="46.68185" lon="6.02095">
        <ele>881.19</ele>
        <time>2013-05-10T09:44:44Z</time>
      </trkpt>
      <trkpt lat="46.68189" lon="6.02075">
        <ele>879.26</ele>
        <time>2013-05-10T09:44:49Z</time>
      </trkpt>
      <trkpt lat="46.68188" lon="6.0207">
        <ele>878.78</ele>
        <time>2013-05-10T09:44:50Z</time>
      </trkpt>
      <trkpt lat="46.68185" lon="6.02057">
        <ele>876.86</ele>
        <time>2013-05-10T09:44:53Z</time>
      </trkpt>
      <trkpt lat="46.68186" lon="6.02052">
        <ele>876.38</ele>
        <time>2013-05-10T09:44:54Z</time>
      </trkpt>
      <trkpt lat="46.68187" lon="6.02046">
        <ele>875.42</ele>
        <time>2013-05-10T09:44:55Z</time>
      </trkpt>
      <trkpt lat="46.68192" lon="6.02029">
        <ele>873.98</ele>
        <time>2013-05-10T09:44:58Z</time>
      </trkpt>
      <trkpt lat="46.68209" lon="6.01996">
        <ele>873.98</ele>
        <time>2013-05-10T09:45:05Z</time>
      </trkpt>
      <trkpt lat="46.68246" lon="6.01935">
        <ele>872.05</ele>
        <time>2013-05-10T09:45:18Z</time>
      </trkpt>
      <trkpt lat="46.68294" lon="6.01881">
        <ele>870.13</ele>
        <time>2013-05-10T09:45:28Z</time>
      </trkpt>
      <trkpt lat="46.6832" lon="6.0186">
        <ele>871.09</ele>
        <time>2013-05-10T09:45:38Z</time>
      </trkpt>
      <trkpt lat="46.68324" lon="6.01857">
        <ele>871.09</ele>
        <time>2013-05-10T09:45:47Z</time>
      </trkpt>
      <trkpt lat="46.68341" lon="6.01851">
        <ele>870.61</ele>
        <time>2013-05-10T09:45:58Z</time>
      </trkpt>
      <trkpt lat="46.68377" lon="6.0184">
        <ele>869.65</ele>
        <time>2013-05-10T09:46:07Z</time>
      </trkpt>
      <trkpt lat="46.68414" lon="6.01831">
        <ele>868.21</ele>
        <time>2013-05-10T09:46:14Z</time>
      </trkpt>
      <trkpt lat="46.68447" lon="6.01818">
        <ele>867.73</ele>
        <time>2013-05-10T09:46:21Z</time>
      </trkpt>
      <trkpt lat="46.685" lon="6.01768">
        <ele>867.25</ele>
        <time>2013-05-10T09:46:33Z</time>
      </trkpt>
      <trkpt lat="46.68573" lon="6.01703">
        <ele>866.77</ele>
        <time>2013-05-10T09:46:48Z</time>
      </trkpt>
      <trkpt lat="46.68646" lon="6.01665">
        <ele>867.25</ele>
        <time>2013-05-10T09:47:02Z</time>
      </trkpt>
      <trkpt lat="46.68661" lon="6.01662">
        <ele>867.25</ele>
        <time>2013-05-10T09:47:05Z</time>
      </trkpt>
      <trkpt lat="46.68671" lon="6.0166">
        <ele>866.29</ele>
        <time>2013-05-10T09:47:07Z</time>
      </trkpt>
      <trkpt lat="46.68676" lon="6.0166">
        <ele>866.29</ele>
        <time>2013-05-10T09:47:08Z</time>
      </trkpt>
      <trkpt lat="46.68681" lon="6.01658">
        <ele>865.8</ele>
        <time>2013-05-10T09:47:09Z</time>
      </trkpt>
      <trkpt lat="46.68686" lon="6.01655">
        <ele>865.8</ele>
        <time>2013-05-10T09:47:10Z</time>
      </trkpt>
      <trkpt lat="46.6869" lon="6.0165">
        <ele>865.8</ele>
        <time>2013-05-10T09:47:11Z</time>
      </trkpt>
      <trkpt lat="46.68694" lon="6.01644">
        <ele>865.8</ele>
        <time>2013-05-10T09:47:12Z</time>
      </trkpt>
      <trkpt lat="46.68696" lon="6.01637">
        <ele>865.8</ele>
        <time>2013-05-10T09:47:13Z</time>
      </trkpt>
      <trkpt lat="46.68699" lon="6.01631">
        <ele>865.8</ele>
        <time>2013-05-10T09:47:14Z</time>
      </trkpt>
      <trkpt lat="46.68704" lon="6.01618">
        <ele>865.8</ele>
        <time>2013-05-10T09:47:16Z</time>
      </trkpt>
      <trkpt lat="46.68707" lon="6.01613">
        <ele>865.8</ele>
        <time>2013-05-10T09:47:17Z</time>
      </trkpt>
      <trkpt lat="46.68711" lon="6.01608">
        <ele>866.29</ele>
        <time>2013-05-10T09:47:18Z</time>
      </trkpt>
      <trkpt lat="46.68716" lon="6.01604">
        <ele>865.8</ele>
        <time>2013-05-10T09:47:19Z</time>
      </trkpt>
      <trkpt lat="46.68721" lon="6.01601">
        <ele>865.8</ele>
        <time>2013-05-10T09:47:20Z</time>
      </trkpt>
      <trkpt lat="46.68727" lon="6.01598">
        <ele>864.84</ele>
        <time>2013-05-10T09:47:21Z</time>
      </trkpt>
      <trkpt lat="46.68746" lon="6.01592">
        <ele>863.4</ele>
        <time>2013-05-10T09:47:24Z</time>
      </trkpt>
      <trkpt lat="46.6876" lon="6.01589">
        <ele>863.4</ele>
        <time>2013-05-10T09:47:26Z</time>
      </trkpt>
      <trkpt lat="46.68772" lon="6.01583">
        <ele>862.92</ele>
        <time>2013-05-10T09:47:28Z</time>
      </trkpt>
      <trkpt lat="46.68777" lon="6.0158">
        <ele>862.92</ele>
        <time>2013-05-10T09:47:29Z</time>
      </trkpt>
      <trkpt lat="46.68782" lon="6.01575">
        <ele>862.44</ele>
        <time>2013-05-10T09:47:30Z</time>
      </trkpt>
      <trkpt lat="46.68787" lon="6.0157">
        <ele>862.44</ele>
        <time>2013-05-10T09:47:31Z</time>
      </trkpt>
      <trkpt lat="46.68792" lon="6.01564">
        <ele>861.96</ele>
        <time>2013-05-10T09:47:32Z</time>
      </trkpt>
      <trkpt lat="46.68804" lon="6.01553">
        <ele>861</ele>
        <time>2013-05-10T09:47:34Z</time>
      </trkpt>
      <trkpt lat="46.68811" lon="6.0155">
        <ele>860.52</ele>
        <time>2013-05-10T09:47:35Z</time>
      </trkpt>
      <trkpt lat="46.68818" lon="6.01548">
        <ele>860.04</ele>
        <time>2013-05-10T09:47:36Z</time>
      </trkpt>
      <trkpt lat="46.68825" lon="6.01548">
        <ele>860.04</ele>
        <time>2013-05-10T09:47:37Z</time>
      </trkpt>
      <trkpt lat="46.68832" lon="6.01548">
        <ele>860.04</ele>
        <time>2013-05-10T09:47:38Z</time>
      </trkpt>
      <trkpt lat="46.68868" lon="6.01554">
        <ele>858.59</ele>
        <time>2013-05-10T09:47:43Z</time>
      </trkpt>
      <trkpt lat="46.68876" lon="6.01553">
        <ele>858.11</ele>
        <time>2013-05-10T09:47:44Z</time>
      </trkpt>
      <trkpt lat="46.68884" lon="6.01551">
        <ele>857.63</ele>
        <time>2013-05-10T09:47:45Z</time>
      </trkpt>
      <trkpt lat="46.68891" lon="6.01546">
        <ele>857.15</ele>
        <time>2013-05-10T09:47:46Z</time>
      </trkpt>
      <trkpt lat="46.68897" lon="6.0154">
        <ele>856.67</ele>
        <time>2013-05-10T09:47:47Z</time>
      </trkpt>
      <trkpt lat="46.68903" lon="6.01533">
        <ele>856.67</ele>
        <time>2013-05-10T09:47:48Z</time>
      </trkpt>
      <trkpt lat="46.68928" lon="6.01506">
        <ele>854.27</ele>
        <time>2013-05-10T09:47:52Z</time>
      </trkpt>
      <trkpt lat="46.68934" lon="6.01497">
        <ele>853.79</ele>
        <time>2013-05-10T09:47:53Z</time>
      </trkpt>
      <trkpt lat="46.68939" lon="6.01487">
        <ele>853.31</ele>
        <time>2013-05-10T09:47:54Z</time>
      </trkpt>
      <trkpt lat="46.68942" lon="6.01477">
        <ele>853.31</ele>
        <time>2013-05-10T09:47:55Z</time>
      </trkpt>
      <trkpt lat="46.68944" lon="6.01467">
        <ele>853.31</ele>
        <time>2013-05-10T09:47:56Z</time>
      </trkpt>
      <trkpt lat="46.68947" lon="6.01457">
        <ele>855.23</ele>
        <time>2013-05-10T09:47:57Z</time>
      </trkpt>
      <trkpt lat="46.6895" lon="6.01449">
        <ele>854.27</ele>
        <time>2013-05-10T09:47:58Z</time>
      </trkpt>
      <trkpt lat="46.68954" lon="6.01441">
        <ele>853.79</ele>
        <time>2013-05-10T09:47:59Z</time>
      </trkpt>
      <trkpt lat="46.68959" lon="6.01434">
        <ele>853.31</ele>
        <time>2013-05-10T09:48:00Z</time>
      </trkpt>
      <trkpt lat="46.68965" lon="6.01428">
        <ele>853.31</ele>
        <time>2013-05-10T09:48:01Z</time>
      </trkpt>
      <trkpt lat="46.69006" lon="6.0139">
        <ele>854.75</ele>
        <time>2013-05-10T09:48:11Z</time>
      </trkpt>
      <trkpt lat="46.69044" lon="6.01356">
        <ele>855.23</ele>
        <time>2013-05-10T09:48:25Z</time>
      </trkpt>
      <trkpt lat="46.69066" lon="6.01321">
        <ele>855.23</ele>
        <time>2013-05-10T09:48:39Z</time>
      </trkpt>
      <trkpt lat="46.69086" lon="6.01297">
        <ele>854.27</ele>
        <time>2013-05-10T09:48:54Z</time>
      </trkpt>
      <trkpt lat="46.69113" lon="6.01272">
        <ele>852.83</ele>
        <time>2013-05-10T09:49:06Z</time>
      </trkpt>
      <trkpt lat="46.69128" lon="6.01259">
        <ele>851.38</ele>
        <time>2013-05-10T09:49:10Z</time>
      </trkpt>
      <trkpt lat="46.69136" lon="6.01253">
        <ele>850.9</ele>
        <time>2013-05-10T09:49:12Z</time>
      </trkpt>
      <trkpt lat="46.69147" lon="6.01242">
        <ele>850.42</ele>
        <time>2013-05-10T09:49:15Z</time>
      </trkpt>
      <trkpt lat="46.69167" lon="6.01217">
        <ele>848.5</ele>
        <time>2013-05-10T09:49:20Z</time>
      </trkpt>
      <trkpt lat="46.69228" lon="6.01133">
        <ele>845.62</ele>
        <time>2013-05-10T09:49:35Z</time>
      </trkpt>
      <trkpt lat="46.69266" lon="6.01102">
        <ele>844.66</ele>
        <time>2013-05-10T09:49:43Z</time>
      </trkpt>
      <trkpt lat="46.69324" lon="6.0107">
        <ele>842.73</ele>
        <time>2013-05-10T09:49:54Z</time>
      </trkpt>
      <trkpt lat="46.6933" lon="6.01066">
        <ele>842.25</ele>
        <time>2013-05-10T09:49:55Z</time>
      </trkpt>
      <trkpt lat="46.69409" lon="6.01014">
        <ele>841.77</ele>
        <time>2013-05-10T09:50:09Z</time>
      </trkpt>
      <trkpt lat="46.69447" lon="6.0099">
        <ele>842.73</ele>
        <time>2013-05-10T09:50:21Z</time>
      </trkpt>
      <trkpt lat="46.69448" lon="6.00988">
        <ele>842.73</ele>
        <time>2013-05-10T09:50:43Z</time>
      </trkpt>
      <trkpt lat="46.69462" lon="6.00963">
        <ele>843.21</ele>
        <time>2013-05-10T09:50:52Z</time>
      </trkpt>
      <trkpt lat="46.69462" lon="6.0096">
        <ele>843.21</ele>
        <time>2013-05-10T09:50:53Z</time>
      </trkpt>
      <trkpt lat="46.69463" lon="6.00957">
        <ele>843.69</ele>
        <time>2013-05-10T09:50:54Z</time>
      </trkpt>
      <trkpt lat="46.69464" lon="6.00954">
        <ele>843.69</ele>
        <time>2013-05-10T09:50:55Z</time>
      </trkpt>
      <trkpt lat="46.69464" lon="6.00951">
        <ele>844.18</ele>
        <time>2013-05-10T09:50:56Z</time>
      </trkpt>
      <trkpt lat="46.69464" lon="6.00948">
        <ele>844.18</ele>
        <time>2013-05-10T09:50:57Z</time>
      </trkpt>
      <trkpt lat="46.69464" lon="6.00944">
        <ele>844.66</ele>
        <time>2013-05-10T09:50:58Z</time>
      </trkpt>
      <trkpt lat="46.69463" lon="6.00941">
        <ele>844.66</ele>
        <time>2013-05-10T09:50:59Z</time>
      </trkpt>
      <trkpt lat="46.69456" lon="6.00907">
        <ele>848.02</ele>
        <time>2013-05-10T09:51:11Z</time>
      </trkpt>
      <trkpt lat="46.69448" lon="6.00871">
        <ele>850.9</ele>
        <time>2013-05-10T09:51:24Z</time>
      </trkpt>
      <trkpt lat="46.6944" lon="6.00836">
        <ele>853.79</ele>
        <time>2013-05-10T09:51:36Z</time>
      </trkpt>
      <trkpt lat="46.69436" lon="6.00789">
        <ele>856.67</ele>
        <time>2013-05-10T09:51:51Z</time>
      </trkpt>
      <trkpt lat="46.69439" lon="6.00735">
        <ele>857.63</ele>
        <time>2013-05-10T09:52:07Z</time>
      </trkpt>
      <trkpt lat="46.69438" lon="6.00683">
        <ele>859.08</ele>
        <time>2013-05-10T09:52:22Z</time>
      </trkpt>
      <trkpt lat="46.69454" lon="6.00657">
        <ele>859.08</ele>
        <time>2013-05-10T09:52:33Z</time>
      </trkpt>
      <trkpt lat="46.69454" lon="6.00651">
        <ele>859.08</ele>
        <time>2013-05-10T09:52:45Z</time>
      </trkpt>
      <trkpt lat="46.69454" lon="6.0065">
        <ele>859.08</ele>
        <time>2013-05-10T09:52:59Z</time>
      </trkpt>
      <trkpt lat="46.69456" lon="6.00643">
        <ele>858.59</ele>
        <time>2013-05-10T09:53:10Z</time>
      </trkpt>
      <trkpt lat="46.69456" lon="6.00641">
        <ele>858.59</ele>
        <time>2013-05-10T09:53:11Z</time>
      </trkpt>
      <trkpt lat="46.69456" lon="6.00639">
        <ele>858.59</ele>
        <time>2013-05-10T09:53:12Z</time>
      </trkpt>
      <trkpt lat="46.69457" lon="6.00636">
        <ele>858.59</ele>
        <time>2013-05-10T09:53:13Z</time>
      </trkpt>
      <trkpt lat="46.69457" lon="6.00633">
        <ele>859.08</ele>
        <time>2013-05-10T09:53:14Z</time>
      </trkpt>
      <trkpt lat="46.69443" lon="6.00593">
        <ele>857.63</ele>
        <time>2013-05-10T09:53:25Z</time>
      </trkpt>
      <trkpt lat="46.69429" lon="6.00567">
        <ele>858.11</ele>
        <time>2013-05-10T09:53:35Z</time>
      </trkpt>
      <trkpt lat="46.69429" lon="6.00564">
        <ele>858.11</ele>
        <time>2013-05-10T09:53:36Z</time>
      </trkpt>
      <trkpt lat="46.69428" lon="6.00561">
        <ele>858.59</ele>
        <time>2013-05-10T09:53:37Z</time>
      </trkpt>
      <trkpt lat="46.69429" lon="6.00558">
        <ele>858.59</ele>
        <time>2013-05-10T09:53:38Z</time>
      </trkpt>
      <trkpt lat="46.69429" lon="6.00556">
        <ele>858.59</ele>
        <time>2013-05-10T09:53:39Z</time>
      </trkpt>
      <trkpt lat="46.6943" lon="6.00553">
        <ele>858.59</ele>
        <time>2013-05-10T09:53:40Z</time>
      </trkpt>
      <trkpt lat="46.6943" lon="6.00551">
        <ele>858.59</ele>
        <time>2013-05-10T09:53:41Z</time>
      </trkpt>
      <trkpt lat="46.6944" lon="6.0051">
        <ele>857.63</ele>
        <time>2013-05-10T09:53:55Z</time>
      </trkpt>
      <trkpt lat="46.69451" lon="6.00471">
        <ele>858.11</ele>
        <time>2013-05-10T09:54:07Z</time>
      </trkpt>
      <trkpt lat="46.69458" lon="6.00437">
        <ele>861.48</ele>
        <time>2013-05-10T09:54:18Z</time>
      </trkpt>
      <trkpt lat="46.69462" lon="6.00421">
        <ele>861.96</ele>
        <time>2013-05-10T09:54:26Z</time>
      </trkpt>
      <trkpt lat="46.69463" lon="6.0042">
        <ele>862.44</ele>
        <time>2013-05-10T09:54:27Z</time>
      </trkpt>
      <trkpt lat="46.69475" lon="6.00393">
        <ele>864.36</ele>
        <time>2013-05-10T09:54:40Z</time>
      </trkpt>
      <trkpt lat="46.69475" lon="6.0039">
        <ele>864.36</ele>
        <time>2013-05-10T09:54:41Z</time>
      </trkpt>
      <trkpt lat="46.69477" lon="6.00388">
        <ele>864.36</ele>
        <time>2013-05-10T09:54:42Z</time>
      </trkpt>
      <trkpt lat="46.6949" lon="6.00349">
        <ele>865.32</ele>
        <time>2013-05-10T09:54:55Z</time>
      </trkpt>
      <trkpt lat="46.69499" lon="6.00298">
        <ele>864.84</ele>
        <time>2013-05-10T09:55:09Z</time>
      </trkpt>
      <trkpt lat="46.695" lon="6.00292">
        <ele>864.84</ele>
        <time>2013-05-10T09:55:11Z</time>
      </trkpt>
      <trkpt lat="46.695" lon="6.00289">
        <ele>864.84</ele>
        <time>2013-05-10T09:55:12Z</time>
      </trkpt>
      <trkpt lat="46.695" lon="6.00285">
        <ele>865.32</ele>
        <time>2013-05-10T09:55:13Z</time>
      </trkpt>
      <trkpt lat="46.69501" lon="6.00282">
        <ele>865.32</ele>
        <time>2013-05-10T09:55:14Z</time>
      </trkpt>
      <trkpt lat="46.69502" lon="6.00279">
        <ele>864.84</ele>
        <time>2013-05-10T09:55:15Z</time>
      </trkpt>
      <trkpt lat="46.69502" lon="6.00276">
        <ele>865.32</ele>
        <time>2013-05-10T09:55:16Z</time>
      </trkpt>
      <trkpt lat="46.69503" lon="6.00273">
        <ele>865.32</ele>
        <time>2013-05-10T09:55:17Z</time>
      </trkpt>
      <trkpt lat="46.69503" lon="6.0027">
        <ele>865.8</ele>
        <time>2013-05-10T09:55:18Z</time>
      </trkpt>
      <trkpt lat="46.69503" lon="6.00267">
        <ele>865.8</ele>
        <time>2013-05-10T09:55:19Z</time>
      </trkpt>
      <trkpt lat="46.69504" lon="6.00264">
        <ele>865.8</ele>
        <time>2013-05-10T09:55:20Z</time>
      </trkpt>
      <trkpt lat="46.69506" lon="6.00253">
        <ele>866.77</ele>
        <time>2013-05-10T09:55:24Z</time>
      </trkpt>
      <trkpt lat="46.69507" lon="6.00248">
        <ele>866.77</ele>
        <time>2013-05-10T09:55:27Z</time>
      </trkpt>
      <trkpt lat="46.69507" lon="6.00246">
        <ele>866.77</ele>
        <time>2013-05-10T09:55:28Z</time>
      </trkpt>
      <trkpt lat="46.6951" lon="6.00222">
        <ele>866.77</ele>
        <time>2013-05-10T09:55:39Z</time>
      </trkpt>
      <trkpt lat="46.6951" lon="6.0022">
        <ele>866.77</ele>
        <time>2013-05-10T09:55:40Z</time>
      </trkpt>
      <trkpt lat="46.6951" lon="6.00217">
        <ele>867.25</ele>
        <time>2013-05-10T09:55:41Z</time>
      </trkpt>
      <trkpt lat="46.69509" lon="6.00215">
        <ele>867.25</ele>
        <time>2013-05-10T09:55:42Z</time>
      </trkpt>
      <trkpt lat="46.69514" lon="6.00188">
        <ele>869.65</ele>
        <time>2013-05-10T09:55:51Z</time>
      </trkpt>
      <trkpt lat="46.69515" lon="6.00186">
        <ele>870.13</ele>
        <time>2013-05-10T09:55:52Z</time>
      </trkpt>
      <trkpt lat="46.69516" lon="6.00184">
        <ele>870.13</ele>
        <time>2013-05-10T09:55:53Z</time>
      </trkpt>
      <trkpt lat="46.69528" lon="6.00156">
        <ele>870.13</ele>
        <time>2013-05-10T09:56:06Z</time>
      </trkpt>
      <trkpt lat="46.69536" lon="6.00126">
        <ele>869.17</ele>
        <time>2013-05-10T09:56:18Z</time>
      </trkpt>
      <trkpt lat="46.69541" lon="6.00113">
        <ele>869.17</ele>
        <time>2013-05-10T09:56:24Z</time>
      </trkpt>
      <trkpt lat="46.69542" lon="6.0011">
        <ele>869.17</ele>
        <time>2013-05-10T09:56:25Z</time>
      </trkpt>
      <trkpt lat="46.69554" lon="6.00075">
        <ele>867.73</ele>
        <time>2013-05-10T09:56:40Z</time>
      </trkpt>
      <trkpt lat="46.69554" lon="6.00072">
        <ele>867.25</ele>
        <time>2013-05-10T09:56:41Z</time>
      </trkpt>
      <trkpt lat="46.69561" lon="6.0004">
        <ele>866.29</ele>
        <time>2013-05-10T09:56:53Z</time>
      </trkpt>
      <trkpt lat="46.69567" lon="6.00003">
        <ele>864.84</ele>
        <time>2013-05-10T09:57:03Z</time>
      </trkpt>
      <trkpt lat="46.69574" lon="5.99955">
        <ele>863.88</ele>
        <time>2013-05-10T09:57:15Z</time>
      </trkpt>
      <trkpt lat="46.69572" lon="5.99913">
        <ele>864.36</ele>
        <time>2013-05-10T09:57:26Z</time>
      </trkpt>
      <trkpt lat="46.6957" lon="5.99866">
        <ele>866.29</ele>
        <time>2013-05-10T09:57:38Z</time>
      </trkpt>
      <trkpt lat="46.69561" lon="5.99825">
        <ele>867.73</ele>
        <time>2013-05-10T09:57:50Z</time>
      </trkpt>
      <trkpt lat="46.69549" lon="5.99781">
        <ele>868.69</ele>
        <time>2013-05-10T09:58:03Z</time>
      </trkpt>
      <trkpt lat="46.6954" lon="5.99732">
        <ele>868.69</ele>
        <time>2013-05-10T09:58:16Z</time>
      </trkpt>
      <trkpt lat="46.69535" lon="5.9968">
        <ele>869.17</ele>
        <time>2013-05-10T09:58:28Z</time>
      </trkpt>
      <trkpt lat="46.69533" lon="5.99653">
        <ele>869.17</ele>
        <time>2013-05-10T09:58:35Z</time>
      </trkpt>
      <trkpt lat="46.69535" lon="5.9963">
        <ele>869.65</ele>
        <time>2013-05-10T09:58:42Z</time>
      </trkpt>
      <trkpt lat="46.69541" lon="5.99588">
        <ele>870.13</ele>
        <time>2013-05-10T09:58:54Z</time>
      </trkpt>
      <trkpt lat="46.69551" lon="5.99537">
        <ele>870.61</ele>
        <time>2013-05-10T09:59:06Z</time>
      </trkpt>
      <trkpt lat="46.69558" lon="5.99524">
        <ele>870.61</ele>
        <time>2013-05-10T09:59:10Z</time>
      </trkpt>
      <trkpt lat="46.69564" lon="5.99474">
        <ele>871.09</ele>
        <time>2013-05-10T09:59:22Z</time>
      </trkpt>
      <trkpt lat="46.69563" lon="5.99443">
        <ele>871.57</ele>
        <time>2013-05-10T09:59:34Z</time>
      </trkpt>
      <trkpt lat="46.69563" lon="5.99443">
        <ele>872.05</ele>
        <time>2013-05-10T09:59:53Z</time>
      </trkpt>
      <trkpt lat="46.69563" lon="5.99443">
        <ele>872.05</ele>
        <time>2013-05-10T10:00:24Z</time>
      </trkpt>
      <trkpt lat="46.69563" lon="5.99443">
        <ele>872.05</ele>
        <time>2013-05-10T10:00:43Z</time>
      </trkpt>
      <trkpt lat="46.69563" lon="5.99442">
        <ele>872.05</ele>
        <time>2013-05-10T10:00:54Z</time>
      </trkpt>
      <trkpt lat="46.69548" lon="5.99409">
        <ele>871.09</ele>
        <time>2013-05-10T10:01:07Z</time>
      </trkpt>
      <trkpt lat="46.69523" lon="5.99354">
        <ele>870.13</ele>
        <time>2013-05-10T10:01:21Z</time>
      </trkpt>
      <trkpt lat="46.69505" lon="5.99314">
        <ele>868.21</ele>
        <time>2013-05-10T10:01:30Z</time>
      </trkpt>
      <trkpt lat="46.69495" lon="5.99284">
        <ele>866.77</ele>
        <time>2013-05-10T10:01:35Z</time>
      </trkpt>
      <trkpt lat="46.69494" lon="5.99278">
        <ele>866.29</ele>
        <time>2013-05-10T10:01:36Z</time>
      </trkpt>
      <trkpt lat="46.6949" lon="5.99266">
        <ele>866.29</ele>
        <time>2013-05-10T10:01:38Z</time>
      </trkpt>
      <trkpt lat="46.69489" lon="5.99261">
        <ele>865.8</ele>
        <time>2013-05-10T10:01:39Z</time>
      </trkpt>
      <trkpt lat="46.6948" lon="5.9922">
        <ele>865.32</ele>
        <time>2013-05-10T10:01:46Z</time>
      </trkpt>
      <trkpt lat="46.6948" lon="5.99198">
        <ele>863.4</ele>
        <time>2013-05-10T10:01:49Z</time>
      </trkpt>
      <trkpt lat="46.69482" lon="5.99181">
        <ele>862.44</ele>
        <time>2013-05-10T10:01:51Z</time>
      </trkpt>
      <trkpt lat="46.69493" lon="5.991">
        <ele>858.59</ele>
        <time>2013-05-10T10:01:59Z</time>
      </trkpt>
      <trkpt lat="46.69498" lon="5.99065">
        <ele>857.63</ele>
        <time>2013-05-10T10:02:02Z</time>
      </trkpt>
      <trkpt lat="46.69498" lon="5.99054">
        <ele>858.11</ele>
        <time>2013-05-10T10:02:03Z</time>
      </trkpt>
      <trkpt lat="46.69499" lon="5.99042">
        <ele>856.19</ele>
        <time>2013-05-10T10:02:04Z</time>
      </trkpt>
      <trkpt lat="46.69499" lon="5.99029">
        <ele>855.23</ele>
        <time>2013-05-10T10:02:05Z</time>
      </trkpt>
      <trkpt lat="46.69498" lon="5.99016">
        <ele>854.75</ele>
        <time>2013-05-10T10:02:06Z</time>
      </trkpt>
      <trkpt lat="46.69497" lon="5.99004">
        <ele>854.27</ele>
        <time>2013-05-10T10:02:07Z</time>
      </trkpt>
      <trkpt lat="46.69495" lon="5.9898">
        <ele>852.35</ele>
        <time>2013-05-10T10:02:09Z</time>
      </trkpt>
      <trkpt lat="46.69495" lon="5.98968">
        <ele>852.35</ele>
        <time>2013-05-10T10:02:10Z</time>
      </trkpt>
      <trkpt lat="46.69496" lon="5.98957">
        <ele>851.87</ele>
        <time>2013-05-10T10:02:11Z</time>
      </trkpt>
      <trkpt lat="46.69498" lon="5.98945">
        <ele>851.38</ele>
        <time>2013-05-10T10:02:12Z</time>
      </trkpt>
      <trkpt lat="46.69501" lon="5.98934">
        <ele>850.9</ele>
        <time>2013-05-10T10:02:13Z</time>
      </trkpt>
      <trkpt lat="46.69504" lon="5.98923">
        <ele>850.42</ele>
        <time>2013-05-10T10:02:14Z</time>
      </trkpt>
      <trkpt lat="46.69508" lon="5.98913">
        <ele>850.42</ele>
        <time>2013-05-10T10:02:15Z</time>
      </trkpt>
      <trkpt lat="46.69513" lon="5.98903">
        <ele>848.98</ele>
        <time>2013-05-10T10:02:16Z</time>
      </trkpt>
      <trkpt lat="46.6955" lon="5.98824">
        <ele>846.1</ele>
        <time>2013-05-10T10:02:24Z</time>
      </trkpt>
      <trkpt lat="46.6959" lon="5.98748">
        <ele>842.25</ele>
        <time>2013-05-10T10:02:32Z</time>
      </trkpt>
      <trkpt lat="46.69599" lon="5.98727">
        <ele>841.77</ele>
        <time>2013-05-10T10:02:34Z</time>
      </trkpt>
      <trkpt lat="46.69602" lon="5.98716">
        <ele>841.29</ele>
        <time>2013-05-10T10:02:35Z</time>
      </trkpt>
      <trkpt lat="46.69604" lon="5.98704">
        <ele>840.81</ele>
        <time>2013-05-10T10:02:36Z</time>
      </trkpt>
      <trkpt lat="46.69611" lon="5.98659">
        <ele>839.37</ele>
        <time>2013-05-10T10:02:40Z</time>
      </trkpt>
      <trkpt lat="46.69616" lon="5.98594">
        <ele>838.41</ele>
        <time>2013-05-10T10:02:49Z</time>
      </trkpt>
      <trkpt lat="46.69616" lon="5.9859">
        <ele>838.41</ele>
        <time>2013-05-10T10:03:00Z</time>
      </trkpt>
      <trkpt lat="46.69616" lon="5.9859">
        <ele>838.41</ele>
        <time>2013-05-10T10:03:26Z</time>
      </trkpt>
      <trkpt lat="46.69616" lon="5.9859">
        <ele>838.41</ele>
        <time>2013-05-10T10:03:48Z</time>
      </trkpt>
      <trkpt lat="46.69616" lon="5.98589">
        <ele>838.89</ele>
        <time>2013-05-10T10:04:25Z</time>
      </trkpt>
      <trkpt lat="46.69616" lon="5.98589">
        <ele>838.41</ele>
        <time>2013-05-10T10:05:00Z</time>
      </trkpt>
      <trkpt lat="46.69616" lon="5.98589">
        <ele>838.89</ele>
        <time>2013-05-10T10:05:40Z</time>
      </trkpt>
      <trkpt lat="46.69616" lon="5.98589">
        <ele>838.89</ele>
        <time>2013-05-10T10:06:11Z</time>
      </trkpt>
      <trkpt lat="46.69616" lon="5.98589">
        <ele>839.37</ele>
        <time>2013-05-10T10:06:43Z</time>
      </trkpt>
      <trkpt lat="46.69615" lon="5.98589">
        <ele>839.37</ele>
        <time>2013-05-10T10:07:04Z</time>
      </trkpt>
      <trkpt lat="46.69615" lon="5.98589">
        <ele>839.37</ele>
        <time>2013-05-10T10:07:36Z</time>
      </trkpt>
      <trkpt lat="46.69615" lon="5.98589">
        <ele>840.33</ele>
        <time>2013-05-10T10:07:56Z</time>
      </trkpt>
      <trkpt lat="46.69615" lon="5.98589">
        <ele>839.37</ele>
        <time>2013-05-10T10:08:18Z</time>
      </trkpt>
      <trkpt lat="46.69615" lon="5.98589">
        <ele>839.37</ele>
        <time>2013-05-10T10:08:44Z</time>
      </trkpt>
      <trkpt lat="46.69615" lon="5.98589">
        <ele>839.37</ele>
        <time>2013-05-10T10:09:04Z</time>
      </trkpt>
      <trkpt lat="46.69615" lon="5.98588">
        <ele>839.37</ele>
        <time>2013-05-10T10:09:30Z</time>
      </trkpt>
      <trkpt lat="46.69615" lon="5.98588">
        <ele>839.37</ele>
        <time>2013-05-10T10:09:52Z</time>
      </trkpt>
      <trkpt lat="46.69615" lon="5.98588">
        <ele>839.85</ele>
        <time>2013-05-10T10:10:09Z</time>
      </trkpt>
      <trkpt lat="46.69614" lon="5.98585">
        <ele>839.37</ele>
        <time>2013-05-10T10:10:13Z</time>
      </trkpt>
      <trkpt lat="46.69613" lon="5.98583">
        <ele>839.37</ele>
        <time>2013-05-10T10:10:14Z</time>
      </trkpt>
      <trkpt lat="46.69612" lon="5.98581">
        <ele>839.37</ele>
        <time>2013-05-10T10:10:15Z</time>
      </trkpt>
      <trkpt lat="46.69611" lon="5.98578">
        <ele>839.37</ele>
        <time>2013-05-10T10:10:16Z</time>
      </trkpt>
      <trkpt lat="46.69611" lon="5.98575">
        <ele>838.89</ele>
        <time>2013-05-10T10:10:17Z</time>
      </trkpt>
      <trkpt lat="46.6961" lon="5.98572">
        <ele>838.89</ele>
        <time>2013-05-10T10:10:18Z</time>
      </trkpt>
      <trkpt lat="46.6961" lon="5.98568">
        <ele>838.89</ele>
        <time>2013-05-10T10:10:19Z</time>
      </trkpt>
      <trkpt lat="46.69603" lon="5.98519">
        <ele>837.45</ele>
        <time>2013-05-10T10:10:28Z</time>
      </trkpt>
      <trkpt lat="46.696" lon="5.98484">
        <ele>836.48</ele>
        <time>2013-05-10T10:10:33Z</time>
      </trkpt>
      <trkpt lat="46.69599" lon="5.98477">
        <ele>836</ele>
        <time>2013-05-10T10:10:34Z</time>
      </trkpt>
      <trkpt lat="46.6959" lon="5.98396">
        <ele>833.6</ele>
        <time>2013-05-10T10:10:45Z</time>
      </trkpt>
      <trkpt lat="46.6959" lon="5.98388">
        <ele>833.6</ele>
        <time>2013-05-10T10:10:46Z</time>
      </trkpt>
      <trkpt lat="46.69591" lon="5.98379">
        <ele>833.12</ele>
        <time>2013-05-10T10:10:47Z</time>
      </trkpt>
      <trkpt lat="46.69593" lon="5.98371">
        <ele>832.64</ele>
        <time>2013-05-10T10:10:48Z</time>
      </trkpt>
      <trkpt lat="46.69595" lon="5.98363">
        <ele>832.16</ele>
        <time>2013-05-10T10:10:49Z</time>
      </trkpt>
      <trkpt lat="46.6961" lon="5.98314">
        <ele>829.27</ele>
        <time>2013-05-10T10:10:55Z</time>
      </trkpt>
      <trkpt lat="46.69613" lon="5.9828">
        <ele>827.35</ele>
        <time>2013-05-10T10:10:59Z</time>
      </trkpt>
      <trkpt lat="46.69613" lon="5.98271">
        <ele>827.35</ele>
        <time>2013-05-10T10:11:00Z</time>
      </trkpt>
      <trkpt lat="46.69616" lon="5.98202">
        <ele>824.47</ele>
        <time>2013-05-10T10:11:07Z</time>
      </trkpt>
      <trkpt lat="46.69619" lon="5.98168">
        <ele>822.55</ele>
        <time>2013-05-10T10:11:10Z</time>
      </trkpt>
      <trkpt lat="46.69618" lon="5.98157">
        <ele>821.58</ele>
        <time>2013-05-10T10:11:11Z</time>
      </trkpt>
      <trkpt lat="46.69616" lon="5.98146">
        <ele>821.1</ele>
        <time>2013-05-10T10:11:12Z</time>
      </trkpt>
      <trkpt lat="46.69614" lon="5.98135">
        <ele>820.62</ele>
        <time>2013-05-10T10:11:13Z</time>
      </trkpt>
      <trkpt lat="46.69612" lon="5.98124">
        <ele>820.62</ele>
        <time>2013-05-10T10:11:14Z</time>
      </trkpt>
      <trkpt lat="46.69601" lon="5.98073">
        <ele>817.26</ele>
        <time>2013-05-10T10:11:19Z</time>
      </trkpt>
      <trkpt lat="46.69599" lon="5.98064">
        <ele>816.78</ele>
        <time>2013-05-10T10:11:20Z</time>
      </trkpt>
      <trkpt lat="46.69595" lon="5.98053">
        <ele>816.3</ele>
        <time>2013-05-10T10:11:21Z</time>
      </trkpt>
      <trkpt lat="46.69591" lon="5.98042">
        <ele>816.3</ele>
        <time>2013-05-10T10:11:22Z</time>
      </trkpt>
      <trkpt lat="46.69585" lon="5.98032">
        <ele>816.3</ele>
        <time>2013-05-10T10:11:23Z</time>
      </trkpt>
      <trkpt lat="46.6958" lon="5.98021">
        <ele>816.3</ele>
        <time>2013-05-10T10:11:24Z</time>
      </trkpt>
      <trkpt lat="46.6955" lon="5.97967">
        <ele>814.85</ele>
        <time>2013-05-10T10:11:30Z</time>
      </trkpt>
      <trkpt lat="46.69544" lon="5.97959">
        <ele>814.37</ele>
        <time>2013-05-10T10:11:31Z</time>
      </trkpt>
      <trkpt lat="46.69538" lon="5.97952">
        <ele>813.89</ele>
        <time>2013-05-10T10:11:32Z</time>
      </trkpt>
      <trkpt lat="46.69532" lon="5.97947">
        <ele>813.89</ele>
        <time>2013-05-10T10:11:33Z</time>
      </trkpt>
      <trkpt lat="46.69525" lon="5.97943">
        <ele>813.89</ele>
        <time>2013-05-10T10:11:34Z</time>
      </trkpt>
      <trkpt lat="46.69506" lon="5.97932">
        <ele>813.89</ele>
        <time>2013-05-10T10:11:37Z</time>
      </trkpt>
      <trkpt lat="46.695" lon="5.97927">
        <ele>813.89</ele>
        <time>2013-05-10T10:11:38Z</time>
      </trkpt>
      <trkpt lat="46.6945" lon="5.97866">
        <ele>810.53</ele>
        <time>2013-05-10T10:11:47Z</time>
      </trkpt>
      <trkpt lat="46.69444" lon="5.97858">
        <ele>810.05</ele>
        <time>2013-05-10T10:11:48Z</time>
      </trkpt>
      <trkpt lat="46.69438" lon="5.97851">
        <ele>809.57</ele>
        <time>2013-05-10T10:11:49Z</time>
      </trkpt>
      <trkpt lat="46.69411" lon="5.97811">
        <ele>807.64</ele>
        <time>2013-05-10T10:11:54Z</time>
      </trkpt>
      <trkpt lat="46.69406" lon="5.97802">
        <ele>807.16</ele>
        <time>2013-05-10T10:11:55Z</time>
      </trkpt>
      <trkpt lat="46.694" lon="5.97792">
        <ele>806.68</ele>
        <time>2013-05-10T10:11:56Z</time>
      </trkpt>
      <trkpt lat="46.69395" lon="5.97781">
        <ele>805.72</ele>
        <time>2013-05-10T10:11:57Z</time>
      </trkpt>
      <trkpt lat="46.69391" lon="5.9777">
        <ele>805.24</ele>
        <time>2013-05-10T10:11:58Z</time>
      </trkpt>
      <trkpt lat="46.69369" lon="5.97709">
        <ele>802.36</ele>
        <time>2013-05-10T10:12:03Z</time>
      </trkpt>
      <trkpt lat="46.69361" lon="5.97682">
        <ele>800.92</ele>
        <time>2013-05-10T10:12:05Z</time>
      </trkpt>
      <trkpt lat="46.69358" lon="5.97668">
        <ele>800.44</ele>
        <time>2013-05-10T10:12:06Z</time>
      </trkpt>
      <trkpt lat="46.69356" lon="5.97653">
        <ele>799.95</ele>
        <time>2013-05-10T10:12:07Z</time>
      </trkpt>
      <trkpt lat="46.69354" lon="5.97637">
        <ele>797.55</ele>
        <time>2013-05-10T10:12:08Z</time>
      </trkpt>
      <trkpt lat="46.69354" lon="5.9762">
        <ele>796.59</ele>
        <time>2013-05-10T10:12:09Z</time>
      </trkpt>
      <trkpt lat="46.69354" lon="5.97604">
        <ele>796.11</ele>
        <time>2013-05-10T10:12:10Z</time>
      </trkpt>
      <trkpt lat="46.69356" lon="5.97587">
        <ele>795.15</ele>
        <time>2013-05-10T10:12:11Z</time>
      </trkpt>
      <trkpt lat="46.69358" lon="5.9757">
        <ele>794.19</ele>
        <time>2013-05-10T10:12:12Z</time>
      </trkpt>
      <trkpt lat="46.69367" lon="5.97502">
        <ele>790.34</ele>
        <time>2013-05-10T10:12:16Z</time>
      </trkpt>
      <trkpt lat="46.69369" lon="5.97484">
        <ele>789.38</ele>
        <time>2013-05-10T10:12:17Z</time>
      </trkpt>
      <trkpt lat="46.6937" lon="5.97466">
        <ele>788.42</ele>
        <time>2013-05-10T10:12:18Z</time>
      </trkpt>
      <trkpt lat="46.69373" lon="5.97449">
        <ele>787.46</ele>
        <time>2013-05-10T10:12:19Z</time>
      </trkpt>
      <trkpt lat="46.69388" lon="5.97385">
        <ele>783.13</ele>
        <time>2013-05-10T10:12:23Z</time>
      </trkpt>
      <trkpt lat="46.69394" lon="5.97371">
        <ele>782.65</ele>
        <time>2013-05-10T10:12:24Z</time>
      </trkpt>
      <trkpt lat="46.69401" lon="5.97358">
        <ele>781.69</ele>
        <time>2013-05-10T10:12:25Z</time>
      </trkpt>
      <trkpt lat="46.69421" lon="5.9732">
        <ele>777.84</ele>
        <time>2013-05-10T10:12:28Z</time>
      </trkpt>
      <trkpt lat="46.69425" lon="5.97311">
        <ele>777.84</ele>
        <time>2013-05-10T10:12:29Z</time>
      </trkpt>
      <trkpt lat="46.69439" lon="5.97283">
        <ele>776.88</ele>
        <time>2013-05-10T10:12:33Z</time>
      </trkpt>
      <trkpt lat="46.6944" lon="5.97278">
        <ele>776.4</ele>
        <time>2013-05-10T10:12:34Z</time>
      </trkpt>
      <trkpt lat="46.69441" lon="5.97274">
        <ele>775.92</ele>
        <time>2013-05-10T10:12:35Z</time>
      </trkpt>
      <trkpt lat="46.69428" lon="5.97276">
        <ele>775.44</ele>
        <time>2013-05-10T10:12:42Z</time>
      </trkpt>
      <trkpt lat="46.69426" lon="5.97279">
        <ele>775.44</ele>
        <time>2013-05-10T10:12:43Z</time>
      </trkpt>
      <trkpt lat="46.69403" lon="5.97315">
        <ele>776.4</ele>
        <time>2013-05-10T10:12:56Z</time>
      </trkpt>
      <trkpt lat="46.69382" lon="5.97354">
        <ele>777.84</ele>
        <time>2013-05-10T10:13:09Z</time>
      </trkpt>
      <trkpt lat="46.69364" lon="5.97389">
        <ele>778.32</ele>
        <time>2013-05-10T10:13:19Z</time>
      </trkpt>
      <trkpt lat="46.69332" lon="5.97449">
        <ele>778.32</ele>
        <time>2013-05-10T10:13:34Z</time>
      </trkpt>
      <trkpt lat="46.69299" lon="5.97507">
        <ele>777.36</ele>
        <time>2013-05-10T10:13:48Z</time>
      </trkpt>
      <trkpt lat="46.69296" lon="5.97512">
        <ele>777.36</ele>
        <time>2013-05-10T10:13:49Z</time>
      </trkpt>
      <trkpt lat="46.69293" lon="5.97517">
        <ele>777.36</ele>
        <time>2013-05-10T10:13:50Z</time>
      </trkpt>
      <trkpt lat="46.69279" lon="5.97538">
        <ele>776.4</ele>
        <time>2013-05-10T10:13:54Z</time>
      </trkpt>
      <trkpt lat="46.69233" lon="5.97573">
        <ele>777.36</ele>
        <time>2013-05-10T10:14:07Z</time>
      </trkpt>
      <trkpt lat="46.69203" lon="5.97559">
        <ele>778.32</ele>
        <time>2013-05-10T10:14:18Z</time>
      </trkpt>
      <trkpt lat="46.69194" lon="5.97528">
        <ele>778.81</ele>
        <time>2013-05-10T10:14:29Z</time>
      </trkpt>
      <trkpt lat="46.69194" lon="5.97525">
        <ele>778.81</ele>
        <time>2013-05-10T10:14:30Z</time>
      </trkpt>
      <trkpt lat="46.69191" lon="5.97508">
        <ele>778.81</ele>
        <time>2013-05-10T10:14:36Z</time>
      </trkpt>
      <trkpt lat="46.69192" lon="5.97505">
        <ele>778.81</ele>
        <time>2013-05-10T10:14:37Z</time>
      </trkpt>
      <trkpt lat="46.69193" lon="5.97502">
        <ele>778.81</ele>
        <time>2013-05-10T10:14:38Z</time>
      </trkpt>
      <trkpt lat="46.69208" lon="5.97469">
        <ele>779.77</ele>
        <time>2013-05-10T10:14:48Z</time>
      </trkpt>
      <trkpt lat="46.69232" lon="5.97437">
        <ele>781.21</ele>
        <time>2013-05-10T10:15:00Z</time>
      </trkpt>
      <trkpt lat="46.69257" lon="5.97394">
        <ele>781.21</ele>
        <time>2013-05-10T10:15:12Z</time>
      </trkpt>
      <trkpt lat="46.69284" lon="5.97355">
        <ele>780.73</ele>
        <time>2013-05-10T10:15:23Z</time>
      </trkpt>
      <trkpt lat="46.69298" lon="5.97338">
        <ele>780.73</ele>
        <time>2013-05-10T10:15:28Z</time>
      </trkpt>
      <trkpt lat="46.69301" lon="5.97335">
        <ele>780.73</ele>
        <time>2013-05-10T10:15:29Z</time>
      </trkpt>
      <trkpt lat="46.69319" lon="5.97306">
        <ele>779.77</ele>
        <time>2013-05-10T10:15:36Z</time>
      </trkpt>
      <trkpt lat="46.69324" lon="5.97294">
        <ele>779.29</ele>
        <time>2013-05-10T10:15:38Z</time>
      </trkpt>
      <trkpt lat="46.69327" lon="5.97289">
        <ele>779.29</ele>
        <time>2013-05-10T10:15:39Z</time>
      </trkpt>
      <trkpt lat="46.6933" lon="5.97283">
        <ele>778.81</ele>
        <time>2013-05-10T10:15:40Z</time>
      </trkpt>
      <trkpt lat="46.69332" lon="5.97277">
        <ele>778.81</ele>
        <time>2013-05-10T10:15:41Z</time>
      </trkpt>
      <trkpt lat="46.69333" lon="5.97271">
        <ele>778.81</ele>
        <time>2013-05-10T10:15:42Z</time>
      </trkpt>
      <trkpt lat="46.69334" lon="5.97265">
        <ele>778.32</ele>
        <time>2013-05-10T10:15:43Z</time>
      </trkpt>
      <trkpt lat="46.69334" lon="5.97258">
        <ele>778.32</ele>
        <time>2013-05-10T10:15:44Z</time>
      </trkpt>
      <trkpt lat="46.69335" lon="5.97251">
        <ele>777.84</ele>
        <time>2013-05-10T10:15:45Z</time>
      </trkpt>
      <trkpt lat="46.69336" lon="5.9721">
        <ele>774.48</ele>
        <time>2013-05-10T10:15:50Z</time>
      </trkpt>
      <trkpt lat="46.69336" lon="5.97176">
        <ele>771.6</ele>
        <time>2013-05-10T10:15:53Z</time>
      </trkpt>
      <trkpt lat="46.69332" lon="5.9713">
        <ele>768.71</ele>
        <time>2013-05-10T10:15:56Z</time>
      </trkpt>
      <trkpt lat="46.69329" lon="5.97114">
        <ele>767.75</ele>
        <time>2013-05-10T10:15:57Z</time>
      </trkpt>
      <trkpt lat="46.69325" lon="5.971">
        <ele>766.79</ele>
        <time>2013-05-10T10:15:58Z</time>
      </trkpt>
      <trkpt lat="46.69316" lon="5.97074">
        <ele>766.31</ele>
        <time>2013-05-10T10:16:00Z</time>
      </trkpt>
      <trkpt lat="46.69313" lon="5.97064">
        <ele>765.83</ele>
        <time>2013-05-10T10:16:01Z</time>
      </trkpt>
      <trkpt lat="46.69309" lon="5.97055">
        <ele>765.83</ele>
        <time>2013-05-10T10:16:02Z</time>
      </trkpt>
      <trkpt lat="46.69305" lon="5.97046">
        <ele>765.83</ele>
        <time>2013-05-10T10:16:03Z</time>
      </trkpt>
      <trkpt lat="46.69301" lon="5.97037">
        <ele>766.31</ele>
        <time>2013-05-10T10:16:04Z</time>
      </trkpt>
      <trkpt lat="46.69296" lon="5.9703">
        <ele>766.31</ele>
        <time>2013-05-10T10:16:05Z</time>
      </trkpt>
      <trkpt lat="46.69279" lon="5.97002">
        <ele>766.79</ele>
        <time>2013-05-10T10:16:10Z</time>
      </trkpt>
      <trkpt lat="46.69256" lon="5.96975">
        <ele>767.75</ele>
        <time>2013-05-10T10:16:18Z</time>
      </trkpt>
      <trkpt lat="46.69254" lon="5.96972">
        <ele>767.75</ele>
        <time>2013-05-10T10:16:19Z</time>
      </trkpt>
      <trkpt lat="46.69251" lon="5.96969">
        <ele>768.23</ele>
        <time>2013-05-10T10:16:20Z</time>
      </trkpt>
      <trkpt lat="46.69222" lon="5.96941">
        <ele>770.15</ele>
        <time>2013-05-10T10:16:31Z</time>
      </trkpt>
      <trkpt lat="46.69198" lon="5.96918">
        <ele>770.63</ele>
        <time>2013-05-10T10:16:41Z</time>
      </trkpt>
      <trkpt lat="46.69168" lon="5.96893">
        <ele>771.6</ele>
        <time>2013-05-10T10:16:51Z</time>
      </trkpt>
      <trkpt lat="46.69141" lon="5.96878">
        <ele>772.56</ele>
        <time>2013-05-10T10:17:01Z</time>
      </trkpt>
      <trkpt lat="46.69106" lon="5.9686">
        <ele>774.48</ele>
        <time>2013-05-10T10:17:14Z</time>
      </trkpt>
      <trkpt lat="46.6908" lon="5.96857">
        <ele>776.4</ele>
        <time>2013-05-10T10:17:24Z</time>
      </trkpt>
      <trkpt lat="46.69049" lon="5.96873">
        <ele>779.29</ele>
        <time>2013-05-10T10:17:38Z</time>
      </trkpt>
      <trkpt lat="46.69027" lon="5.96887">
        <ele>782.17</ele>
        <time>2013-05-10T10:17:53Z</time>
      </trkpt>
      <trkpt lat="46.69023" lon="5.96888">
        <ele>782.17</ele>
        <time>2013-05-10T10:17:55Z</time>
      </trkpt>
      <trkpt lat="46.69022" lon="5.9689">
        <ele>785.05</ele>
        <time>2013-05-10T10:17:56Z</time>
      </trkpt>
      <trkpt lat="46.6902" lon="5.96891">
        <ele>783.13</ele>
        <time>2013-05-10T10:17:58Z</time>
      </trkpt>
      <trkpt lat="46.69012" lon="5.96892">
        <ele>778.81</ele>
        <time>2013-05-10T10:18:02Z</time>
      </trkpt>
      <trkpt lat="46.69011" lon="5.96891">
        <ele>787.94</ele>
        <time>2013-05-10T10:18:03Z</time>
      </trkpt>
      <trkpt lat="46.69009" lon="5.96892">
        <ele>782.65</ele>
        <time>2013-05-10T10:18:04Z</time>
      </trkpt>
      <trkpt lat="46.69007" lon="5.96893">
        <ele>785.53</ele>
        <time>2013-05-10T10:18:05Z</time>
      </trkpt>
      <trkpt lat="46.68996" lon="5.96894">
        <ele>785.05</ele>
        <time>2013-05-10T10:18:12Z</time>
      </trkpt>
      <trkpt lat="46.68994" lon="5.96894">
        <ele>785.05</ele>
        <time>2013-05-10T10:18:13Z</time>
      </trkpt>
      <trkpt lat="46.68993" lon="5.96893">
        <ele>785.53</ele>
        <time>2013-05-10T10:18:14Z</time>
      </trkpt>
      <trkpt lat="46.68991" lon="5.96893">
        <ele>785.53</ele>
        <time>2013-05-10T10:18:15Z</time>
      </trkpt>
      <trkpt lat="46.68989" lon="5.96893">
        <ele>785.53</ele>
        <time>2013-05-10T10:18:16Z</time>
      </trkpt>
      <trkpt lat="46.68988" lon="5.96892">
        <ele>786.02</ele>
        <time>2013-05-10T10:18:17Z</time>
      </trkpt>
      <trkpt lat="46.68985" lon="5.96891">
        <ele>786.5</ele>
        <time>2013-05-10T10:18:19Z</time>
      </trkpt>
      <trkpt lat="46.68975" lon="5.96888">
        <ele>786.98</ele>
        <time>2013-05-10T10:18:25Z</time>
      </trkpt>
      <trkpt lat="46.68974" lon="5.96888">
        <ele>787.46</ele>
        <time>2013-05-10T10:18:26Z</time>
      </trkpt>
      <trkpt lat="46.68972" lon="5.96889">
        <ele>787.46</ele>
        <time>2013-05-10T10:18:27Z</time>
      </trkpt>
      <trkpt lat="46.68942" lon="5.96875">
        <ele>788.9</ele>
        <time>2013-05-10T10:18:41Z</time>
      </trkpt>
      <trkpt lat="46.68937" lon="5.96873">
        <ele>789.38</ele>
        <time>2013-05-10T10:18:43Z</time>
      </trkpt>
      <trkpt lat="46.68935" lon="5.96873">
        <ele>789.38</ele>
        <time>2013-05-10T10:18:44Z</time>
      </trkpt>
      <trkpt lat="46.68933" lon="5.96873">
        <ele>789.38</ele>
        <time>2013-05-10T10:18:45Z</time>
      </trkpt>
      <trkpt lat="46.68931" lon="5.96874">
        <ele>789.86</ele>
        <time>2013-05-10T10:18:46Z</time>
      </trkpt>
      <trkpt lat="46.68929" lon="5.96874">
        <ele>789.86</ele>
        <time>2013-05-10T10:18:47Z</time>
      </trkpt>
      <trkpt lat="46.68926" lon="5.96874">
        <ele>789.86</ele>
        <time>2013-05-10T10:18:48Z</time>
      </trkpt>
      <trkpt lat="46.68924" lon="5.96874">
        <ele>789.86</ele>
        <time>2013-05-10T10:18:49Z</time>
      </trkpt>
      <trkpt lat="46.68898" lon="5.96878">
        <ele>791.78</ele>
        <time>2013-05-10T10:19:03Z</time>
      </trkpt>
      <trkpt lat="46.68894" lon="5.96879">
        <ele>791.78</ele>
        <time>2013-05-10T10:19:05Z</time>
      </trkpt>
      <trkpt lat="46.68893" lon="5.96879">
        <ele>792.26</ele>
        <time>2013-05-10T10:19:06Z</time>
      </trkpt>
      <trkpt lat="46.68891" lon="5.96879">
        <ele>792.26</ele>
        <time>2013-05-10T10:19:07Z</time>
      </trkpt>
      <trkpt lat="46.68868" lon="5.96882">
        <ele>794.67</ele>
        <time>2013-05-10T10:19:19Z</time>
      </trkpt>
      <trkpt lat="46.68866" lon="5.96883">
        <ele>795.15</ele>
        <time>2013-05-10T10:19:20Z</time>
      </trkpt>
      <trkpt lat="46.68863" lon="5.96883">
        <ele>795.15</ele>
        <time>2013-05-10T10:19:21Z</time>
      </trkpt>
      <trkpt lat="46.68852" lon="5.96884">
        <ele>796.11</ele>
        <time>2013-05-10T10:19:26Z</time>
      </trkpt>
      <trkpt lat="46.6885" lon="5.96884">
        <ele>796.11</ele>
        <time>2013-05-10T10:19:27Z</time>
      </trkpt>
      <trkpt lat="46.68848" lon="5.96885">
        <ele>796.59</ele>
        <time>2013-05-10T10:19:28Z</time>
      </trkpt>
      <trkpt lat="46.68845" lon="5.96885">
        <ele>796.59</ele>
        <time>2013-05-10T10:19:29Z</time>
      </trkpt>
      <trkpt lat="46.68843" lon="5.96886">
        <ele>797.07</ele>
        <time>2013-05-10T10:19:30Z</time>
      </trkpt>
      <trkpt lat="46.68841" lon="5.96886">
        <ele>797.07</ele>
        <time>2013-05-10T10:19:31Z</time>
      </trkpt>
      <trkpt lat="46.68829" lon="5.96892">
        <ele>797.55</ele>
        <time>2013-05-10T10:19:38Z</time>
      </trkpt>
      <trkpt lat="46.68828" lon="5.96893">
        <ele>798.51</ele>
        <time>2013-05-10T10:19:39Z</time>
      </trkpt>
      <trkpt lat="46.68826" lon="5.96895">
        <ele>798.99</ele>
        <time>2013-05-10T10:19:40Z</time>
      </trkpt>
      <trkpt lat="46.68825" lon="5.96896">
        <ele>798.99</ele>
        <time>2013-05-10T10:19:41Z</time>
      </trkpt>
      <trkpt lat="46.68822" lon="5.96897">
        <ele>798.99</ele>
        <time>2013-05-10T10:19:42Z</time>
      </trkpt>
      <trkpt lat="46.68821" lon="5.96899">
        <ele>799.47</ele>
        <time>2013-05-10T10:19:43Z</time>
      </trkpt>
      <trkpt lat="46.68819" lon="5.969">
        <ele>799.47</ele>
        <time>2013-05-10T10:19:44Z</time>
      </trkpt>
      <trkpt lat="46.68817" lon="5.96902">
        <ele>799.47</ele>
        <time>2013-05-10T10:19:45Z</time>
      </trkpt>
      <trkpt lat="46.68799" lon="5.96924">
        <ele>802.36</ele>
        <time>2013-05-10T10:19:57Z</time>
      </trkpt>
      <trkpt lat="46.68798" lon="5.96925">
        <ele>802.36</ele>
        <time>2013-05-10T10:19:58Z</time>
      </trkpt>
      <trkpt lat="46.68796" lon="5.96927">
        <ele>802.36</ele>
        <time>2013-05-10T10:19:59Z</time>
      </trkpt>
      <trkpt lat="46.68793" lon="5.9693">
        <ele>802.84</ele>
        <time>2013-05-10T10:20:01Z</time>
      </trkpt>
      <trkpt lat="46.68779" lon="5.96949">
        <ele>806.2</ele>
        <time>2013-05-10T10:20:11Z</time>
      </trkpt>
      <trkpt lat="46.68759" lon="5.96973">
        <ele>806.68</ele>
        <time>2013-05-10T10:20:24Z</time>
      </trkpt>
      <trkpt lat="46.68741" lon="5.97008">
        <ele>809.57</ele>
        <time>2013-05-10T10:20:39Z</time>
      </trkpt>
      <trkpt lat="46.68723" lon="5.97041">
        <ele>811.97</ele>
        <time>2013-05-10T10:20:53Z</time>
      </trkpt>
      <trkpt lat="46.68703" lon="5.9707">
        <ele>813.41</ele>
        <time>2013-05-10T10:21:06Z</time>
      </trkpt>
      <trkpt lat="46.68699" lon="5.97076">
        <ele>813.89</ele>
        <time>2013-05-10T10:21:09Z</time>
      </trkpt>
      <trkpt lat="46.68697" lon="5.97079">
        <ele>813.89</ele>
        <time>2013-05-10T10:21:10Z</time>
      </trkpt>
      <trkpt lat="46.68696" lon="5.97081">
        <ele>814.37</ele>
        <time>2013-05-10T10:21:11Z</time>
      </trkpt>
      <trkpt lat="46.68695" lon="5.97083">
        <ele>814.37</ele>
        <time>2013-05-10T10:21:12Z</time>
      </trkpt>
      <trkpt lat="46.68693" lon="5.97086">
        <ele>814.37</ele>
        <time>2013-05-10T10:21:13Z</time>
      </trkpt>
      <trkpt lat="46.68692" lon="5.97088">
        <ele>814.85</ele>
        <time>2013-05-10T10:21:14Z</time>
      </trkpt>
      <trkpt lat="46.6869" lon="5.97091">
        <ele>814.85</ele>
        <time>2013-05-10T10:21:15Z</time>
      </trkpt>
      <trkpt lat="46.68673" lon="5.97127">
        <ele>817.26</ele>
        <time>2013-05-10T10:21:30Z</time>
      </trkpt>
      <trkpt lat="46.68663" lon="5.97145">
        <ele>818.22</ele>
        <time>2013-05-10T10:21:37Z</time>
      </trkpt>
      <trkpt lat="46.68655" lon="5.97158">
        <ele>819.18</ele>
        <time>2013-05-10T10:21:43Z</time>
      </trkpt>
      <trkpt lat="46.68653" lon="5.9716">
        <ele>819.18</ele>
        <time>2013-05-10T10:21:44Z</time>
      </trkpt>
      <trkpt lat="46.68651" lon="5.97162">
        <ele>819.18</ele>
        <time>2013-05-10T10:21:45Z</time>
      </trkpt>
      <trkpt lat="46.6865" lon="5.97163">
        <ele>819.18</ele>
        <time>2013-05-10T10:21:46Z</time>
      </trkpt>
      <trkpt lat="46.68649" lon="5.97165">
        <ele>819.18</ele>
        <time>2013-05-10T10:21:47Z</time>
      </trkpt>
      <trkpt lat="46.68647" lon="5.97167">
        <ele>819.66</ele>
        <time>2013-05-10T10:21:48Z</time>
      </trkpt>
      <trkpt lat="46.68645" lon="5.97169">
        <ele>819.66</ele>
        <time>2013-05-10T10:21:49Z</time>
      </trkpt>
      <trkpt lat="46.68643" lon="5.97171">
        <ele>819.66</ele>
        <time>2013-05-10T10:21:50Z</time>
      </trkpt>
      <trkpt lat="46.68642" lon="5.97173">
        <ele>819.66</ele>
        <time>2013-05-10T10:21:51Z</time>
      </trkpt>
      <trkpt lat="46.6864" lon="5.97175">
        <ele>819.66</ele>
        <time>2013-05-10T10:21:52Z</time>
      </trkpt>
      <trkpt lat="46.68638" lon="5.97177">
        <ele>819.66</ele>
        <time>2013-05-10T10:21:53Z</time>
      </trkpt>
      <trkpt lat="46.68637" lon="5.97178">
        <ele>820.14</ele>
        <time>2013-05-10T10:21:54Z</time>
      </trkpt>
      <trkpt lat="46.68635" lon="5.97179">
        <ele>820.14</ele>
        <time>2013-05-10T10:21:55Z</time>
      </trkpt>
      <trkpt lat="46.68634" lon="5.97181">
        <ele>820.14</ele>
        <time>2013-05-10T10:21:56Z</time>
      </trkpt>
      <trkpt lat="46.68632" lon="5.97184">
        <ele>820.14</ele>
        <time>2013-05-10T10:21:57Z</time>
      </trkpt>
      <trkpt lat="46.68622" lon="5.97194">
        <ele>820.14</ele>
        <time>2013-05-10T10:22:03Z</time>
      </trkpt>
      <trkpt lat="46.6862" lon="5.97197">
        <ele>821.1</ele>
        <time>2013-05-10T10:22:05Z</time>
      </trkpt>
      <trkpt lat="46.68609" lon="5.97212">
        <ele>820.14</ele>
        <time>2013-05-10T10:22:17Z</time>
      </trkpt>
      <trkpt lat="46.68609" lon="5.97212">
        <ele>820.14</ele>
        <time>2013-05-10T10:22:36Z</time>
      </trkpt>
      <trkpt lat="46.68606" lon="5.97216">
        <ele>820.14</ele>
        <time>2013-05-10T10:22:51Z</time>
      </trkpt>
      <trkpt lat="46.68605" lon="5.97217">
        <ele>820.14</ele>
        <time>2013-05-10T10:22:52Z</time>
      </trkpt>
      <trkpt lat="46.68603" lon="5.97219">
        <ele>819.66</ele>
        <time>2013-05-10T10:22:53Z</time>
      </trkpt>
      <trkpt lat="46.68602" lon="5.97222">
        <ele>819.66</ele>
        <time>2013-05-10T10:22:54Z</time>
      </trkpt>
      <trkpt lat="46.686" lon="5.97225">
        <ele>820.14</ele>
        <time>2013-05-10T10:22:55Z</time>
      </trkpt>
      <trkpt lat="46.68598" lon="5.97227">
        <ele>819.66</ele>
        <time>2013-05-10T10:22:56Z</time>
      </trkpt>
      <trkpt lat="46.68564" lon="5.97268">
        <ele>818.22</ele>
        <time>2013-05-10T10:23:10Z</time>
      </trkpt>
      <trkpt lat="46.68561" lon="5.97272">
        <ele>817.74</ele>
        <time>2013-05-10T10:23:11Z</time>
      </trkpt>
      <trkpt lat="46.68558" lon="5.97276">
        <ele>817.74</ele>
        <time>2013-05-10T10:23:12Z</time>
      </trkpt>
      <trkpt lat="46.68554" lon="5.9728">
        <ele>817.74</ele>
        <time>2013-05-10T10:23:13Z</time>
      </trkpt>
      <trkpt lat="46.68551" lon="5.97284">
        <ele>817.26</ele>
        <time>2013-05-10T10:23:14Z</time>
      </trkpt>
      <trkpt lat="46.68547" lon="5.97288">
        <ele>816.78</ele>
        <time>2013-05-10T10:23:15Z</time>
      </trkpt>
      <trkpt lat="46.68543" lon="5.97292">
        <ele>816.3</ele>
        <time>2013-05-10T10:23:16Z</time>
      </trkpt>
      <trkpt lat="46.68538" lon="5.97297">
        <ele>816.3</ele>
        <time>2013-05-10T10:23:17Z</time>
      </trkpt>
      <trkpt lat="46.68533" lon="5.97302">
        <ele>815.82</ele>
        <time>2013-05-10T10:23:18Z</time>
      </trkpt>
      <trkpt lat="46.68518" lon="5.97318">
        <ele>814.37</ele>
        <time>2013-05-10T10:23:21Z</time>
      </trkpt>
      <trkpt lat="46.68512" lon="5.97323">
        <ele>814.37</ele>
        <time>2013-05-10T10:23:22Z</time>
      </trkpt>
      <trkpt lat="46.68488" lon="5.97345">
        <ele>812.93</ele>
        <time>2013-05-10T10:23:26Z</time>
      </trkpt>
      <trkpt lat="46.68483" lon="5.97351">
        <ele>812.45</ele>
        <time>2013-05-10T10:23:27Z</time>
      </trkpt>
      <trkpt lat="46.68478" lon="5.97357">
        <ele>811.97</ele>
        <time>2013-05-10T10:23:28Z</time>
      </trkpt>
      <trkpt lat="46.68439" lon="5.97394">
        <ele>810.53</ele>
        <time>2013-05-10T10:23:35Z</time>
      </trkpt>
      <trkpt lat="46.68411" lon="5.97419">
        <ele>810.05</ele>
        <time>2013-05-10T10:23:41Z</time>
      </trkpt>
      <trkpt lat="46.68369" lon="5.97453">
        <ele>807.16</ele>
        <time>2013-05-10T10:23:49Z</time>
      </trkpt>
      <trkpt lat="46.68342" lon="5.97484">
        <ele>805.24</ele>
        <time>2013-05-10T10:23:54Z</time>
      </trkpt>
      <trkpt lat="46.68316" lon="5.97518">
        <ele>803.8</ele>
        <time>2013-05-10T10:23:59Z</time>
      </trkpt>
      <trkpt lat="46.68312" lon="5.97526">
        <ele>803.8</ele>
        <time>2013-05-10T10:24:00Z</time>
      </trkpt>
      <trkpt lat="46.68275" lon="5.9761">
        <ele>804.76</ele>
        <time>2013-05-10T10:24:13Z</time>
      </trkpt>
      <trkpt lat="46.68267" lon="5.97621">
        <ele>803.32</ele>
        <time>2013-05-10T10:24:16Z</time>
      </trkpt>
      <trkpt lat="46.68262" lon="5.97623">
        <ele>803.32</ele>
        <time>2013-05-10T10:24:17Z</time>
      </trkpt>
      <trkpt lat="46.68258" lon="5.97622">
        <ele>803.32</ele>
        <time>2013-05-10T10:24:18Z</time>
      </trkpt>
      <trkpt lat="46.68254" lon="5.9762">
        <ele>802.84</ele>
        <time>2013-05-10T10:24:19Z</time>
      </trkpt>
      <trkpt lat="46.6825" lon="5.97617">
        <ele>803.32</ele>
        <time>2013-05-10T10:24:20Z</time>
      </trkpt>
      <trkpt lat="46.68247" lon="5.97615">
        <ele>803.32</ele>
        <time>2013-05-10T10:24:21Z</time>
      </trkpt>
      <trkpt lat="46.68244" lon="5.97612">
        <ele>803.8</ele>
        <time>2013-05-10T10:24:22Z</time>
      </trkpt>
      <trkpt lat="46.6824" lon="5.97611">
        <ele>803.8</ele>
        <time>2013-05-10T10:24:23Z</time>
      </trkpt>
      <trkpt lat="46.68237" lon="5.97609">
        <ele>803.8</ele>
        <time>2013-05-10T10:24:24Z</time>
      </trkpt>
      <trkpt lat="46.68235" lon="5.97609">
        <ele>803.8</ele>
        <time>2013-05-10T10:24:25Z</time>
      </trkpt>
      <trkpt lat="46.68232" lon="5.97608">
        <ele>803.8</ele>
        <time>2013-05-10T10:24:26Z</time>
      </trkpt>
      <trkpt lat="46.68193" lon="5.97604">
        <ele>803.32</ele>
        <time>2013-05-10T10:24:37Z</time>
      </trkpt>
      <trkpt lat="46.68163" lon="5.97638">
        <ele>801.88</ele>
        <time>2013-05-10T10:24:46Z</time>
      </trkpt>
      <trkpt lat="46.68153" lon="5.97653">
        <ele>801.88</ele>
        <time>2013-05-10T10:24:49Z</time>
      </trkpt>
      <trkpt lat="46.6815" lon="5.97658">
        <ele>801.88</ele>
        <time>2013-05-10T10:24:50Z</time>
      </trkpt>
      <trkpt lat="46.68147" lon="5.97664">
        <ele>801.88</ele>
        <time>2013-05-10T10:24:51Z</time>
      </trkpt>
      <trkpt lat="46.68141" lon="5.97674">
        <ele>802.36</ele>
        <time>2013-05-10T10:24:53Z</time>
      </trkpt>
      <trkpt lat="46.68138" lon="5.97678">
        <ele>802.36</ele>
        <time>2013-05-10T10:24:54Z</time>
      </trkpt>
      <trkpt lat="46.68129" lon="5.9769">
        <ele>802.36</ele>
        <time>2013-05-10T10:24:57Z</time>
      </trkpt>
      <trkpt lat="46.68126" lon="5.97695">
        <ele>802.84</ele>
        <time>2013-05-10T10:24:58Z</time>
      </trkpt>
      <trkpt lat="46.68123" lon="5.977">
        <ele>802.36</ele>
        <time>2013-05-10T10:24:59Z</time>
      </trkpt>
      <trkpt lat="46.6812" lon="5.97704">
        <ele>802.84</ele>
        <time>2013-05-10T10:25:00Z</time>
      </trkpt>
      <trkpt lat="46.68116" lon="5.97709">
        <ele>802.84</ele>
        <time>2013-05-10T10:25:01Z</time>
      </trkpt>
      <trkpt lat="46.6811" lon="5.97718">
        <ele>802.36</ele>
        <time>2013-05-10T10:25:03Z</time>
      </trkpt>
      <trkpt lat="46.68107" lon="5.97722">
        <ele>801.88</ele>
        <time>2013-05-10T10:25:04Z</time>
      </trkpt>
      <trkpt lat="46.68103" lon="5.97726">
        <ele>801.88</ele>
        <time>2013-05-10T10:25:05Z</time>
      </trkpt>
      <trkpt lat="46.68098" lon="5.97728">
        <ele>801.88</ele>
        <time>2013-05-10T10:25:06Z</time>
      </trkpt>
      <trkpt lat="46.68093" lon="5.97731">
        <ele>801.88</ele>
        <time>2013-05-10T10:25:07Z</time>
      </trkpt>
      <trkpt lat="46.68088" lon="5.97732">
        <ele>801.4</ele>
        <time>2013-05-10T10:25:08Z</time>
      </trkpt>
      <trkpt lat="46.68083" lon="5.97734">
        <ele>801.4</ele>
        <time>2013-05-10T10:25:09Z</time>
      </trkpt>
      <trkpt lat="46.68079" lon="5.97737">
        <ele>801.4</ele>
        <time>2013-05-10T10:25:10Z</time>
      </trkpt>
      <trkpt lat="46.68076" lon="5.97742">
        <ele>800.92</ele>
        <time>2013-05-10T10:25:11Z</time>
      </trkpt>
      <trkpt lat="46.68072" lon="5.97747">
        <ele>800.92</ele>
        <time>2013-05-10T10:25:12Z</time>
      </trkpt>
      <trkpt lat="46.68069" lon="5.97753">
        <ele>800.92</ele>
        <time>2013-05-10T10:25:13Z</time>
      </trkpt>
      <trkpt lat="46.68065" lon="5.9776">
        <ele>800.92</ele>
        <time>2013-05-10T10:25:14Z</time>
      </trkpt>
      <trkpt lat="46.68062" lon="5.97767">
        <ele>800.44</ele>
        <time>2013-05-10T10:25:15Z</time>
      </trkpt>
      <trkpt lat="46.6806" lon="5.97775">
        <ele>800.44</ele>
        <time>2013-05-10T10:25:16Z</time>
      </trkpt>
      <trkpt lat="46.68056" lon="5.97781">
        <ele>800.44</ele>
        <time>2013-05-10T10:25:17Z</time>
      </trkpt>
      <trkpt lat="46.68053" lon="5.97788">
        <ele>799.95</ele>
        <time>2013-05-10T10:25:18Z</time>
      </trkpt>
      <trkpt lat="46.68049" lon="5.97793">
        <ele>800.44</ele>
        <time>2013-05-10T10:25:19Z</time>
      </trkpt>
      <trkpt lat="46.68044" lon="5.97798">
        <ele>799.95</ele>
        <time>2013-05-10T10:25:20Z</time>
      </trkpt>
      <trkpt lat="46.68034" lon="5.97807">
        <ele>799.95</ele>
        <time>2013-05-10T10:25:22Z</time>
      </trkpt>
      <trkpt lat="46.68001" lon="5.97842">
        <ele>798.51</ele>
        <time>2013-05-10T10:25:29Z</time>
      </trkpt>
      <trkpt lat="46.67997" lon="5.97847">
        <ele>798.51</ele>
        <time>2013-05-10T10:25:30Z</time>
      </trkpt>
      <trkpt lat="46.67972" lon="5.97861">
        <ele>798.51</ele>
        <time>2013-05-10T10:25:35Z</time>
      </trkpt>
      <trkpt lat="46.67967" lon="5.97862">
        <ele>798.03</ele>
        <time>2013-05-10T10:25:36Z</time>
      </trkpt>
      <trkpt lat="46.67949" lon="5.97865">
        <ele>797.55</ele>
        <time>2013-05-10T10:25:39Z</time>
      </trkpt>
      <trkpt lat="46.67944" lon="5.97867">
        <ele>797.07</ele>
        <time>2013-05-10T10:25:40Z</time>
      </trkpt>
      <trkpt lat="46.67938" lon="5.9787">
        <ele>797.07</ele>
        <time>2013-05-10T10:25:41Z</time>
      </trkpt>
      <trkpt lat="46.67919" lon="5.97882">
        <ele>795.63</ele>
        <time>2013-05-10T10:25:44Z</time>
      </trkpt>
      <trkpt lat="46.67907" lon="5.97889">
        <ele>795.15</ele>
        <time>2013-05-10T10:25:46Z</time>
      </trkpt>
      <trkpt lat="46.67902" lon="5.97892">
        <ele>795.15</ele>
        <time>2013-05-10T10:25:47Z</time>
      </trkpt>
      <trkpt lat="46.67888" lon="5.97899">
        <ele>797.07</ele>
        <time>2013-05-10T10:25:50Z</time>
      </trkpt>
      <trkpt lat="46.67884" lon="5.97902">
        <ele>797.07</ele>
        <time>2013-05-10T10:25:51Z</time>
      </trkpt>
      <trkpt lat="46.67874" lon="5.97913">
        <ele>798.03</ele>
        <time>2013-05-10T10:25:54Z</time>
      </trkpt>
      <trkpt lat="46.6784" lon="5.97956">
        <ele>800.92</ele>
        <time>2013-05-10T10:26:07Z</time>
      </trkpt>
      <trkpt lat="46.67822" lon="5.97981">
        <ele>804.28</ele>
        <time>2013-05-10T10:26:15Z</time>
      </trkpt>
      <trkpt lat="46.67797" lon="5.98001">
        <ele>803.8</ele>
        <time>2013-05-10T10:26:25Z</time>
      </trkpt>
      <trkpt lat="46.67796" lon="5.98">
        <ele>803.8</ele>
        <time>2013-05-10T10:26:26Z</time>
      </trkpt>
      <trkpt lat="46.67795" lon="5.97997">
        <ele>804.28</ele>
        <time>2013-05-10T10:26:27Z</time>
      </trkpt>
      <trkpt lat="46.67794" lon="5.97994">
        <ele>804.76</ele>
        <time>2013-05-10T10:26:36Z</time>
      </trkpt>
      <trkpt lat="46.67791" lon="5.97992">
        <ele>804.28</ele>
        <time>2013-05-10T10:26:45Z</time>
      </trkpt>
      <trkpt lat="46.67788" lon="5.97989">
        <ele>804.28</ele>
        <time>2013-05-10T10:27:00Z</time>
      </trkpt>
      <trkpt lat="46.67788" lon="5.97989">
        <ele>804.28</ele>
        <time>2013-05-10T10:27:31Z</time>
      </trkpt>
      <trkpt lat="46.67786" lon="5.97983">
        <ele>803.8</ele>
        <time>2013-05-10T10:27:49Z</time>
      </trkpt>
      <trkpt lat="46.67779" lon="5.97952">
        <ele>803.32</ele>
        <time>2013-05-10T10:28:00Z</time>
      </trkpt>
      <trkpt lat="46.67755" lon="5.97931">
        <ele>803.8</ele>
        <time>2013-05-10T10:28:11Z</time>
      </trkpt>
      <trkpt lat="46.67753" lon="5.97933">
        <ele>803.8</ele>
        <time>2013-05-10T10:28:13Z</time>
      </trkpt>
      <trkpt lat="46.67751" lon="5.97934">
        <ele>803.8</ele>
        <time>2013-05-10T10:28:14Z</time>
      </trkpt>
      <trkpt lat="46.67721" lon="5.97951">
        <ele>804.28</ele>
        <time>2013-05-10T10:28:24Z</time>
      </trkpt>
      <trkpt lat="46.67702" lon="5.97973">
        <ele>807.64</ele>
        <time>2013-05-10T10:28:35Z</time>
      </trkpt>
      <trkpt lat="46.6769" lon="5.9799">
        <ele>806.68</ele>
        <time>2013-05-10T10:28:45Z</time>
      </trkpt>
      <trkpt lat="46.67682" lon="5.97998">
        <ele>805.24</ele>
        <time>2013-05-10T10:28:56Z</time>
      </trkpt>
      <trkpt lat="46.67679" lon="5.98">
        <ele>804.76</ele>
        <time>2013-05-10T10:28:58Z</time>
      </trkpt>
      <trkpt lat="46.67677" lon="5.98002">
        <ele>804.76</ele>
        <time>2013-05-10T10:28:59Z</time>
      </trkpt>
      <trkpt lat="46.67676" lon="5.98002">
        <ele>804.76</ele>
        <time>2013-05-10T10:29:00Z</time>
      </trkpt>
      <trkpt lat="46.67675" lon="5.98003">
        <ele>804.76</ele>
        <time>2013-05-10T10:29:01Z</time>
      </trkpt>
      <trkpt lat="46.67672" lon="5.98004">
        <ele>804.76</ele>
        <time>2013-05-10T10:29:02Z</time>
      </trkpt>
      <trkpt lat="46.67669" lon="5.98004">
        <ele>804.76</ele>
        <time>2013-05-10T10:29:03Z</time>
      </trkpt>
      <trkpt lat="46.67667" lon="5.98004">
        <ele>804.76</ele>
        <time>2013-05-10T10:29:04Z</time>
      </trkpt>
      <trkpt lat="46.67664" lon="5.98002">
        <ele>804.76</ele>
        <time>2013-05-10T10:29:05Z</time>
      </trkpt>
      <trkpt lat="46.67661" lon="5.98">
        <ele>804.76</ele>
        <time>2013-05-10T10:29:06Z</time>
      </trkpt>
      <trkpt lat="46.67658" lon="5.97998">
        <ele>804.28</ele>
        <time>2013-05-10T10:29:07Z</time>
      </trkpt>
      <trkpt lat="46.67642" lon="5.97986">
        <ele>803.8</ele>
        <time>2013-05-10T10:29:14Z</time>
      </trkpt>
      <trkpt lat="46.6764" lon="5.97986">
        <ele>803.8</ele>
        <time>2013-05-10T10:29:15Z</time>
      </trkpt>
      <trkpt lat="46.67639" lon="5.97986">
        <ele>803.8</ele>
        <time>2013-05-10T10:29:16Z</time>
      </trkpt>
      <trkpt lat="46.67637" lon="5.97986">
        <ele>803.8</ele>
        <time>2013-05-10T10:29:17Z</time>
      </trkpt>
      <trkpt lat="46.67634" lon="5.97986">
        <ele>803.8</ele>
        <time>2013-05-10T10:29:18Z</time>
      </trkpt>
      <trkpt lat="46.67631" lon="5.97986">
        <ele>803.8</ele>
        <time>2013-05-10T10:29:19Z</time>
      </trkpt>
      <trkpt lat="46.67629" lon="5.97987">
        <ele>804.28</ele>
        <time>2013-05-10T10:29:20Z</time>
      </trkpt>
      <trkpt lat="46.67626" lon="5.97987">
        <ele>804.76</ele>
        <time>2013-05-10T10:29:21Z</time>
      </trkpt>
      <trkpt lat="46.67623" lon="5.97988">
        <ele>805.24</ele>
        <time>2013-05-10T10:29:22Z</time>
      </trkpt>
      <trkpt lat="46.67614" lon="5.97995">
        <ele>807.16</ele>
        <time>2013-05-10T10:29:26Z</time>
      </trkpt>
      <trkpt lat="46.67612" lon="5.97995">
        <ele>807.64</ele>
        <time>2013-05-10T10:29:27Z</time>
      </trkpt>
      <trkpt lat="46.67577" lon="5.98013">
        <ele>807.64</ele>
        <time>2013-05-10T10:29:39Z</time>
      </trkpt>
      <trkpt lat="46.67551" lon="5.98022">
        <ele>807.16</ele>
        <time>2013-05-10T10:29:48Z</time>
      </trkpt>
      <trkpt lat="46.67524" lon="5.98033">
        <ele>805.72</ele>
        <time>2013-05-10T10:29:58Z</time>
      </trkpt>
      <trkpt lat="46.67488" lon="5.98051">
        <ele>802.84</ele>
        <time>2013-05-10T10:30:08Z</time>
      </trkpt>
      <trkpt lat="46.67476" lon="5.98054">
        <ele>801.4</ele>
        <time>2013-05-10T10:30:11Z</time>
      </trkpt>
      <trkpt lat="46.67442" lon="5.98071">
        <ele>799.95</ele>
        <time>2013-05-10T10:30:21Z</time>
      </trkpt>
      <trkpt lat="46.67406" lon="5.9809">
        <ele>798.99</ele>
        <time>2013-05-10T10:30:34Z</time>
      </trkpt>
      <trkpt lat="46.67402" lon="5.98094">
        <ele>798.99</ele>
        <time>2013-05-10T10:30:35Z</time>
      </trkpt>
      <trkpt lat="46.67399" lon="5.98097">
        <ele>798.99</ele>
        <time>2013-05-10T10:30:36Z</time>
      </trkpt>
      <trkpt lat="46.67396" lon="5.981">
        <ele>798.99</ele>
        <time>2013-05-10T10:30:37Z</time>
      </trkpt>
      <trkpt lat="46.67384" lon="5.98122">
        <ele>800.44</ele>
        <time>2013-05-10T10:30:45Z</time>
      </trkpt>
      <trkpt lat="46.67377" lon="5.98156">
        <ele>802.84</ele>
        <time>2013-05-10T10:30:55Z</time>
      </trkpt>
      <trkpt lat="46.67372" lon="5.98187">
        <ele>803.8</ele>
        <time>2013-05-10T10:31:05Z</time>
      </trkpt>
      <trkpt lat="46.6737" lon="5.98211">
        <ele>804.76</ele>
        <time>2013-05-10T10:31:13Z</time>
      </trkpt>
      <trkpt lat="46.6737" lon="5.98213">
        <ele>804.76</ele>
        <time>2013-05-10T10:31:14Z</time>
      </trkpt>
      <trkpt lat="46.67371" lon="5.98216">
        <ele>804.76</ele>
        <time>2013-05-10T10:31:15Z</time>
      </trkpt>
      <trkpt lat="46.67371" lon="5.98219">
        <ele>804.28</ele>
        <time>2013-05-10T10:31:16Z</time>
      </trkpt>
      <trkpt lat="46.6737" lon="5.98221">
        <ele>804.28</ele>
        <time>2013-05-10T10:31:17Z</time>
      </trkpt>
      <trkpt lat="46.6737" lon="5.98224">
        <ele>803.8</ele>
        <time>2013-05-10T10:31:18Z</time>
      </trkpt>
      <trkpt lat="46.6737" lon="5.98227">
        <ele>803.32</ele>
        <time>2013-05-10T10:31:19Z</time>
      </trkpt>
      <trkpt lat="46.67369" lon="5.98231">
        <ele>802.84</ele>
        <time>2013-05-10T10:31:20Z</time>
      </trkpt>
      <trkpt lat="46.67365" lon="5.98256">
        <ele>802.36</ele>
        <time>2013-05-10T10:31:25Z</time>
      </trkpt>
      <trkpt lat="46.67363" lon="5.9826">
        <ele>802.36</ele>
        <time>2013-05-10T10:31:26Z</time>
      </trkpt>
      <trkpt lat="46.67361" lon="5.98262">
        <ele>802.36</ele>
        <time>2013-05-10T10:31:27Z</time>
      </trkpt>
      <trkpt lat="46.67357" lon="5.98267">
        <ele>801.88</ele>
        <time>2013-05-10T10:31:29Z</time>
      </trkpt>
      <trkpt lat="46.67354" lon="5.98269">
        <ele>801.88</ele>
        <time>2013-05-10T10:31:30Z</time>
      </trkpt>
      <trkpt lat="46.67322" lon="5.98303">
        <ele>798.99</ele>
        <time>2013-05-10T10:31:40Z</time>
      </trkpt>
      <trkpt lat="46.67301" lon="5.98329">
        <ele>799.95</ele>
        <time>2013-05-10T10:31:49Z</time>
      </trkpt>
      <trkpt lat="46.67299" lon="5.9833">
        <ele>799.95</ele>
        <time>2013-05-10T10:31:50Z</time>
      </trkpt>
      <trkpt lat="46.67289" lon="5.98339">
        <ele>802.36</ele>
        <time>2013-05-10T10:31:56Z</time>
      </trkpt>
      <trkpt lat="46.67286" lon="5.98341">
        <ele>802.36</ele>
        <time>2013-05-10T10:31:57Z</time>
      </trkpt>
      <trkpt lat="46.67285" lon="5.98343">
        <ele>802.84</ele>
        <time>2013-05-10T10:31:58Z</time>
      </trkpt>
      <trkpt lat="46.67283" lon="5.98345">
        <ele>803.32</ele>
        <time>2013-05-10T10:31:59Z</time>
      </trkpt>
      <trkpt lat="46.67281" lon="5.98346">
        <ele>803.8</ele>
        <time>2013-05-10T10:32:00Z</time>
      </trkpt>
      <trkpt lat="46.67279" lon="5.98348">
        <ele>804.28</ele>
        <time>2013-05-10T10:32:01Z</time>
      </trkpt>
      <trkpt lat="46.67278" lon="5.9835">
        <ele>804.76</ele>
        <time>2013-05-10T10:32:02Z</time>
      </trkpt>
      <trkpt lat="46.67277" lon="5.98351">
        <ele>804.76</ele>
        <time>2013-05-10T10:32:03Z</time>
      </trkpt>
      <trkpt lat="46.67268" lon="5.98364">
        <ele>806.68</ele>
        <time>2013-05-10T10:32:10Z</time>
      </trkpt>
      <trkpt lat="46.67267" lon="5.98366">
        <ele>806.68</ele>
        <time>2013-05-10T10:32:11Z</time>
      </trkpt>
      <trkpt lat="46.67265" lon="5.98368">
        <ele>806.68</ele>
        <time>2013-05-10T10:32:12Z</time>
      </trkpt>
      <trkpt lat="46.67264" lon="5.9837">
        <ele>807.16</ele>
        <time>2013-05-10T10:32:13Z</time>
      </trkpt>
      <trkpt lat="46.67263" lon="5.98372">
        <ele>807.16</ele>
        <time>2013-05-10T10:32:14Z</time>
      </trkpt>
      <trkpt lat="46.67258" lon="5.98384">
        <ele>807.64</ele>
        <time>2013-05-10T10:32:26Z</time>
      </trkpt>
      <trkpt lat="46.67258" lon="5.98384">
        <ele>807.64</ele>
        <time>2013-05-10T10:32:45Z</time>
      </trkpt>
      <trkpt lat="46.67257" lon="5.98383">
        <ele>807.64</ele>
        <time>2013-05-10T10:33:06Z</time>
      </trkpt>
      <trkpt lat="46.67257" lon="5.98383">
        <ele>807.64</ele>
        <time>2013-05-10T10:33:28Z</time>
      </trkpt>
      <trkpt lat="46.67257" lon="5.98383">
        <ele>807.64</ele>
        <time>2013-05-10T10:33:53Z</time>
      </trkpt>
      <trkpt lat="46.67257" lon="5.98383">
        <ele>807.64</ele>
        <time>2013-05-10T10:34:18Z</time>
      </trkpt>
      <trkpt lat="46.67257" lon="5.98383">
        <ele>807.64</ele>
        <time>2013-05-10T10:34:37Z</time>
      </trkpt>
      <trkpt lat="46.67257" lon="5.98383">
        <ele>807.64</ele>
        <time>2013-05-10T10:35:05Z</time>
      </trkpt>
      <trkpt lat="46.67246" lon="5.984">
        <ele>806.68</ele>
        <time>2013-05-10T10:35:23Z</time>
      </trkpt>
      <trkpt lat="46.67223" lon="5.98423">
        <ele>803.32</ele>
        <time>2013-05-10T10:35:34Z</time>
      </trkpt>
      <trkpt lat="46.67201" lon="5.98444">
        <ele>801.4</ele>
        <time>2013-05-10T10:35:42Z</time>
      </trkpt>
      <trkpt lat="46.67177" lon="5.98478">
        <ele>798.03</ele>
        <time>2013-05-10T10:35:52Z</time>
      </trkpt>
      <trkpt lat="46.67171" lon="5.98486">
        <ele>797.07</ele>
        <time>2013-05-10T10:35:54Z</time>
      </trkpt>
      <trkpt lat="46.67154" lon="5.98508">
        <ele>795.15</ele>
        <time>2013-05-10T10:36:01Z</time>
      </trkpt>
      <trkpt lat="46.67131" lon="5.98549">
        <ele>791.78</ele>
        <time>2013-05-10T10:36:11Z</time>
      </trkpt>
      <trkpt lat="46.67129" lon="5.98552">
        <ele>791.78</ele>
        <time>2013-05-10T10:36:12Z</time>
      </trkpt>
      <trkpt lat="46.67127" lon="5.98556">
        <ele>791.3</ele>
        <time>2013-05-10T10:36:13Z</time>
      </trkpt>
      <trkpt lat="46.67125" lon="5.9856">
        <ele>790.82</ele>
        <time>2013-05-10T10:36:14Z</time>
      </trkpt>
      <trkpt lat="46.67123" lon="5.98565">
        <ele>790.82</ele>
        <time>2013-05-10T10:36:15Z</time>
      </trkpt>
      <trkpt lat="46.67121" lon="5.98569">
        <ele>790.82</ele>
        <time>2013-05-10T10:36:16Z</time>
      </trkpt>
      <trkpt lat="46.67119" lon="5.98574">
        <ele>789.86</ele>
        <time>2013-05-10T10:36:17Z</time>
      </trkpt>
      <trkpt lat="46.67106" lon="5.9861">
        <ele>787.94</ele>
        <time>2013-05-10T10:36:26Z</time>
      </trkpt>
      <trkpt lat="46.67088" lon="5.9864">
        <ele>785.05</ele>
        <time>2013-05-10T10:36:34Z</time>
      </trkpt>
      <trkpt lat="46.67086" lon="5.98644">
        <ele>784.57</ele>
        <time>2013-05-10T10:36:35Z</time>
      </trkpt>
      <trkpt lat="46.67083" lon="5.98648">
        <ele>784.57</ele>
        <time>2013-05-10T10:36:36Z</time>
      </trkpt>
      <trkpt lat="46.67082" lon="5.98652">
        <ele>784.09</ele>
        <time>2013-05-10T10:36:37Z</time>
      </trkpt>
      <trkpt lat="46.67081" lon="5.98655">
        <ele>784.09</ele>
        <time>2013-05-10T10:36:38Z</time>
      </trkpt>
      <trkpt lat="46.6708" lon="5.98658">
        <ele>783.61</ele>
        <time>2013-05-10T10:36:39Z</time>
      </trkpt>
      <trkpt lat="46.67079" lon="5.98666">
        <ele>782.65</ele>
        <time>2013-05-10T10:36:41Z</time>
      </trkpt>
      <trkpt lat="46.67078" lon="5.98671">
        <ele>782.65</ele>
        <time>2013-05-10T10:36:42Z</time>
      </trkpt>
      <trkpt lat="46.67077" lon="5.98676">
        <ele>782.65</ele>
        <time>2013-05-10T10:36:43Z</time>
      </trkpt>
      <trkpt lat="46.67075" lon="5.9868">
        <ele>782.65</ele>
        <time>2013-05-10T10:36:44Z</time>
      </trkpt>
      <trkpt lat="46.67074" lon="5.98683">
        <ele>782.65</ele>
        <time>2013-05-10T10:36:45Z</time>
      </trkpt>
      <trkpt lat="46.6707" lon="5.98693">
        <ele>782.65</ele>
        <time>2013-05-10T10:36:57Z</time>
      </trkpt>
      <trkpt lat="46.67068" lon="5.98696">
        <ele>782.65</ele>
        <time>2013-05-10T10:37:04Z</time>
      </trkpt>
      <trkpt lat="46.67067" lon="5.98697">
        <ele>782.65</ele>
        <time>2013-05-10T10:37:05Z</time>
      </trkpt>
      <trkpt lat="46.67065" lon="5.98698">
        <ele>782.17</ele>
        <time>2013-05-10T10:37:06Z</time>
      </trkpt>
      <trkpt lat="46.67043" lon="5.98695">
        <ele>781.21</ele>
        <time>2013-05-10T10:37:15Z</time>
      </trkpt>
      <trkpt lat="46.67042" lon="5.98695">
        <ele>781.21</ele>
        <time>2013-05-10T10:37:28Z</time>
      </trkpt>
      <trkpt lat="46.67042" lon="5.98695">
        <ele>780.73</ele>
        <time>2013-05-10T10:37:50Z</time>
      </trkpt>
      <trkpt lat="46.67042" lon="5.98695">
        <ele>781.21</ele>
        <time>2013-05-10T10:38:12Z</time>
      </trkpt>
      <trkpt lat="46.67042" lon="5.98695">
        <ele>781.21</ele>
        <time>2013-05-10T10:38:36Z</time>
      </trkpt>
      <trkpt lat="46.67044" lon="5.98703">
        <ele>780.73</ele>
        <time>2013-05-10T10:38:57Z</time>
      </trkpt>
      <trkpt lat="46.67045" lon="5.98704">
        <ele>781.21</ele>
        <time>2013-05-10T10:38:58Z</time>
      </trkpt>
      <trkpt lat="46.67047" lon="5.98705">
        <ele>781.21</ele>
        <time>2013-05-10T10:38:59Z</time>
      </trkpt>
      <trkpt lat="46.67049" lon="5.98707">
        <ele>781.21</ele>
        <time>2013-05-10T10:39:00Z</time>
      </trkpt>
      <trkpt lat="46.67051" lon="5.9871">
        <ele>781.21</ele>
        <time>2013-05-10T10:39:01Z</time>
      </trkpt>
      <trkpt lat="46.67053" lon="5.98712">
        <ele>781.21</ele>
        <time>2013-05-10T10:39:02Z</time>
      </trkpt>
      <trkpt lat="46.67053" lon="5.98715">
        <ele>781.21</ele>
        <time>2013-05-10T10:39:03Z</time>
      </trkpt>
      <trkpt lat="46.67054" lon="5.98717">
        <ele>781.21</ele>
        <time>2013-05-10T10:39:04Z</time>
      </trkpt>
      <trkpt lat="46.67053" lon="5.98719">
        <ele>780.73</ele>
        <time>2013-05-10T10:39:05Z</time>
      </trkpt>
      <trkpt lat="46.67047" lon="5.98732">
        <ele>780.25</ele>
        <time>2013-05-10T10:39:15Z</time>
      </trkpt>
      <trkpt lat="46.67045" lon="5.98737">
        <ele>780.25</ele>
        <time>2013-05-10T10:39:19Z</time>
      </trkpt>
      <trkpt lat="46.67024" lon="5.98759">
        <ele>778.32</ele>
        <time>2013-05-10T10:39:29Z</time>
      </trkpt>
      <trkpt lat="46.66999" lon="5.98794">
        <ele>776.88</ele>
        <time>2013-05-10T10:39:44Z</time>
      </trkpt>
      <trkpt lat="46.66992" lon="5.98804">
        <ele>775.44</ele>
        <time>2013-05-10T10:39:49Z</time>
      </trkpt>
      <trkpt lat="46.66991" lon="5.98804">
        <ele>775.44</ele>
        <time>2013-05-10T10:39:50Z</time>
      </trkpt>
      <trkpt lat="46.66989" lon="5.98803">
        <ele>774.96</ele>
        <time>2013-05-10T10:39:51Z</time>
      </trkpt>
      <trkpt lat="46.66989" lon="5.98801">
        <ele>774.96</ele>
        <time>2013-05-10T10:39:52Z</time>
      </trkpt>
      <trkpt lat="46.66989" lon="5.98799">
        <ele>774.96</ele>
        <time>2013-05-10T10:39:53Z</time>
      </trkpt>
      <trkpt lat="46.6699" lon="5.98797">
        <ele>774.96</ele>
        <time>2013-05-10T10:39:54Z</time>
      </trkpt>
      <trkpt lat="46.6699" lon="5.98795">
        <ele>774.96</ele>
        <time>2013-05-10T10:39:55Z</time>
      </trkpt>
      <trkpt lat="46.6699" lon="5.98792">
        <ele>774.96</ele>
        <time>2013-05-10T10:39:56Z</time>
      </trkpt>
      <trkpt lat="46.66991" lon="5.98789">
        <ele>774.96</ele>
        <time>2013-05-10T10:39:57Z</time>
      </trkpt>
      <trkpt lat="46.66991" lon="5.98787">
        <ele>774.96</ele>
        <time>2013-05-10T10:39:58Z</time>
      </trkpt>
      <trkpt lat="46.66998" lon="5.98759">
        <ele>774.96</ele>
        <time>2013-05-10T10:40:08Z</time>
      </trkpt>
      <trkpt lat="46.67" lon="5.98757">
        <ele>774.96</ele>
        <time>2013-05-10T10:40:09Z</time>
      </trkpt>
      <trkpt lat="46.67008" lon="5.98741">
        <ele>775.44</ele>
        <time>2013-05-10T10:40:19Z</time>
      </trkpt>
      <trkpt lat="46.6701" lon="5.98739">
        <ele>775.44</ele>
        <time>2013-05-10T10:40:33Z</time>
      </trkpt>
      <trkpt lat="46.6701" lon="5.98739">
        <ele>775.44</ele>
        <time>2013-05-10T10:41:09Z</time>
      </trkpt>
      <trkpt lat="46.6701" lon="5.98739">
        <ele>775.44</ele>
        <time>2013-05-10T10:41:43Z</time>
      </trkpt>
      <trkpt lat="46.6701" lon="5.98739">
        <ele>775.44</ele>
        <time>2013-05-10T10:42:20Z</time>
      </trkpt>
      <trkpt lat="46.6701" lon="5.98739">
        <ele>775.44</ele>
        <time>2013-05-10T10:42:59Z</time>
      </trkpt>
      <trkpt lat="46.6701" lon="5.98739">
        <ele>775.44</ele>
        <time>2013-05-10T10:43:34Z</time>
      </trkpt>
      <trkpt lat="46.6701" lon="5.98739">
        <ele>775.44</ele>
        <time>2013-05-10T10:44:07Z</time>
      </trkpt>
      <trkpt lat="46.6701" lon="5.98739">
        <ele>775.92</ele>
        <time>2013-05-10T10:44:43Z</time>
      </trkpt>
      <trkpt lat="46.6701" lon="5.98739">
        <ele>775.44</ele>
        <time>2013-05-10T10:45:17Z</time>
      </trkpt>
      <trkpt lat="46.6701" lon="5.98739">
        <ele>775.92</ele>
        <time>2013-05-10T10:45:45Z</time>
      </trkpt>
      <trkpt lat="46.6701" lon="5.98739">
        <ele>775.44</ele>
        <time>2013-05-10T10:46:25Z</time>
      </trkpt>
      <trkpt lat="46.6701" lon="5.98739">
        <ele>775.44</ele>
        <time>2013-05-10T10:46:53Z</time>
      </trkpt>
      <trkpt lat="46.6701" lon="5.98739">
        <ele>775.92</ele>
        <time>2013-05-10T10:47:24Z</time>
      </trkpt>
      <trkpt lat="46.6701" lon="5.98739">
        <ele>775.44</ele>
        <time>2013-05-10T10:47:59Z</time>
      </trkpt>
      <trkpt lat="46.6701" lon="5.98738">
        <ele>775.44</ele>
        <time>2013-05-10T10:48:34Z</time>
      </trkpt>
      <trkpt lat="46.6701" lon="5.98738">
        <ele>775.44</ele>
        <time>2013-05-10T10:49:04Z</time>
      </trkpt>
      <trkpt lat="46.67009" lon="5.98739">
        <ele>775.44</ele>
        <time>2013-05-10T10:49:40Z</time>
      </trkpt>
      <trkpt lat="46.67009" lon="5.98739">
        <ele>775.44</ele>
        <time>2013-05-10T10:50:18Z</time>
      </trkpt>
      <trkpt lat="46.67009" lon="5.98739">
        <ele>775.44</ele>
        <time>2013-05-10T10:50:54Z</time>
      </trkpt>
      <trkpt lat="46.67009" lon="5.98739">
        <ele>775.44</ele>
        <time>2013-05-10T10:51:30Z</time>
      </trkpt>
      <trkpt lat="46.67009" lon="5.98739">
        <ele>775.44</ele>
        <time>2013-05-10T10:52:03Z</time>
      </trkpt>
      <trkpt lat="46.67009" lon="5.98739">
        <ele>775.44</ele>
        <time>2013-05-10T10:52:35Z</time>
      </trkpt>
      <trkpt lat="46.67009" lon="5.98739">
        <ele>775.44</ele>
        <time>2013-05-10T10:53:04Z</time>
      </trkpt>
      <trkpt lat="46.67009" lon="5.98738">
        <ele>775.44</ele>
        <time>2013-05-10T10:53:36Z</time>
      </trkpt>
      <trkpt lat="46.6701" lon="5.98738">
        <ele>775.44</ele>
        <time>2013-05-10T10:54:12Z</time>
      </trkpt>
      <trkpt lat="46.67009" lon="5.98738">
        <ele>775.44</ele>
        <time>2013-05-10T10:54:42Z</time>
      </trkpt>
      <trkpt lat="46.6701" lon="5.98738">
        <ele>775.44</ele>
        <time>2013-05-10T10:55:12Z</time>
      </trkpt>
      <trkpt lat="46.6701" lon="5.98738">
        <ele>775.44</ele>
        <time>2013-05-10T10:55:45Z</time>
      </trkpt>
      <trkpt lat="46.67009" lon="5.98738">
        <ele>775.44</ele>
        <time>2013-05-10T10:56:23Z</time>
      </trkpt>
      <trkpt lat="46.6701" lon="5.98737">
        <ele>775.44</ele>
        <time>2013-05-10T10:56:53Z</time>
      </trkpt>
      <trkpt lat="46.6701" lon="5.98736">
        <ele>775.44</ele>
        <time>2013-05-10T10:57:25Z</time>
      </trkpt>
      <trkpt lat="46.6701" lon="5.98736">
        <ele>775.44</ele>
        <time>2013-05-10T10:57:52Z</time>
      </trkpt>
      <trkpt lat="46.6701" lon="5.98736">
        <ele>775.92</ele>
        <time>2013-05-10T10:58:28Z</time>
      </trkpt>
      <trkpt lat="46.67009" lon="5.98735">
        <ele>775.44</ele>
        <time>2013-05-10T10:58:57Z</time>
      </trkpt>
      <trkpt lat="46.67009" lon="5.98734">
        <ele>775.92</ele>
        <time>2013-05-10T10:59:33Z</time>
      </trkpt>
      <trkpt lat="46.67009" lon="5.98734">
        <ele>775.92</ele>
        <time>2013-05-10T11:00:17Z</time>
      </trkpt>
      <trkpt lat="46.67009" lon="5.98734">
        <ele>775.44</ele>
        <time>2013-05-10T11:00:51Z</time>
      </trkpt>
      <trkpt lat="46.67009" lon="5.98734">
        <ele>775.92</ele>
        <time>2013-05-10T11:01:22Z</time>
      </trkpt>
      <trkpt lat="46.67009" lon="5.98734">
        <ele>775.92</ele>
        <time>2013-05-10T11:01:51Z</time>
      </trkpt>
      <trkpt lat="46.67009" lon="5.98733">
        <ele>775.92</ele>
        <time>2013-05-10T11:02:14Z</time>
      </trkpt>
      <trkpt lat="46.67014" lon="5.98733">
        <ele>775.92</ele>
        <time>2013-05-10T11:02:44Z</time>
      </trkpt>
      <trkpt lat="46.67014" lon="5.98733">
        <ele>775.92</ele>
        <time>2013-05-10T11:03:12Z</time>
      </trkpt>
      <trkpt lat="46.67014" lon="5.98733">
        <ele>775.92</ele>
        <time>2013-05-10T11:03:44Z</time>
      </trkpt>
      <trkpt lat="46.67014" lon="5.98733">
        <ele>775.92</ele>
        <time>2013-05-10T11:04:16Z</time>
      </trkpt>
      <trkpt lat="46.67014" lon="5.98733">
        <ele>775.92</ele>
        <time>2013-05-10T11:04:43Z</time>
      </trkpt>
      <trkpt lat="46.67015" lon="5.98733">
        <ele>775.92</ele>
        <time>2013-05-10T11:05:08Z</time>
      </trkpt>
      <trkpt lat="46.67015" lon="5.98733">
        <ele>775.92</ele>
        <time>2013-05-10T11:05:38Z</time>
      </trkpt>
      <trkpt lat="46.67015" lon="5.98733">
        <ele>775.92</ele>
        <time>2013-05-10T11:06:03Z</time>
      </trkpt>
      <trkpt lat="46.67015" lon="5.98732">
        <ele>775.92</ele>
        <time>2013-05-10T11:06:31Z</time>
      </trkpt>
      <trkpt lat="46.67024" lon="5.98726">
        <ele>775.92</ele>
        <time>2013-05-10T11:06:55Z</time>
      </trkpt>
      <trkpt lat="46.67022" lon="5.98725">
        <ele>775.92</ele>
        <time>2013-05-10T11:07:21Z</time>
      </trkpt>
      <trkpt lat="46.67022" lon="5.98725">
        <ele>775.92</ele>
        <time>2013-05-10T11:07:50Z</time>
      </trkpt>
      <trkpt lat="46.67023" lon="5.98725">
        <ele>775.92</ele>
        <time>2013-05-10T11:08:22Z</time>
      </trkpt>
      <trkpt lat="46.67023" lon="5.98725">
        <ele>776.4</ele>
        <time>2013-05-10T11:08:54Z</time>
      </trkpt>
      <trkpt lat="46.67022" lon="5.98726">
        <ele>776.4</ele>
        <time>2013-05-10T11:09:23Z</time>
      </trkpt>
      <trkpt lat="46.67023" lon="5.98726">
        <ele>775.92</ele>
        <time>2013-05-10T11:09:57Z</time>
      </trkpt>
      <trkpt lat="46.67023" lon="5.98726">
        <ele>776.4</ele>
        <time>2013-05-10T11:10:31Z</time>
      </trkpt>
      <trkpt lat="46.67022" lon="5.98726">
        <ele>777.84</ele>
        <time>2013-05-10T11:10:40Z</time>
      </trkpt>
      <trkpt lat="46.67022" lon="5.98726">
        <ele>776.4</ele>
        <time>2013-05-10T11:10:41Z</time>
      </trkpt>
      <trkpt lat="46.67023" lon="5.98727">
        <ele>776.4</ele>
        <time>2013-05-10T11:11:15Z</time>
      </trkpt>
      <trkpt lat="46.67023" lon="5.98727">
        <ele>776.4</ele>
        <time>2013-05-10T11:11:42Z</time>
      </trkpt>
      <trkpt lat="46.67019" lon="5.98727">
        <ele>776.4</ele>
        <time>2013-05-10T11:12:08Z</time>
      </trkpt>
      <trkpt lat="46.67019" lon="5.98727">
        <ele>776.4</ele>
        <time>2013-05-10T11:12:35Z</time>
      </trkpt>
      <trkpt lat="46.67019" lon="5.98727">
        <ele>776.88</ele>
        <time>2013-05-10T11:12:57Z</time>
      </trkpt>
      <trkpt lat="46.67022" lon="5.98726">
        <ele>776.88</ele>
        <time>2013-05-10T11:13:23Z</time>
      </trkpt>
      <trkpt lat="46.67022" lon="5.98726">
        <ele>776.88</ele>
        <time>2013-05-10T11:13:55Z</time>
      </trkpt>
      <trkpt lat="46.67023" lon="5.98726">
        <ele>776.88</ele>
        <time>2013-05-10T11:14:25Z</time>
      </trkpt>
      <trkpt lat="46.67025" lon="5.98726">
        <ele>777.36</ele>
        <time>2013-05-10T11:14:50Z</time>
      </trkpt>
      <trkpt lat="46.67024" lon="5.98725">
        <ele>777.36</ele>
        <time>2013-05-10T11:15:23Z</time>
      </trkpt>
      <trkpt lat="46.67024" lon="5.98725">
        <ele>777.36</ele>
        <time>2013-05-10T11:15:51Z</time>
      </trkpt>
      <trkpt lat="46.67023" lon="5.98726">
        <ele>777.36</ele>
        <time>2013-05-10T11:16:13Z</time>
      </trkpt>
      <trkpt lat="46.67025" lon="5.98727">
        <ele>777.36</ele>
        <time>2013-05-10T11:16:38Z</time>
      </trkpt>
      <trkpt lat="46.67025" lon="5.98727">
        <ele>779.29</ele>
        <time>2013-05-10T11:16:43Z</time>
      </trkpt>
      <trkpt lat="46.67026" lon="5.98727">
        <ele>777.84</ele>
        <time>2013-05-10T11:17:07Z</time>
      </trkpt>
      <trkpt lat="46.67028" lon="5.9873">
        <ele>777.84</ele>
        <time>2013-05-10T11:17:29Z</time>
      </trkpt>
      <trkpt lat="46.67028" lon="5.9873">
        <ele>778.32</ele>
        <time>2013-05-10T11:17:57Z</time>
      </trkpt>
      <trkpt lat="46.67028" lon="5.98729">
        <ele>778.32</ele>
        <time>2013-05-10T11:18:24Z</time>
      </trkpt>
      <trkpt lat="46.67015" lon="5.98737">
        <ele>778.32</ele>
        <time>2013-05-10T11:18:36Z</time>
      </trkpt>
      <trkpt lat="46.66998" lon="5.98772">
        <ele>777.36</ele>
        <time>2013-05-10T11:18:49Z</time>
      </trkpt>
      <trkpt lat="46.6699" lon="5.98795">
        <ele>777.84</ele>
        <time>2013-05-10T11:19:00Z</time>
      </trkpt>
      <trkpt lat="46.66988" lon="5.98797">
        <ele>777.84</ele>
        <time>2013-05-10T11:19:01Z</time>
      </trkpt>
      <trkpt lat="46.66988" lon="5.98799">
        <ele>777.84</ele>
        <time>2013-05-10T11:19:02Z</time>
      </trkpt>
      <trkpt lat="46.66987" lon="5.98801">
        <ele>777.84</ele>
        <time>2013-05-10T11:19:03Z</time>
      </trkpt>
      <trkpt lat="46.66988" lon="5.98804">
        <ele>777.84</ele>
        <time>2013-05-10T11:19:04Z</time>
      </trkpt>
      <trkpt lat="46.66989" lon="5.98805">
        <ele>777.84</ele>
        <time>2013-05-10T11:19:05Z</time>
      </trkpt>
      <trkpt lat="46.6699" lon="5.98805">
        <ele>777.84</ele>
        <time>2013-05-10T11:19:06Z</time>
      </trkpt>
      <trkpt lat="46.66991" lon="5.98805">
        <ele>777.84</ele>
        <time>2013-05-10T11:19:07Z</time>
      </trkpt>
      <trkpt lat="46.66992" lon="5.98803">
        <ele>778.32</ele>
        <time>2013-05-10T11:19:08Z</time>
      </trkpt>
      <trkpt lat="46.66993" lon="5.98802">
        <ele>778.32</ele>
        <time>2013-05-10T11:19:09Z</time>
      </trkpt>
      <trkpt lat="46.66994" lon="5.988">
        <ele>778.32</ele>
        <time>2013-05-10T11:19:10Z</time>
      </trkpt>
      <trkpt lat="46.66994" lon="5.98798">
        <ele>778.81</ele>
        <time>2013-05-10T11:19:11Z</time>
      </trkpt>
      <trkpt lat="46.66996" lon="5.98797">
        <ele>778.81</ele>
        <time>2013-05-10T11:19:12Z</time>
      </trkpt>
      <trkpt lat="46.66997" lon="5.98796">
        <ele>779.29</ele>
        <time>2013-05-10T11:19:13Z</time>
      </trkpt>
      <trkpt lat="46.66997" lon="5.98794">
        <ele>779.29</ele>
        <time>2013-05-10T11:19:14Z</time>
      </trkpt>
      <trkpt lat="46.66999" lon="5.98792">
        <ele>779.29</ele>
        <time>2013-05-10T11:19:15Z</time>
      </trkpt>
      <trkpt lat="46.66999" lon="5.9879">
        <ele>779.29</ele>
        <time>2013-05-10T11:19:16Z</time>
      </trkpt>
      <trkpt lat="46.67005" lon="5.98783">
        <ele>779.77</ele>
        <time>2013-05-10T11:19:21Z</time>
      </trkpt>
      <trkpt lat="46.67007" lon="5.98782">
        <ele>780.25</ele>
        <time>2013-05-10T11:19:22Z</time>
      </trkpt>
      <trkpt lat="46.67008" lon="5.98781">
        <ele>780.25</ele>
        <time>2013-05-10T11:19:23Z</time>
      </trkpt>
      <trkpt lat="46.67009" lon="5.9878">
        <ele>780.25</ele>
        <time>2013-05-10T11:19:24Z</time>
      </trkpt>
      <trkpt lat="46.6701" lon="5.98779">
        <ele>780.25</ele>
        <time>2013-05-10T11:19:25Z</time>
      </trkpt>
      <trkpt lat="46.67011" lon="5.98778">
        <ele>780.73</ele>
        <time>2013-05-10T11:19:26Z</time>
      </trkpt>
      <trkpt lat="46.67013" lon="5.98777">
        <ele>780.73</ele>
        <time>2013-05-10T11:19:27Z</time>
      </trkpt>
      <trkpt lat="46.67014" lon="5.98776">
        <ele>780.73</ele>
        <time>2013-05-10T11:19:28Z</time>
      </trkpt>
      <trkpt lat="46.67015" lon="5.98774">
        <ele>780.73</ele>
        <time>2013-05-10T11:19:29Z</time>
      </trkpt>
      <trkpt lat="46.67022" lon="5.98759">
        <ele>781.21</ele>
        <time>2013-05-10T11:19:37Z</time>
      </trkpt>
      <trkpt lat="46.67024" lon="5.98756">
        <ele>781.21</ele>
        <time>2013-05-10T11:19:38Z</time>
      </trkpt>
      <trkpt lat="46.67025" lon="5.98755">
        <ele>781.21</ele>
        <time>2013-05-10T11:19:39Z</time>
      </trkpt>
      <trkpt lat="46.67026" lon="5.98753">
        <ele>781.21</ele>
        <time>2013-05-10T11:19:40Z</time>
      </trkpt>
      <trkpt lat="46.67027" lon="5.98752">
        <ele>781.21</ele>
        <time>2013-05-10T11:19:41Z</time>
      </trkpt>
      <trkpt lat="46.67028" lon="5.9875">
        <ele>781.21</ele>
        <time>2013-05-10T11:19:42Z</time>
      </trkpt>
      <trkpt lat="46.67029" lon="5.98749">
        <ele>781.69</ele>
        <time>2013-05-10T11:19:43Z</time>
      </trkpt>
      <trkpt lat="46.6703" lon="5.98748">
        <ele>781.69</ele>
        <time>2013-05-10T11:19:44Z</time>
      </trkpt>
      <trkpt lat="46.67031" lon="5.98746">
        <ele>781.69</ele>
        <time>2013-05-10T11:19:45Z</time>
      </trkpt>
      <trkpt lat="46.67032" lon="5.98745">
        <ele>781.69</ele>
        <time>2013-05-10T11:19:46Z</time>
      </trkpt>
      <trkpt lat="46.67034" lon="5.98744">
        <ele>781.69</ele>
        <time>2013-05-10T11:19:47Z</time>
      </trkpt>
      <trkpt lat="46.67043" lon="5.98735">
        <ele>782.65</ele>
        <time>2013-05-10T11:20:01Z</time>
      </trkpt>
      <trkpt lat="46.67047" lon="5.98729">
        <ele>782.65</ele>
        <time>2013-05-10T11:20:10Z</time>
      </trkpt>
      <trkpt lat="46.67055" lon="5.98714">
        <ele>783.61</ele>
        <time>2013-05-10T11:20:21Z</time>
      </trkpt>
      <trkpt lat="46.67055" lon="5.98712">
        <ele>783.61</ele>
        <time>2013-05-10T11:20:22Z</time>
      </trkpt>
      <trkpt lat="46.67055" lon="5.9871">
        <ele>783.61</ele>
        <time>2013-05-10T11:20:23Z</time>
      </trkpt>
      <trkpt lat="46.67055" lon="5.98708">
        <ele>783.61</ele>
        <time>2013-05-10T11:20:24Z</time>
      </trkpt>
      <trkpt lat="46.67056" lon="5.98707">
        <ele>783.61</ele>
        <time>2013-05-10T11:20:25Z</time>
      </trkpt>
      <trkpt lat="46.67057" lon="5.98705">
        <ele>784.09</ele>
        <time>2013-05-10T11:20:26Z</time>
      </trkpt>
      <trkpt lat="46.6707" lon="5.98695">
        <ele>785.53</ele>
        <time>2013-05-10T11:20:39Z</time>
      </trkpt>
      <trkpt lat="46.67085" lon="5.98699">
        <ele>787.46</ele>
        <time>2013-05-10T11:20:52Z</time>
      </trkpt>
      <trkpt lat="46.67092" lon="5.987">
        <ele>788.42</ele>
        <time>2013-05-10T11:20:58Z</time>
      </trkpt>
      <trkpt lat="46.67093" lon="5.98701">
        <ele>788.42</ele>
        <time>2013-05-10T11:20:59Z</time>
      </trkpt>
      <trkpt lat="46.67095" lon="5.98701">
        <ele>788.42</ele>
        <time>2013-05-10T11:21:00Z</time>
      </trkpt>
      <trkpt lat="46.67096" lon="5.98701">
        <ele>788.9</ele>
        <time>2013-05-10T11:21:01Z</time>
      </trkpt>
      <trkpt lat="46.67099" lon="5.98701">
        <ele>788.9</ele>
        <time>2013-05-10T11:21:03Z</time>
      </trkpt>
      <trkpt lat="46.67114" lon="5.98708">
        <ele>790.34</ele>
        <time>2013-05-10T11:21:15Z</time>
      </trkpt>
      <trkpt lat="46.67123" lon="5.98712">
        <ele>790.34</ele>
        <time>2013-05-10T11:21:21Z</time>
      </trkpt>
      <trkpt lat="46.67125" lon="5.98713">
        <ele>790.34</ele>
        <time>2013-05-10T11:21:22Z</time>
      </trkpt>
      <trkpt lat="46.67126" lon="5.98713">
        <ele>790.34</ele>
        <time>2013-05-10T11:21:23Z</time>
      </trkpt>
      <trkpt lat="46.67137" lon="5.98722">
        <ele>790.82</ele>
        <time>2013-05-10T11:21:32Z</time>
      </trkpt>
      <trkpt lat="46.6714" lon="5.98724">
        <ele>790.82</ele>
        <time>2013-05-10T11:21:34Z</time>
      </trkpt>
      <trkpt lat="46.67141" lon="5.98725">
        <ele>790.82</ele>
        <time>2013-05-10T11:21:35Z</time>
      </trkpt>
      <trkpt lat="46.67143" lon="5.98726">
        <ele>790.82</ele>
        <time>2013-05-10T11:21:36Z</time>
      </trkpt>
      <trkpt lat="46.6715" lon="5.98734">
        <ele>790.34</ele>
        <time>2013-05-10T11:21:41Z</time>
      </trkpt>
      <trkpt lat="46.67151" lon="5.98736">
        <ele>790.34</ele>
        <time>2013-05-10T11:21:42Z</time>
      </trkpt>
      <trkpt lat="46.67152" lon="5.98739">
        <ele>789.86</ele>
        <time>2013-05-10T11:21:43Z</time>
      </trkpt>
      <trkpt lat="46.67152" lon="5.98746">
        <ele>788.9</ele>
        <time>2013-05-10T11:21:45Z</time>
      </trkpt>
      <trkpt lat="46.67152" lon="5.98757">
        <ele>787.94</ele>
        <time>2013-05-10T11:21:47Z</time>
      </trkpt>
      <trkpt lat="46.67148" lon="5.9877">
        <ele>786.98</ele>
        <time>2013-05-10T11:21:49Z</time>
      </trkpt>
      <trkpt lat="46.67143" lon="5.98781">
        <ele>786.5</ele>
        <time>2013-05-10T11:21:51Z</time>
      </trkpt>
      <trkpt lat="46.67117" lon="5.98819">
        <ele>785.05</ele>
        <time>2013-05-10T11:22:00Z</time>
      </trkpt>
      <trkpt lat="46.67082" lon="5.98867">
        <ele>781.21</ele>
        <time>2013-05-10T11:22:09Z</time>
      </trkpt>
      <trkpt lat="46.67076" lon="5.98873">
        <ele>781.21</ele>
        <time>2013-05-10T11:22:10Z</time>
      </trkpt>
      <trkpt lat="46.67054" lon="5.989">
        <ele>779.77</ele>
        <time>2013-05-10T11:22:14Z</time>
      </trkpt>
      <trkpt lat="46.67001" lon="5.98964">
        <ele>778.81</ele>
        <time>2013-05-10T11:22:25Z</time>
      </trkpt>
      <trkpt lat="46.66969" lon="5.99006">
        <ele>777.36</ele>
        <time>2013-05-10T11:22:38Z</time>
      </trkpt>
      <trkpt lat="46.66965" lon="5.99011">
        <ele>777.36</ele>
        <time>2013-05-10T11:22:39Z</time>
      </trkpt>
      <trkpt lat="46.66932" lon="5.99049">
        <ele>773.52</ele>
        <time>2013-05-10T11:22:49Z</time>
      </trkpt>
      <trkpt lat="46.6693" lon="5.99052">
        <ele>773.52</ele>
        <time>2013-05-10T11:22:50Z</time>
      </trkpt>
      <trkpt lat="46.6691" lon="5.99074">
        <ele>770.63</ele>
        <time>2013-05-10T11:22:57Z</time>
      </trkpt>
      <trkpt lat="46.66904" lon="5.99081">
        <ele>769.19</ele>
        <time>2013-05-10T11:22:59Z</time>
      </trkpt>
      <trkpt lat="46.66882" lon="5.99105">
        <ele>765.83</ele>
        <time>2013-05-10T11:23:04Z</time>
      </trkpt>
      <trkpt lat="46.66866" lon="5.9914">
        <ele>764.39</ele>
        <time>2013-05-10T11:23:12Z</time>
      </trkpt>
      <trkpt lat="46.66844" lon="5.99186">
        <ele>763.42</ele>
        <time>2013-05-10T11:23:25Z</time>
      </trkpt>
      <trkpt lat="46.66805" lon="5.99245">
        <ele>761.98</ele>
        <time>2013-05-10T11:23:40Z</time>
      </trkpt>
      <trkpt lat="46.6677" lon="5.99288">
        <ele>762.46</ele>
        <time>2013-05-10T11:23:53Z</time>
      </trkpt>
      <trkpt lat="46.66751" lon="5.99329">
        <ele>763.42</ele>
        <time>2013-05-10T11:24:05Z</time>
      </trkpt>
      <trkpt lat="46.66733" lon="5.99353">
        <ele>764.39</ele>
        <time>2013-05-10T11:24:15Z</time>
      </trkpt>
      <trkpt lat="46.66723" lon="5.99383">
        <ele>762.94</ele>
        <time>2013-05-10T11:24:22Z</time>
      </trkpt>
      <trkpt lat="46.66722" lon="5.9939">
        <ele>762.46</ele>
        <time>2013-05-10T11:24:23Z</time>
      </trkpt>
      <trkpt lat="46.66719" lon="5.99437">
        <ele>761.5</ele>
        <time>2013-05-10T11:24:30Z</time>
      </trkpt>
      <trkpt lat="46.66718" lon="5.99443">
        <ele>761.02</ele>
        <time>2013-05-10T11:24:31Z</time>
      </trkpt>
      <trkpt lat="46.66716" lon="5.99449">
        <ele>761.5</ele>
        <time>2013-05-10T11:24:32Z</time>
      </trkpt>
      <trkpt lat="46.66713" lon="5.99453">
        <ele>761.5</ele>
        <time>2013-05-10T11:24:33Z</time>
      </trkpt>
      <trkpt lat="46.66711" lon="5.99458">
        <ele>761.5</ele>
        <time>2013-05-10T11:24:34Z</time>
      </trkpt>
      <trkpt lat="46.66708" lon="5.99463">
        <ele>761.5</ele>
        <time>2013-05-10T11:24:35Z</time>
      </trkpt>
      <trkpt lat="46.66684" lon="5.99533">
        <ele>761.02</ele>
        <time>2013-05-10T11:24:50Z</time>
      </trkpt>
      <trkpt lat="46.66678" lon="5.99568">
        <ele>759.58</ele>
        <time>2013-05-10T11:24:56Z</time>
      </trkpt>
      <trkpt lat="46.66678" lon="5.99574">
        <ele>759.58</ele>
        <time>2013-05-10T11:24:57Z</time>
      </trkpt>
      <trkpt lat="46.66672" lon="5.99669">
        <ele>757.18</ele>
        <time>2013-05-10T11:25:10Z</time>
      </trkpt>
      <trkpt lat="46.6667" lon="5.99676">
        <ele>756.69</ele>
        <time>2013-05-10T11:25:11Z</time>
      </trkpt>
      <trkpt lat="46.66663" lon="5.99712">
        <ele>755.25</ele>
        <time>2013-05-10T11:25:16Z</time>
      </trkpt>
      <trkpt lat="46.66661" lon="5.99719">
        <ele>754.77</ele>
        <time>2013-05-10T11:25:17Z</time>
      </trkpt>
      <trkpt lat="46.66653" lon="5.99749">
        <ele>754.29</ele>
        <time>2013-05-10T11:25:21Z</time>
      </trkpt>
      <trkpt lat="46.66652" lon="5.99755">
        <ele>753.81</ele>
        <time>2013-05-10T11:25:22Z</time>
      </trkpt>
      <trkpt lat="46.6665" lon="5.99761">
        <ele>753.81</ele>
        <time>2013-05-10T11:25:23Z</time>
      </trkpt>
      <trkpt lat="46.66649" lon="5.99767">
        <ele>753.81</ele>
        <time>2013-05-10T11:25:24Z</time>
      </trkpt>
      <trkpt lat="46.66648" lon="5.99772">
        <ele>753.81</ele>
        <time>2013-05-10T11:25:25Z</time>
      </trkpt>
      <trkpt lat="46.66647" lon="5.99778">
        <ele>754.29</ele>
        <time>2013-05-10T11:25:26Z</time>
      </trkpt>
      <trkpt lat="46.66645" lon="5.99783">
        <ele>753.33</ele>
        <time>2013-05-10T11:25:27Z</time>
      </trkpt>
      <trkpt lat="46.66643" lon="5.99789">
        <ele>753.33</ele>
        <time>2013-05-10T11:25:28Z</time>
      </trkpt>
      <trkpt lat="46.66629" lon="5.99842">
        <ele>751.41</ele>
        <time>2013-05-10T11:25:37Z</time>
      </trkpt>
      <trkpt lat="46.66628" lon="5.99847">
        <ele>751.41</ele>
        <time>2013-05-10T11:25:38Z</time>
      </trkpt>
      <trkpt lat="46.66626" lon="5.99852">
        <ele>751.41</ele>
        <time>2013-05-10T11:25:39Z</time>
      </trkpt>
      <trkpt lat="46.66624" lon="5.99857">
        <ele>750.93</ele>
        <time>2013-05-10T11:25:40Z</time>
      </trkpt>
      <trkpt lat="46.66622" lon="5.99863">
        <ele>750.93</ele>
        <time>2013-05-10T11:25:41Z</time>
      </trkpt>
      <trkpt lat="46.66619" lon="5.99869">
        <ele>750.93</ele>
        <time>2013-05-10T11:25:42Z</time>
      </trkpt>
      <trkpt lat="46.66618" lon="5.99874">
        <ele>750.93</ele>
        <time>2013-05-10T11:25:43Z</time>
      </trkpt>
      <trkpt lat="46.66616" lon="5.9988">
        <ele>750.93</ele>
        <time>2013-05-10T11:25:44Z</time>
      </trkpt>
      <trkpt lat="46.66614" lon="5.99885">
        <ele>750.45</ele>
        <time>2013-05-10T11:25:45Z</time>
      </trkpt>
      <trkpt lat="46.66613" lon="5.9989">
        <ele>750.45</ele>
        <time>2013-05-10T11:25:46Z</time>
      </trkpt>
      <trkpt lat="46.66592" lon="5.9996">
        <ele>748.04</ele>
        <time>2013-05-10T11:25:59Z</time>
      </trkpt>
      <trkpt lat="46.66578" lon="5.99997">
        <ele>746.6</ele>
        <time>2013-05-10T11:26:08Z</time>
      </trkpt>
      <trkpt lat="46.66561" lon="6.00024">
        <ele>745.64</ele>
        <time>2013-05-10T11:26:13Z</time>
      </trkpt>
      <trkpt lat="46.66558" lon="6.00028">
        <ele>745.64</ele>
        <time>2013-05-10T11:26:14Z</time>
      </trkpt>
      <trkpt lat="46.66528" lon="6.00053">
        <ele>744.68</ele>
        <time>2013-05-10T11:26:24Z</time>
      </trkpt>
      <trkpt lat="46.66505" lon="6.00068">
        <ele>743.72</ele>
        <time>2013-05-10T11:26:36Z</time>
      </trkpt>
      <trkpt lat="46.66468" lon="6.00092">
        <ele>742.28</ele>
        <time>2013-05-10T11:26:50Z</time>
      </trkpt>
      <trkpt lat="46.66453" lon="6.0011">
        <ele>741.31</ele>
        <time>2013-05-10T11:26:55Z</time>
      </trkpt>
      <trkpt lat="46.6645" lon="6.00114">
        <ele>741.31</ele>
        <time>2013-05-10T11:26:56Z</time>
      </trkpt>
      <trkpt lat="46.66414" lon="6.00155">
        <ele>739.87</ele>
        <time>2013-05-10T11:27:09Z</time>
      </trkpt>
      <trkpt lat="46.664" lon="6.00169">
        <ele>740.83</ele>
        <time>2013-05-10T11:27:16Z</time>
      </trkpt>
      <trkpt lat="46.66399" lon="6.0017">
        <ele>740.83</ele>
        <time>2013-05-10T11:27:17Z</time>
      </trkpt>
      <trkpt lat="46.66397" lon="6.00173">
        <ele>740.83</ele>
        <time>2013-05-10T11:27:18Z</time>
      </trkpt>
      <trkpt lat="46.66396" lon="6.00175">
        <ele>740.83</ele>
        <time>2013-05-10T11:27:19Z</time>
      </trkpt>
      <trkpt lat="46.66395" lon="6.00176">
        <ele>740.83</ele>
        <time>2013-05-10T11:27:20Z</time>
      </trkpt>
      <trkpt lat="46.6639" lon="6.00182">
        <ele>740.83</ele>
        <time>2013-05-10T11:27:23Z</time>
      </trkpt>
      <trkpt lat="46.66388" lon="6.00182">
        <ele>740.35</ele>
        <time>2013-05-10T11:27:24Z</time>
      </trkpt>
      <trkpt lat="46.66338" lon="6.00185">
        <ele>737.47</ele>
        <time>2013-05-10T11:27:37Z</time>
      </trkpt>
      <trkpt lat="46.66317" lon="6.00187">
        <ele>736.51</ele>
        <time>2013-05-10T11:27:42Z</time>
      </trkpt>
      <trkpt lat="46.66312" lon="6.00188">
        <ele>736.51</ele>
        <time>2013-05-10T11:27:43Z</time>
      </trkpt>
      <trkpt lat="46.66308" lon="6.0019">
        <ele>736.51</ele>
        <time>2013-05-10T11:27:44Z</time>
      </trkpt>
      <trkpt lat="46.663" lon="6.00195">
        <ele>736.03</ele>
        <time>2013-05-10T11:27:46Z</time>
      </trkpt>
      <trkpt lat="46.66295" lon="6.00199">
        <ele>735.55</ele>
        <time>2013-05-10T11:27:47Z</time>
      </trkpt>
      <trkpt lat="46.66262" lon="6.00224">
        <ele>734.1</ele>
        <time>2013-05-10T11:27:54Z</time>
      </trkpt>
      <trkpt lat="46.66253" lon="6.00228">
        <ele>733.62</ele>
        <time>2013-05-10T11:27:56Z</time>
      </trkpt>
      <trkpt lat="46.66249" lon="6.00231">
        <ele>734.1</ele>
        <time>2013-05-10T11:27:57Z</time>
      </trkpt>
      <trkpt lat="46.66244" lon="6.00234">
        <ele>733.62</ele>
        <time>2013-05-10T11:27:58Z</time>
      </trkpt>
      <trkpt lat="46.66241" lon="6.00237">
        <ele>733.14</ele>
        <time>2013-05-10T11:27:59Z</time>
      </trkpt>
      <trkpt lat="46.66236" lon="6.00241">
        <ele>733.14</ele>
        <time>2013-05-10T11:28:00Z</time>
      </trkpt>
      <trkpt lat="46.66231" lon="6.00244">
        <ele>733.14</ele>
        <time>2013-05-10T11:28:01Z</time>
      </trkpt>
      <trkpt lat="46.66218" lon="6.00255">
        <ele>732.66</ele>
        <time>2013-05-10T11:28:04Z</time>
      </trkpt>
      <trkpt lat="46.66214" lon="6.00259">
        <ele>732.18</ele>
        <time>2013-05-10T11:28:05Z</time>
      </trkpt>
      <trkpt lat="46.6621" lon="6.00263">
        <ele>732.18</ele>
        <time>2013-05-10T11:28:06Z</time>
      </trkpt>
      <trkpt lat="46.66206" lon="6.00266">
        <ele>731.7</ele>
        <time>2013-05-10T11:28:07Z</time>
      </trkpt>
      <trkpt lat="46.66201" lon="6.00271">
        <ele>731.7</ele>
        <time>2013-05-10T11:28:08Z</time>
      </trkpt>
      <trkpt lat="46.66197" lon="6.00275">
        <ele>731.7</ele>
        <time>2013-05-10T11:28:09Z</time>
      </trkpt>
      <trkpt lat="46.66192" lon="6.0028">
        <ele>731.22</ele>
        <time>2013-05-10T11:28:10Z</time>
      </trkpt>
      <trkpt lat="46.66146" lon="6.00322">
        <ele>730.26</ele>
        <time>2013-05-10T11:28:23Z</time>
      </trkpt>
      <trkpt lat="46.66123" lon="6.00331">
        <ele>729.78</ele>
        <time>2013-05-10T11:28:35Z</time>
      </trkpt>
      <trkpt lat="46.66118" lon="6.00335">
        <ele>728.82</ele>
        <time>2013-05-10T11:28:53Z</time>
      </trkpt>
      <trkpt lat="46.66025" lon="6.00419">
        <ele>728.34</ele>
        <time>2013-05-10T11:29:07Z</time>
      </trkpt>
      <trkpt lat="46.66005" lon="6.00447">
        <ele>728.34</ele>
        <time>2013-05-10T11:29:13Z</time>
      </trkpt>
      <trkpt lat="46.65974" lon="6.00502">
        <ele>727.86</ele>
        <time>2013-05-10T11:29:27Z</time>
      </trkpt>
      <trkpt lat="46.65947" lon="6.0055">
        <ele>728.34</ele>
        <time>2013-05-10T11:29:39Z</time>
      </trkpt>
      <trkpt lat="46.65933" lon="6.00583">
        <ele>728.34</ele>
        <time>2013-05-10T11:29:48Z</time>
      </trkpt>
      <trkpt lat="46.65914" lon="6.00637">
        <ele>727.86</ele>
        <time>2013-05-10T11:30:01Z</time>
      </trkpt>
      <trkpt lat="46.65905" lon="6.00657">
        <ele>727.86</ele>
        <time>2013-05-10T11:30:10Z</time>
      </trkpt>
      <trkpt lat="46.65898" lon="6.00705">
        <ele>726.89</ele>
        <time>2013-05-10T11:30:22Z</time>
      </trkpt>
      <trkpt lat="46.65903" lon="6.00756">
        <ele>725.93</ele>
        <time>2013-05-10T11:30:33Z</time>
      </trkpt>
      <trkpt lat="46.65925" lon="6.00802">
        <ele>724.49</ele>
        <time>2013-05-10T11:30:43Z</time>
      </trkpt>
      <trkpt lat="46.65931" lon="6.00813">
        <ele>724.01</ele>
        <time>2013-05-10T11:30:45Z</time>
      </trkpt>
      <trkpt lat="46.65934" lon="6.00819">
        <ele>724.01</ele>
        <time>2013-05-10T11:30:46Z</time>
      </trkpt>
      <trkpt lat="46.65937" lon="6.00824">
        <ele>724.01</ele>
        <time>2013-05-10T11:30:47Z</time>
      </trkpt>
      <trkpt lat="46.65939" lon="6.00829">
        <ele>723.53</ele>
        <time>2013-05-10T11:30:48Z</time>
      </trkpt>
      <trkpt lat="46.65941" lon="6.00834">
        <ele>723.53</ele>
        <time>2013-05-10T11:30:49Z</time>
      </trkpt>
      <trkpt lat="46.65943" lon="6.0084">
        <ele>723.53</ele>
        <time>2013-05-10T11:30:50Z</time>
      </trkpt>
      <trkpt lat="46.65945" lon="6.00846">
        <ele>724.97</ele>
        <time>2013-05-10T11:30:51Z</time>
      </trkpt>
      <trkpt lat="46.65947" lon="6.00853">
        <ele>723.53</ele>
        <time>2013-05-10T11:30:52Z</time>
      </trkpt>
      <trkpt lat="46.65948" lon="6.0086">
        <ele>723.05</ele>
        <time>2013-05-10T11:30:53Z</time>
      </trkpt>
      <trkpt lat="46.65963" lon="6.00918">
        <ele>722.09</ele>
        <time>2013-05-10T11:31:01Z</time>
      </trkpt>
      <trkpt lat="46.65965" lon="6.00932">
        <ele>721.61</ele>
        <time>2013-05-10T11:31:03Z</time>
      </trkpt>
      <trkpt lat="46.65966" lon="6.00939">
        <ele>721.13</ele>
        <time>2013-05-10T11:31:04Z</time>
      </trkpt>
      <trkpt lat="46.65965" lon="6.00954">
        <ele>721.13</ele>
        <time>2013-05-10T11:31:06Z</time>
      </trkpt>
      <trkpt lat="46.65963" lon="6.00962">
        <ele>721.13</ele>
        <time>2013-05-10T11:31:07Z</time>
      </trkpt>
      <trkpt lat="46.65954" lon="6.00985">
        <ele>720.65</ele>
        <time>2013-05-10T11:31:10Z</time>
      </trkpt>
      <trkpt lat="46.65951" lon="6.00992">
        <ele>720.16</ele>
        <time>2013-05-10T11:31:11Z</time>
      </trkpt>
      <trkpt lat="46.65948" lon="6.00996">
        <ele>720.16</ele>
        <time>2013-05-10T11:31:12Z</time>
      </trkpt>
      <trkpt lat="46.65945" lon="6.01">
        <ele>720.65</ele>
        <time>2013-05-10T11:31:13Z</time>
      </trkpt>
      <trkpt lat="46.65942" lon="6.01004">
        <ele>720.16</ele>
        <time>2013-05-10T11:31:14Z</time>
      </trkpt>
      <trkpt lat="46.65939" lon="6.01009">
        <ele>720.16</ele>
        <time>2013-05-10T11:31:15Z</time>
      </trkpt>
      <trkpt lat="46.65935" lon="6.01013">
        <ele>720.16</ele>
        <time>2013-05-10T11:31:16Z</time>
      </trkpt>
      <trkpt lat="46.65932" lon="6.01016">
        <ele>720.16</ele>
        <time>2013-05-10T11:31:17Z</time>
      </trkpt>
      <trkpt lat="46.65928" lon="6.01018">
        <ele>720.16</ele>
        <time>2013-05-10T11:31:18Z</time>
      </trkpt>
      <trkpt lat="46.65895" lon="6.01034">
        <ele>721.13</ele>
        <time>2013-05-10T11:31:28Z</time>
      </trkpt>
      <trkpt lat="46.65868" lon="6.01029">
        <ele>721.61</ele>
        <time>2013-05-10T11:31:38Z</time>
      </trkpt>
      <trkpt lat="46.65845" lon="6.01004">
        <ele>722.57</ele>
        <time>2013-05-10T11:31:47Z</time>
      </trkpt>
      <trkpt lat="46.65825" lon="6.00986">
        <ele>723.05</ele>
        <time>2013-05-10T11:31:56Z</time>
      </trkpt>
      <trkpt lat="46.658" lon="6.00969">
        <ele>723.53</ele>
        <time>2013-05-10T11:32:05Z</time>
      </trkpt>
      <trkpt lat="46.65797" lon="6.00968">
        <ele>723.53</ele>
        <time>2013-05-10T11:32:06Z</time>
      </trkpt>
      <trkpt lat="46.65764" lon="6.00961">
        <ele>724.49</ele>
        <time>2013-05-10T11:32:17Z</time>
      </trkpt>
      <trkpt lat="46.65732" lon="6.00969">
        <ele>725.45</ele>
        <time>2013-05-10T11:32:28Z</time>
      </trkpt>
      <trkpt lat="46.65705" lon="6.00981">
        <ele>726.41</ele>
        <time>2013-05-10T11:32:38Z</time>
      </trkpt>
      <trkpt lat="46.65676" lon="6.00984">
        <ele>727.37</ele>
        <time>2013-05-10T11:32:49Z</time>
      </trkpt>
      <trkpt lat="46.65642" lon="6.00973">
        <ele>727.37</ele>
        <time>2013-05-10T11:33:00Z</time>
      </trkpt>
      <trkpt lat="46.65622" lon="6.00971">
        <ele>727.86</ele>
        <time>2013-05-10T11:33:11Z</time>
      </trkpt>
      <trkpt lat="46.656" lon="6.0098">
        <ele>730.74</ele>
        <time>2013-05-10T11:33:21Z</time>
      </trkpt>
      <trkpt lat="46.65598" lon="6.00981">
        <ele>730.74</ele>
        <time>2013-05-10T11:33:22Z</time>
      </trkpt>
      <trkpt lat="46.65596" lon="6.00982">
        <ele>731.22</ele>
        <time>2013-05-10T11:33:23Z</time>
      </trkpt>
      <trkpt lat="46.65594" lon="6.00983">
        <ele>731.22</ele>
        <time>2013-05-10T11:33:24Z</time>
      </trkpt>
      <trkpt lat="46.65589" lon="6.00984">
        <ele>731.7</ele>
        <time>2013-05-10T11:33:29Z</time>
      </trkpt>
      <trkpt lat="46.65588" lon="6.00984">
        <ele>731.22</ele>
        <time>2013-05-10T11:33:30Z</time>
      </trkpt>
      <trkpt lat="46.65586" lon="6.00984">
        <ele>731.22</ele>
        <time>2013-05-10T11:33:31Z</time>
      </trkpt>
      <trkpt lat="46.65584" lon="6.00984">
        <ele>731.22</ele>
        <time>2013-05-10T11:33:32Z</time>
      </trkpt>
      <trkpt lat="46.65582" lon="6.00984">
        <ele>731.7</ele>
        <time>2013-05-10T11:33:33Z</time>
      </trkpt>
      <trkpt lat="46.65581" lon="6.00985">
        <ele>731.22</ele>
        <time>2013-05-10T11:33:34Z</time>
      </trkpt>
      <trkpt lat="46.65577" lon="6.00986">
        <ele>731.22</ele>
        <time>2013-05-10T11:33:36Z</time>
      </trkpt>
      <trkpt lat="46.65578" lon="6.00986">
        <ele>731.7</ele>
        <time>2013-05-10T11:33:43Z</time>
      </trkpt>
      <trkpt lat="46.65583" lon="6.00983">
        <ele>731.22</ele>
        <time>2013-05-10T11:33:46Z</time>
      </trkpt>
      <trkpt lat="46.65614" lon="6.00973">
        <ele>728.82</ele>
        <time>2013-05-10T11:33:57Z</time>
      </trkpt>
      <trkpt lat="46.65616" lon="6.00971">
        <ele>728.34</ele>
        <time>2013-05-10T11:33:58Z</time>
      </trkpt>
      <trkpt lat="46.65615" lon="6.00969">
        <ele>728.34</ele>
        <time>2013-05-10T11:33:59Z</time>
      </trkpt>
      <trkpt lat="46.65614" lon="6.00968">
        <ele>727.86</ele>
        <time>2013-05-10T11:34:00Z</time>
      </trkpt>
      <trkpt lat="46.65612" lon="6.00968">
        <ele>727.86</ele>
        <time>2013-05-10T11:34:01Z</time>
      </trkpt>
      <trkpt lat="46.65609" lon="6.00969">
        <ele>727.86</ele>
        <time>2013-05-10T11:34:02Z</time>
      </trkpt>
      <trkpt lat="46.65605" lon="6.0097">
        <ele>727.86</ele>
        <time>2013-05-10T11:34:03Z</time>
      </trkpt>
      <trkpt lat="46.65602" lon="6.00971">
        <ele>727.86</ele>
        <time>2013-05-10T11:34:04Z</time>
      </trkpt>
      <trkpt lat="46.65573" lon="6.00976">
        <ele>727.86</ele>
        <time>2013-05-10T11:34:11Z</time>
      </trkpt>
      <trkpt lat="46.65539" lon="6.00987">
        <ele>727.86</ele>
        <time>2013-05-10T11:34:19Z</time>
      </trkpt>
      <trkpt lat="46.65535" lon="6.00987">
        <ele>727.86</ele>
        <time>2013-05-10T11:34:20Z</time>
      </trkpt>
      <trkpt lat="46.65531" lon="6.00987">
        <ele>727.86</ele>
        <time>2013-05-10T11:34:21Z</time>
      </trkpt>
      <trkpt lat="46.65528" lon="6.00987">
        <ele>727.86</ele>
        <time>2013-05-10T11:34:22Z</time>
      </trkpt>
      <trkpt lat="46.65524" lon="6.00989">
        <ele>727.86</ele>
        <time>2013-05-10T11:34:23Z</time>
      </trkpt>
      <trkpt lat="46.65521" lon="6.0099">
        <ele>727.86</ele>
        <time>2013-05-10T11:34:24Z</time>
      </trkpt>
      <trkpt lat="46.65517" lon="6.00992">
        <ele>727.86</ele>
        <time>2013-05-10T11:34:25Z</time>
      </trkpt>
      <trkpt lat="46.65489" lon="6.01009">
        <ele>727.86</ele>
        <time>2013-05-10T11:34:37Z</time>
      </trkpt>
      <trkpt lat="46.65458" lon="6.01056">
        <ele>727.86</ele>
        <time>2013-05-10T11:34:52Z</time>
      </trkpt>
      <trkpt lat="46.65447" lon="6.01103">
        <ele>728.82</ele>
        <time>2013-05-10T11:35:04Z</time>
      </trkpt>
      <trkpt lat="46.65444" lon="6.01145">
        <ele>728.82</ele>
        <time>2013-05-10T11:35:16Z</time>
      </trkpt>
      <trkpt lat="46.65444" lon="6.01185">
        <ele>728.82</ele>
        <time>2013-05-10T11:35:27Z</time>
      </trkpt>
      <trkpt lat="46.65439" lon="6.01241">
        <ele>729.78</ele>
        <time>2013-05-10T11:35:42Z</time>
      </trkpt>
      <trkpt lat="46.65424" lon="6.01296">
        <ele>730.26</ele>
        <time>2013-05-10T11:35:57Z</time>
      </trkpt>
      <trkpt lat="46.65414" lon="6.01321">
        <ele>731.7</ele>
        <time>2013-05-10T11:36:09Z</time>
      </trkpt>
      <trkpt lat="46.65404" lon="6.01341">
        <ele>730.74</ele>
        <time>2013-05-10T11:36:20Z</time>
      </trkpt>
      <trkpt lat="46.65396" lon="6.01353">
        <ele>731.22</ele>
        <time>2013-05-10T11:36:25Z</time>
      </trkpt>
      <trkpt lat="46.65372" lon="6.01376">
        <ele>731.22</ele>
        <time>2013-05-10T11:36:37Z</time>
      </trkpt>
      <trkpt lat="46.65346" lon="6.01402">
        <ele>732.18</ele>
        <time>2013-05-10T11:36:49Z</time>
      </trkpt>
      <trkpt lat="46.6532" lon="6.01432">
        <ele>732.66</ele>
        <time>2013-05-10T11:37:01Z</time>
      </trkpt>
      <trkpt lat="46.65295" lon="6.01461">
        <ele>733.14</ele>
        <time>2013-05-10T11:37:13Z</time>
      </trkpt>
      <trkpt lat="46.65263" lon="6.01501">
        <ele>733.62</ele>
        <time>2013-05-10T11:37:27Z</time>
      </trkpt>
      <trkpt lat="46.65235" lon="6.01548">
        <ele>734.1</ele>
        <time>2013-05-10T11:37:41Z</time>
      </trkpt>
      <trkpt lat="46.65216" lon="6.01588">
        <ele>734.58</ele>
        <time>2013-05-10T11:37:53Z</time>
      </trkpt>
      <trkpt lat="46.65196" lon="6.01631">
        <ele>734.58</ele>
        <time>2013-05-10T11:38:06Z</time>
      </trkpt>
      <trkpt lat="46.65178" lon="6.01684">
        <ele>735.55</ele>
        <time>2013-05-10T11:38:21Z</time>
      </trkpt>
      <trkpt lat="46.65174" lon="6.01727">
        <ele>736.03</ele>
        <time>2013-05-10T11:38:32Z</time>
      </trkpt>
      <trkpt lat="46.65179" lon="6.0178">
        <ele>736.51</ele>
        <time>2013-05-10T11:38:45Z</time>
      </trkpt>
      <trkpt lat="46.65185" lon="6.01825">
        <ele>738.91</ele>
        <time>2013-05-10T11:38:56Z</time>
      </trkpt>
      <trkpt lat="46.65188" lon="6.01885">
        <ele>738.43</ele>
        <time>2013-05-10T11:39:11Z</time>
      </trkpt>
      <trkpt lat="46.65174" lon="6.01927">
        <ele>739.87</ele>
        <time>2013-05-10T11:39:24Z</time>
      </trkpt>
      <trkpt lat="46.65152" lon="6.01956">
        <ele>741.31</ele>
        <time>2013-05-10T11:39:37Z</time>
      </trkpt>
      <trkpt lat="46.6515" lon="6.01957">
        <ele>741.31</ele>
        <time>2013-05-10T11:39:38Z</time>
      </trkpt>
      <trkpt lat="46.65148" lon="6.01959">
        <ele>741.31</ele>
        <time>2013-05-10T11:39:39Z</time>
      </trkpt>
      <trkpt lat="46.65145" lon="6.01961">
        <ele>741.31</ele>
        <time>2013-05-10T11:39:40Z</time>
      </trkpt>
      <trkpt lat="46.65142" lon="6.01964">
        <ele>741.31</ele>
        <time>2013-05-10T11:39:41Z</time>
      </trkpt>
      <trkpt lat="46.65109" lon="6.01979">
        <ele>742.76</ele>
        <time>2013-05-10T11:39:53Z</time>
      </trkpt>
      <trkpt lat="46.65092" lon="6.01982">
        <ele>743.72</ele>
        <time>2013-05-10T11:40:00Z</time>
      </trkpt>
      <trkpt lat="46.65091" lon="6.01983">
        <ele>743.72</ele>
        <time>2013-05-10T11:40:01Z</time>
      </trkpt>
      <trkpt lat="46.65089" lon="6.01984">
        <ele>743.72</ele>
        <time>2013-05-10T11:40:02Z</time>
      </trkpt>
      <trkpt lat="46.65088" lon="6.01984">
        <ele>744.2</ele>
        <time>2013-05-10T11:40:03Z</time>
      </trkpt>
      <trkpt lat="46.65087" lon="6.01985">
        <ele>744.2</ele>
        <time>2013-05-10T11:40:04Z</time>
      </trkpt>
      <trkpt lat="46.65085" lon="6.01986">
        <ele>744.2</ele>
        <time>2013-05-10T11:40:05Z</time>
      </trkpt>
      <trkpt lat="46.65082" lon="6.01987">
        <ele>744.2</ele>
        <time>2013-05-10T11:40:06Z</time>
      </trkpt>
      <trkpt lat="46.65079" lon="6.01988">
        <ele>744.68</ele>
        <time>2013-05-10T11:40:07Z</time>
      </trkpt>
      <trkpt lat="46.65077" lon="6.01989">
        <ele>744.68</ele>
        <time>2013-05-10T11:40:08Z</time>
      </trkpt>
      <trkpt lat="46.65075" lon="6.0199">
        <ele>744.68</ele>
        <time>2013-05-10T11:40:09Z</time>
      </trkpt>
      <trkpt lat="46.65054" lon="6.02005">
        <ele>745.16</ele>
        <time>2013-05-10T11:40:18Z</time>
      </trkpt>
      <trkpt lat="46.65029" lon="6.0202">
        <ele>746.6</ele>
        <time>2013-05-10T11:40:31Z</time>
      </trkpt>
      <trkpt lat="46.65027" lon="6.02023">
        <ele>746.6</ele>
        <time>2013-05-10T11:40:32Z</time>
      </trkpt>
      <trkpt lat="46.65023" lon="6.02027">
        <ele>747.08</ele>
        <time>2013-05-10T11:40:35Z</time>
      </trkpt>
      <trkpt lat="46.65021" lon="6.02029">
        <ele>747.08</ele>
        <time>2013-05-10T11:40:36Z</time>
      </trkpt>
      <trkpt lat="46.65014" lon="6.02038">
        <ele>747.56</ele>
        <time>2013-05-10T11:40:42Z</time>
      </trkpt>
      <trkpt lat="46.65009" lon="6.02044">
        <ele>748.04</ele>
        <time>2013-05-10T11:40:44Z</time>
      </trkpt>
      <trkpt lat="46.64977" lon="6.02072">
        <ele>749</ele>
        <time>2013-05-10T11:40:55Z</time>
      </trkpt>
      <trkpt lat="46.64975" lon="6.02074">
        <ele>749</ele>
        <time>2013-05-10T11:40:56Z</time>
      </trkpt>
      <trkpt lat="46.64973" lon="6.02075">
        <ele>750.93</ele>
        <time>2013-05-10T11:40:57Z</time>
      </trkpt>
      <trkpt lat="46.64971" lon="6.02078">
        <ele>749.97</ele>
        <time>2013-05-10T11:40:58Z</time>
      </trkpt>
      <trkpt lat="46.64969" lon="6.0208">
        <ele>749.49</ele>
        <time>2013-05-10T11:40:59Z</time>
      </trkpt>
      <trkpt lat="46.64967" lon="6.02082">
        <ele>749.49</ele>
        <time>2013-05-10T11:41:00Z</time>
      </trkpt>
      <trkpt lat="46.64965" lon="6.02085">
        <ele>749.49</ele>
        <time>2013-05-10T11:41:01Z</time>
      </trkpt>
      <trkpt lat="46.64944" lon="6.0211">
        <ele>750.45</ele>
        <time>2013-05-10T11:41:10Z</time>
      </trkpt>
      <trkpt lat="46.6494" lon="6.02118">
        <ele>750.93</ele>
        <time>2013-05-10T11:41:13Z</time>
      </trkpt>
      <trkpt lat="46.64938" lon="6.0212">
        <ele>750.93</ele>
        <time>2013-05-10T11:41:14Z</time>
      </trkpt>
      <trkpt lat="46.64937" lon="6.02123">
        <ele>751.41</ele>
        <time>2013-05-10T11:41:15Z</time>
      </trkpt>
      <trkpt lat="46.64936" lon="6.02124">
        <ele>751.41</ele>
        <time>2013-05-10T11:41:16Z</time>
      </trkpt>
      <trkpt lat="46.64934" lon="6.02128">
        <ele>751.41</ele>
        <time>2013-05-10T11:41:18Z</time>
      </trkpt>
      <trkpt lat="46.64934" lon="6.0213">
        <ele>751.89</ele>
        <time>2013-05-10T11:41:19Z</time>
      </trkpt>
      <trkpt lat="46.64931" lon="6.02134">
        <ele>751.89</ele>
        <time>2013-05-10T11:41:20Z</time>
      </trkpt>
      <trkpt lat="46.64928" lon="6.02138">
        <ele>751.89</ele>
        <time>2013-05-10T11:41:21Z</time>
      </trkpt>
      <trkpt lat="46.64926" lon="6.02141">
        <ele>751.89</ele>
        <time>2013-05-10T11:41:22Z</time>
      </trkpt>
      <trkpt lat="46.64925" lon="6.02144">
        <ele>751.89</ele>
        <time>2013-05-10T11:41:23Z</time>
      </trkpt>
      <trkpt lat="46.64917" lon="6.02164">
        <ele>752.85</ele>
        <time>2013-05-10T11:41:31Z</time>
      </trkpt>
      <trkpt lat="46.64916" lon="6.02166">
        <ele>752.85</ele>
        <time>2013-05-10T11:41:32Z</time>
      </trkpt>
      <trkpt lat="46.64915" lon="6.02167">
        <ele>752.85</ele>
        <time>2013-05-10T11:41:33Z</time>
      </trkpt>
      <trkpt lat="46.64904" lon="6.02189">
        <ele>753.81</ele>
        <time>2013-05-10T11:41:41Z</time>
      </trkpt>
      <trkpt lat="46.64903" lon="6.02192">
        <ele>753.81</ele>
        <time>2013-05-10T11:41:42Z</time>
      </trkpt>
      <trkpt lat="46.64902" lon="6.02196">
        <ele>754.29</ele>
        <time>2013-05-10T11:41:43Z</time>
      </trkpt>
      <trkpt lat="46.64901" lon="6.02198">
        <ele>754.29</ele>
        <time>2013-05-10T11:41:44Z</time>
      </trkpt>
      <trkpt lat="46.649" lon="6.02201">
        <ele>754.29</ele>
        <time>2013-05-10T11:41:45Z</time>
      </trkpt>
      <trkpt lat="46.64899" lon="6.02204">
        <ele>754.29</ele>
        <time>2013-05-10T11:41:46Z</time>
      </trkpt>
      <trkpt lat="46.64898" lon="6.02206">
        <ele>754.29</ele>
        <time>2013-05-10T11:41:47Z</time>
      </trkpt>
      <trkpt lat="46.64887" lon="6.02235">
        <ele>755.25</ele>
        <time>2013-05-10T11:41:58Z</time>
      </trkpt>
      <trkpt lat="46.64884" lon="6.02243">
        <ele>755.73</ele>
        <time>2013-05-10T11:42:02Z</time>
      </trkpt>
      <trkpt lat="46.64884" lon="6.02245">
        <ele>755.73</ele>
        <time>2013-05-10T11:42:03Z</time>
      </trkpt>
      <trkpt lat="46.64884" lon="6.02248">
        <ele>756.21</ele>
        <time>2013-05-10T11:42:04Z</time>
      </trkpt>
      <trkpt lat="46.64883" lon="6.02251">
        <ele>756.21</ele>
        <time>2013-05-10T11:42:05Z</time>
      </trkpt>
      <trkpt lat="46.64882" lon="6.02254">
        <ele>756.21</ele>
        <time>2013-05-10T11:42:06Z</time>
      </trkpt>
      <trkpt lat="46.64882" lon="6.02257">
        <ele>756.69</ele>
        <time>2013-05-10T11:42:07Z</time>
      </trkpt>
      <trkpt lat="46.64881" lon="6.0226">
        <ele>756.69</ele>
        <time>2013-05-10T11:42:08Z</time>
      </trkpt>
      <trkpt lat="46.6488" lon="6.02263">
        <ele>756.69</ele>
        <time>2013-05-10T11:42:09Z</time>
      </trkpt>
      <trkpt lat="46.64879" lon="6.02266">
        <ele>756.69</ele>
        <time>2013-05-10T11:42:10Z</time>
      </trkpt>
      <trkpt lat="46.64878" lon="6.02268">
        <ele>756.69</ele>
        <time>2013-05-10T11:42:11Z</time>
      </trkpt>
      <trkpt lat="46.64861" lon="6.02317">
        <ele>757.66</ele>
        <time>2013-05-10T11:42:21Z</time>
      </trkpt>
      <trkpt lat="46.64852" lon="6.02339">
        <ele>758.14</ele>
        <time>2013-05-10T11:42:33Z</time>
      </trkpt>
      <trkpt lat="46.64847" lon="6.02345">
        <ele>758.14</ele>
        <time>2013-05-10T11:42:57Z</time>
      </trkpt>
      <trkpt lat="46.64843" lon="6.02349">
        <ele>758.14</ele>
        <time>2013-05-10T11:43:09Z</time>
      </trkpt>
      <trkpt lat="46.64843" lon="6.02348">
        <ele>758.14</ele>
        <time>2013-05-10T11:43:44Z</time>
      </trkpt>
      <trkpt lat="46.64843" lon="6.02349">
        <ele>758.14</ele>
        <time>2013-05-10T11:44:23Z</time>
      </trkpt>
      <trkpt lat="46.64843" lon="6.02349">
        <ele>758.14</ele>
        <time>2013-05-10T11:44:53Z</time>
      </trkpt>
      <trkpt lat="46.64843" lon="6.02349">
        <ele>757.66</ele>
        <time>2013-05-10T11:45:27Z</time>
      </trkpt>
      <trkpt lat="46.64842" lon="6.02351">
        <ele>757.66</ele>
        <time>2013-05-10T11:46:02Z</time>
      </trkpt>
      <trkpt lat="46.64842" lon="6.0235">
        <ele>757.66</ele>
        <time>2013-05-10T11:46:33Z</time>
      </trkpt>
      <trkpt lat="46.64843" lon="6.02349">
        <ele>757.18</ele>
        <time>2013-05-10T11:47:12Z</time>
      </trkpt>
      <trkpt lat="46.64843" lon="6.02349">
        <ele>757.18</ele>
        <time>2013-05-10T11:47:55Z</time>
      </trkpt>
      <trkpt lat="46.64843" lon="6.02349">
        <ele>757.18</ele>
        <time>2013-05-10T11:48:32Z</time>
      </trkpt>
      <trkpt lat="46.64843" lon="6.02349">
        <ele>757.18</ele>
        <time>2013-05-10T11:49:15Z</time>
      </trkpt>
      <trkpt lat="46.64844" lon="6.02348">
        <ele>757.18</ele>
        <time>2013-05-10T11:49:53Z</time>
      </trkpt>
      <trkpt lat="46.64844" lon="6.02346">
        <ele>757.18</ele>
        <time>2013-05-10T11:50:31Z</time>
      </trkpt>
      <trkpt lat="46.64844" lon="6.02346">
        <ele>757.18</ele>
        <time>2013-05-10T11:51:13Z</time>
      </trkpt>
      <trkpt lat="46.64844" lon="6.02345">
        <ele>756.69</ele>
        <time>2013-05-10T11:51:52Z</time>
      </trkpt>
      <trkpt lat="46.64843" lon="6.0235">
        <ele>756.69</ele>
        <time>2013-05-10T11:52:32Z</time>
      </trkpt>
      <trkpt lat="46.64843" lon="6.02351">
        <ele>756.69</ele>
        <time>2013-05-10T11:53:07Z</time>
      </trkpt>
      <trkpt lat="46.64843" lon="6.02351">
        <ele>757.18</ele>
        <time>2013-05-10T11:53:25Z</time>
      </trkpt>
      <trkpt lat="46.64842" lon="6.02351">
        <ele>756.69</ele>
        <time>2013-05-10T11:53:51Z</time>
      </trkpt>
      <trkpt lat="46.64842" lon="6.02351">
        <ele>757.18</ele>
        <time>2013-05-10T11:54:06Z</time>
      </trkpt>
      <trkpt lat="46.64839" lon="6.02357">
        <ele>756.69</ele>
        <time>2013-05-10T11:54:19Z</time>
      </trkpt>
      <trkpt lat="46.64838" lon="6.02359">
        <ele>756.69</ele>
        <time>2013-05-10T11:54:20Z</time>
      </trkpt>
      <trkpt lat="46.64837" lon="6.0236">
        <ele>756.69</ele>
        <time>2013-05-10T11:54:21Z</time>
      </trkpt>
      <trkpt lat="46.64835" lon="6.02361">
        <ele>757.18</ele>
        <time>2013-05-10T11:54:22Z</time>
      </trkpt>
      <trkpt lat="46.64834" lon="6.02363">
        <ele>756.69</ele>
        <time>2013-05-10T11:54:23Z</time>
      </trkpt>
      <trkpt lat="46.64832" lon="6.02364">
        <ele>757.18</ele>
        <time>2013-05-10T11:54:24Z</time>
      </trkpt>
      <trkpt lat="46.64831" lon="6.02365">
        <ele>757.18</ele>
        <time>2013-05-10T11:54:25Z</time>
      </trkpt>
      <trkpt lat="46.64829" lon="6.02367">
        <ele>757.18</ele>
        <time>2013-05-10T11:54:26Z</time>
      </trkpt>
      <trkpt lat="46.64822" lon="6.02374">
        <ele>757.66</ele>
        <time>2013-05-10T11:54:31Z</time>
      </trkpt>
      <trkpt lat="46.64821" lon="6.02375">
        <ele>758.14</ele>
        <time>2013-05-10T11:54:32Z</time>
      </trkpt>
      <trkpt lat="46.6482" lon="6.02376">
        <ele>757.66</ele>
        <time>2013-05-10T11:54:33Z</time>
      </trkpt>
      <trkpt lat="46.64819" lon="6.02377">
        <ele>758.14</ele>
        <time>2013-05-10T11:54:34Z</time>
      </trkpt>
      <trkpt lat="46.64817" lon="6.02377">
        <ele>757.66</ele>
        <time>2013-05-10T11:54:35Z</time>
      </trkpt>
      <trkpt lat="46.64804" lon="6.0238">
        <ele>758.14</ele>
        <time>2013-05-10T11:54:43Z</time>
      </trkpt>
      <trkpt lat="46.648" lon="6.0238">
        <ele>758.62</ele>
        <time>2013-05-10T11:54:45Z</time>
      </trkpt>
      <trkpt lat="46.64798" lon="6.0238">
        <ele>758.62</ele>
        <time>2013-05-10T11:54:46Z</time>
      </trkpt>
      <trkpt lat="46.64796" lon="6.02381">
        <ele>758.62</ele>
        <time>2013-05-10T11:54:47Z</time>
      </trkpt>
      <trkpt lat="46.64764" lon="6.02384">
        <ele>760.06</ele>
        <time>2013-05-10T11:55:00Z</time>
      </trkpt>
      <trkpt lat="46.64747" lon="6.02386">
        <ele>761.02</ele>
        <time>2013-05-10T11:55:09Z</time>
      </trkpt>
      <trkpt lat="46.64745" lon="6.02386">
        <ele>761.02</ele>
        <time>2013-05-10T11:55:10Z</time>
      </trkpt>
      <trkpt lat="46.64743" lon="6.02385">
        <ele>761.02</ele>
        <time>2013-05-10T11:55:11Z</time>
      </trkpt>
      <trkpt lat="46.64742" lon="6.02385">
        <ele>761.5</ele>
        <time>2013-05-10T11:55:12Z</time>
      </trkpt>
      <trkpt lat="46.6474" lon="6.02385">
        <ele>761.5</ele>
        <time>2013-05-10T11:55:13Z</time>
      </trkpt>
      <trkpt lat="46.64719" lon="6.02384">
        <ele>761.98</ele>
        <time>2013-05-10T11:55:23Z</time>
      </trkpt>
      <trkpt lat="46.647" lon="6.02392">
        <ele>763.42</ele>
        <time>2013-05-10T11:55:35Z</time>
      </trkpt>
      <trkpt lat="46.64677" lon="6.02403">
        <ele>764.39</ele>
        <time>2013-05-10T11:55:45Z</time>
      </trkpt>
      <trkpt lat="46.64675" lon="6.02404">
        <ele>764.39</ele>
        <time>2013-05-10T11:55:46Z</time>
      </trkpt>
      <trkpt lat="46.64672" lon="6.02406">
        <ele>764.39</ele>
        <time>2013-05-10T11:55:47Z</time>
      </trkpt>
      <trkpt lat="46.64657" lon="6.0241">
        <ele>764.87</ele>
        <time>2013-05-10T11:55:53Z</time>
      </trkpt>
      <trkpt lat="46.64644" lon="6.0241">
        <ele>765.83</ele>
        <time>2013-05-10T11:56:03Z</time>
      </trkpt>
      <trkpt lat="46.64635" lon="6.0241">
        <ele>766.31</ele>
        <time>2013-05-10T11:56:10Z</time>
      </trkpt>
      <trkpt lat="46.6463" lon="6.02404">
        <ele>766.79</ele>
        <time>2013-05-10T11:56:17Z</time>
      </trkpt>
      <trkpt lat="46.64647" lon="6.02413">
        <ele>767.27</ele>
        <time>2013-05-10T11:56:20Z</time>
      </trkpt>
      <trkpt lat="46.64506" lon="6.02627">
        <ele>774</ele>
        <time>2013-05-10T11:59:56Z</time>
      </trkpt>
      <trkpt lat="46.6449" lon="6.02624">
        <ele>774</ele>
        <time>2013-05-10T12:00:19Z</time>
      </trkpt>
      <trkpt lat="46.64489" lon="6.0262">
        <ele>774</ele>
        <time>2013-05-10T12:00:20Z</time>
      </trkpt>
      <trkpt lat="46.64451" lon="6.0261">
        <ele>774.96</ele>
        <time>2013-05-10T12:00:30Z</time>
      </trkpt>
      <trkpt lat="46.64433" lon="6.02599">
        <ele>775.44</ele>
        <time>2013-05-10T12:00:44Z</time>
      </trkpt>
      <trkpt lat="46.64429" lon="6.02598">
        <ele>775.44</ele>
        <time>2013-05-10T12:00:53Z</time>
      </trkpt>
      <trkpt lat="46.64399" lon="6.02614">
        <ele>775.92</ele>
        <time>2013-05-10T12:01:03Z</time>
      </trkpt>
      <trkpt lat="46.64357" lon="6.02629">
        <ele>778.32</ele>
        <time>2013-05-10T12:01:14Z</time>
      </trkpt>
      <trkpt lat="46.64322" lon="6.02648">
        <ele>779.77</ele>
        <time>2013-05-10T12:01:25Z</time>
      </trkpt>
      <trkpt lat="46.6431" lon="6.02662">
        <ele>780.73</ele>
        <time>2013-05-10T12:01:30Z</time>
      </trkpt>
      <trkpt lat="46.64284" lon="6.02676">
        <ele>782.17</ele>
        <time>2013-05-10T12:01:39Z</time>
      </trkpt>
      <trkpt lat="46.64252" lon="6.02697">
        <ele>783.61</ele>
        <time>2013-05-10T12:01:49Z</time>
      </trkpt>
      <trkpt lat="46.64227" lon="6.02709">
        <ele>785.53</ele>
        <time>2013-05-10T12:01:58Z</time>
      </trkpt>
      <trkpt lat="46.6418" lon="6.0272">
        <ele>787.46</ele>
        <time>2013-05-10T12:02:11Z</time>
      </trkpt>
      <trkpt lat="46.64149" lon="6.02731">
        <ele>788.42</ele>
        <time>2013-05-10T12:02:22Z</time>
      </trkpt>
      <trkpt lat="46.6413" lon="6.02735">
        <ele>789.38</ele>
        <time>2013-05-10T12:02:30Z</time>
      </trkpt>
      <trkpt lat="46.64116" lon="6.02748">
        <ele>790.34</ele>
        <time>2013-05-10T12:02:38Z</time>
      </trkpt>
      <trkpt lat="46.64089" lon="6.02766">
        <ele>791.78</ele>
        <time>2013-05-10T12:02:50Z</time>
      </trkpt>
      <trkpt lat="46.64068" lon="6.028">
        <ele>792.74</ele>
        <time>2013-05-10T12:03:02Z</time>
      </trkpt>
      <trkpt lat="46.64056" lon="6.02844">
        <ele>793.22</ele>
        <time>2013-05-10T12:03:13Z</time>
      </trkpt>
      <trkpt lat="46.64052" lon="6.02893">
        <ele>793.22</ele>
        <time>2013-05-10T12:03:25Z</time>
      </trkpt>
      <trkpt lat="46.64044" lon="6.0293">
        <ele>794.19</ele>
        <time>2013-05-10T12:03:36Z</time>
      </trkpt>
      <trkpt lat="46.64038" lon="6.02949">
        <ele>797.55</ele>
        <time>2013-05-10T12:03:42Z</time>
      </trkpt>
      <trkpt lat="46.64035" lon="6.02955">
        <ele>793.71</ele>
        <time>2013-05-10T12:03:44Z</time>
      </trkpt>
      <trkpt lat="46.64029" lon="6.02967">
        <ele>795.15</ele>
        <time>2013-05-10T12:03:48Z</time>
      </trkpt>
      <trkpt lat="46.64038" lon="6.02977">
        <ele>796.11</ele>
        <time>2013-05-10T12:03:56Z</time>
      </trkpt>
      <trkpt lat="46.64043" lon="6.02979">
        <ele>796.59</ele>
        <time>2013-05-10T12:03:58Z</time>
      </trkpt>
      <trkpt lat="46.64078" lon="6.03003">
        <ele>796.59</ele>
        <time>2013-05-10T12:04:14Z</time>
      </trkpt>
      <trkpt lat="46.64112" lon="6.03035">
        <ele>797.55</ele>
        <time>2013-05-10T12:04:28Z</time>
      </trkpt>
      <trkpt lat="46.64142" lon="6.03071">
        <ele>798.03</ele>
        <time>2013-05-10T12:04:41Z</time>
      </trkpt>
      <trkpt lat="46.64161" lon="6.03123">
        <ele>798.51</ele>
        <time>2013-05-10T12:04:54Z</time>
      </trkpt>
      <trkpt lat="46.64158" lon="6.03181">
        <ele>799.47</ele>
        <time>2013-05-10T12:05:07Z</time>
      </trkpt>
      <trkpt lat="46.64134" lon="6.03204">
        <ele>799.47</ele>
        <time>2013-05-10T12:05:18Z</time>
      </trkpt>
      <trkpt lat="46.64103" lon="6.03213">
        <ele>798.51</ele>
        <time>2013-05-10T12:05:29Z</time>
      </trkpt>
      <trkpt lat="46.64099" lon="6.03212">
        <ele>798.03</ele>
        <time>2013-05-10T12:05:30Z</time>
      </trkpt>
      <trkpt lat="46.64095" lon="6.0321">
        <ele>797.55</ele>
        <time>2013-05-10T12:05:31Z</time>
      </trkpt>
      <trkpt lat="46.64092" lon="6.03207">
        <ele>796.59</ele>
        <time>2013-05-10T12:05:32Z</time>
      </trkpt>
      <trkpt lat="46.64089" lon="6.03203">
        <ele>796.59</ele>
        <time>2013-05-10T12:05:33Z</time>
      </trkpt>
      <trkpt lat="46.64088" lon="6.03199">
        <ele>796.59</ele>
        <time>2013-05-10T12:05:34Z</time>
      </trkpt>
      <trkpt lat="46.64086" lon="6.03195">
        <ele>796.11</ele>
        <time>2013-05-10T12:05:35Z</time>
      </trkpt>
      <trkpt lat="46.64085" lon="6.03191">
        <ele>795.63</ele>
        <time>2013-05-10T12:05:36Z</time>
      </trkpt>
      <trkpt lat="46.64083" lon="6.03188">
        <ele>795.15</ele>
        <time>2013-05-10T12:05:37Z</time>
      </trkpt>
      <trkpt lat="46.6408" lon="6.03183">
        <ele>794.67</ele>
        <time>2013-05-10T12:05:38Z</time>
      </trkpt>
      <trkpt lat="46.64079" lon="6.03179">
        <ele>794.67</ele>
        <time>2013-05-10T12:05:39Z</time>
      </trkpt>
      <trkpt lat="46.6407" lon="6.03165">
        <ele>792.74</ele>
        <time>2013-05-10T12:05:42Z</time>
      </trkpt>
      <trkpt lat="46.64067" lon="6.0316">
        <ele>792.26</ele>
        <time>2013-05-10T12:05:43Z</time>
      </trkpt>
      <trkpt lat="46.64063" lon="6.03155">
        <ele>790.82</ele>
        <time>2013-05-10T12:05:44Z</time>
      </trkpt>
      <trkpt lat="46.64055" lon="6.03146">
        <ele>789.38</ele>
        <time>2013-05-10T12:05:46Z</time>
      </trkpt>
      <trkpt lat="46.64051" lon="6.03144">
        <ele>788.9</ele>
        <time>2013-05-10T12:05:47Z</time>
      </trkpt>
      <trkpt lat="46.64047" lon="6.03144">
        <ele>788.42</ele>
        <time>2013-05-10T12:05:48Z</time>
      </trkpt>
      <trkpt lat="46.64043" lon="6.03146">
        <ele>787.94</ele>
        <time>2013-05-10T12:05:49Z</time>
      </trkpt>
      <trkpt lat="46.64039" lon="6.03149">
        <ele>787.46</ele>
        <time>2013-05-10T12:05:50Z</time>
      </trkpt>
      <trkpt lat="46.64036" lon="6.03153">
        <ele>787.46</ele>
        <time>2013-05-10T12:05:51Z</time>
      </trkpt>
      <trkpt lat="46.64034" lon="6.03159">
        <ele>786.98</ele>
        <time>2013-05-10T12:05:52Z</time>
      </trkpt>
      <trkpt lat="46.64034" lon="6.03166">
        <ele>786.02</ele>
        <time>2013-05-10T12:05:53Z</time>
      </trkpt>
      <trkpt lat="46.64034" lon="6.03174">
        <ele>786.02</ele>
        <time>2013-05-10T12:05:54Z</time>
      </trkpt>
      <trkpt lat="46.64033" lon="6.03181">
        <ele>785.53</ele>
        <time>2013-05-10T12:05:55Z</time>
      </trkpt>
      <trkpt lat="46.64033" lon="6.03189">
        <ele>785.53</ele>
        <time>2013-05-10T12:05:56Z</time>
      </trkpt>
      <trkpt lat="46.64031" lon="6.03195">
        <ele>785.05</ele>
        <time>2013-05-10T12:05:57Z</time>
      </trkpt>
      <trkpt lat="46.64021" lon="6.03201">
        <ele>785.53</ele>
        <time>2013-05-10T12:06:00Z</time>
      </trkpt>
      <trkpt lat="46.64002" lon="6.03199">
        <ele>789.38</ele>
        <time>2013-05-10T12:06:08Z</time>
      </trkpt>
      <trkpt lat="46.6397" lon="6.03176">
        <ele>792.26</ele>
        <time>2013-05-10T12:06:20Z</time>
      </trkpt>
      <trkpt lat="46.63938" lon="6.03153">
        <ele>790.82</ele>
        <time>2013-05-10T12:06:30Z</time>
      </trkpt>
      <trkpt lat="46.63934" lon="6.03152">
        <ele>790.82</ele>
        <time>2013-05-10T12:06:31Z</time>
      </trkpt>
      <trkpt lat="46.6393" lon="6.03151">
        <ele>790.34</ele>
        <time>2013-05-10T12:06:32Z</time>
      </trkpt>
      <trkpt lat="46.63925" lon="6.03149">
        <ele>789.86</ele>
        <time>2013-05-10T12:06:33Z</time>
      </trkpt>
      <trkpt lat="46.63919" lon="6.03149">
        <ele>788.9</ele>
        <time>2013-05-10T12:06:34Z</time>
      </trkpt>
      <trkpt lat="46.63886" lon="6.03145">
        <ele>787.46</ele>
        <time>2013-05-10T12:06:39Z</time>
      </trkpt>
      <trkpt lat="46.6388" lon="6.03146">
        <ele>786.98</ele>
        <time>2013-05-10T12:06:40Z</time>
      </trkpt>
      <trkpt lat="46.63874" lon="6.03149">
        <ele>786.5</ele>
        <time>2013-05-10T12:06:41Z</time>
      </trkpt>
      <trkpt lat="46.63868" lon="6.03155">
        <ele>786.02</ele>
        <time>2013-05-10T12:06:42Z</time>
      </trkpt>
      <trkpt lat="46.63863" lon="6.03163">
        <ele>786.02</ele>
        <time>2013-05-10T12:06:43Z</time>
      </trkpt>
      <trkpt lat="46.6386" lon="6.03172">
        <ele>785.53</ele>
        <time>2013-05-10T12:06:44Z</time>
      </trkpt>
      <trkpt lat="46.63858" lon="6.03182">
        <ele>785.53</ele>
        <time>2013-05-10T12:06:45Z</time>
      </trkpt>
      <trkpt lat="46.63857" lon="6.03192">
        <ele>785.53</ele>
        <time>2013-05-10T12:06:46Z</time>
      </trkpt>
      <trkpt lat="46.63856" lon="6.03202">
        <ele>785.53</ele>
        <time>2013-05-10T12:06:47Z</time>
      </trkpt>
      <trkpt lat="46.63854" lon="6.03212">
        <ele>785.53</ele>
        <time>2013-05-10T12:06:48Z</time>
      </trkpt>
      <trkpt lat="46.63851" lon="6.03221">
        <ele>785.53</ele>
        <time>2013-05-10T12:06:49Z</time>
      </trkpt>
      <trkpt lat="46.63847" lon="6.03229">
        <ele>785.53</ele>
        <time>2013-05-10T12:06:50Z</time>
      </trkpt>
      <trkpt lat="46.63842" lon="6.03235">
        <ele>785.53</ele>
        <time>2013-05-10T12:06:51Z</time>
      </trkpt>
      <trkpt lat="46.63837" lon="6.03239">
        <ele>786.02</ele>
        <time>2013-05-10T12:06:52Z</time>
      </trkpt>
      <trkpt lat="46.63822" lon="6.03251">
        <ele>788.42</ele>
        <time>2013-05-10T12:06:56Z</time>
      </trkpt>
      <trkpt lat="46.63811" lon="6.03264">
        <ele>789.38</ele>
        <time>2013-05-10T12:07:00Z</time>
      </trkpt>
      <trkpt lat="46.63809" lon="6.03269">
        <ele>789.38</ele>
        <time>2013-05-10T12:07:01Z</time>
      </trkpt>
      <trkpt lat="46.63802" lon="6.03329">
        <ele>791.3</ele>
        <time>2013-05-10T12:07:12Z</time>
      </trkpt>
      <trkpt lat="46.63802" lon="6.03335">
        <ele>789.86</ele>
        <time>2013-05-10T12:07:13Z</time>
      </trkpt>
      <trkpt lat="46.63802" lon="6.03341">
        <ele>789.86</ele>
        <time>2013-05-10T12:07:14Z</time>
      </trkpt>
      <trkpt lat="46.63813" lon="6.03401">
        <ele>792.26</ele>
        <time>2013-05-10T12:07:26Z</time>
      </trkpt>
      <trkpt lat="46.63826" lon="6.03457">
        <ele>794.67</ele>
        <time>2013-05-10T12:07:40Z</time>
      </trkpt>
      <trkpt lat="46.63836" lon="6.0351">
        <ele>796.59</ele>
        <time>2013-05-10T12:07:54Z</time>
      </trkpt>
      <trkpt lat="46.63843" lon="6.03547">
        <ele>797.55</ele>
        <time>2013-05-10T12:08:08Z</time>
      </trkpt>
      <trkpt lat="46.63842" lon="6.0355">
        <ele>797.55</ele>
        <time>2013-05-10T12:08:09Z</time>
      </trkpt>
      <trkpt lat="46.63841" lon="6.03552">
        <ele>798.03</ele>
        <time>2013-05-10T12:08:23Z</time>
      </trkpt>
      <trkpt lat="46.6384" lon="6.03551">
        <ele>798.03</ele>
        <time>2013-05-10T12:08:36Z</time>
      </trkpt>
      <trkpt lat="46.6384" lon="6.03551">
        <ele>798.03</ele>
        <time>2013-05-10T12:09:02Z</time>
      </trkpt>
      <trkpt lat="46.6384" lon="6.03551">
        <ele>798.03</ele>
        <time>2013-05-10T12:09:34Z</time>
      </trkpt>
      <trkpt lat="46.63839" lon="6.0355">
        <ele>798.03</ele>
        <time>2013-05-10T12:09:35Z</time>
      </trkpt>
      <trkpt lat="46.63836" lon="6.03545">
        <ele>797.55</ele>
        <time>2013-05-10T12:09:37Z</time>
      </trkpt>
      <trkpt lat="46.63836" lon="6.03542">
        <ele>797.55</ele>
        <time>2013-05-10T12:09:38Z</time>
      </trkpt>
      <trkpt lat="46.63834" lon="6.03505">
        <ele>796.59</ele>
        <time>2013-05-10T12:09:48Z</time>
      </trkpt>
      <trkpt lat="46.63834" lon="6.03502">
        <ele>796.59</ele>
        <time>2013-05-10T12:09:49Z</time>
      </trkpt>
      <trkpt lat="46.63834" lon="6.03499">
        <ele>796.59</ele>
        <time>2013-05-10T12:09:50Z</time>
      </trkpt>
      <trkpt lat="46.63832" lon="6.03498">
        <ele>796.11</ele>
        <time>2013-05-10T12:09:51Z</time>
      </trkpt>
      <trkpt lat="46.63831" lon="6.03499">
        <ele>796.11</ele>
        <time>2013-05-10T12:09:52Z</time>
      </trkpt>
      <trkpt lat="46.6383" lon="6.035">
        <ele>796.11</ele>
        <time>2013-05-10T12:09:53Z</time>
      </trkpt>
      <trkpt lat="46.6383" lon="6.03503">
        <ele>796.11</ele>
        <time>2013-05-10T12:09:54Z</time>
      </trkpt>
      <trkpt lat="46.63831" lon="6.03505">
        <ele>796.11</ele>
        <time>2013-05-10T12:09:55Z</time>
      </trkpt>
      <trkpt lat="46.63832" lon="6.03508">
        <ele>796.59</ele>
        <time>2013-05-10T12:09:56Z</time>
      </trkpt>
      <trkpt lat="46.63832" lon="6.03511">
        <ele>796.59</ele>
        <time>2013-05-10T12:09:57Z</time>
      </trkpt>
      <trkpt lat="46.63836" lon="6.03548">
        <ele>797.55</ele>
        <time>2013-05-10T12:10:08Z</time>
      </trkpt>
      <trkpt lat="46.63838" lon="6.03553">
        <ele>798.03</ele>
        <time>2013-05-10T12:10:19Z</time>
      </trkpt>
      <trkpt lat="46.63838" lon="6.03553">
        <ele>798.03</ele>
        <time>2013-05-10T12:10:39Z</time>
      </trkpt>
      <trkpt lat="46.63838" lon="6.03553">
        <ele>798.51</ele>
        <time>2013-05-10T12:11:17Z</time>
      </trkpt>
      <trkpt lat="46.63838" lon="6.03553">
        <ele>798.03</ele>
        <time>2013-05-10T12:11:26Z</time>
      </trkpt>
      <trkpt lat="46.63838" lon="6.03553">
        <ele>798.03</ele>
        <time>2013-05-10T12:11:52Z</time>
      </trkpt>
      <trkpt lat="46.63839" lon="6.03552">
        <ele>798.03</ele>
        <time>2013-05-10T12:12:18Z</time>
      </trkpt>
      <trkpt lat="46.6384" lon="6.03551">
        <ele>798.03</ele>
        <time>2013-05-10T12:12:44Z</time>
      </trkpt>
      <trkpt lat="46.6384" lon="6.03551">
        <ele>798.03</ele>
        <time>2013-05-10T12:13:13Z</time>
      </trkpt>
      <trkpt lat="46.63841" lon="6.0355">
        <ele>797.55</ele>
        <time>2013-05-10T12:13:37Z</time>
      </trkpt>
      <trkpt lat="46.63841" lon="6.0355">
        <ele>798.03</ele>
        <time>2013-05-10T12:13:56Z</time>
      </trkpt>
      <trkpt lat="46.6384" lon="6.0355">
        <ele>798.03</ele>
        <time>2013-05-10T12:14:20Z</time>
      </trkpt>
      <trkpt lat="46.6384" lon="6.0355">
        <ele>798.03</ele>
        <time>2013-05-10T12:14:39Z</time>
      </trkpt>
      <trkpt lat="46.6384" lon="6.0355">
        <ele>798.03</ele>
        <time>2013-05-10T12:14:59Z</time>
      </trkpt>
      <trkpt lat="46.63839" lon="6.03548">
        <ele>798.03</ele>
        <time>2013-05-10T12:15:14Z</time>
      </trkpt>
      <trkpt lat="46.63839" lon="6.03548">
        <ele>798.03</ele>
        <time>2013-05-10T12:15:34Z</time>
      </trkpt>
      <trkpt lat="46.63839" lon="6.03548">
        <ele>798.03</ele>
        <time>2013-05-10T12:16:04Z</time>
      </trkpt>
      <trkpt lat="46.63838" lon="6.03546">
        <ele>798.03</ele>
        <time>2013-05-10T12:16:20Z</time>
      </trkpt>
      <trkpt lat="46.63837" lon="6.03544">
        <ele>798.03</ele>
        <time>2013-05-10T12:16:21Z</time>
      </trkpt>
      <trkpt lat="46.63837" lon="6.03542">
        <ele>798.03</ele>
        <time>2013-05-10T12:16:22Z</time>
      </trkpt>
      <trkpt lat="46.63834" lon="6.03509">
        <ele>797.07</ele>
        <time>2013-05-10T12:16:35Z</time>
      </trkpt>
      <trkpt lat="46.63826" lon="6.03478">
        <ele>795.63</ele>
        <time>2013-05-10T12:16:45Z</time>
      </trkpt>
      <trkpt lat="46.63819" lon="6.03429">
        <ele>794.19</ele>
        <time>2013-05-10T12:16:57Z</time>
      </trkpt>
      <trkpt lat="46.63802" lon="6.03386">
        <ele>792.26</ele>
        <time>2013-05-10T12:17:09Z</time>
      </trkpt>
      <trkpt lat="46.63797" lon="6.03315">
        <ele>790.34</ele>
        <time>2013-05-10T12:17:20Z</time>
      </trkpt>
      <trkpt lat="46.63796" lon="6.03308">
        <ele>790.34</ele>
        <time>2013-05-10T12:17:21Z</time>
      </trkpt>
      <trkpt lat="46.63796" lon="6.03302">
        <ele>790.34</ele>
        <time>2013-05-10T12:17:22Z</time>
      </trkpt>
      <trkpt lat="46.63814" lon="6.03255">
        <ele>789.86</ele>
        <time>2013-05-10T12:17:32Z</time>
      </trkpt>
      <trkpt lat="46.63822" lon="6.03248">
        <ele>789.38</ele>
        <time>2013-05-10T12:17:34Z</time>
      </trkpt>
      <trkpt lat="46.63826" lon="6.03245">
        <ele>788.9</ele>
        <time>2013-05-10T12:17:35Z</time>
      </trkpt>
      <trkpt lat="46.63843" lon="6.03227">
        <ele>786.98</ele>
        <time>2013-05-10T12:17:39Z</time>
      </trkpt>
      <trkpt lat="46.63847" lon="6.03221">
        <ele>786.5</ele>
        <time>2013-05-10T12:17:40Z</time>
      </trkpt>
      <trkpt lat="46.63849" lon="6.03213">
        <ele>786.5</ele>
        <time>2013-05-10T12:17:41Z</time>
      </trkpt>
      <trkpt lat="46.63851" lon="6.03205">
        <ele>786.02</ele>
        <time>2013-05-10T12:17:42Z</time>
      </trkpt>
      <trkpt lat="46.63852" lon="6.03197">
        <ele>786.02</ele>
        <time>2013-05-10T12:17:43Z</time>
      </trkpt>
      <trkpt lat="46.63853" lon="6.0319">
        <ele>786.02</ele>
        <time>2013-05-10T12:17:44Z</time>
      </trkpt>
      <trkpt lat="46.63854" lon="6.03183">
        <ele>786.5</ele>
        <time>2013-05-10T12:17:45Z</time>
      </trkpt>
      <trkpt lat="46.63856" lon="6.03177">
        <ele>786.5</ele>
        <time>2013-05-10T12:17:46Z</time>
      </trkpt>
      <trkpt lat="46.63882" lon="6.03146">
        <ele>787.94</ele>
        <time>2013-05-10T12:17:55Z</time>
      </trkpt>
      <trkpt lat="46.63911" lon="6.03148">
        <ele>789.38</ele>
        <time>2013-05-10T12:18:05Z</time>
      </trkpt>
      <trkpt lat="46.63939" lon="6.03156">
        <ele>791.78</ele>
        <time>2013-05-10T12:18:16Z</time>
      </trkpt>
      <trkpt lat="46.63976" lon="6.0318">
        <ele>792.74</ele>
        <time>2013-05-10T12:18:31Z</time>
      </trkpt>
      <trkpt lat="46.64009" lon="6.03196">
        <ele>788.9</ele>
        <time>2013-05-10T12:18:42Z</time>
      </trkpt>
      <trkpt lat="46.64016" lon="6.03199">
        <ele>787.46</ele>
        <time>2013-05-10T12:18:44Z</time>
      </trkpt>
      <trkpt lat="46.64021" lon="6.03199">
        <ele>786.98</ele>
        <time>2013-05-10T12:18:45Z</time>
      </trkpt>
      <trkpt lat="46.64025" lon="6.03198">
        <ele>786.98</ele>
        <time>2013-05-10T12:18:46Z</time>
      </trkpt>
      <trkpt lat="46.64029" lon="6.03195">
        <ele>786.5</ele>
        <time>2013-05-10T12:18:47Z</time>
      </trkpt>
      <trkpt lat="46.64032" lon="6.03189">
        <ele>786.5</ele>
        <time>2013-05-10T12:18:48Z</time>
      </trkpt>
      <trkpt lat="46.64033" lon="6.03183">
        <ele>786.02</ele>
        <time>2013-05-10T12:18:49Z</time>
      </trkpt>
      <trkpt lat="46.64033" lon="6.03178">
        <ele>782.17</ele>
        <time>2013-05-10T12:18:50Z</time>
      </trkpt>
      <trkpt lat="46.64032" lon="6.03173">
        <ele>790.82</ele>
        <time>2013-05-10T12:18:51Z</time>
      </trkpt>
      <trkpt lat="46.64032" lon="6.03169">
        <ele>786.5</ele>
        <time>2013-05-10T12:18:52Z</time>
      </trkpt>
      <trkpt lat="46.64046" lon="6.03146">
        <ele>788.9</ele>
        <time>2013-05-10T12:19:02Z</time>
      </trkpt>
      <trkpt lat="46.64049" lon="6.03145">
        <ele>784.57</ele>
        <time>2013-05-10T12:19:04Z</time>
      </trkpt>
      <trkpt lat="46.64051" lon="6.03145">
        <ele>792.26</ele>
        <time>2013-05-10T12:19:05Z</time>
      </trkpt>
      <trkpt lat="46.64053" lon="6.03146">
        <ele>789.38</ele>
        <time>2013-05-10T12:19:06Z</time>
      </trkpt>
      <trkpt lat="46.64056" lon="6.03146">
        <ele>786.98</ele>
        <time>2013-05-10T12:19:08Z</time>
      </trkpt>
      <trkpt lat="46.64057" lon="6.03148">
        <ele>794.19</ele>
        <time>2013-05-10T12:19:09Z</time>
      </trkpt>
      <trkpt lat="46.64059" lon="6.0315">
        <ele>790.82</ele>
        <time>2013-05-10T12:19:10Z</time>
      </trkpt>
      <trkpt lat="46.6406" lon="6.03151">
        <ele>790.82</ele>
        <time>2013-05-10T12:19:11Z</time>
      </trkpt>
      <trkpt lat="46.64062" lon="6.03153">
        <ele>791.3</ele>
        <time>2013-05-10T12:19:12Z</time>
      </trkpt>
      <trkpt lat="46.64063" lon="6.03155">
        <ele>791.3</ele>
        <time>2013-05-10T12:19:13Z</time>
      </trkpt>
      <trkpt lat="46.64064" lon="6.03157">
        <ele>791.78</ele>
        <time>2013-05-10T12:19:14Z</time>
      </trkpt>
      <trkpt lat="46.64065" lon="6.03159">
        <ele>792.26</ele>
        <time>2013-05-10T12:19:15Z</time>
      </trkpt>
      <trkpt lat="46.64067" lon="6.03161">
        <ele>792.26</ele>
        <time>2013-05-10T12:19:16Z</time>
      </trkpt>
      <trkpt lat="46.64068" lon="6.03163">
        <ele>792.26</ele>
        <time>2013-05-10T12:19:17Z</time>
      </trkpt>
      <trkpt lat="46.6407" lon="6.03165">
        <ele>792.74</ele>
        <time>2013-05-10T12:19:18Z</time>
      </trkpt>
      <trkpt lat="46.64071" lon="6.03167">
        <ele>794.67</ele>
        <time>2013-05-10T12:19:19Z</time>
      </trkpt>
      <trkpt lat="46.64072" lon="6.03169">
        <ele>794.19</ele>
        <time>2013-05-10T12:19:20Z</time>
      </trkpt>
      <trkpt lat="46.64074" lon="6.03171">
        <ele>793.71</ele>
        <time>2013-05-10T12:19:21Z</time>
      </trkpt>
      <trkpt lat="46.64088" lon="6.03195">
        <ele>797.07</ele>
        <time>2013-05-10T12:19:33Z</time>
      </trkpt>
      <trkpt lat="46.64108" lon="6.0321">
        <ele>799.47</ele>
        <time>2013-05-10T12:19:46Z</time>
      </trkpt>
      <trkpt lat="46.64131" lon="6.032">
        <ele>800.44</ele>
        <time>2013-05-10T12:19:56Z</time>
      </trkpt>
      <trkpt lat="46.64151" lon="6.03188">
        <ele>800.92</ele>
        <time>2013-05-10T12:20:04Z</time>
      </trkpt>
      <trkpt lat="46.64152" lon="6.03184">
        <ele>800.44</ele>
        <time>2013-05-10T12:20:05Z</time>
      </trkpt>
      <trkpt lat="46.64159" lon="6.03129">
        <ele>799.95</ele>
        <time>2013-05-10T12:20:16Z</time>
      </trkpt>
      <trkpt lat="46.64146" lon="6.03081">
        <ele>798.99</ele>
        <time>2013-05-10T12:20:24Z</time>
      </trkpt>
      <trkpt lat="46.64097" lon="6.0302">
        <ele>798.03</ele>
        <time>2013-05-10T12:20:39Z</time>
      </trkpt>
      <trkpt lat="46.64064" lon="6.02996">
        <ele>797.55</ele>
        <time>2013-05-10T12:20:48Z</time>
      </trkpt>
      <trkpt lat="46.6406" lon="6.02994">
        <ele>797.55</ele>
        <time>2013-05-10T12:20:49Z</time>
      </trkpt>
      <trkpt lat="46.64052" lon="6.02991">
        <ele>797.07</ele>
        <time>2013-05-10T12:20:51Z</time>
      </trkpt>
      <trkpt lat="46.64035" lon="6.02989">
        <ele>797.07</ele>
        <time>2013-05-10T12:20:55Z</time>
      </trkpt>
      <trkpt lat="46.64018" lon="6.02991">
        <ele>796.59</ele>
        <time>2013-05-10T12:20:59Z</time>
      </trkpt>
      <trkpt lat="46.63964" lon="6.03002">
        <ele>797.07</ele>
        <time>2013-05-10T12:21:13Z</time>
      </trkpt>
      <trkpt lat="46.63908" lon="6.03012">
        <ele>796.59</ele>
        <time>2013-05-10T12:21:27Z</time>
      </trkpt>
      <trkpt lat="46.63858" lon="6.03021">
        <ele>797.07</ele>
        <time>2013-05-10T12:21:40Z</time>
      </trkpt>
      <trkpt lat="46.63819" lon="6.03024">
        <ele>797.07</ele>
        <time>2013-05-10T12:21:51Z</time>
      </trkpt>
      <trkpt lat="46.63783" lon="6.03031">
        <ele>797.07</ele>
        <time>2013-05-10T12:22:04Z</time>
      </trkpt>
      <trkpt lat="46.63778" lon="6.03031">
        <ele>797.07</ele>
        <time>2013-05-10T12:22:06Z</time>
      </trkpt>
      <trkpt lat="46.6374" lon="6.03025">
        <ele>795.15</ele>
        <time>2013-05-10T12:22:17Z</time>
      </trkpt>
      <trkpt lat="46.6369" lon="6.03024">
        <ele>794.19</ele>
        <time>2013-05-10T12:22:30Z</time>
      </trkpt>
      <trkpt lat="46.63649" lon="6.03018">
        <ele>796.11</ele>
        <time>2013-05-10T12:22:43Z</time>
      </trkpt>
      <trkpt lat="46.63612" lon="6.03025">
        <ele>798.51</ele>
        <time>2013-05-10T12:22:56Z</time>
      </trkpt>
      <trkpt lat="46.63584" lon="6.03036">
        <ele>799.47</ele>
        <time>2013-05-10T12:23:05Z</time>
      </trkpt>
      <trkpt lat="46.63544" lon="6.03055">
        <ele>800.92</ele>
        <time>2013-05-10T12:23:17Z</time>
      </trkpt>
      <trkpt lat="46.63494" lon="6.03077">
        <ele>801.88</ele>
        <time>2013-05-10T12:23:31Z</time>
      </trkpt>
      <trkpt lat="46.63452" lon="6.03078">
        <ele>802.36</ele>
        <time>2013-05-10T12:23:42Z</time>
      </trkpt>
      <trkpt lat="46.63403" lon="6.03043">
        <ele>804.28</ele>
        <time>2013-05-10T12:23:57Z</time>
      </trkpt>
      <trkpt lat="46.63375" lon="6.02993">
        <ele>806.68</ele>
        <time>2013-05-10T12:24:11Z</time>
      </trkpt>
      <trkpt lat="46.63349" lon="6.02937">
        <ele>808.61</ele>
        <time>2013-05-10T12:24:26Z</time>
      </trkpt>
      <trkpt lat="46.63345" lon="6.02931">
        <ele>809.57</ele>
        <time>2013-05-10T12:24:28Z</time>
      </trkpt>
      <trkpt lat="46.63323" lon="6.02883">
        <ele>811.97</ele>
        <time>2013-05-10T12:24:43Z</time>
      </trkpt>
      <trkpt lat="46.63293" lon="6.02853">
        <ele>814.37</ele>
        <time>2013-05-10T12:24:57Z</time>
      </trkpt>
      <trkpt lat="46.63242" lon="6.02857">
        <ele>816.78</ele>
        <time>2013-05-10T12:25:14Z</time>
      </trkpt>
      <trkpt lat="46.63216" lon="6.0286">
        <ele>819.18</ele>
        <time>2013-05-10T12:25:23Z</time>
      </trkpt>
      <trkpt lat="46.63184" lon="6.02868">
        <ele>819.18</ele>
        <time>2013-05-10T12:25:34Z</time>
      </trkpt>
      <trkpt lat="46.63145" lon="6.02893">
        <ele>821.1</ele>
        <time>2013-05-10T12:25:47Z</time>
      </trkpt>
      <trkpt lat="46.63103" lon="6.02914">
        <ele>823.03</ele>
        <time>2013-05-10T12:26:02Z</time>
      </trkpt>
      <trkpt lat="46.63062" lon="6.02932">
        <ele>825.91</ele>
        <time>2013-05-10T12:26:16Z</time>
      </trkpt>
      <trkpt lat="46.63022" lon="6.02959">
        <ele>828.31</ele>
        <time>2013-05-10T12:26:31Z</time>
      </trkpt>
      <trkpt lat="46.62983" lon="6.02991">
        <ele>830.72</ele>
        <time>2013-05-10T12:26:46Z</time>
      </trkpt>
      <trkpt lat="46.62946" lon="6.03028">
        <ele>834.08</ele>
        <time>2013-05-10T12:27:02Z</time>
      </trkpt>
      <trkpt lat="46.62912" lon="6.03066">
        <ele>836.48</ele>
        <time>2013-05-10T12:27:17Z</time>
      </trkpt>
      <trkpt lat="46.62896" lon="6.03087">
        <ele>838.41</ele>
        <time>2013-05-10T12:27:25Z</time>
      </trkpt>
      <trkpt lat="46.62868" lon="6.03118">
        <ele>840.81</ele>
        <time>2013-05-10T12:27:38Z</time>
      </trkpt>
      <trkpt lat="46.62831" lon="6.03119">
        <ele>844.18</ele>
        <time>2013-05-10T12:27:51Z</time>
      </trkpt>
      <trkpt lat="46.6281" lon="6.03082">
        <ele>847.06</ele>
        <time>2013-05-10T12:28:02Z</time>
      </trkpt>
      <trkpt lat="46.62789" lon="6.03029">
        <ele>849.46</ele>
        <time>2013-05-10T12:28:16Z</time>
      </trkpt>
      <trkpt lat="46.6276" lon="6.02995">
        <ele>851.87</ele>
        <time>2013-05-10T12:28:29Z</time>
      </trkpt>
      <trkpt lat="46.62723" lon="6.02983">
        <ele>853.79</ele>
        <time>2013-05-10T12:28:42Z</time>
      </trkpt>
      <trkpt lat="46.62693" lon="6.02952">
        <ele>856.67</ele>
        <time>2013-05-10T12:28:56Z</time>
      </trkpt>
      <trkpt lat="46.6269" lon="6.02948">
        <ele>857.15</ele>
        <time>2013-05-10T12:28:59Z</time>
      </trkpt>
      <trkpt lat="46.62688" lon="6.02948">
        <ele>857.15</ele>
        <time>2013-05-10T12:29:00Z</time>
      </trkpt>
      <trkpt lat="46.62687" lon="6.02949">
        <ele>857.15</ele>
        <time>2013-05-10T12:29:01Z</time>
      </trkpt>
      <trkpt lat="46.62687" lon="6.02952">
        <ele>857.15</ele>
        <time>2013-05-10T12:29:02Z</time>
      </trkpt>
      <trkpt lat="46.62687" lon="6.02954">
        <ele>857.15</ele>
        <time>2013-05-10T12:29:03Z</time>
      </trkpt>
      <trkpt lat="46.62688" lon="6.02956">
        <ele>857.15</ele>
        <time>2013-05-10T12:29:04Z</time>
      </trkpt>
      <trkpt lat="46.62691" lon="6.02962">
        <ele>856.67</ele>
        <time>2013-05-10T12:29:15Z</time>
      </trkpt>
      <trkpt lat="46.62691" lon="6.02962">
        <ele>856.67</ele>
        <time>2013-05-10T12:29:23Z</time>
      </trkpt>
      <trkpt lat="46.62694" lon="6.02978">
        <ele>856.19</ele>
        <time>2013-05-10T12:29:31Z</time>
      </trkpt>
      <trkpt lat="46.62693" lon="6.0298">
        <ele>856.19</ele>
        <time>2013-05-10T12:29:32Z</time>
      </trkpt>
      <trkpt lat="46.62691" lon="6.0298">
        <ele>855.71</ele>
        <time>2013-05-10T12:29:33Z</time>
      </trkpt>
      <trkpt lat="46.62689" lon="6.02981">
        <ele>855.71</ele>
        <time>2013-05-10T12:29:34Z</time>
      </trkpt>
      <trkpt lat="46.62687" lon="6.02981">
        <ele>855.71</ele>
        <time>2013-05-10T12:29:35Z</time>
      </trkpt>
      <trkpt lat="46.62685" lon="6.02982">
        <ele>855.71</ele>
        <time>2013-05-10T12:29:36Z</time>
      </trkpt>
      <trkpt lat="46.62657" lon="6.02984">
        <ele>856.67</ele>
        <time>2013-05-10T12:29:48Z</time>
      </trkpt>
      <trkpt lat="46.62652" lon="6.02982">
        <ele>856.67</ele>
        <time>2013-05-10T12:29:51Z</time>
      </trkpt>
      <trkpt lat="46.62631" lon="6.02971">
        <ele>858.59</ele>
        <time>2013-05-10T12:30:01Z</time>
      </trkpt>
      <trkpt lat="46.62611" lon="6.02986">
        <ele>860.04</ele>
        <time>2013-05-10T12:30:12Z</time>
      </trkpt>
      <trkpt lat="46.62608" lon="6.0299">
        <ele>859.56</ele>
        <time>2013-05-10T12:30:21Z</time>
      </trkpt>
      <trkpt lat="46.62608" lon="6.0299">
        <ele>859.56</ele>
        <time>2013-05-10T12:30:50Z</time>
      </trkpt>
      <trkpt lat="46.62608" lon="6.0299">
        <ele>860.04</ele>
        <time>2013-05-10T12:31:15Z</time>
      </trkpt>
      <trkpt lat="46.62608" lon="6.0299">
        <ele>859.56</ele>
        <time>2013-05-10T12:31:41Z</time>
      </trkpt>
      <trkpt lat="46.62608" lon="6.02992">
        <ele>860.52</ele>
        <time>2013-05-10T12:31:56Z</time>
      </trkpt>
      <trkpt lat="46.62607" lon="6.02995">
        <ele>861</ele>
        <time>2013-05-10T12:31:57Z</time>
      </trkpt>
      <trkpt lat="46.62606" lon="6.02998">
        <ele>861</ele>
        <time>2013-05-10T12:31:58Z</time>
      </trkpt>
      <trkpt lat="46.62593" lon="6.03029">
        <ele>862.44</ele>
        <time>2013-05-10T12:32:08Z</time>
      </trkpt>
      <trkpt lat="46.62574" lon="6.03077">
        <ele>864.84</ele>
        <time>2013-05-10T12:32:24Z</time>
      </trkpt>
      <trkpt lat="46.62562" lon="6.03133">
        <ele>867.73</ele>
        <time>2013-05-10T12:32:41Z</time>
      </trkpt>
      <trkpt lat="46.62549" lon="6.03189">
        <ele>870.61</ele>
        <time>2013-05-10T12:32:57Z</time>
      </trkpt>
      <trkpt lat="46.62525" lon="6.03242">
        <ele>873.01</ele>
        <time>2013-05-10T12:33:14Z</time>
      </trkpt>
      <trkpt lat="46.62502" lon="6.03284">
        <ele>876.86</ele>
        <time>2013-05-10T12:33:28Z</time>
      </trkpt>
      <trkpt lat="46.62497" lon="6.03294">
        <ele>873.5</ele>
        <time>2013-05-10T12:33:31Z</time>
      </trkpt>
      <trkpt lat="46.62496" lon="6.03297">
        <ele>877.82</ele>
        <time>2013-05-10T12:33:32Z</time>
      </trkpt>
      <trkpt lat="46.62479" lon="6.03348">
        <ele>878.78</ele>
        <time>2013-05-10T12:33:47Z</time>
      </trkpt>
      <trkpt lat="46.62457" lon="6.03413">
        <ele>881.67</ele>
        <time>2013-05-10T12:34:06Z</time>
      </trkpt>
      <trkpt lat="46.62448" lon="6.03471">
        <ele>884.07</ele>
        <time>2013-05-10T12:34:21Z</time>
      </trkpt>
      <trkpt lat="46.62422" lon="6.03504">
        <ele>886.95</ele>
        <time>2013-05-10T12:34:35Z</time>
      </trkpt>
      <trkpt lat="46.624" lon="6.03541">
        <ele>889.36</ele>
        <time>2013-05-10T12:34:48Z</time>
      </trkpt>
      <trkpt lat="46.62388" lon="6.03594">
        <ele>892.24</ele>
        <time>2013-05-10T12:35:04Z</time>
      </trkpt>
      <trkpt lat="46.62398" lon="6.03652">
        <ele>894.64</ele>
        <time>2013-05-10T12:35:20Z</time>
      </trkpt>
      <trkpt lat="46.62408" lon="6.03711">
        <ele>896.57</ele>
        <time>2013-05-10T12:35:35Z</time>
      </trkpt>
      <trkpt lat="46.62413" lon="6.03771">
        <ele>898.01</ele>
        <time>2013-05-10T12:35:50Z</time>
      </trkpt>
      <trkpt lat="46.62395" lon="6.03846">
        <ele>899.93</ele>
        <time>2013-05-10T12:36:08Z</time>
      </trkpt>
      <trkpt lat="46.62367" lon="6.03898">
        <ele>900.41</ele>
        <time>2013-05-10T12:36:22Z</time>
      </trkpt>
      <trkpt lat="46.62336" lon="6.03956">
        <ele>901.37</ele>
        <time>2013-05-10T12:36:37Z</time>
      </trkpt>
      <trkpt lat="46.62341" lon="6.04005">
        <ele>904.26</ele>
        <time>2013-05-10T12:36:49Z</time>
      </trkpt>
      <trkpt lat="46.6235" lon="6.04049">
        <ele>905.22</ele>
        <time>2013-05-10T12:36:59Z</time>
      </trkpt>
      <trkpt lat="46.62365" lon="6.04094">
        <ele>908.58</ele>
        <time>2013-05-10T12:37:11Z</time>
      </trkpt>
      <trkpt lat="46.62395" lon="6.04133">
        <ele>911.47</ele>
        <time>2013-05-10T12:37:24Z</time>
      </trkpt>
      <trkpt lat="46.62427" lon="6.04187">
        <ele>914.35</ele>
        <time>2013-05-10T12:37:40Z</time>
      </trkpt>
      <trkpt lat="46.62453" lon="6.04259">
        <ele>917.24</ele>
        <time>2013-05-10T12:37:59Z</time>
      </trkpt>
      <trkpt lat="46.62462" lon="6.04328">
        <ele>919.64</ele>
        <time>2013-05-10T12:38:16Z</time>
      </trkpt>
      <trkpt lat="46.62466" lon="6.04366">
        <ele>921.56</ele>
        <time>2013-05-10T12:38:28Z</time>
      </trkpt>
      <trkpt lat="46.62466" lon="6.04369">
        <ele>921.56</ele>
        <time>2013-05-10T12:38:29Z</time>
      </trkpt>
      <trkpt lat="46.62464" lon="6.0437">
        <ele>921.56</ele>
        <time>2013-05-10T12:38:30Z</time>
      </trkpt>
      <trkpt lat="46.62463" lon="6.04373">
        <ele>922.04</ele>
        <time>2013-05-10T12:38:31Z</time>
      </trkpt>
      <trkpt lat="46.62461" lon="6.04375">
        <ele>922.52</ele>
        <time>2013-05-10T12:38:32Z</time>
      </trkpt>
      <trkpt lat="46.6246" lon="6.04377">
        <ele>922.52</ele>
        <time>2013-05-10T12:38:33Z</time>
      </trkpt>
      <trkpt lat="46.62458" lon="6.04379">
        <ele>923</ele>
        <time>2013-05-10T12:38:34Z</time>
      </trkpt>
      <trkpt lat="46.62451" lon="6.04407">
        <ele>925.89</ele>
        <time>2013-05-10T12:38:44Z</time>
      </trkpt>
      <trkpt lat="46.62439" lon="6.04425">
        <ele>927.81</ele>
        <time>2013-05-10T12:38:54Z</time>
      </trkpt>
      <trkpt lat="46.62437" lon="6.04426">
        <ele>927.81</ele>
        <time>2013-05-10T12:38:55Z</time>
      </trkpt>
      <trkpt lat="46.62428" lon="6.04424">
        <ele>928.77</ele>
        <time>2013-05-10T12:39:02Z</time>
      </trkpt>
      <trkpt lat="46.62426" lon="6.04421">
        <ele>929.25</ele>
        <time>2013-05-10T12:39:04Z</time>
      </trkpt>
      <trkpt lat="46.62422" lon="6.04419">
        <ele>930.21</ele>
        <time>2013-05-10T12:39:06Z</time>
      </trkpt>
      <trkpt lat="46.6241" lon="6.0441">
        <ele>931.17</ele>
        <time>2013-05-10T12:39:13Z</time>
      </trkpt>
      <trkpt lat="46.62407" lon="6.04409">
        <ele>931.65</ele>
        <time>2013-05-10T12:39:15Z</time>
      </trkpt>
      <trkpt lat="46.62405" lon="6.04407">
        <ele>931.65</ele>
        <time>2013-05-10T12:39:16Z</time>
      </trkpt>
      <trkpt lat="46.62403" lon="6.04405">
        <ele>931.65</ele>
        <time>2013-05-10T12:39:17Z</time>
      </trkpt>
      <trkpt lat="46.6238" lon="6.04388">
        <ele>931.65</ele>
        <time>2013-05-10T12:39:26Z</time>
      </trkpt>
      <trkpt lat="46.62377" lon="6.04385">
        <ele>931.65</ele>
        <time>2013-05-10T12:39:27Z</time>
      </trkpt>
      <trkpt lat="46.62363" lon="6.04372">
        <ele>931.65</ele>
        <time>2013-05-10T12:39:34Z</time>
      </trkpt>
      <trkpt lat="46.62354" lon="6.04354">
        <ele>929.25</ele>
        <time>2013-05-10T12:39:41Z</time>
      </trkpt>
      <trkpt lat="46.62337" lon="6.04331">
        <ele>927.81</ele>
        <time>2013-05-10T12:39:50Z</time>
      </trkpt>
      <trkpt lat="46.62333" lon="6.04324">
        <ele>927.33</ele>
        <time>2013-05-10T12:39:54Z</time>
      </trkpt>
      <trkpt lat="46.62332" lon="6.0432">
        <ele>926.85</ele>
        <time>2013-05-10T12:39:55Z</time>
      </trkpt>
      <trkpt lat="46.62332" lon="6.04317">
        <ele>926.85</ele>
        <time>2013-05-10T12:39:56Z</time>
      </trkpt>
      <trkpt lat="46.62332" lon="6.04314">
        <ele>926.37</ele>
        <time>2013-05-10T12:39:57Z</time>
      </trkpt>
      <trkpt lat="46.62332" lon="6.04311">
        <ele>926.37</ele>
        <time>2013-05-10T12:39:58Z</time>
      </trkpt>
      <trkpt lat="46.6233" lon="6.04307">
        <ele>926.37</ele>
        <time>2013-05-10T12:39:59Z</time>
      </trkpt>
      <trkpt lat="46.62328" lon="6.04304">
        <ele>926.37</ele>
        <time>2013-05-10T12:40:00Z</time>
      </trkpt>
      <trkpt lat="46.62306" lon="6.04272">
        <ele>926.37</ele>
        <time>2013-05-10T12:40:11Z</time>
      </trkpt>
      <trkpt lat="46.62305" lon="6.0427">
        <ele>926.37</ele>
        <time>2013-05-10T12:40:12Z</time>
      </trkpt>
      <trkpt lat="46.62302" lon="6.04269">
        <ele>926.37</ele>
        <time>2013-05-10T12:40:13Z</time>
      </trkpt>
      <trkpt lat="46.62301" lon="6.04267">
        <ele>925.89</ele>
        <time>2013-05-10T12:40:14Z</time>
      </trkpt>
      <trkpt lat="46.62301" lon="6.04264">
        <ele>925.89</ele>
        <time>2013-05-10T12:40:15Z</time>
      </trkpt>
      <trkpt lat="46.62301" lon="6.04262">
        <ele>925.41</ele>
        <time>2013-05-10T12:40:16Z</time>
      </trkpt>
      <trkpt lat="46.62302" lon="6.04254">
        <ele>924.93</ele>
        <time>2013-05-10T12:40:19Z</time>
      </trkpt>
      <trkpt lat="46.62294" lon="6.04218">
        <ele>922.04</ele>
        <time>2013-05-10T12:40:27Z</time>
      </trkpt>
      <trkpt lat="46.62268" lon="6.04186">
        <ele>921.56</ele>
        <time>2013-05-10T12:40:36Z</time>
      </trkpt>
      <trkpt lat="46.62244" lon="6.04181">
        <ele>922.04</ele>
        <time>2013-05-10T12:40:44Z</time>
      </trkpt>
      <trkpt lat="46.6222" lon="6.0417">
        <ele>923</ele>
        <time>2013-05-10T12:40:55Z</time>
      </trkpt>
      <trkpt lat="46.62207" lon="6.04161">
        <ele>923.96</ele>
        <time>2013-05-10T12:41:05Z</time>
      </trkpt>
      <trkpt lat="46.62204" lon="6.04159">
        <ele>923.48</ele>
        <time>2013-05-10T12:41:07Z</time>
      </trkpt>
      <trkpt lat="46.62189" lon="6.04141">
        <ele>923.96</ele>
        <time>2013-05-10T12:41:19Z</time>
      </trkpt>
      <trkpt lat="46.62167" lon="6.04126">
        <ele>924.93</ele>
        <time>2013-05-10T12:41:27Z</time>
      </trkpt>
      <trkpt lat="46.62146" lon="6.04097">
        <ele>924.93</ele>
        <time>2013-05-10T12:41:38Z</time>
      </trkpt>
      <trkpt lat="46.62128" lon="6.04063">
        <ele>923.96</ele>
        <time>2013-05-10T12:41:49Z</time>
      </trkpt>
      <trkpt lat="46.62127" lon="6.04062">
        <ele>923.96</ele>
        <time>2013-05-10T12:41:50Z</time>
      </trkpt>
      <trkpt lat="46.62127" lon="6.04051">
        <ele>923.96</ele>
        <time>2013-05-10T12:41:55Z</time>
      </trkpt>
      <trkpt lat="46.62127" lon="6.04039">
        <ele>923.96</ele>
        <time>2013-05-10T12:41:59Z</time>
      </trkpt>
      <trkpt lat="46.62123" lon="6.04027">
        <ele>923.96</ele>
        <time>2013-05-10T12:42:06Z</time>
      </trkpt>
      <trkpt lat="46.62117" lon="6.04017">
        <ele>924.45</ele>
        <time>2013-05-10T12:42:11Z</time>
      </trkpt>
      <trkpt lat="46.62113" lon="6.04008">
        <ele>925.41</ele>
        <time>2013-05-10T12:42:15Z</time>
      </trkpt>
      <trkpt lat="46.62092" lon="6.03982">
        <ele>926.85</ele>
        <time>2013-05-10T12:42:26Z</time>
      </trkpt>
      <trkpt lat="46.62072" lon="6.03957">
        <ele>927.81</ele>
        <time>2013-05-10T12:42:38Z</time>
      </trkpt>
      <trkpt lat="46.62068" lon="6.0395">
        <ele>927.33</ele>
        <time>2013-05-10T12:42:43Z</time>
      </trkpt>
      <trkpt lat="46.62062" lon="6.03936">
        <ele>927.33</ele>
        <time>2013-05-10T12:42:54Z</time>
      </trkpt>
      <trkpt lat="46.62061" lon="6.0393">
        <ele>927.81</ele>
        <time>2013-05-10T12:42:58Z</time>
      </trkpt>
      <trkpt lat="46.62064" lon="6.03904">
        <ele>928.77</ele>
        <time>2013-05-10T12:43:08Z</time>
      </trkpt>
      <trkpt lat="46.62057" lon="6.03875">
        <ele>927.81</ele>
        <time>2013-05-10T12:43:19Z</time>
      </trkpt>
      <trkpt lat="46.62056" lon="6.03874">
        <ele>927.81</ele>
        <time>2013-05-10T12:43:21Z</time>
      </trkpt>
      <trkpt lat="46.62045" lon="6.03868">
        <ele>927.33</ele>
        <time>2013-05-10T12:43:30Z</time>
      </trkpt>
      <trkpt lat="46.62028" lon="6.03846">
        <ele>926.85</ele>
        <time>2013-05-10T12:43:40Z</time>
      </trkpt>
      <trkpt lat="46.62024" lon="6.03841">
        <ele>927.33</ele>
        <time>2013-05-10T12:43:42Z</time>
      </trkpt>
      <trkpt lat="46.62019" lon="6.03835">
        <ele>927.33</ele>
        <time>2013-05-10T12:43:46Z</time>
      </trkpt>
      <trkpt lat="46.62011" lon="6.03825">
        <ele>926.37</ele>
        <time>2013-05-10T12:43:51Z</time>
      </trkpt>
      <trkpt lat="46.61986" lon="6.03797">
        <ele>925.89</ele>
        <time>2013-05-10T12:44:01Z</time>
      </trkpt>
      <trkpt lat="46.61977" lon="6.03789">
        <ele>925.89</ele>
        <time>2013-05-10T12:44:03Z</time>
      </trkpt>
      <trkpt lat="46.61967" lon="6.03772">
        <ele>926.37</ele>
        <time>2013-05-10T12:44:08Z</time>
      </trkpt>
      <trkpt lat="46.61956" lon="6.03763">
        <ele>925.89</ele>
        <time>2013-05-10T12:44:12Z</time>
      </trkpt>
      <trkpt lat="46.61944" lon="6.03752">
        <ele>926.85</ele>
        <time>2013-05-10T12:44:18Z</time>
      </trkpt>
      <trkpt lat="46.61921" lon="6.03732">
        <ele>929.25</ele>
        <time>2013-05-10T12:44:30Z</time>
      </trkpt>
      <trkpt lat="46.61896" lon="6.03703">
        <ele>931.17</ele>
        <time>2013-05-10T12:44:41Z</time>
      </trkpt>
      <trkpt lat="46.61874" lon="6.03679">
        <ele>929.73</ele>
        <time>2013-05-10T12:44:51Z</time>
      </trkpt>
      <trkpt lat="46.6187" lon="6.03672">
        <ele>929.73</ele>
        <time>2013-05-10T12:44:54Z</time>
      </trkpt>
      <trkpt lat="46.61867" lon="6.03656">
        <ele>930.21</ele>
        <time>2013-05-10T12:44:59Z</time>
      </trkpt>
      <trkpt lat="46.61857" lon="6.0361">
        <ele>931.65</ele>
        <time>2013-05-10T12:45:12Z</time>
      </trkpt>
      <trkpt lat="46.61835" lon="6.03571">
        <ele>931.65</ele>
        <time>2013-05-10T12:45:24Z</time>
      </trkpt>
      <trkpt lat="46.61814" lon="6.03551">
        <ele>930.21</ele>
        <time>2013-05-10T12:45:31Z</time>
      </trkpt>
      <trkpt lat="46.61792" lon="6.03524">
        <ele>929.73</ele>
        <time>2013-05-10T12:45:40Z</time>
      </trkpt>
      <trkpt lat="46.61787" lon="6.03516">
        <ele>929.73</ele>
        <time>2013-05-10T12:45:48Z</time>
      </trkpt>
      <trkpt lat="46.61786" lon="6.03518">
        <ele>929.73</ele>
        <time>2013-05-10T12:45:57Z</time>
      </trkpt>
      <trkpt lat="46.61784" lon="6.03513">
        <ele>929.73</ele>
        <time>2013-05-10T12:46:02Z</time>
      </trkpt>
      <trkpt lat="46.61777" lon="6.03501">
        <ele>929.73</ele>
        <time>2013-05-10T12:46:08Z</time>
      </trkpt>
      <trkpt lat="46.61776" lon="6.03497">
        <ele>929.73</ele>
        <time>2013-05-10T12:46:10Z</time>
      </trkpt>
      <trkpt lat="46.61773" lon="6.03492">
        <ele>929.73</ele>
        <time>2013-05-10T12:46:13Z</time>
      </trkpt>
      <trkpt lat="46.61763" lon="6.0347">
        <ele>928.77</ele>
        <time>2013-05-10T12:46:25Z</time>
      </trkpt>
      <trkpt lat="46.61755" lon="6.03461">
        <ele>929.25</ele>
        <time>2013-05-10T12:46:32Z</time>
      </trkpt>
      <trkpt lat="46.6175" lon="6.03457">
        <ele>929.25</ele>
        <time>2013-05-10T12:46:35Z</time>
      </trkpt>
      <trkpt lat="46.61741" lon="6.0345">
        <ele>930.69</ele>
        <time>2013-05-10T12:46:48Z</time>
      </trkpt>
      <trkpt lat="46.61729" lon="6.03438">
        <ele>931.65</ele>
        <time>2013-05-10T12:46:58Z</time>
      </trkpt>
      <trkpt lat="46.61723" lon="6.03432">
        <ele>931.17</ele>
        <time>2013-05-10T12:47:05Z</time>
      </trkpt>
      <trkpt lat="46.61716" lon="6.03417">
        <ele>931.17</ele>
        <time>2013-05-10T12:47:13Z</time>
      </trkpt>
      <trkpt lat="46.61709" lon="6.03409">
        <ele>931.17</ele>
        <time>2013-05-10T12:47:20Z</time>
      </trkpt>
      <trkpt lat="46.61703" lon="6.03395">
        <ele>931.65</ele>
        <time>2013-05-10T12:47:32Z</time>
      </trkpt>
      <trkpt lat="46.61696" lon="6.03383">
        <ele>932.62</ele>
        <time>2013-05-10T12:47:44Z</time>
      </trkpt>
      <trkpt lat="46.61684" lon="6.03366">
        <ele>933.1</ele>
        <time>2013-05-10T12:47:55Z</time>
      </trkpt>
      <trkpt lat="46.61683" lon="6.03365">
        <ele>933.1</ele>
        <time>2013-05-10T12:47:56Z</time>
      </trkpt>
      <trkpt lat="46.61673" lon="6.03359">
        <ele>935.02</ele>
        <time>2013-05-10T12:48:07Z</time>
      </trkpt>
      <trkpt lat="46.61671" lon="6.03357">
        <ele>935.02</ele>
        <time>2013-05-10T12:48:10Z</time>
      </trkpt>
      <trkpt lat="46.6166" lon="6.03343">
        <ele>935.5</ele>
        <time>2013-05-10T12:48:22Z</time>
      </trkpt>
      <trkpt lat="46.61657" lon="6.03335">
        <ele>936.94</ele>
        <time>2013-05-10T12:48:34Z</time>
      </trkpt>
      <trkpt lat="46.61656" lon="6.03323">
        <ele>935.98</ele>
        <time>2013-05-10T12:48:43Z</time>
      </trkpt>
      <trkpt lat="46.61646" lon="6.03311">
        <ele>935.02</ele>
        <time>2013-05-10T12:48:54Z</time>
      </trkpt>
      <trkpt lat="46.61643" lon="6.03305">
        <ele>935.02</ele>
        <time>2013-05-10T12:49:06Z</time>
      </trkpt>
      <trkpt lat="46.61643" lon="6.03304">
        <ele>935.02</ele>
        <time>2013-05-10T12:49:07Z</time>
      </trkpt>
      <trkpt lat="46.6164" lon="6.0329">
        <ele>934.54</ele>
        <time>2013-05-10T12:49:15Z</time>
      </trkpt>
      <trkpt lat="46.61636" lon="6.03285">
        <ele>935.5</ele>
        <time>2013-05-10T12:49:19Z</time>
      </trkpt>
      <trkpt lat="46.6163" lon="6.03281">
        <ele>936.94</ele>
        <time>2013-05-10T12:49:22Z</time>
      </trkpt>
      <trkpt lat="46.61622" lon="6.03272">
        <ele>937.42</ele>
        <time>2013-05-10T12:49:29Z</time>
      </trkpt>
      <trkpt lat="46.6162" lon="6.0326">
        <ele>935.98</ele>
        <time>2013-05-10T12:49:42Z</time>
      </trkpt>
      <trkpt lat="46.61601" lon="6.03233">
        <ele>936.94</ele>
        <time>2013-05-10T12:49:53Z</time>
      </trkpt>
      <trkpt lat="46.61595" lon="6.03225">
        <ele>939.35</ele>
        <time>2013-05-10T12:50:09Z</time>
      </trkpt>
      <trkpt lat="46.61592" lon="6.03216">
        <ele>939.83</ele>
        <time>2013-05-10T12:50:18Z</time>
      </trkpt>
      <trkpt lat="46.6159" lon="6.0321">
        <ele>939.83</ele>
        <time>2013-05-10T12:50:29Z</time>
      </trkpt>
      <trkpt lat="46.61581" lon="6.03197">
        <ele>938.38</ele>
        <time>2013-05-10T12:50:38Z</time>
      </trkpt>
      <trkpt lat="46.61578" lon="6.03193">
        <ele>937.9</ele>
        <time>2013-05-10T12:50:40Z</time>
      </trkpt>
      <trkpt lat="46.61572" lon="6.03185">
        <ele>938.38</ele>
        <time>2013-05-10T12:50:44Z</time>
      </trkpt>
      <trkpt lat="46.61557" lon="6.03164">
        <ele>938.86</ele>
        <time>2013-05-10T12:50:57Z</time>
      </trkpt>
      <trkpt lat="46.61552" lon="6.03151">
        <ele>939.35</ele>
        <time>2013-05-10T12:51:09Z</time>
      </trkpt>
      <trkpt lat="46.61538" lon="6.03127">
        <ele>941.27</ele>
        <time>2013-05-10T12:51:21Z</time>
      </trkpt>
      <trkpt lat="46.61534" lon="6.03119">
        <ele>942.71</ele>
        <time>2013-05-10T12:51:24Z</time>
      </trkpt>
      <trkpt lat="46.61526" lon="6.0311">
        <ele>943.67</ele>
        <time>2013-05-10T12:51:29Z</time>
      </trkpt>
      <trkpt lat="46.61519" lon="6.0309">
        <ele>944.63</ele>
        <time>2013-05-10T12:51:41Z</time>
      </trkpt>
      <trkpt lat="46.61516" lon="6.03086">
        <ele>944.63</ele>
        <time>2013-05-10T12:51:43Z</time>
      </trkpt>
      <trkpt lat="46.61501" lon="6.03068">
        <ele>944.63</ele>
        <time>2013-05-10T12:51:52Z</time>
      </trkpt>
      <trkpt lat="46.61495" lon="6.0306">
        <ele>945.59</ele>
        <time>2013-05-10T12:52:01Z</time>
      </trkpt>
      <trkpt lat="46.61482" lon="6.03048">
        <ele>945.59</ele>
        <time>2013-05-10T12:52:12Z</time>
      </trkpt>
      <trkpt lat="46.61475" lon="6.03035">
        <ele>945.11</ele>
        <time>2013-05-10T12:52:17Z</time>
      </trkpt>
      <trkpt lat="46.61473" lon="6.03026">
        <ele>944.63</ele>
        <time>2013-05-10T12:52:19Z</time>
      </trkpt>
      <trkpt lat="46.61461" lon="6.02994">
        <ele>944.15</ele>
        <time>2013-05-10T12:52:29Z</time>
      </trkpt>
      <trkpt lat="46.61443" lon="6.02967">
        <ele>944.63</ele>
        <time>2013-05-10T12:52:40Z</time>
      </trkpt>
      <trkpt lat="46.61438" lon="6.02958">
        <ele>945.59</ele>
        <time>2013-05-10T12:52:45Z</time>
      </trkpt>
      <trkpt lat="46.61427" lon="6.02947">
        <ele>945.59</ele>
        <time>2013-05-10T12:52:51Z</time>
      </trkpt>
      <trkpt lat="46.6142" lon="6.0294">
        <ele>946.07</ele>
        <time>2013-05-10T12:52:54Z</time>
      </trkpt>
      <trkpt lat="46.61413" lon="6.02931">
        <ele>947.04</ele>
        <time>2013-05-10T12:52:58Z</time>
      </trkpt>
      <trkpt lat="46.61404" lon="6.02916">
        <ele>947.04</ele>
        <time>2013-05-10T12:53:04Z</time>
      </trkpt>
      <trkpt lat="46.61398" lon="6.02904">
        <ele>946.56</ele>
        <time>2013-05-10T12:53:08Z</time>
      </trkpt>
      <trkpt lat="46.61395" lon="6.02891">
        <ele>944.63</ele>
        <time>2013-05-10T12:53:12Z</time>
      </trkpt>
      <trkpt lat="46.6139" lon="6.02878">
        <ele>944.15</ele>
        <time>2013-05-10T12:53:18Z</time>
      </trkpt>
      <trkpt lat="46.61374" lon="6.02854">
        <ele>944.63</ele>
        <time>2013-05-10T12:53:26Z</time>
      </trkpt>
      <trkpt lat="46.61372" lon="6.02849">
        <ele>944.63</ele>
        <time>2013-05-10T12:53:28Z</time>
      </trkpt>
      <trkpt lat="46.61363" lon="6.02827">
        <ele>943.19</ele>
        <time>2013-05-10T12:53:33Z</time>
      </trkpt>
      <trkpt lat="46.61358" lon="6.02811">
        <ele>941.75</ele>
        <time>2013-05-10T12:53:36Z</time>
      </trkpt>
      <trkpt lat="46.61356" lon="6.02804">
        <ele>942.23</ele>
        <time>2013-05-10T12:53:38Z</time>
      </trkpt>
      <trkpt lat="46.61354" lon="6.02791">
        <ele>942.23</ele>
        <time>2013-05-10T12:53:42Z</time>
      </trkpt>
      <trkpt lat="46.61342" lon="6.02751">
        <ele>941.75</ele>
        <time>2013-05-10T12:53:52Z</time>
      </trkpt>
      <trkpt lat="46.61345" lon="6.02747">
        <ele>941.27</ele>
        <time>2013-05-10T12:54:03Z</time>
      </trkpt>
      <trkpt lat="46.61363" lon="6.0272">
        <ele>939.83</ele>
        <time>2013-05-10T12:54:15Z</time>
      </trkpt>
      <trkpt lat="46.61382" lon="6.0269">
        <ele>938.38</ele>
        <time>2013-05-10T12:54:26Z</time>
      </trkpt>
      <trkpt lat="46.61397" lon="6.0266">
        <ele>937.42</ele>
        <time>2013-05-10T12:54:36Z</time>
      </trkpt>
      <trkpt lat="46.61421" lon="6.0263">
        <ele>937.42</ele>
        <time>2013-05-10T12:54:48Z</time>
      </trkpt>
      <trkpt lat="46.61446" lon="6.02602">
        <ele>938.38</ele>
        <time>2013-05-10T12:55:00Z</time>
      </trkpt>
      <trkpt lat="46.61481" lon="6.02588">
        <ele>939.35</ele>
        <time>2013-05-10T12:55:13Z</time>
      </trkpt>
      <trkpt lat="46.61518" lon="6.02588">
        <ele>939.35</ele>
        <time>2013-05-10T12:55:25Z</time>
      </trkpt>
      <trkpt lat="46.61534" lon="6.02584">
        <ele>938.38</ele>
        <time>2013-05-10T12:55:29Z</time>
      </trkpt>
      <trkpt lat="46.61539" lon="6.02576">
        <ele>937.42</ele>
        <time>2013-05-10T12:55:31Z</time>
      </trkpt>
      <trkpt lat="46.6154" lon="6.02571">
        <ele>937.42</ele>
        <time>2013-05-10T12:55:32Z</time>
      </trkpt>
      <trkpt lat="46.6154" lon="6.02565">
        <ele>937.9</ele>
        <time>2013-05-10T12:55:33Z</time>
      </trkpt>
      <trkpt lat="46.61539" lon="6.0256">
        <ele>937.42</ele>
        <time>2013-05-10T12:55:34Z</time>
      </trkpt>
      <trkpt lat="46.61537" lon="6.02555">
        <ele>937.9</ele>
        <time>2013-05-10T12:55:35Z</time>
      </trkpt>
      <trkpt lat="46.61534" lon="6.02551">
        <ele>937.9</ele>
        <time>2013-05-10T12:55:36Z</time>
      </trkpt>
      <trkpt lat="46.61531" lon="6.02546">
        <ele>937.9</ele>
        <time>2013-05-10T12:55:37Z</time>
      </trkpt>
      <trkpt lat="46.61516" lon="6.02491">
        <ele>939.35</ele>
        <time>2013-05-10T12:55:49Z</time>
      </trkpt>
      <trkpt lat="46.61488" lon="6.02434">
        <ele>939.83</ele>
        <time>2013-05-10T12:56:02Z</time>
      </trkpt>
      <trkpt lat="46.61482" lon="6.02424">
        <ele>939.35</ele>
        <time>2013-05-10T12:56:04Z</time>
      </trkpt>
      <trkpt lat="46.61479" lon="6.02417">
        <ele>938.86</ele>
        <time>2013-05-10T12:56:05Z</time>
      </trkpt>
      <trkpt lat="46.61436" lon="6.02337">
        <ele>938.38</ele>
        <time>2013-05-10T12:56:17Z</time>
      </trkpt>
      <trkpt lat="46.61407" lon="6.02304">
        <ele>941.27</ele>
        <time>2013-05-10T12:56:28Z</time>
      </trkpt>
      <trkpt lat="46.61381" lon="6.02295">
        <ele>944.15</ele>
        <time>2013-05-10T12:56:38Z</time>
      </trkpt>
      <trkpt lat="46.61378" lon="6.02293">
        <ele>944.15</ele>
        <time>2013-05-10T12:56:39Z</time>
      </trkpt>
      <trkpt lat="46.61375" lon="6.02291">
        <ele>943.67</ele>
        <time>2013-05-10T12:56:40Z</time>
      </trkpt>
      <trkpt lat="46.61341" lon="6.02265">
        <ele>941.27</ele>
        <time>2013-05-10T12:56:48Z</time>
      </trkpt>
      <trkpt lat="46.61336" lon="6.02259">
        <ele>940.31</ele>
        <time>2013-05-10T12:56:49Z</time>
      </trkpt>
      <trkpt lat="46.61292" lon="6.02195">
        <ele>937.42</ele>
        <time>2013-05-10T12:56:58Z</time>
      </trkpt>
      <trkpt lat="46.61234" lon="6.02095">
        <ele>935.98</ele>
        <time>2013-05-10T12:57:12Z</time>
      </trkpt>
      <trkpt lat="46.61216" lon="6.0206">
        <ele>935.5</ele>
        <time>2013-05-10T12:57:17Z</time>
      </trkpt>
      <trkpt lat="46.61183" lon="6.02005">
        <ele>935.02</ele>
        <time>2013-05-10T12:57:26Z</time>
      </trkpt>
      <trkpt lat="46.61179" lon="6.01999">
        <ele>935.5</ele>
        <time>2013-05-10T12:57:27Z</time>
      </trkpt>
      <trkpt lat="46.61176" lon="6.01994">
        <ele>935.5</ele>
        <time>2013-05-10T12:57:28Z</time>
      </trkpt>
      <trkpt lat="46.61173" lon="6.01988">
        <ele>935.5</ele>
        <time>2013-05-10T12:57:29Z</time>
      </trkpt>
      <trkpt lat="46.6117" lon="6.01982">
        <ele>935.98</ele>
        <time>2013-05-10T12:57:30Z</time>
      </trkpt>
      <trkpt lat="46.61144" lon="6.01939">
        <ele>936.46</ele>
        <time>2013-05-10T12:57:38Z</time>
      </trkpt>
      <trkpt lat="46.6109" lon="6.01858">
        <ele>933.58</ele>
        <time>2013-05-10T12:57:53Z</time>
      </trkpt>
      <trkpt lat="46.61057" lon="6.01808">
        <ele>934.06</ele>
        <time>2013-05-10T12:58:02Z</time>
      </trkpt>
      <trkpt lat="46.61039" lon="6.01779">
        <ele>933.58</ele>
        <time>2013-05-10T12:58:08Z</time>
      </trkpt>
      <trkpt lat="46.61036" lon="6.01775">
        <ele>933.58</ele>
        <time>2013-05-10T12:58:09Z</time>
      </trkpt>
      <trkpt lat="46.60983" lon="6.01687">
        <ele>934.06</ele>
        <time>2013-05-10T12:58:26Z</time>
      </trkpt>
      <trkpt lat="46.60977" lon="6.01677">
        <ele>934.06</ele>
        <time>2013-05-10T12:58:28Z</time>
      </trkpt>
      <trkpt lat="46.60921" lon="6.01564">
        <ele>934.06</ele>
        <time>2013-05-10T12:58:48Z</time>
      </trkpt>
      <trkpt lat="46.60879" lon="6.01481">
        <ele>933.58</ele>
        <time>2013-05-10T12:59:02Z</time>
      </trkpt>
      <trkpt lat="46.60832" lon="6.01395">
        <ele>930.69</ele>
        <time>2013-05-10T12:59:16Z</time>
      </trkpt>
      <trkpt lat="46.60782" lon="6.013">
        <ele>928.77</ele>
        <time>2013-05-10T12:59:30Z</time>
      </trkpt>
      <trkpt lat="46.60767" lon="6.01269">
        <ele>929.25</ele>
        <time>2013-05-10T12:59:35Z</time>
      </trkpt>
      <trkpt lat="46.60764" lon="6.01264">
        <ele>929.73</ele>
        <time>2013-05-10T12:59:36Z</time>
      </trkpt>
      <trkpt lat="46.60758" lon="6.01253">
        <ele>929.73</ele>
        <time>2013-05-10T12:59:38Z</time>
      </trkpt>
      <trkpt lat="46.60756" lon="6.01248">
        <ele>929.73</ele>
        <time>2013-05-10T12:59:39Z</time>
      </trkpt>
      <trkpt lat="46.60754" lon="6.01243">
        <ele>931.65</ele>
        <time>2013-05-10T12:59:40Z</time>
      </trkpt>
      <trkpt lat="46.60752" lon="6.01238">
        <ele>930.69</ele>
        <time>2013-05-10T12:59:41Z</time>
      </trkpt>
      <trkpt lat="46.60737" lon="6.012">
        <ele>932.14</ele>
        <time>2013-05-10T12:59:49Z</time>
      </trkpt>
      <trkpt lat="46.60737" lon="6.01196">
        <ele>932.14</ele>
        <time>2013-05-10T12:59:50Z</time>
      </trkpt>
      <trkpt lat="46.60735" lon="6.01192">
        <ele>932.62</ele>
        <time>2013-05-10T12:59:51Z</time>
      </trkpt>
      <trkpt lat="46.60733" lon="6.01187">
        <ele>932.62</ele>
        <time>2013-05-10T12:59:52Z</time>
      </trkpt>
      <trkpt lat="46.60731" lon="6.01182">
        <ele>932.62</ele>
        <time>2013-05-10T12:59:53Z</time>
      </trkpt>
      <trkpt lat="46.60728" lon="6.01177">
        <ele>933.1</ele>
        <time>2013-05-10T12:59:54Z</time>
      </trkpt>
      <trkpt lat="46.60725" lon="6.01172">
        <ele>932.62</ele>
        <time>2013-05-10T12:59:55Z</time>
      </trkpt>
      <trkpt lat="46.60722" lon="6.01166">
        <ele>932.62</ele>
        <time>2013-05-10T12:59:56Z</time>
      </trkpt>
      <trkpt lat="46.60718" lon="6.0116">
        <ele>932.62</ele>
        <time>2013-05-10T12:59:57Z</time>
      </trkpt>
      <trkpt lat="46.60714" lon="6.01153">
        <ele>932.62</ele>
        <time>2013-05-10T12:59:58Z</time>
      </trkpt>
      <trkpt lat="46.6071" lon="6.01147">
        <ele>932.14</ele>
        <time>2013-05-10T12:59:59Z</time>
      </trkpt>
      <trkpt lat="46.60707" lon="6.0114">
        <ele>932.14</ele>
        <time>2013-05-10T13:00:00Z</time>
      </trkpt>
      <trkpt lat="46.60703" lon="6.01133">
        <ele>932.14</ele>
        <time>2013-05-10T13:00:01Z</time>
      </trkpt>
      <trkpt lat="46.607" lon="6.01127">
        <ele>932.14</ele>
        <time>2013-05-10T13:00:02Z</time>
      </trkpt>
      <trkpt lat="46.60683" lon="6.01098">
        <ele>932.14</ele>
        <time>2013-05-10T13:00:07Z</time>
      </trkpt>
      <trkpt lat="46.60668" lon="6.0108">
        <ele>933.1</ele>
        <time>2013-05-10T13:00:11Z</time>
      </trkpt>
      <trkpt lat="46.60663" lon="6.01077">
        <ele>933.1</ele>
        <time>2013-05-10T13:00:12Z</time>
      </trkpt>
      <trkpt lat="46.60638" lon="6.01064">
        <ele>932.62</ele>
        <time>2013-05-10T13:00:17Z</time>
      </trkpt>
      <trkpt lat="46.60634" lon="6.0106">
        <ele>932.62</ele>
        <time>2013-05-10T13:00:18Z</time>
      </trkpt>
      <trkpt lat="46.60611" lon="6.01031">
        <ele>933.1</ele>
        <time>2013-05-10T13:00:25Z</time>
      </trkpt>
      <trkpt lat="46.60609" lon="6.01025">
        <ele>932.62</ele>
        <time>2013-05-10T13:00:26Z</time>
      </trkpt>
      <trkpt lat="46.60607" lon="6.01019">
        <ele>933.1</ele>
        <time>2013-05-10T13:00:27Z</time>
      </trkpt>
      <trkpt lat="46.60575" lon="6.00954">
        <ele>932.14</ele>
        <time>2013-05-10T13:00:38Z</time>
      </trkpt>
      <trkpt lat="46.60548" lon="6.0092">
        <ele>933.1</ele>
        <time>2013-05-10T13:00:44Z</time>
      </trkpt>
      <trkpt lat="46.60539" lon="6.00911">
        <ele>932.62</ele>
        <time>2013-05-10T13:00:46Z</time>
      </trkpt>
      <trkpt lat="46.60475" lon="6.00853">
        <ele>934.54</ele>
        <time>2013-05-10T13:01:03Z</time>
      </trkpt>
      <trkpt lat="46.60459" lon="6.00842">
        <ele>934.06</ele>
        <time>2013-05-10T13:01:07Z</time>
      </trkpt>
      <trkpt lat="46.60431" lon="6.00823">
        <ele>932.62</ele>
        <time>2013-05-10T13:01:13Z</time>
      </trkpt>
      <trkpt lat="46.60427" lon="6.00818">
        <ele>932.62</ele>
        <time>2013-05-10T13:01:14Z</time>
      </trkpt>
      <trkpt lat="46.60425" lon="6.00813">
        <ele>932.62</ele>
        <time>2013-05-10T13:01:15Z</time>
      </trkpt>
      <trkpt lat="46.60422" lon="6.00807">
        <ele>933.1</ele>
        <time>2013-05-10T13:01:16Z</time>
      </trkpt>
      <trkpt lat="46.60421" lon="6.00801">
        <ele>933.1</ele>
        <time>2013-05-10T13:01:17Z</time>
      </trkpt>
      <trkpt lat="46.60419" lon="6.00796">
        <ele>933.1</ele>
        <time>2013-05-10T13:01:18Z</time>
      </trkpt>
      <trkpt lat="46.60418" lon="6.0079">
        <ele>932.62</ele>
        <time>2013-05-10T13:01:19Z</time>
      </trkpt>
      <trkpt lat="46.60417" lon="6.00784">
        <ele>933.1</ele>
        <time>2013-05-10T13:01:20Z</time>
      </trkpt>
      <trkpt lat="46.60417" lon="6.00777">
        <ele>932.62</ele>
        <time>2013-05-10T13:01:21Z</time>
      </trkpt>
      <trkpt lat="46.60417" lon="6.00771">
        <ele>932.62</ele>
        <time>2013-05-10T13:01:22Z</time>
      </trkpt>
      <trkpt lat="46.60418" lon="6.00698">
        <ele>934.06</ele>
        <time>2013-05-10T13:01:35Z</time>
      </trkpt>
      <trkpt lat="46.60419" lon="6.00663">
        <ele>936.46</ele>
        <time>2013-05-10T13:01:41Z</time>
      </trkpt>
      <trkpt lat="46.60422" lon="6.0058">
        <ele>937.42</ele>
        <time>2013-05-10T13:01:55Z</time>
      </trkpt>
      <trkpt lat="46.60421" lon="6.00574">
        <ele>937.42</ele>
        <time>2013-05-10T13:01:56Z</time>
      </trkpt>
      <trkpt lat="46.60418" lon="6.00558">
        <ele>937.9</ele>
        <time>2013-05-10T13:01:59Z</time>
      </trkpt>
      <trkpt lat="46.60416" lon="6.00552">
        <ele>937.9</ele>
        <time>2013-05-10T13:02:00Z</time>
      </trkpt>
      <trkpt lat="46.60415" lon="6.00546">
        <ele>937.9</ele>
        <time>2013-05-10T13:02:01Z</time>
      </trkpt>
      <trkpt lat="46.60413" lon="6.00541">
        <ele>937.9</ele>
        <time>2013-05-10T13:02:02Z</time>
      </trkpt>
      <trkpt lat="46.60411" lon="6.00536">
        <ele>937.42</ele>
        <time>2013-05-10T13:02:03Z</time>
      </trkpt>
      <trkpt lat="46.60377" lon="6.00477">
        <ele>940.31</ele>
        <time>2013-05-10T13:02:17Z</time>
      </trkpt>
      <trkpt lat="46.60352" lon="6.00431">
        <ele>941.27</ele>
        <time>2013-05-10T13:02:32Z</time>
      </trkpt>
      <trkpt lat="46.60329" lon="6.00408">
        <ele>940.79</ele>
        <time>2013-05-10T13:02:43Z</time>
      </trkpt>
      <trkpt lat="46.60303" lon="6.00408">
        <ele>940.79</ele>
        <time>2013-05-10T13:02:53Z</time>
      </trkpt>
      <trkpt lat="46.60271" lon="6.00426">
        <ele>943.19</ele>
        <time>2013-05-10T13:03:07Z</time>
      </trkpt>
      <trkpt lat="46.60241" lon="6.0045">
        <ele>946.07</ele>
        <time>2013-05-10T13:03:21Z</time>
      </trkpt>
      <trkpt lat="46.60221" lon="6.00484">
        <ele>948.96</ele>
        <time>2013-05-10T13:03:34Z</time>
      </trkpt>
      <trkpt lat="46.60208" lon="6.00503">
        <ele>951.84</ele>
        <time>2013-05-10T13:03:42Z</time>
      </trkpt>
      <trkpt lat="46.60176" lon="6.0053">
        <ele>953.28</ele>
        <time>2013-05-10T13:03:58Z</time>
      </trkpt>
      <trkpt lat="46.60153" lon="6.00532">
        <ele>954.25</ele>
        <time>2013-05-10T13:04:08Z</time>
      </trkpt>
      <trkpt lat="46.60122" lon="6.00525">
        <ele>955.21</ele>
        <time>2013-05-10T13:04:19Z</time>
      </trkpt>
      <trkpt lat="46.60091" lon="6.00514">
        <ele>956.65</ele>
        <time>2013-05-10T13:04:30Z</time>
      </trkpt>
      <trkpt lat="46.60043" lon="6.00507">
        <ele>957.61</ele>
        <time>2013-05-10T13:04:45Z</time>
      </trkpt>
      <trkpt lat="46.60003" lon="6.00501">
        <ele>958.57</ele>
        <time>2013-05-10T13:04:58Z</time>
      </trkpt>
      <trkpt lat="46.59972" lon="6.0048">
        <ele>961.94</ele>
        <time>2013-05-10T13:05:09Z</time>
      </trkpt>
      <trkpt lat="46.59938" lon="6.00443">
        <ele>962.42</ele>
        <time>2013-05-10T13:05:23Z</time>
      </trkpt>
      <trkpt lat="46.59902" lon="6.00424">
        <ele>963.86</ele>
        <time>2013-05-10T13:05:36Z</time>
      </trkpt>
      <trkpt lat="46.59888" lon="6.00415">
        <ele>962.9</ele>
        <time>2013-05-10T13:05:41Z</time>
      </trkpt>
      <trkpt lat="46.59884" lon="6.00411">
        <ele>962.9</ele>
        <time>2013-05-10T13:05:42Z</time>
      </trkpt>
      <trkpt lat="46.5988" lon="6.00407">
        <ele>962.42</ele>
        <time>2013-05-10T13:05:43Z</time>
      </trkpt>
      <trkpt lat="46.59868" lon="6.00389">
        <ele>959.05</ele>
        <time>2013-05-10T13:05:46Z</time>
      </trkpt>
      <trkpt lat="46.59852" lon="6.00359">
        <ele>957.61</ele>
        <time>2013-05-10T13:05:50Z</time>
      </trkpt>
      <trkpt lat="46.59847" lon="6.00351">
        <ele>957.13</ele>
        <time>2013-05-10T13:05:51Z</time>
      </trkpt>
      <trkpt lat="46.59843" lon="6.00342">
        <ele>956.65</ele>
        <time>2013-05-10T13:05:52Z</time>
      </trkpt>
      <trkpt lat="46.59804" lon="6.00266">
        <ele>954.73</ele>
        <time>2013-05-10T13:06:01Z</time>
      </trkpt>
      <trkpt lat="46.59798" lon="6.0026">
        <ele>954.25</ele>
        <time>2013-05-10T13:06:02Z</time>
      </trkpt>
      <trkpt lat="46.59766" lon="6.00224">
        <ele>949.92</ele>
        <time>2013-05-10T13:06:07Z</time>
      </trkpt>
      <trkpt lat="46.59746" lon="6.00197">
        <ele>948</ele>
        <time>2013-05-10T13:06:10Z</time>
      </trkpt>
      <trkpt lat="46.5974" lon="6.00186">
        <ele>947.52</ele>
        <time>2013-05-10T13:06:11Z</time>
      </trkpt>
      <trkpt lat="46.59735" lon="6.00174">
        <ele>946.56</ele>
        <time>2013-05-10T13:06:12Z</time>
      </trkpt>
      <trkpt lat="46.59726" lon="6.00149">
        <ele>946.07</ele>
        <time>2013-05-10T13:06:14Z</time>
      </trkpt>
      <trkpt lat="46.59723" lon="6.00136">
        <ele>946.07</ele>
        <time>2013-05-10T13:06:15Z</time>
      </trkpt>
      <trkpt lat="46.59721" lon="6.00123">
        <ele>945.11</ele>
        <time>2013-05-10T13:06:16Z</time>
      </trkpt>
      <trkpt lat="46.59706" lon="6.00001">
        <ele>946.07</ele>
        <time>2013-05-10T13:06:27Z</time>
      </trkpt>
      <trkpt lat="46.59705" lon="5.99993">
        <ele>946.56</ele>
        <time>2013-05-10T13:06:28Z</time>
      </trkpt>
      <trkpt lat="46.59705" lon="5.99985">
        <ele>947.04</ele>
        <time>2013-05-10T13:06:29Z</time>
      </trkpt>
      <trkpt lat="46.59702" lon="5.99951">
        <ele>947.52</ele>
        <time>2013-05-10T13:06:34Z</time>
      </trkpt>
      <trkpt lat="46.59701" lon="5.99945">
        <ele>947.52</ele>
        <time>2013-05-10T13:06:35Z</time>
      </trkpt>
      <trkpt lat="46.59701" lon="5.99939">
        <ele>949.44</ele>
        <time>2013-05-10T13:06:36Z</time>
      </trkpt>
      <trkpt lat="46.59699" lon="5.99934">
        <ele>948.48</ele>
        <time>2013-05-10T13:06:37Z</time>
      </trkpt>
      <trkpt lat="46.59699" lon="5.99928">
        <ele>948.96</ele>
        <time>2013-05-10T13:06:38Z</time>
      </trkpt>
      <trkpt lat="46.59698" lon="5.99922">
        <ele>948.96</ele>
        <time>2013-05-10T13:06:39Z</time>
      </trkpt>
      <trkpt lat="46.59694" lon="5.99871">
        <ele>950.4</ele>
        <time>2013-05-10T13:06:49Z</time>
      </trkpt>
      <trkpt lat="46.59692" lon="5.99866">
        <ele>950.4</ele>
        <time>2013-05-10T13:06:50Z</time>
      </trkpt>
      <trkpt lat="46.59691" lon="5.99861">
        <ele>950.88</ele>
        <time>2013-05-10T13:06:51Z</time>
      </trkpt>
      <trkpt lat="46.59666" lon="5.9979">
        <ele>949.44</ele>
        <time>2013-05-10T13:07:03Z</time>
      </trkpt>
      <trkpt lat="46.59665" lon="5.99783">
        <ele>949.44</ele>
        <time>2013-05-10T13:07:04Z</time>
      </trkpt>
      <trkpt lat="46.59663" lon="5.99768">
        <ele>948.48</ele>
        <time>2013-05-10T13:07:06Z</time>
      </trkpt>
      <trkpt lat="46.59662" lon="5.9976">
        <ele>948.48</ele>
        <time>2013-05-10T13:07:07Z</time>
      </trkpt>
      <trkpt lat="46.59662" lon="5.99753">
        <ele>948.48</ele>
        <time>2013-05-10T13:07:08Z</time>
      </trkpt>
      <trkpt lat="46.59662" lon="5.99745">
        <ele>948</ele>
        <time>2013-05-10T13:07:09Z</time>
      </trkpt>
      <trkpt lat="46.59663" lon="5.99737">
        <ele>948</ele>
        <time>2013-05-10T13:07:10Z</time>
      </trkpt>
      <trkpt lat="46.59664" lon="5.99729">
        <ele>947.04</ele>
        <time>2013-05-10T13:07:11Z</time>
      </trkpt>
      <trkpt lat="46.59666" lon="5.9972">
        <ele>947.04</ele>
        <time>2013-05-10T13:07:12Z</time>
      </trkpt>
      <trkpt lat="46.59686" lon="5.99624">
        <ele>947.04</ele>
        <time>2013-05-10T13:07:24Z</time>
      </trkpt>
      <trkpt lat="46.59687" lon="5.99617">
        <ele>947.04</ele>
        <time>2013-05-10T13:07:25Z</time>
      </trkpt>
      <trkpt lat="46.5969" lon="5.99589">
        <ele>947.04</ele>
        <time>2013-05-10T13:07:29Z</time>
      </trkpt>
      <trkpt lat="46.5969" lon="5.99582">
        <ele>947.04</ele>
        <time>2013-05-10T13:07:30Z</time>
      </trkpt>
      <trkpt lat="46.5969" lon="5.99576">
        <ele>947.04</ele>
        <time>2013-05-10T13:07:31Z</time>
      </trkpt>
      <trkpt lat="46.5969" lon="5.9957">
        <ele>947.04</ele>
        <time>2013-05-10T13:07:32Z</time>
      </trkpt>
      <trkpt lat="46.5969" lon="5.99564">
        <ele>947.52</ele>
        <time>2013-05-10T13:07:33Z</time>
      </trkpt>
      <trkpt lat="46.5969" lon="5.99558">
        <ele>948</ele>
        <time>2013-05-10T13:07:34Z</time>
      </trkpt>
      <trkpt lat="46.5969" lon="5.99553">
        <ele>948</ele>
        <time>2013-05-10T13:07:35Z</time>
      </trkpt>
      <trkpt lat="46.59705" lon="5.99514">
        <ele>948.96</ele>
        <time>2013-05-10T13:07:46Z</time>
      </trkpt>
      <trkpt lat="46.59707" lon="5.99511">
        <ele>948.48</ele>
        <time>2013-05-10T13:07:47Z</time>
      </trkpt>
      <trkpt lat="46.59706" lon="5.99507">
        <ele>948.48</ele>
        <time>2013-05-10T13:07:48Z</time>
      </trkpt>
      <trkpt lat="46.59702" lon="5.99501">
        <ele>948.48</ele>
        <time>2013-05-10T13:07:50Z</time>
      </trkpt>
      <trkpt lat="46.59704" lon="5.99481">
        <ele>948</ele>
        <time>2013-05-10T13:07:55Z</time>
      </trkpt>
      <trkpt lat="46.59711" lon="5.99466">
        <ele>947.04</ele>
        <time>2013-05-10T13:07:58Z</time>
      </trkpt>
      <trkpt lat="46.59713" lon="5.9946">
        <ele>946.56</ele>
        <time>2013-05-10T13:07:59Z</time>
      </trkpt>
      <trkpt lat="46.59716" lon="5.99454">
        <ele>946.07</ele>
        <time>2013-05-10T13:08:00Z</time>
      </trkpt>
      <trkpt lat="46.59718" lon="5.99446">
        <ele>945.59</ele>
        <time>2013-05-10T13:08:01Z</time>
      </trkpt>
      <trkpt lat="46.5972" lon="5.99438">
        <ele>945.11</ele>
        <time>2013-05-10T13:08:02Z</time>
      </trkpt>
      <trkpt lat="46.59721" lon="5.9943">
        <ele>944.63</ele>
        <time>2013-05-10T13:08:03Z</time>
      </trkpt>
      <trkpt lat="46.59721" lon="5.9942">
        <ele>943.67</ele>
        <time>2013-05-10T13:08:04Z</time>
      </trkpt>
      <trkpt lat="46.59721" lon="5.99411">
        <ele>943.19</ele>
        <time>2013-05-10T13:08:05Z</time>
      </trkpt>
      <trkpt lat="46.59722" lon="5.9938">
        <ele>940.79</ele>
        <time>2013-05-10T13:08:08Z</time>
      </trkpt>
      <trkpt lat="46.59726" lon="5.99346">
        <ele>937.9</ele>
        <time>2013-05-10T13:08:11Z</time>
      </trkpt>
      <trkpt lat="46.59725" lon="5.99335">
        <ele>936.94</ele>
        <time>2013-05-10T13:08:12Z</time>
      </trkpt>
      <trkpt lat="46.59722" lon="5.99324">
        <ele>935.02</ele>
        <time>2013-05-10T13:08:13Z</time>
      </trkpt>
      <trkpt lat="46.59718" lon="5.99314">
        <ele>934.06</ele>
        <time>2013-05-10T13:08:14Z</time>
      </trkpt>
      <trkpt lat="46.59712" lon="5.99305">
        <ele>933.58</ele>
        <time>2013-05-10T13:08:15Z</time>
      </trkpt>
      <trkpt lat="46.59694" lon="5.99274">
        <ele>931.17</ele>
        <time>2013-05-10T13:08:18Z</time>
      </trkpt>
      <trkpt lat="46.59677" lon="5.99241">
        <ele>928.77</ele>
        <time>2013-05-10T13:08:21Z</time>
      </trkpt>
      <trkpt lat="46.59663" lon="5.99222">
        <ele>927.81</ele>
        <time>2013-05-10T13:08:23Z</time>
      </trkpt>
      <trkpt lat="46.59623" lon="5.99168">
        <ele>926.37</ele>
        <time>2013-05-10T13:08:31Z</time>
      </trkpt>
      <trkpt lat="46.59619" lon="5.99162">
        <ele>925.89</ele>
        <time>2013-05-10T13:08:32Z</time>
      </trkpt>
      <trkpt lat="46.59572" lon="5.99094">
        <ele>923</ele>
        <time>2013-05-10T13:08:44Z</time>
      </trkpt>
      <trkpt lat="46.59552" lon="5.99067">
        <ele>922.04</ele>
        <time>2013-05-10T13:08:48Z</time>
      </trkpt>
      <trkpt lat="46.59541" lon="5.99054">
        <ele>921.56</ele>
        <time>2013-05-10T13:08:50Z</time>
      </trkpt>
      <trkpt lat="46.59509" lon="5.99007">
        <ele>920.6</ele>
        <time>2013-05-10T13:08:57Z</time>
      </trkpt>
      <trkpt lat="46.59454" lon="5.98934">
        <ele>917.72</ele>
        <time>2013-05-10T13:09:10Z</time>
      </trkpt>
      <trkpt lat="46.59432" lon="5.98913">
        <ele>916.75</ele>
        <time>2013-05-10T13:09:15Z</time>
      </trkpt>
      <trkpt lat="46.59428" lon="5.98911">
        <ele>916.75</ele>
        <time>2013-05-10T13:09:16Z</time>
      </trkpt>
      <trkpt lat="46.59387" lon="5.98897">
        <ele>914.83</ele>
        <time>2013-05-10T13:09:24Z</time>
      </trkpt>
      <trkpt lat="46.59381" lon="5.98895">
        <ele>914.83</ele>
        <time>2013-05-10T13:09:25Z</time>
      </trkpt>
      <trkpt lat="46.59376" lon="5.98894">
        <ele>914.35</ele>
        <time>2013-05-10T13:09:26Z</time>
      </trkpt>
      <trkpt lat="46.59371" lon="5.98893">
        <ele>914.35</ele>
        <time>2013-05-10T13:09:27Z</time>
      </trkpt>
      <trkpt lat="46.59366" lon="5.98892">
        <ele>913.87</ele>
        <time>2013-05-10T13:09:28Z</time>
      </trkpt>
      <trkpt lat="46.59355" lon="5.98892">
        <ele>913.87</ele>
        <time>2013-05-10T13:09:30Z</time>
      </trkpt>
      <trkpt lat="46.59338" lon="5.98892">
        <ele>913.39</ele>
        <time>2013-05-10T13:09:33Z</time>
      </trkpt>
      <trkpt lat="46.59332" lon="5.98892">
        <ele>912.91</ele>
        <time>2013-05-10T13:09:34Z</time>
      </trkpt>
      <trkpt lat="46.59326" lon="5.98892">
        <ele>912.91</ele>
        <time>2013-05-10T13:09:35Z</time>
      </trkpt>
      <trkpt lat="46.59321" lon="5.98892">
        <ele>912.43</ele>
        <time>2013-05-10T13:09:36Z</time>
      </trkpt>
      <trkpt lat="46.59316" lon="5.98893">
        <ele>912.43</ele>
        <time>2013-05-10T13:09:37Z</time>
      </trkpt>
      <trkpt lat="46.5931" lon="5.98893">
        <ele>912.43</ele>
        <time>2013-05-10T13:09:38Z</time>
      </trkpt>
      <trkpt lat="46.59269" lon="5.989">
        <ele>910.99</ele>
        <time>2013-05-10T13:09:48Z</time>
      </trkpt>
      <trkpt lat="46.5926" lon="5.98905">
        <ele>910.51</ele>
        <time>2013-05-10T13:09:50Z</time>
      </trkpt>
      <trkpt lat="46.59255" lon="5.98908">
        <ele>910.03</ele>
        <time>2013-05-10T13:09:51Z</time>
      </trkpt>
      <trkpt lat="46.59251" lon="5.9891">
        <ele>910.03</ele>
        <time>2013-05-10T13:09:52Z</time>
      </trkpt>
      <trkpt lat="46.59208" lon="5.98937">
        <ele>907.62</ele>
        <time>2013-05-10T13:10:00Z</time>
      </trkpt>
      <trkpt lat="46.59197" lon="5.98944">
        <ele>907.62</ele>
        <time>2013-05-10T13:10:02Z</time>
      </trkpt>
      <trkpt lat="46.59191" lon="5.98948">
        <ele>907.14</ele>
        <time>2013-05-10T13:10:03Z</time>
      </trkpt>
      <trkpt lat="46.59185" lon="5.98952">
        <ele>907.14</ele>
        <time>2013-05-10T13:10:04Z</time>
      </trkpt>
      <trkpt lat="46.59179" lon="5.98954">
        <ele>906.66</ele>
        <time>2013-05-10T13:10:05Z</time>
      </trkpt>
      <trkpt lat="46.59172" lon="5.98956">
        <ele>906.66</ele>
        <time>2013-05-10T13:10:06Z</time>
      </trkpt>
      <trkpt lat="46.59104" lon="5.98955">
        <ele>904.26</ele>
        <time>2013-05-10T13:10:17Z</time>
      </trkpt>
      <trkpt lat="46.59098" lon="5.98954">
        <ele>904.26</ele>
        <time>2013-05-10T13:10:18Z</time>
      </trkpt>
      <trkpt lat="46.59056" lon="5.9895">
        <ele>902.33</ele>
        <time>2013-05-10T13:10:25Z</time>
      </trkpt>
      <trkpt lat="46.59029" lon="5.98937">
        <ele>901.37</ele>
        <time>2013-05-10T13:10:30Z</time>
      </trkpt>
      <trkpt lat="46.59024" lon="5.98932">
        <ele>900.89</ele>
        <time>2013-05-10T13:10:31Z</time>
      </trkpt>
      <trkpt lat="46.59019" lon="5.98927">
        <ele>900.89</ele>
        <time>2013-05-10T13:10:32Z</time>
      </trkpt>
      <trkpt lat="46.59014" lon="5.98923">
        <ele>900.41</ele>
        <time>2013-05-10T13:10:33Z</time>
      </trkpt>
      <trkpt lat="46.59009" lon="5.98918">
        <ele>900.41</ele>
        <time>2013-05-10T13:10:34Z</time>
      </trkpt>
      <trkpt lat="46.59005" lon="5.98913">
        <ele>900.41</ele>
        <time>2013-05-10T13:10:35Z</time>
      </trkpt>
      <trkpt lat="46.59002" lon="5.98907">
        <ele>899.93</ele>
        <time>2013-05-10T13:10:36Z</time>
      </trkpt>
      <trkpt lat="46.58999" lon="5.989">
        <ele>899.45</ele>
        <time>2013-05-10T13:10:37Z</time>
      </trkpt>
      <trkpt lat="46.58996" lon="5.98893">
        <ele>898.97</ele>
        <time>2013-05-10T13:10:38Z</time>
      </trkpt>
      <trkpt lat="46.58955" lon="5.98795">
        <ele>896.57</ele>
        <time>2013-05-10T13:10:50Z</time>
      </trkpt>
      <trkpt lat="46.58909" lon="5.98699">
        <ele>893.68</ele>
        <time>2013-05-10T13:11:03Z</time>
      </trkpt>
      <trkpt lat="46.589" lon="5.98687">
        <ele>893.2</ele>
        <time>2013-05-10T13:11:05Z</time>
      </trkpt>
      <trkpt lat="46.58895" lon="5.98683">
        <ele>892.72</ele>
        <time>2013-05-10T13:11:06Z</time>
      </trkpt>
      <trkpt lat="46.5889" lon="5.98678">
        <ele>892.72</ele>
        <time>2013-05-10T13:11:07Z</time>
      </trkpt>
      <trkpt lat="46.58828" lon="5.98644">
        <ele>889.84</ele>
        <time>2013-05-10T13:11:18Z</time>
      </trkpt>
      <trkpt lat="46.58817" lon="5.98638">
        <ele>889.36</ele>
        <time>2013-05-10T13:11:20Z</time>
      </trkpt>
      <trkpt lat="46.58801" lon="5.98628">
        <ele>888.88</ele>
        <time>2013-05-10T13:11:23Z</time>
      </trkpt>
      <trkpt lat="46.58796" lon="5.98625">
        <ele>888.4</ele>
        <time>2013-05-10T13:11:24Z</time>
      </trkpt>
      <trkpt lat="46.58791" lon="5.98622">
        <ele>888.4</ele>
        <time>2013-05-10T13:11:25Z</time>
      </trkpt>
      <trkpt lat="46.58724" lon="5.98594">
        <ele>885.51</ele>
        <time>2013-05-10T13:11:36Z</time>
      </trkpt>
      <trkpt lat="46.58673" lon="5.98586">
        <ele>884.07</ele>
        <time>2013-05-10T13:11:45Z</time>
      </trkpt>
      <trkpt lat="46.5865" lon="5.98583">
        <ele>883.11</ele>
        <time>2013-05-10T13:11:53Z</time>
      </trkpt>
      <trkpt lat="46.58627" lon="5.98582">
        <ele>882.15</ele>
        <time>2013-05-10T13:12:01Z</time>
      </trkpt>
      <trkpt lat="46.58626" lon="5.98583">
        <ele>882.15</ele>
        <time>2013-05-10T13:12:02Z</time>
      </trkpt>
      <trkpt lat="46.58624" lon="5.98585">
        <ele>882.15</ele>
        <time>2013-05-10T13:12:03Z</time>
      </trkpt>
      <trkpt lat="46.58623" lon="5.98588">
        <ele>881.67</ele>
        <time>2013-05-10T13:12:04Z</time>
      </trkpt>
      <trkpt lat="46.58621" lon="5.9859">
        <ele>881.67</ele>
        <time>2013-05-10T13:12:05Z</time>
      </trkpt>
      <trkpt lat="46.58616" lon="5.986">
        <ele>879.74</ele>
        <time>2013-05-10T13:12:10Z</time>
      </trkpt>
      <trkpt lat="46.58615" lon="5.98602">
        <ele>885.03</ele>
        <time>2013-05-10T13:12:11Z</time>
      </trkpt>
      <trkpt lat="46.58615" lon="5.98604">
        <ele>882.63</ele>
        <time>2013-05-10T13:12:12Z</time>
      </trkpt>
      <trkpt lat="46.5861" lon="5.98616">
        <ele>882.63</ele>
        <time>2013-05-10T13:12:19Z</time>
      </trkpt>
      <trkpt lat="46.58608" lon="5.9862">
        <ele>882.15</ele>
        <time>2013-05-10T13:12:21Z</time>
      </trkpt>
      <trkpt lat="46.58595" lon="5.98632">
        <ele>885.51</ele>
        <time>2013-05-10T13:12:29Z</time>
      </trkpt>
      <trkpt lat="46.5859" lon="5.98634">
        <ele>887.91</ele>
        <time>2013-05-10T13:12:33Z</time>
      </trkpt>
      <trkpt lat="46.58571" lon="5.98643">
        <ele>889.36</ele>
        <time>2013-05-10T13:12:45Z</time>
      </trkpt>
      <trkpt lat="46.58552" lon="5.98644">
        <ele>891.28</ele>
        <time>2013-05-10T13:12:55Z</time>
      </trkpt>
      <trkpt lat="46.58517" lon="5.98643">
        <ele>891.28</ele>
        <time>2013-05-10T13:13:09Z</time>
      </trkpt>
      <trkpt lat="46.58515" lon="5.98642">
        <ele>891.76</ele>
        <time>2013-05-10T13:13:10Z</time>
      </trkpt>
      <trkpt lat="46.58487" lon="5.98643">
        <ele>892.24</ele>
        <time>2013-05-10T13:13:21Z</time>
      </trkpt>
      <trkpt lat="46.5846" lon="5.98642">
        <ele>894.16</ele>
        <time>2013-05-10T13:13:33Z</time>
      </trkpt>
      <trkpt lat="46.58436" lon="5.98639">
        <ele>895.12</ele>
        <time>2013-05-10T13:13:42Z</time>
      </trkpt>
      <trkpt lat="46.58409" lon="5.98649">
        <ele>896.09</ele>
        <time>2013-05-10T13:13:55Z</time>
      </trkpt>
      <trkpt lat="46.58395" lon="5.98649">
        <ele>897.53</ele>
        <time>2013-05-10T13:14:01Z</time>
      </trkpt>
      <trkpt lat="46.5838" lon="5.98654">
        <ele>898.01</ele>
        <time>2013-05-10T13:14:06Z</time>
      </trkpt>
      <trkpt lat="46.58358" lon="5.98669">
        <ele>899.45</ele>
        <time>2013-05-10T13:14:16Z</time>
      </trkpt>
      <trkpt lat="46.5834" lon="5.98695">
        <ele>899.45</ele>
        <time>2013-05-10T13:14:25Z</time>
      </trkpt>
      <trkpt lat="46.5833" lon="5.98706">
        <ele>897.05</ele>
        <time>2013-05-10T13:14:28Z</time>
      </trkpt>
      <trkpt lat="46.5831" lon="5.98713">
        <ele>898.49</ele>
        <time>2013-05-10T13:14:36Z</time>
      </trkpt>
      <trkpt lat="46.58304" lon="5.98711">
        <ele>899.45</ele>
        <time>2013-05-10T13:14:40Z</time>
      </trkpt>
      <trkpt lat="46.58295" lon="5.98711">
        <ele>903.3</ele>
        <time>2013-05-10T13:14:50Z</time>
      </trkpt>
      <trkpt lat="46.58293" lon="5.9871">
        <ele>903.3</ele>
        <time>2013-05-10T13:14:51Z</time>
      </trkpt>
      <trkpt lat="46.58289" lon="5.98709">
        <ele>904.74</ele>
        <time>2013-05-10T13:14:54Z</time>
      </trkpt>
      <trkpt lat="46.58275" lon="5.98711">
        <ele>907.62</ele>
        <time>2013-05-10T13:15:06Z</time>
      </trkpt>
      <trkpt lat="46.58265" lon="5.98713">
        <ele>909.06</ele>
        <time>2013-05-10T13:15:14Z</time>
      </trkpt>
      <trkpt lat="46.58241" lon="5.98708">
        <ele>910.03</ele>
        <time>2013-05-10T13:15:26Z</time>
      </trkpt>
      <trkpt lat="46.58225" lon="5.98703">
        <ele>910.03</ele>
        <time>2013-05-10T13:15:33Z</time>
      </trkpt>
      <trkpt lat="46.58213" lon="5.98701">
        <ele>910.99</ele>
        <time>2013-05-10T13:15:39Z</time>
      </trkpt>
      <trkpt lat="46.58201" lon="5.987">
        <ele>911.95</ele>
        <time>2013-05-10T13:15:47Z</time>
      </trkpt>
      <trkpt lat="46.58196" lon="5.98697">
        <ele>912.43</ele>
        <time>2013-05-10T13:15:52Z</time>
      </trkpt>
      <trkpt lat="46.58176" lon="5.98687">
        <ele>912.91</ele>
        <time>2013-05-10T13:16:03Z</time>
      </trkpt>
      <trkpt lat="46.5817" lon="5.98683">
        <ele>913.87</ele>
        <time>2013-05-10T13:16:07Z</time>
      </trkpt>
      <trkpt lat="46.58149" lon="5.98676">
        <ele>915.79</ele>
        <time>2013-05-10T13:16:22Z</time>
      </trkpt>
      <trkpt lat="46.58134" lon="5.98662">
        <ele>917.24</ele>
        <time>2013-05-10T13:16:35Z</time>
      </trkpt>
      <trkpt lat="46.58125" lon="5.98656">
        <ele>917.24</ele>
        <time>2013-05-10T13:16:38Z</time>
      </trkpt>
      <trkpt lat="46.58111" lon="5.98652">
        <ele>918.2</ele>
        <time>2013-05-10T13:16:50Z</time>
      </trkpt>
      <trkpt lat="46.58096" lon="5.98655">
        <ele>919.64</ele>
        <time>2013-05-10T13:16:59Z</time>
      </trkpt>
      <trkpt lat="46.58074" lon="5.98654">
        <ele>920.12</ele>
        <time>2013-05-10T13:17:11Z</time>
      </trkpt>
      <trkpt lat="46.58069" lon="5.98653">
        <ele>919.64</ele>
        <time>2013-05-10T13:17:13Z</time>
      </trkpt>
      <trkpt lat="46.58059" lon="5.98656">
        <ele>919.16</ele>
        <time>2013-05-10T13:17:26Z</time>
      </trkpt>
      <trkpt lat="46.5805" lon="5.98658">
        <ele>919.64</ele>
        <time>2013-05-10T13:17:40Z</time>
      </trkpt>
      <trkpt lat="46.5805" lon="5.98658">
        <ele>919.64</ele>
        <time>2013-05-10T13:17:58Z</time>
      </trkpt>
      <trkpt lat="46.58049" lon="5.98658">
        <ele>919.64</ele>
        <time>2013-05-10T13:18:36Z</time>
      </trkpt>
      <trkpt lat="46.58049" lon="5.98658">
        <ele>919.64</ele>
        <time>2013-05-10T13:19:09Z</time>
      </trkpt>
      <trkpt lat="46.58049" lon="5.98658">
        <ele>919.16</ele>
        <time>2013-05-10T13:19:44Z</time>
      </trkpt>
      <trkpt lat="46.58049" lon="5.98658">
        <ele>919.64</ele>
        <time>2013-05-10T13:20:16Z</time>
      </trkpt>
      <trkpt lat="46.58049" lon="5.98658">
        <ele>919.64</ele>
        <time>2013-05-10T13:20:54Z</time>
      </trkpt>
      <trkpt lat="46.58049" lon="5.98657">
        <ele>919.64</ele>
        <time>2013-05-10T13:21:38Z</time>
      </trkpt>
      <trkpt lat="46.58049" lon="5.98657">
        <ele>919.64</ele>
        <time>2013-05-10T13:22:08Z</time>
      </trkpt>
      <trkpt lat="46.58049" lon="5.98657">
        <ele>919.64</ele>
        <time>2013-05-10T13:22:29Z</time>
      </trkpt>
      <trkpt lat="46.58048" lon="5.98657">
        <ele>919.64</ele>
        <time>2013-05-10T13:22:57Z</time>
      </trkpt>
      <trkpt lat="46.58048" lon="5.98658">
        <ele>919.64</ele>
        <time>2013-05-10T13:23:29Z</time>
      </trkpt>
      <trkpt lat="46.58048" lon="5.98658">
        <ele>919.64</ele>
        <time>2013-05-10T13:24:03Z</time>
      </trkpt>
      <trkpt lat="46.58048" lon="5.98658">
        <ele>919.64</ele>
        <time>2013-05-10T13:24:26Z</time>
      </trkpt>
      <trkpt lat="46.58048" lon="5.98657">
        <ele>919.64</ele>
        <time>2013-05-10T13:24:48Z</time>
      </trkpt>
      <trkpt lat="46.58036" lon="5.98664">
        <ele>921.08</ele>
        <time>2013-05-10T13:24:58Z</time>
      </trkpt>
      <trkpt lat="46.58031" lon="5.98665">
        <ele>921.56</ele>
        <time>2013-05-10T13:25:02Z</time>
      </trkpt>
      <trkpt lat="46.58022" lon="5.9867">
        <ele>923</ele>
        <time>2013-05-10T13:25:14Z</time>
      </trkpt>
      <trkpt lat="46.58018" lon="5.98673">
        <ele>923.96</ele>
        <time>2013-05-10T13:25:19Z</time>
      </trkpt>
      <trkpt lat="46.58005" lon="5.98683">
        <ele>926.37</ele>
        <time>2013-05-10T13:25:33Z</time>
      </trkpt>
      <trkpt lat="46.58002" lon="5.98688">
        <ele>926.85</ele>
        <time>2013-05-10T13:25:44Z</time>
      </trkpt>
      <trkpt lat="46.57997" lon="5.98699">
        <ele>927.33</ele>
        <time>2013-05-10T13:25:51Z</time>
      </trkpt>
      <trkpt lat="46.57991" lon="5.98717">
        <ele>928.29</ele>
        <time>2013-05-10T13:26:00Z</time>
      </trkpt>
      <trkpt lat="46.57977" lon="5.98731">
        <ele>929.25</ele>
        <time>2013-05-10T13:26:11Z</time>
      </trkpt>
      <trkpt lat="46.57973" lon="5.98736">
        <ele>929.25</ele>
        <time>2013-05-10T13:26:20Z</time>
      </trkpt>
      <trkpt lat="46.57972" lon="5.98739">
        <ele>929.25</ele>
        <time>2013-05-10T13:26:22Z</time>
      </trkpt>
      <trkpt lat="46.57967" lon="5.98747">
        <ele>929.25</ele>
        <time>2013-05-10T13:26:37Z</time>
      </trkpt>
      <trkpt lat="46.57965" lon="5.98749">
        <ele>929.25</ele>
        <time>2013-05-10T13:26:40Z</time>
      </trkpt>
      <trkpt lat="46.57964" lon="5.98752">
        <ele>929.25</ele>
        <time>2013-05-10T13:26:42Z</time>
      </trkpt>
      <trkpt lat="46.57946" lon="5.98786">
        <ele>927.81</ele>
        <time>2013-05-10T13:26:54Z</time>
      </trkpt>
      <trkpt lat="46.57942" lon="5.9879">
        <ele>927.81</ele>
        <time>2013-05-10T13:27:06Z</time>
      </trkpt>
      <trkpt lat="46.57931" lon="5.98806">
        <ele>929.73</ele>
        <time>2013-05-10T13:27:22Z</time>
      </trkpt>
      <trkpt lat="46.57923" lon="5.9881">
        <ele>931.17</ele>
        <time>2013-05-10T13:27:26Z</time>
      </trkpt>
      <trkpt lat="46.57915" lon="5.98815">
        <ele>931.65</ele>
        <time>2013-05-10T13:27:30Z</time>
      </trkpt>
      <trkpt lat="46.5791" lon="5.98824">
        <ele>932.14</ele>
        <time>2013-05-10T13:27:34Z</time>
      </trkpt>
      <trkpt lat="46.57906" lon="5.98828">
        <ele>932.14</ele>
        <time>2013-05-10T13:27:36Z</time>
      </trkpt>
      <trkpt lat="46.57896" lon="5.98869">
        <ele>934.06</ele>
        <time>2013-05-10T13:27:50Z</time>
      </trkpt>
      <trkpt lat="46.57895" lon="5.98916">
        <ele>935.98</ele>
        <time>2013-05-10T13:28:03Z</time>
      </trkpt>
      <trkpt lat="46.57895" lon="5.98933">
        <ele>936.46</ele>
        <time>2013-05-10T13:28:08Z</time>
      </trkpt>
      <trkpt lat="46.57892" lon="5.98966">
        <ele>938.38</ele>
        <time>2013-05-10T13:28:22Z</time>
      </trkpt>
      <trkpt lat="46.57892" lon="5.98968">
        <ele>938.38</ele>
        <time>2013-05-10T13:28:23Z</time>
      </trkpt>
      <trkpt lat="46.5789" lon="5.9898">
        <ele>939.83</ele>
        <time>2013-05-10T13:28:35Z</time>
      </trkpt>
      <trkpt lat="46.5789" lon="5.98981">
        <ele>939.83</ele>
        <time>2013-05-10T13:28:56Z</time>
      </trkpt>
      <trkpt lat="46.5789" lon="5.98981">
        <ele>939.83</ele>
        <time>2013-05-10T13:29:02Z</time>
      </trkpt>
      <trkpt lat="46.57892" lon="5.98989">
        <ele>940.31</ele>
        <time>2013-05-10T13:29:06Z</time>
      </trkpt>
      <trkpt lat="46.57904" lon="5.9902">
        <ele>942.23</ele>
        <time>2013-05-10T13:29:15Z</time>
      </trkpt>
      <trkpt lat="46.57925" lon="5.99043">
        <ele>944.15</ele>
        <time>2013-05-10T13:29:27Z</time>
      </trkpt>
      <trkpt lat="46.57957" lon="5.99046">
        <ele>942.71</ele>
        <time>2013-05-10T13:29:38Z</time>
      </trkpt>
      <trkpt lat="46.57975" lon="5.99043">
        <ele>942.23</ele>
        <time>2013-05-10T13:29:42Z</time>
      </trkpt>
      <trkpt lat="46.57979" lon="5.99042">
        <ele>941.75</ele>
        <time>2013-05-10T13:29:43Z</time>
      </trkpt>
      <trkpt lat="46.57985" lon="5.99041">
        <ele>941.75</ele>
        <time>2013-05-10T13:29:44Z</time>
      </trkpt>
      <trkpt lat="46.58006" lon="5.99039">
        <ele>940.79</ele>
        <time>2013-05-10T13:29:48Z</time>
      </trkpt>
      <trkpt lat="46.58028" lon="5.99031">
        <ele>939.35</ele>
        <time>2013-05-10T13:29:52Z</time>
      </trkpt>
      <trkpt lat="46.58033" lon="5.99029">
        <ele>938.86</ele>
        <time>2013-05-10T13:29:53Z</time>
      </trkpt>
      <trkpt lat="46.58038" lon="5.99026">
        <ele>938.38</ele>
        <time>2013-05-10T13:29:54Z</time>
      </trkpt>
      <trkpt lat="46.58063" lon="5.99009">
        <ele>935.02</ele>
        <time>2013-05-10T13:29:59Z</time>
      </trkpt>
      <trkpt lat="46.58077" lon="5.98999">
        <ele>933.58</ele>
        <time>2013-05-10T13:30:01Z</time>
      </trkpt>
      <trkpt lat="46.58118" lon="5.98955">
        <ele>934.54</ele>
        <time>2013-05-10T13:30:07Z</time>
      </trkpt>
      <trkpt lat="46.58123" lon="5.9895">
        <ele>934.54</ele>
        <time>2013-05-10T13:30:08Z</time>
      </trkpt>
      <trkpt lat="46.58136" lon="5.98941">
        <ele>934.54</ele>
        <time>2013-05-10T13:30:11Z</time>
      </trkpt>
      <trkpt lat="46.5814" lon="5.98939">
        <ele>934.54</ele>
        <time>2013-05-10T13:30:12Z</time>
      </trkpt>
      <trkpt lat="46.58143" lon="5.98937">
        <ele>934.54</ele>
        <time>2013-05-10T13:30:13Z</time>
      </trkpt>
      <trkpt lat="46.58145" lon="5.98935">
        <ele>935.02</ele>
        <time>2013-05-10T13:30:14Z</time>
      </trkpt>
      <trkpt lat="46.58147" lon="5.98933">
        <ele>935.02</ele>
        <time>2013-05-10T13:30:15Z</time>
      </trkpt>
      <trkpt lat="46.58149" lon="5.98932">
        <ele>935.02</ele>
        <time>2013-05-10T13:30:16Z</time>
      </trkpt>
      <trkpt lat="46.5815" lon="5.98931">
        <ele>934.54</ele>
        <time>2013-05-10T13:30:17Z</time>
      </trkpt>
      <trkpt lat="46.58152" lon="5.98932">
        <ele>934.54</ele>
        <time>2013-05-10T13:30:18Z</time>
      </trkpt>
      <trkpt lat="46.58153" lon="5.98933">
        <ele>934.54</ele>
        <time>2013-05-10T13:30:19Z</time>
      </trkpt>
      <trkpt lat="46.58154" lon="5.98934">
        <ele>934.06</ele>
        <time>2013-05-10T13:30:20Z</time>
      </trkpt>
      <trkpt lat="46.58156" lon="5.98937">
        <ele>934.06</ele>
        <time>2013-05-10T13:30:21Z</time>
      </trkpt>
      <trkpt lat="46.58162" lon="5.98947">
        <ele>933.58</ele>
        <time>2013-05-10T13:30:24Z</time>
      </trkpt>
      <trkpt lat="46.58164" lon="5.98953">
        <ele>933.58</ele>
        <time>2013-05-10T13:30:25Z</time>
      </trkpt>
      <trkpt lat="46.58163" lon="5.98958">
        <ele>933.1</ele>
        <time>2013-05-10T13:30:26Z</time>
      </trkpt>
      <trkpt lat="46.58163" lon="5.98962">
        <ele>933.1</ele>
        <time>2013-05-10T13:30:27Z</time>
      </trkpt>
      <trkpt lat="46.58163" lon="5.98966">
        <ele>933.1</ele>
        <time>2013-05-10T13:30:28Z</time>
      </trkpt>
      <trkpt lat="46.58163" lon="5.9897">
        <ele>933.1</ele>
        <time>2013-05-10T13:30:29Z</time>
      </trkpt>
      <trkpt lat="46.58151" lon="5.99">
        <ele>934.54</ele>
        <time>2013-05-10T13:30:40Z</time>
      </trkpt>
      <trkpt lat="46.5813" lon="5.99037">
        <ele>936.46</ele>
        <time>2013-05-10T13:30:54Z</time>
      </trkpt>
      <trkpt lat="46.58114" lon="5.99053">
        <ele>939.35</ele>
        <time>2013-05-10T13:31:05Z</time>
      </trkpt>
      <trkpt lat="46.5811" lon="5.99057">
        <ele>940.79</ele>
        <time>2013-05-10T13:31:08Z</time>
      </trkpt>
      <trkpt lat="46.58105" lon="5.99066">
        <ele>942.71</ele>
        <time>2013-05-10T13:31:13Z</time>
      </trkpt>
      <trkpt lat="46.58104" lon="5.99067">
        <ele>942.71</ele>
        <time>2013-05-10T13:31:14Z</time>
      </trkpt>
      <trkpt lat="46.58091" lon="5.99081">
        <ele>945.59</ele>
        <time>2013-05-10T13:31:28Z</time>
      </trkpt>
      <trkpt lat="46.58079" lon="5.99097">
        <ele>948.48</ele>
        <time>2013-05-10T13:31:39Z</time>
      </trkpt>
      <trkpt lat="46.58066" lon="5.99119">
        <ele>948.48</ele>
        <time>2013-05-10T13:31:50Z</time>
      </trkpt>
      <trkpt lat="46.58046" lon="5.99157">
        <ele>948.96</ele>
        <time>2013-05-10T13:32:04Z</time>
      </trkpt>
      <trkpt lat="46.58028" lon="5.99206">
        <ele>949.44</ele>
        <time>2013-05-10T13:32:18Z</time>
      </trkpt>
      <trkpt lat="46.58015" lon="5.99229">
        <ele>949.92</ele>
        <time>2013-05-10T13:32:26Z</time>
      </trkpt>
      <trkpt lat="46.58013" lon="5.99231">
        <ele>949.92</ele>
        <time>2013-05-10T13:32:27Z</time>
      </trkpt>
      <trkpt lat="46.58012" lon="5.99234">
        <ele>949.92</ele>
        <time>2013-05-10T13:32:28Z</time>
      </trkpt>
      <trkpt lat="46.58011" lon="5.99237">
        <ele>950.4</ele>
        <time>2013-05-10T13:32:29Z</time>
      </trkpt>
      <trkpt lat="46.5801" lon="5.99241">
        <ele>950.4</ele>
        <time>2013-05-10T13:32:30Z</time>
      </trkpt>
      <trkpt lat="46.57991" lon="5.99265">
        <ele>951.84</ele>
        <time>2013-05-10T13:32:38Z</time>
      </trkpt>
      <trkpt lat="46.57989" lon="5.99267">
        <ele>951.84</ele>
        <time>2013-05-10T13:32:39Z</time>
      </trkpt>
      <trkpt lat="46.57988" lon="5.99268">
        <ele>951.84</ele>
        <time>2013-05-10T13:32:40Z</time>
      </trkpt>
      <trkpt lat="46.57986" lon="5.9927">
        <ele>952.32</ele>
        <time>2013-05-10T13:32:41Z</time>
      </trkpt>
      <trkpt lat="46.57985" lon="5.99272">
        <ele>952.32</ele>
        <time>2013-05-10T13:32:42Z</time>
      </trkpt>
      <trkpt lat="46.57971" lon="5.99294">
        <ele>953.77</ele>
        <time>2013-05-10T13:32:52Z</time>
      </trkpt>
      <trkpt lat="46.57949" lon="5.99326">
        <ele>955.69</ele>
        <time>2013-05-10T13:33:04Z</time>
      </trkpt>
      <trkpt lat="46.57926" lon="5.99349">
        <ele>957.61</ele>
        <time>2013-05-10T13:33:16Z</time>
      </trkpt>
      <trkpt lat="46.57906" lon="5.99382">
        <ele>959.05</ele>
        <time>2013-05-10T13:33:28Z</time>
      </trkpt>
      <trkpt lat="46.57892" lon="5.99417">
        <ele>961.46</ele>
        <time>2013-05-10T13:33:40Z</time>
      </trkpt>
      <trkpt lat="46.57882" lon="5.99437">
        <ele>963.86</ele>
        <time>2013-05-10T13:33:51Z</time>
      </trkpt>
      <trkpt lat="46.57881" lon="5.99439">
        <ele>963.86</ele>
        <time>2013-05-10T13:33:52Z</time>
      </trkpt>
      <trkpt lat="46.5788" lon="5.9944">
        <ele>964.34</ele>
        <time>2013-05-10T13:33:53Z</time>
      </trkpt>
      <trkpt lat="46.57879" lon="5.99443">
        <ele>964.34</ele>
        <time>2013-05-10T13:33:54Z</time>
      </trkpt>
      <trkpt lat="46.57878" lon="5.99445">
        <ele>964.82</ele>
        <time>2013-05-10T13:33:55Z</time>
      </trkpt>
      <trkpt lat="46.57877" lon="5.99447">
        <ele>964.82</ele>
        <time>2013-05-10T13:33:56Z</time>
      </trkpt>
      <trkpt lat="46.57876" lon="5.9945">
        <ele>964.82</ele>
        <time>2013-05-10T13:33:57Z</time>
      </trkpt>
      <trkpt lat="46.57875" lon="5.99453">
        <ele>964.82</ele>
        <time>2013-05-10T13:33:58Z</time>
      </trkpt>
      <trkpt lat="46.57875" lon="5.99456">
        <ele>965.3</ele>
        <time>2013-05-10T13:33:59Z</time>
      </trkpt>
      <trkpt lat="46.57874" lon="5.99458">
        <ele>967.22</ele>
        <time>2013-05-10T13:34:00Z</time>
      </trkpt>
      <trkpt lat="46.57866" lon="5.99491">
        <ele>968.18</ele>
        <time>2013-05-10T13:34:13Z</time>
      </trkpt>
      <trkpt lat="46.57866" lon="5.99494">
        <ele>968.67</ele>
        <time>2013-05-10T13:34:14Z</time>
      </trkpt>
      <trkpt lat="46.57864" lon="5.99531">
        <ele>971.55</ele>
        <time>2013-05-10T13:34:29Z</time>
      </trkpt>
      <trkpt lat="46.57863" lon="5.99537">
        <ele>972.51</ele>
        <time>2013-05-10T13:34:32Z</time>
      </trkpt>
      <trkpt lat="46.57863" lon="5.99538">
        <ele>972.51</ele>
        <time>2013-05-10T13:34:33Z</time>
      </trkpt>
      <trkpt lat="46.57862" lon="5.99544">
        <ele>973.47</ele>
        <time>2013-05-10T13:34:38Z</time>
      </trkpt>
      <trkpt lat="46.57862" lon="5.99546">
        <ele>973.95</ele>
        <time>2013-05-10T13:34:39Z</time>
      </trkpt>
      <trkpt lat="46.57863" lon="5.99548">
        <ele>973.95</ele>
        <time>2013-05-10T13:34:40Z</time>
      </trkpt>
      <trkpt lat="46.57864" lon="5.99551">
        <ele>973.95</ele>
        <time>2013-05-10T13:34:41Z</time>
      </trkpt>
      <trkpt lat="46.57865" lon="5.99553">
        <ele>974.43</ele>
        <time>2013-05-10T13:34:42Z</time>
      </trkpt>
      <trkpt lat="46.57867" lon="5.99565">
        <ele>974.43</ele>
        <time>2013-05-10T13:34:46Z</time>
      </trkpt>
      <trkpt lat="46.57868" lon="5.99569">
        <ele>974.43</ele>
        <time>2013-05-10T13:34:47Z</time>
      </trkpt>
      <trkpt lat="46.57872" lon="5.99588">
        <ele>974.43</ele>
        <time>2013-05-10T13:34:55Z</time>
      </trkpt>
      <trkpt lat="46.57872" lon="5.9959">
        <ele>974.43</ele>
        <time>2013-05-10T13:34:56Z</time>
      </trkpt>
      <trkpt lat="46.57866" lon="5.99626">
        <ele>975.39</ele>
        <time>2013-05-10T13:35:07Z</time>
      </trkpt>
      <trkpt lat="46.57862" lon="5.9965">
        <ele>976.36</ele>
        <time>2013-05-10T13:35:15Z</time>
      </trkpt>
      <trkpt lat="46.57861" lon="5.99653">
        <ele>976.36</ele>
        <time>2013-05-10T13:35:16Z</time>
      </trkpt>
      <trkpt lat="46.57861" lon="5.99656">
        <ele>976.36</ele>
        <time>2013-05-10T13:35:17Z</time>
      </trkpt>
      <trkpt lat="46.57861" lon="5.99659">
        <ele>976.36</ele>
        <time>2013-05-10T13:35:18Z</time>
      </trkpt>
      <trkpt lat="46.57862" lon="5.99661">
        <ele>976.36</ele>
        <time>2013-05-10T13:35:19Z</time>
      </trkpt>
      <trkpt lat="46.57862" lon="5.99662">
        <ele>976.84</ele>
        <time>2013-05-10T13:35:20Z</time>
      </trkpt>
      <trkpt lat="46.57863" lon="5.99665">
        <ele>976.84</ele>
        <time>2013-05-10T13:35:21Z</time>
      </trkpt>
      <trkpt lat="46.5786" lon="5.99698">
        <ele>977.8</ele>
        <time>2013-05-10T13:35:30Z</time>
      </trkpt>
      <trkpt lat="46.5786" lon="5.99701">
        <ele>977.8</ele>
        <time>2013-05-10T13:35:31Z</time>
      </trkpt>
      <trkpt lat="46.5786" lon="5.99704">
        <ele>978.28</ele>
        <time>2013-05-10T13:35:32Z</time>
      </trkpt>
      <trkpt lat="46.5786" lon="5.99706">
        <ele>978.28</ele>
        <time>2013-05-10T13:35:33Z</time>
      </trkpt>
      <trkpt lat="46.5786" lon="5.99709">
        <ele>978.28</ele>
        <time>2013-05-10T13:35:34Z</time>
      </trkpt>
      <trkpt lat="46.57859" lon="5.99712">
        <ele>978.28</ele>
        <time>2013-05-10T13:35:35Z</time>
      </trkpt>
      <trkpt lat="46.57858" lon="5.99715">
        <ele>978.28</ele>
        <time>2013-05-10T13:35:36Z</time>
      </trkpt>
      <trkpt lat="46.57857" lon="5.99718">
        <ele>978.28</ele>
        <time>2013-05-10T13:35:37Z</time>
      </trkpt>
      <trkpt lat="46.57856" lon="5.99723">
        <ele>978.28</ele>
        <time>2013-05-10T13:35:38Z</time>
      </trkpt>
      <trkpt lat="46.57855" lon="5.99727">
        <ele>978.28</ele>
        <time>2013-05-10T13:35:39Z</time>
      </trkpt>
      <trkpt lat="46.57845" lon="5.99775">
        <ele>977.8</ele>
        <time>2013-05-10T13:35:50Z</time>
      </trkpt>
      <trkpt lat="46.57843" lon="5.99779">
        <ele>977.32</ele>
        <time>2013-05-10T13:35:51Z</time>
      </trkpt>
      <trkpt lat="46.57822" lon="5.99826">
        <ele>975.39</ele>
        <time>2013-05-10T13:36:04Z</time>
      </trkpt>
      <trkpt lat="46.57806" lon="5.99866">
        <ele>974.91</ele>
        <time>2013-05-10T13:36:14Z</time>
      </trkpt>
      <trkpt lat="46.57791" lon="5.99902">
        <ele>976.84</ele>
        <time>2013-05-10T13:36:24Z</time>
      </trkpt>
      <trkpt lat="46.57791" lon="5.99905">
        <ele>976.36</ele>
        <time>2013-05-10T13:36:25Z</time>
      </trkpt>
      <trkpt lat="46.5779" lon="5.9991">
        <ele>976.36</ele>
        <time>2013-05-10T13:36:26Z</time>
      </trkpt>
      <trkpt lat="46.57789" lon="5.99914">
        <ele>976.84</ele>
        <time>2013-05-10T13:36:27Z</time>
      </trkpt>
      <trkpt lat="46.57786" lon="5.99918">
        <ele>976.84</ele>
        <time>2013-05-10T13:36:28Z</time>
      </trkpt>
      <trkpt lat="46.57783" lon="5.99922">
        <ele>976.36</ele>
        <time>2013-05-10T13:36:29Z</time>
      </trkpt>
      <trkpt lat="46.57775" lon="5.99971">
        <ele>977.32</ele>
        <time>2013-05-10T13:36:40Z</time>
      </trkpt>
      <trkpt lat="46.57777" lon="6.00005">
        <ele>978.76</ele>
        <time>2013-05-10T13:36:49Z</time>
      </trkpt>
      <trkpt lat="46.5777" lon="6.00046">
        <ele>979.24</ele>
        <time>2013-05-10T13:37:00Z</time>
      </trkpt>
      <trkpt lat="46.57768" lon="6.00057">
        <ele>979.24</ele>
        <time>2013-05-10T13:37:03Z</time>
      </trkpt>
      <trkpt lat="46.57762" lon="6.00084">
        <ele>979.72</ele>
        <time>2013-05-10T13:37:12Z</time>
      </trkpt>
      <trkpt lat="46.57751" lon="6.00113">
        <ele>980.2</ele>
        <time>2013-05-10T13:37:23Z</time>
      </trkpt>
      <trkpt lat="46.57746" lon="6.00128">
        <ele>980.68</ele>
        <time>2013-05-10T13:37:28Z</time>
      </trkpt>
      <trkpt lat="46.57745" lon="6.00136">
        <ele>980.68</ele>
        <time>2013-05-10T13:37:31Z</time>
      </trkpt>
      <trkpt lat="46.57747" lon="6.00144">
        <ele>981.16</ele>
        <time>2013-05-10T13:37:34Z</time>
      </trkpt>
      <trkpt lat="46.57752" lon="6.00152">
        <ele>981.64</ele>
        <time>2013-05-10T13:37:41Z</time>
      </trkpt>
      <trkpt lat="46.57743" lon="6.00168">
        <ele>982.12</ele>
        <time>2013-05-10T13:37:45Z</time>
      </trkpt>
      <trkpt lat="46.57736" lon="6.00187">
        <ele>983.09</ele>
        <time>2013-05-10T13:37:51Z</time>
      </trkpt>
      <trkpt lat="46.5774" lon="6.00213">
        <ele>984.53</ele>
        <time>2013-05-10T13:38:03Z</time>
      </trkpt>
      <trkpt lat="46.57741" lon="6.00216">
        <ele>985.01</ele>
        <time>2013-05-10T13:38:05Z</time>
      </trkpt>
      <trkpt lat="46.57741" lon="6.0023">
        <ele>985.97</ele>
        <time>2013-05-10T13:38:12Z</time>
      </trkpt>
      <trkpt lat="46.57748" lon="6.00259">
        <ele>986.93</ele>
        <time>2013-05-10T13:38:22Z</time>
      </trkpt>
      <trkpt lat="46.5775" lon="6.00266">
        <ele>987.41</ele>
        <time>2013-05-10T13:38:25Z</time>
      </trkpt>
      <trkpt lat="46.57756" lon="6.00288">
        <ele>988.37</ele>
        <time>2013-05-10T13:38:34Z</time>
      </trkpt>
      <trkpt lat="46.57757" lon="6.00292">
        <ele>988.37</ele>
        <time>2013-05-10T13:38:36Z</time>
      </trkpt>
      <trkpt lat="46.57759" lon="6.00309">
        <ele>990.3</ele>
        <time>2013-05-10T13:38:49Z</time>
      </trkpt>
      <trkpt lat="46.5776" lon="6.00323">
        <ele>991.74</ele>
        <time>2013-05-10T13:39:00Z</time>
      </trkpt>
      <trkpt lat="46.57756" lon="6.00336">
        <ele>992.7</ele>
        <time>2013-05-10T13:39:09Z</time>
      </trkpt>
      <trkpt lat="46.57754" lon="6.00353">
        <ele>993.18</ele>
        <time>2013-05-10T13:39:16Z</time>
      </trkpt>
      <trkpt lat="46.57757" lon="6.00385">
        <ele>996.06</ele>
        <time>2013-05-10T13:39:29Z</time>
      </trkpt>
      <trkpt lat="46.57759" lon="6.00407">
        <ele>997.02</ele>
        <time>2013-05-10T13:39:39Z</time>
      </trkpt>
      <trkpt lat="46.5776" lon="6.00411">
        <ele>997.51</ele>
        <time>2013-05-10T13:39:41Z</time>
      </trkpt>
      <trkpt lat="46.57766" lon="6.00441">
        <ele>997.51</ele>
        <time>2013-05-10T13:39:53Z</time>
      </trkpt>
      <trkpt lat="46.57769" lon="6.00451">
        <ele>997.51</ele>
        <time>2013-05-10T13:39:57Z</time>
      </trkpt>
      <trkpt lat="46.57769" lon="6.00454">
        <ele>997.51</ele>
        <time>2013-05-10T13:39:59Z</time>
      </trkpt>
      <trkpt lat="46.57765" lon="6.00469">
        <ele>997.99</ele>
        <time>2013-05-10T13:40:04Z</time>
      </trkpt>
      <trkpt lat="46.57769" lon="6.00488">
        <ele>997.99</ele>
        <time>2013-05-10T13:40:12Z</time>
      </trkpt>
      <trkpt lat="46.57771" lon="6.00517">
        <ele>998.47</ele>
        <time>2013-05-10T13:40:23Z</time>
      </trkpt>
      <trkpt lat="46.57772" lon="6.00521">
        <ele>998.47</ele>
        <time>2013-05-10T13:40:25Z</time>
      </trkpt>
      <trkpt lat="46.57769" lon="6.00552">
        <ele>998.47</ele>
        <time>2013-05-10T13:40:36Z</time>
      </trkpt>
      <trkpt lat="46.57769" lon="6.00557">
        <ele>998.47</ele>
        <time>2013-05-10T13:40:38Z</time>
      </trkpt>
      <trkpt lat="46.57767" lon="6.00579">
        <ele>997.51</ele>
        <time>2013-05-10T13:40:45Z</time>
      </trkpt>
      <trkpt lat="46.57761" lon="6.0062">
        <ele>995.58</ele>
        <time>2013-05-10T13:40:55Z</time>
      </trkpt>
      <trkpt lat="46.57756" lon="6.00661">
        <ele>993.66</ele>
        <time>2013-05-10T13:41:08Z</time>
      </trkpt>
      <trkpt lat="46.57748" lon="6.00683">
        <ele>990.78</ele>
        <time>2013-05-10T13:41:15Z</time>
      </trkpt>
      <trkpt lat="46.57747" lon="6.00686">
        <ele>990.78</ele>
        <time>2013-05-10T13:41:16Z</time>
      </trkpt>
      <trkpt lat="46.57741" lon="6.00694">
        <ele>990.3</ele>
        <time>2013-05-10T13:41:20Z</time>
      </trkpt>
      <trkpt lat="46.57738" lon="6.00703">
        <ele>989.33</ele>
        <time>2013-05-10T13:41:24Z</time>
      </trkpt>
      <trkpt lat="46.57727" lon="6.00737">
        <ele>988.37</ele>
        <time>2013-05-10T13:41:37Z</time>
      </trkpt>
      <trkpt lat="46.57724" lon="6.00755">
        <ele>987.89</ele>
        <time>2013-05-10T13:41:49Z</time>
      </trkpt>
      <trkpt lat="46.57723" lon="6.00761">
        <ele>987.89</ele>
        <time>2013-05-10T13:41:54Z</time>
      </trkpt>
      <trkpt lat="46.5772" lon="6.00772">
        <ele>987.89</ele>
        <time>2013-05-10T13:42:06Z</time>
      </trkpt>
      <trkpt lat="46.57713" lon="6.00787">
        <ele>987.89</ele>
        <time>2013-05-10T13:42:18Z</time>
      </trkpt>
      <trkpt lat="46.57708" lon="6.00799">
        <ele>987.89</ele>
        <time>2013-05-10T13:42:32Z</time>
      </trkpt>
      <trkpt lat="46.57705" lon="6.00802">
        <ele>987.41</ele>
        <time>2013-05-10T13:42:43Z</time>
      </trkpt>
      <trkpt lat="46.57702" lon="6.00812">
        <ele>987.89</ele>
        <time>2013-05-10T13:42:59Z</time>
      </trkpt>
      <trkpt lat="46.577" lon="6.00818">
        <ele>987.41</ele>
        <time>2013-05-10T13:43:11Z</time>
      </trkpt>
      <trkpt lat="46.577" lon="6.00822">
        <ele>987.41</ele>
        <time>2013-05-10T13:43:15Z</time>
      </trkpt>
      <trkpt lat="46.57691" lon="6.0085">
        <ele>984.53</ele>
        <time>2013-05-10T13:43:24Z</time>
      </trkpt>
      <trkpt lat="46.57687" lon="6.00863">
        <ele>984.53</ele>
        <time>2013-05-10T13:43:30Z</time>
      </trkpt>
      <trkpt lat="46.57685" lon="6.00869">
        <ele>984.05</ele>
        <time>2013-05-10T13:43:33Z</time>
      </trkpt>
      <trkpt lat="46.57678" lon="6.00879">
        <ele>984.05</ele>
        <time>2013-05-10T13:43:39Z</time>
      </trkpt>
      <trkpt lat="46.57673" lon="6.00889">
        <ele>983.57</ele>
        <time>2013-05-10T13:43:50Z</time>
      </trkpt>
      <trkpt lat="46.57673" lon="6.00889">
        <ele>983.57</ele>
        <time>2013-05-10T13:44:14Z</time>
      </trkpt>
      <trkpt lat="46.57673" lon="6.00889">
        <ele>983.57</ele>
        <time>2013-05-10T13:44:18Z</time>
      </trkpt>
      <trkpt lat="46.57669" lon="6.00903">
        <ele>983.57</ele>
        <time>2013-05-10T13:44:24Z</time>
      </trkpt>
      <trkpt lat="46.57666" lon="6.00917">
        <ele>983.57</ele>
        <time>2013-05-10T13:44:30Z</time>
      </trkpt>
      <trkpt lat="46.57665" lon="6.00921">
        <ele>983.57</ele>
        <time>2013-05-10T13:44:32Z</time>
      </trkpt>
      <trkpt lat="46.57661" lon="6.00934">
        <ele>983.09</ele>
        <time>2013-05-10T13:44:37Z</time>
      </trkpt>
      <trkpt lat="46.57657" lon="6.00942">
        <ele>982.6</ele>
        <time>2013-05-10T13:44:41Z</time>
      </trkpt>
      <trkpt lat="46.57652" lon="6.0095">
        <ele>982.12</ele>
        <time>2013-05-10T13:44:45Z</time>
      </trkpt>
      <trkpt lat="46.57654" lon="6.00964">
        <ele>982.6</ele>
        <time>2013-05-10T13:44:52Z</time>
      </trkpt>
      <trkpt lat="46.57653" lon="6.00971">
        <ele>983.09</ele>
        <time>2013-05-10T13:44:56Z</time>
      </trkpt>
      <trkpt lat="46.57651" lon="6.00975">
        <ele>982.6</ele>
        <time>2013-05-10T13:44:58Z</time>
      </trkpt>
      <trkpt lat="46.57645" lon="6.0098">
        <ele>982.12</ele>
        <time>2013-05-10T13:45:03Z</time>
      </trkpt>
      <trkpt lat="46.5764" lon="6.00987">
        <ele>982.6</ele>
        <time>2013-05-10T13:45:09Z</time>
      </trkpt>
      <trkpt lat="46.57634" lon="6.01003">
        <ele>984.53</ele>
        <time>2013-05-10T13:45:21Z</time>
      </trkpt>
      <trkpt lat="46.57632" lon="6.01006">
        <ele>985.01</ele>
        <time>2013-05-10T13:45:24Z</time>
      </trkpt>
      <trkpt lat="46.57625" lon="6.01016">
        <ele>986.45</ele>
        <time>2013-05-10T13:45:32Z</time>
      </trkpt>
      <trkpt lat="46.57623" lon="6.0102">
        <ele>987.89</ele>
        <time>2013-05-10T13:45:35Z</time>
      </trkpt>
      <trkpt lat="46.57621" lon="6.01029">
        <ele>988.85</ele>
        <time>2013-05-10T13:45:39Z</time>
      </trkpt>
      <trkpt lat="46.57618" lon="6.01032">
        <ele>989.33</ele>
        <time>2013-05-10T13:45:42Z</time>
      </trkpt>
      <trkpt lat="46.57612" lon="6.0104">
        <ele>991.26</ele>
        <time>2013-05-10T13:45:54Z</time>
      </trkpt>
      <trkpt lat="46.5761" lon="6.01057">
        <ele>992.22</ele>
        <time>2013-05-10T13:46:06Z</time>
      </trkpt>
      <trkpt lat="46.57606" lon="6.01061">
        <ele>992.7</ele>
        <time>2013-05-10T13:46:14Z</time>
      </trkpt>
      <trkpt lat="46.57601" lon="6.01069">
        <ele>993.18</ele>
        <time>2013-05-10T13:46:25Z</time>
      </trkpt>
      <trkpt lat="46.57601" lon="6.01078">
        <ele>993.18</ele>
        <time>2013-05-10T13:46:34Z</time>
      </trkpt>
      <trkpt lat="46.57602" lon="6.01087">
        <ele>993.18</ele>
        <time>2013-05-10T13:46:40Z</time>
      </trkpt>
      <trkpt lat="46.57601" lon="6.01092">
        <ele>993.18</ele>
        <time>2013-05-10T13:46:43Z</time>
      </trkpt>
      <trkpt lat="46.57599" lon="6.01098">
        <ele>993.18</ele>
        <time>2013-05-10T13:46:47Z</time>
      </trkpt>
      <trkpt lat="46.57598" lon="6.01104">
        <ele>993.66</ele>
        <time>2013-05-10T13:46:51Z</time>
      </trkpt>
      <trkpt lat="46.57597" lon="6.0111">
        <ele>994.14</ele>
        <time>2013-05-10T13:47:01Z</time>
      </trkpt>
      <trkpt lat="46.57593" lon="6.01129">
        <ele>994.62</ele>
        <time>2013-05-10T13:47:15Z</time>
      </trkpt>
      <trkpt lat="46.57593" lon="6.01129">
        <ele>995.1</ele>
        <time>2013-05-10T13:47:16Z</time>
      </trkpt>
      <trkpt lat="46.57589" lon="6.01131">
        <ele>995.1</ele>
        <time>2013-05-10T13:47:21Z</time>
      </trkpt>
      <trkpt lat="46.57576" lon="6.01156">
        <ele>996.54</ele>
        <time>2013-05-10T13:47:38Z</time>
      </trkpt>
      <trkpt lat="46.5757" lon="6.01169">
        <ele>997.51</ele>
        <time>2013-05-10T13:47:46Z</time>
      </trkpt>
      <trkpt lat="46.57564" lon="6.01197">
        <ele>998.95</ele>
        <time>2013-05-10T13:48:02Z</time>
      </trkpt>
      <trkpt lat="46.57562" lon="6.01209">
        <ele>999.91</ele>
        <time>2013-05-10T13:48:09Z</time>
      </trkpt>
      <trkpt lat="46.57562" lon="6.01213">
        <ele>999.91</ele>
        <time>2013-05-10T13:48:11Z</time>
      </trkpt>
      <trkpt lat="46.57564" lon="6.01234">
        <ele>1000.39</ele>
        <time>2013-05-10T13:48:19Z</time>
      </trkpt>
      <trkpt lat="46.57568" lon="6.01254">
        <ele>1000.87</ele>
        <time>2013-05-10T13:48:25Z</time>
      </trkpt>
      <trkpt lat="46.57569" lon="6.01257">
        <ele>1000.87</ele>
        <time>2013-05-10T13:48:26Z</time>
      </trkpt>
      <trkpt lat="46.57573" lon="6.01265">
        <ele>1000.87</ele>
        <time>2013-05-10T13:48:31Z</time>
      </trkpt>
      <trkpt lat="46.57575" lon="6.01269">
        <ele>1000.87</ele>
        <time>2013-05-10T13:48:33Z</time>
      </trkpt>
      <trkpt lat="46.57575" lon="6.01271">
        <ele>1000.87</ele>
        <time>2013-05-10T13:48:34Z</time>
      </trkpt>
      <trkpt lat="46.57572" lon="6.01284">
        <ele>1001.35</ele>
        <time>2013-05-10T13:48:40Z</time>
      </trkpt>
      <trkpt lat="46.5757" lon="6.01295">
        <ele>1001.83</ele>
        <time>2013-05-10T13:48:45Z</time>
      </trkpt>
      <trkpt lat="46.57567" lon="6.01313">
        <ele>1002.31</ele>
        <time>2013-05-10T13:48:53Z</time>
      </trkpt>
      <trkpt lat="46.57561" lon="6.01334">
        <ele>1003.75</ele>
        <time>2013-05-10T13:49:05Z</time>
      </trkpt>
      <trkpt lat="46.57561" lon="6.01343">
        <ele>1004.23</ele>
        <time>2013-05-10T13:49:13Z</time>
      </trkpt>
      <trkpt lat="46.5756" lon="6.01348">
        <ele>1004.72</ele>
        <time>2013-05-10T13:49:28Z</time>
      </trkpt>
      <trkpt lat="46.5756" lon="6.01349">
        <ele>1005.68</ele>
        <time>2013-05-10T13:49:40Z</time>
      </trkpt>
      <trkpt lat="46.57557" lon="6.01353">
        <ele>1005.68</ele>
        <time>2013-05-10T13:49:43Z</time>
      </trkpt>
      <trkpt lat="46.57548" lon="6.01367">
        <ele>1005.68</ele>
        <time>2013-05-10T13:49:54Z</time>
      </trkpt>
      <trkpt lat="46.5754" lon="6.01381">
        <ele>1006.64</ele>
        <time>2013-05-10T13:50:07Z</time>
      </trkpt>
      <trkpt lat="46.5754" lon="6.01382">
        <ele>1007.12</ele>
        <time>2013-05-10T13:50:10Z</time>
      </trkpt>
      <trkpt lat="46.57534" lon="6.0139">
        <ele>1008.08</ele>
        <time>2013-05-10T13:50:18Z</time>
      </trkpt>
      <trkpt lat="46.57532" lon="6.01397">
        <ele>1008.56</ele>
        <time>2013-05-10T13:50:22Z</time>
      </trkpt>
      <trkpt lat="46.57524" lon="6.01412">
        <ele>1010</ele>
        <time>2013-05-10T13:50:35Z</time>
      </trkpt>
      <trkpt lat="46.57523" lon="6.01413">
        <ele>1010.48</ele>
        <time>2013-05-10T13:50:36Z</time>
      </trkpt>
      <trkpt lat="46.57507" lon="6.01437">
        <ele>1011.44</ele>
        <time>2013-05-10T13:50:52Z</time>
      </trkpt>
      <trkpt lat="46.575" lon="6.0145">
        <ele>1012.89</ele>
        <time>2013-05-10T13:51:02Z</time>
      </trkpt>
      <trkpt lat="46.57488" lon="6.01468">
        <ele>1014.81</ele>
        <time>2013-05-10T13:51:13Z</time>
      </trkpt>
      <trkpt lat="46.57474" lon="6.0148">
        <ele>1016.25</ele>
        <time>2013-05-10T13:51:26Z</time>
      </trkpt>
      <trkpt lat="46.57463" lon="6.0149">
        <ele>1018.17</ele>
        <time>2013-05-10T13:51:38Z</time>
      </trkpt>
      <trkpt lat="46.57461" lon="6.0149">
        <ele>1018.17</ele>
        <time>2013-05-10T13:51:39Z</time>
      </trkpt>
      <trkpt lat="46.57454" lon="6.01491">
        <ele>1018.65</ele>
        <time>2013-05-10T13:51:43Z</time>
      </trkpt>
      <trkpt lat="46.57424" lon="6.01503">
        <ele>1016.73</ele>
        <time>2013-05-10T13:51:54Z</time>
      </trkpt>
      <trkpt lat="46.57403" lon="6.0152">
        <ele>1018.17</ele>
        <time>2013-05-10T13:52:03Z</time>
      </trkpt>
      <trkpt lat="46.5738" lon="6.01544">
        <ele>1016.73</ele>
        <time>2013-05-10T13:52:13Z</time>
      </trkpt>
      <trkpt lat="46.57353" lon="6.01576">
        <ele>1014.33</ele>
        <time>2013-05-10T13:52:23Z</time>
      </trkpt>
      <trkpt lat="46.57337" lon="6.01594">
        <ele>1014.81</ele>
        <time>2013-05-10T13:52:32Z</time>
      </trkpt>
      <trkpt lat="46.57333" lon="6.016">
        <ele>1014.81</ele>
        <time>2013-05-10T13:52:35Z</time>
      </trkpt>
      <trkpt lat="46.5732" lon="6.01614">
        <ele>1015.29</ele>
        <time>2013-05-10T13:52:45Z</time>
      </trkpt>
      <trkpt lat="46.57316" lon="6.01619">
        <ele>1015.29</ele>
        <time>2013-05-10T13:52:53Z</time>
      </trkpt>
      <trkpt lat="46.573" lon="6.01627">
        <ele>1013.85</ele>
        <time>2013-05-10T13:53:05Z</time>
      </trkpt>
      <trkpt lat="46.57292" lon="6.01629">
        <ele>1013.37</ele>
        <time>2013-05-10T13:53:16Z</time>
      </trkpt>
      <trkpt lat="46.5727" lon="6.01643">
        <ele>1013.85</ele>
        <time>2013-05-10T13:53:28Z</time>
      </trkpt>
      <trkpt lat="46.5726" lon="6.01648">
        <ele>1013.37</ele>
        <time>2013-05-10T13:53:33Z</time>
      </trkpt>
      <trkpt lat="46.57243" lon="6.01674">
        <ele>1012.41</ele>
        <time>2013-05-10T13:53:42Z</time>
      </trkpt>
      <trkpt lat="46.57217" lon="6.01707">
        <ele>1012.89</ele>
        <time>2013-05-10T13:53:54Z</time>
      </trkpt>
      <trkpt lat="46.57212" lon="6.01718">
        <ele>1013.85</ele>
        <time>2013-05-10T13:53:58Z</time>
      </trkpt>
      <trkpt lat="46.57196" lon="6.01744">
        <ele>1013.37</ele>
        <time>2013-05-10T13:54:07Z</time>
      </trkpt>
      <trkpt lat="46.57173" lon="6.01769">
        <ele>1010.96</ele>
        <time>2013-05-10T13:54:15Z</time>
      </trkpt>
      <trkpt lat="46.57167" lon="6.01776">
        <ele>1010</ele>
        <time>2013-05-10T13:54:17Z</time>
      </trkpt>
      <trkpt lat="46.57163" lon="6.0178">
        <ele>1010.48</ele>
        <time>2013-05-10T13:54:18Z</time>
      </trkpt>
      <trkpt lat="46.5716" lon="6.01784">
        <ele>1010</ele>
        <time>2013-05-10T13:54:19Z</time>
      </trkpt>
      <trkpt lat="46.57156" lon="6.01788">
        <ele>1010</ele>
        <time>2013-05-10T13:54:20Z</time>
      </trkpt>
      <trkpt lat="46.57152" lon="6.01794">
        <ele>1010</ele>
        <time>2013-05-10T13:54:21Z</time>
      </trkpt>
      <trkpt lat="46.57147" lon="6.018">
        <ele>1010.48</ele>
        <time>2013-05-10T13:54:22Z</time>
      </trkpt>
      <trkpt lat="46.57143" lon="6.01804">
        <ele>1010</ele>
        <time>2013-05-10T13:54:23Z</time>
      </trkpt>
      <trkpt lat="46.57115" lon="6.01851">
        <ele>1010</ele>
        <time>2013-05-10T13:54:34Z</time>
      </trkpt>
      <trkpt lat="46.57113" lon="6.01864">
        <ele>1009.04</ele>
        <time>2013-05-10T13:54:36Z</time>
      </trkpt>
      <trkpt lat="46.57113" lon="6.01871">
        <ele>1009.04</ele>
        <time>2013-05-10T13:54:37Z</time>
      </trkpt>
      <trkpt lat="46.57112" lon="6.01877">
        <ele>1008.56</ele>
        <time>2013-05-10T13:54:38Z</time>
      </trkpt>
      <trkpt lat="46.57112" lon="6.01884">
        <ele>1008.56</ele>
        <time>2013-05-10T13:54:39Z</time>
      </trkpt>
      <trkpt lat="46.5711" lon="6.0189">
        <ele>1008.08</ele>
        <time>2013-05-10T13:54:40Z</time>
      </trkpt>
      <trkpt lat="46.57109" lon="6.01897">
        <ele>1008.08</ele>
        <time>2013-05-10T13:54:41Z</time>
      </trkpt>
      <trkpt lat="46.57108" lon="6.01903">
        <ele>1007.6</ele>
        <time>2013-05-10T13:54:42Z</time>
      </trkpt>
      <trkpt lat="46.57098" lon="6.01943">
        <ele>1007.12</ele>
        <time>2013-05-10T13:54:51Z</time>
      </trkpt>
      <trkpt lat="46.57097" lon="6.01946">
        <ele>1007.12</ele>
        <time>2013-05-10T13:54:52Z</time>
      </trkpt>
      <trkpt lat="46.57096" lon="6.01949">
        <ele>1007.12</ele>
        <time>2013-05-10T13:54:53Z</time>
      </trkpt>
      <trkpt lat="46.57094" lon="6.01951">
        <ele>1007.6</ele>
        <time>2013-05-10T13:54:54Z</time>
      </trkpt>
      <trkpt lat="46.57093" lon="6.01954">
        <ele>1007.6</ele>
        <time>2013-05-10T13:54:55Z</time>
      </trkpt>
      <trkpt lat="46.57089" lon="6.01957">
        <ele>1007.6</ele>
        <time>2013-05-10T13:54:56Z</time>
      </trkpt>
      <trkpt lat="46.57086" lon="6.0196">
        <ele>1007.6</ele>
        <time>2013-05-10T13:54:57Z</time>
      </trkpt>
      <trkpt lat="46.57057" lon="6.01984">
        <ele>1007.12</ele>
        <time>2013-05-10T13:55:06Z</time>
      </trkpt>
      <trkpt lat="46.57054" lon="6.0199">
        <ele>1006.64</ele>
        <time>2013-05-10T13:55:07Z</time>
      </trkpt>
      <trkpt lat="46.57045" lon="6.02009">
        <ele>1005.68</ele>
        <time>2013-05-10T13:55:10Z</time>
      </trkpt>
      <trkpt lat="46.57015" lon="6.02079">
        <ele>1006.64</ele>
        <time>2013-05-10T13:55:25Z</time>
      </trkpt>
      <trkpt lat="46.56989" lon="6.02133">
        <ele>1007.6</ele>
        <time>2013-05-10T13:55:39Z</time>
      </trkpt>
      <trkpt lat="46.56973" lon="6.02176">
        <ele>1006.64</ele>
        <time>2013-05-10T13:55:50Z</time>
      </trkpt>
      <trkpt lat="46.5697" lon="6.02202">
        <ele>1006.16</ele>
        <time>2013-05-10T13:55:56Z</time>
      </trkpt>
      <trkpt lat="46.56958" lon="6.02238">
        <ele>1006.64</ele>
        <time>2013-05-10T13:56:09Z</time>
      </trkpt>
      <trkpt lat="46.56958" lon="6.02241">
        <ele>1006.64</ele>
        <time>2013-05-10T13:56:10Z</time>
      </trkpt>
      <trkpt lat="46.56957" lon="6.02244">
        <ele>1006.64</ele>
        <time>2013-05-10T13:56:11Z</time>
      </trkpt>
      <trkpt lat="46.56957" lon="6.02247">
        <ele>1008.08</ele>
        <time>2013-05-10T13:56:12Z</time>
      </trkpt>
      <trkpt lat="46.56956" lon="6.0225">
        <ele>1006.64</ele>
        <time>2013-05-10T13:56:13Z</time>
      </trkpt>
      <trkpt lat="46.56955" lon="6.02254">
        <ele>1006.16</ele>
        <time>2013-05-10T13:56:14Z</time>
      </trkpt>
      <trkpt lat="46.56953" lon="6.02264">
        <ele>1005.68</ele>
        <time>2013-05-10T13:56:16Z</time>
      </trkpt>
      <trkpt lat="46.56952" lon="6.0227">
        <ele>1005.2</ele>
        <time>2013-05-10T13:56:17Z</time>
      </trkpt>
      <trkpt lat="46.56952" lon="6.02277">
        <ele>1004.72</ele>
        <time>2013-05-10T13:56:18Z</time>
      </trkpt>
      <trkpt lat="46.56951" lon="6.02284">
        <ele>1004.23</ele>
        <time>2013-05-10T13:56:19Z</time>
      </trkpt>
      <trkpt lat="46.56951" lon="6.02291">
        <ele>1004.23</ele>
        <time>2013-05-10T13:56:20Z</time>
      </trkpt>
      <trkpt lat="46.56951" lon="6.02298">
        <ele>1003.75</ele>
        <time>2013-05-10T13:56:21Z</time>
      </trkpt>
      <trkpt lat="46.56944" lon="6.02336">
        <ele>1002.31</ele>
        <time>2013-05-10T13:56:31Z</time>
      </trkpt>
      <trkpt lat="46.56941" lon="6.0235">
        <ele>1000.87</ele>
        <time>2013-05-10T13:56:34Z</time>
      </trkpt>
      <trkpt lat="46.56948" lon="6.02407">
        <ele>997.02</ele>
        <time>2013-05-10T13:56:44Z</time>
      </trkpt>
      <trkpt lat="46.56958" lon="6.02474">
        <ele>997.02</ele>
        <time>2013-05-10T13:56:56Z</time>
      </trkpt>
      <trkpt lat="46.56959" lon="6.02486">
        <ele>997.02</ele>
        <time>2013-05-10T13:56:58Z</time>
      </trkpt>
      <trkpt lat="46.5696" lon="6.02493">
        <ele>1000.39</ele>
        <time>2013-05-10T13:56:59Z</time>
      </trkpt>
      <trkpt lat="46.56961" lon="6.02499">
        <ele>997.02</ele>
        <time>2013-05-10T13:57:00Z</time>
      </trkpt>
      <trkpt lat="46.56978" lon="6.02591">
        <ele>993.66</ele>
        <time>2013-05-10T13:57:11Z</time>
      </trkpt>
      <trkpt lat="46.56989" lon="6.02646">
        <ele>991.26</ele>
        <time>2013-05-10T13:57:17Z</time>
      </trkpt>
      <trkpt lat="46.57" lon="6.02694">
        <ele>988.37</ele>
        <time>2013-05-10T13:57:22Z</time>
      </trkpt>
      <trkpt lat="46.57002" lon="6.02703">
        <ele>988.37</ele>
        <time>2013-05-10T13:57:23Z</time>
      </trkpt>
      <trkpt lat="46.57012" lon="6.02744">
        <ele>987.41</ele>
        <time>2013-05-10T13:57:28Z</time>
      </trkpt>
      <trkpt lat="46.57026" lon="6.02819">
        <ele>985.01</ele>
        <time>2013-05-10T13:57:40Z</time>
      </trkpt>
      <trkpt lat="46.57041" lon="6.02896">
        <ele>983.57</ele>
        <time>2013-05-10T13:57:53Z</time>
      </trkpt>
      <trkpt lat="46.57043" lon="6.02899">
        <ele>984.05</ele>
        <time>2013-05-10T13:57:54Z</time>
      </trkpt>
      <trkpt lat="46.57046" lon="6.02901">
        <ele>984.05</ele>
        <time>2013-05-10T13:57:55Z</time>
      </trkpt>
      <trkpt lat="46.57048" lon="6.02903">
        <ele>984.05</ele>
        <time>2013-05-10T13:57:56Z</time>
      </trkpt>
      <trkpt lat="46.57052" lon="6.02904">
        <ele>984.53</ele>
        <time>2013-05-10T13:57:57Z</time>
      </trkpt>
      <trkpt lat="46.57055" lon="6.02904">
        <ele>985.01</ele>
        <time>2013-05-10T13:57:58Z</time>
      </trkpt>
      <trkpt lat="46.57095" lon="6.02917">
        <ele>987.41</ele>
        <time>2013-05-10T13:58:13Z</time>
      </trkpt>
      <trkpt lat="46.57098" lon="6.02922">
        <ele>988.37</ele>
        <time>2013-05-10T13:58:15Z</time>
      </trkpt>
      <trkpt lat="46.57116" lon="6.02956">
        <ele>990.3</ele>
        <time>2013-05-10T13:58:28Z</time>
      </trkpt>
      <trkpt lat="46.57134" lon="6.02975">
        <ele>993.18</ele>
        <time>2013-05-10T13:58:40Z</time>
      </trkpt>
      <trkpt lat="46.5716" lon="6.02999">
        <ele>995.58</ele>
        <time>2013-05-10T13:58:56Z</time>
      </trkpt>
      <trkpt lat="46.57166" lon="6.03002">
        <ele>996.06</ele>
        <time>2013-05-10T13:58:59Z</time>
      </trkpt>
      <trkpt lat="46.57171" lon="6.03001">
        <ele>997.02</ele>
        <time>2013-05-10T13:59:02Z</time>
      </trkpt>
      <trkpt lat="46.57173" lon="6.03002">
        <ele>997.02</ele>
        <time>2013-05-10T13:59:03Z</time>
      </trkpt>
      <trkpt lat="46.57174" lon="6.03003">
        <ele>997.51</ele>
        <time>2013-05-10T13:59:04Z</time>
      </trkpt>
      <trkpt lat="46.57175" lon="6.03003">
        <ele>997.51</ele>
        <time>2013-05-10T13:59:05Z</time>
      </trkpt>
      <trkpt lat="46.57177" lon="6.03004">
        <ele>997.51</ele>
        <time>2013-05-10T13:59:06Z</time>
      </trkpt>
      <trkpt lat="46.57179" lon="6.03004">
        <ele>997.99</ele>
        <time>2013-05-10T13:59:07Z</time>
      </trkpt>
      <trkpt lat="46.57207" lon="6.03013">
        <ele>1000.87</ele>
        <time>2013-05-10T13:59:23Z</time>
      </trkpt>
      <trkpt lat="46.57236" lon="6.03024">
        <ele>1003.75</ele>
        <time>2013-05-10T13:59:37Z</time>
      </trkpt>
      <trkpt lat="46.57266" lon="6.03051">
        <ele>1005.2</ele>
        <time>2013-05-10T13:59:52Z</time>
      </trkpt>
      <trkpt lat="46.57276" lon="6.03088">
        <ele>1005.68</ele>
        <time>2013-05-10T14:00:03Z</time>
      </trkpt>
      <trkpt lat="46.57302" lon="6.03133">
        <ele>1007.12</ele>
        <time>2013-05-10T14:00:18Z</time>
      </trkpt>
      <trkpt lat="46.5732" lon="6.03161">
        <ele>1005.68</ele>
        <time>2013-05-10T14:00:26Z</time>
      </trkpt>
      <trkpt lat="46.57322" lon="6.03168">
        <ele>1005.2</ele>
        <time>2013-05-10T14:00:27Z</time>
      </trkpt>
      <trkpt lat="46.57323" lon="6.03176">
        <ele>1004.72</ele>
        <time>2013-05-10T14:00:28Z</time>
      </trkpt>
      <trkpt lat="46.57324" lon="6.03185">
        <ele>1004.23</ele>
        <time>2013-05-10T14:00:29Z</time>
      </trkpt>
      <trkpt lat="46.57323" lon="6.03194">
        <ele>1003.75</ele>
        <time>2013-05-10T14:00:30Z</time>
      </trkpt>
      <trkpt lat="46.57323" lon="6.03204">
        <ele>1003.27</ele>
        <time>2013-05-10T14:00:31Z</time>
      </trkpt>
      <trkpt lat="46.5732" lon="6.03236">
        <ele>1001.35</ele>
        <time>2013-05-10T14:00:34Z</time>
      </trkpt>
      <trkpt lat="46.57318" lon="6.03249">
        <ele>1000.39</ele>
        <time>2013-05-10T14:00:35Z</time>
      </trkpt>
      <trkpt lat="46.57311" lon="6.03295">
        <ele>997.51</ele>
        <time>2013-05-10T14:00:39Z</time>
      </trkpt>
      <trkpt lat="46.57307" lon="6.03338">
        <ele>996.54</ele>
        <time>2013-05-10T14:00:47Z</time>
      </trkpt>
      <trkpt lat="46.57324" lon="6.03384">
        <ele>995.1</ele>
        <time>2013-05-10T14:00:55Z</time>
      </trkpt>
      <trkpt lat="46.57352" lon="6.03445">
        <ele>995.58</ele>
        <time>2013-05-10T14:01:07Z</time>
      </trkpt>
      <trkpt lat="46.57382" lon="6.03521">
        <ele>993.66</ele>
        <time>2013-05-10T14:01:24Z</time>
      </trkpt>
      <trkpt lat="46.57383" lon="6.03526">
        <ele>999.91</ele>
        <time>2013-05-10T14:01:25Z</time>
      </trkpt>
      <trkpt lat="46.57384" lon="6.03531">
        <ele>998.95</ele>
        <time>2013-05-10T14:01:26Z</time>
      </trkpt>
      <trkpt lat="46.57384" lon="6.03535">
        <ele>995.58</ele>
        <time>2013-05-10T14:01:27Z</time>
      </trkpt>
      <trkpt lat="46.57385" lon="6.0354">
        <ele>997.02</ele>
        <time>2013-05-10T14:01:28Z</time>
      </trkpt>
      <trkpt lat="46.57391" lon="6.03602">
        <ele>997.02</ele>
        <time>2013-05-10T14:01:41Z</time>
      </trkpt>
      <trkpt lat="46.57412" lon="6.03662">
        <ele>998.47</ele>
        <time>2013-05-10T14:01:55Z</time>
      </trkpt>
      <trkpt lat="46.57413" lon="6.03682">
        <ele>995.1</ele>
        <time>2013-05-10T14:01:59Z</time>
      </trkpt>
      <trkpt lat="46.57413" lon="6.03687">
        <ele>1004.23</ele>
        <time>2013-05-10T14:02:00Z</time>
      </trkpt>
      <trkpt lat="46.57412" lon="6.03692">
        <ele>997.51</ele>
        <time>2013-05-10T14:02:01Z</time>
      </trkpt>
      <trkpt lat="46.57412" lon="6.03697">
        <ele>1001.35</ele>
        <time>2013-05-10T14:02:02Z</time>
      </trkpt>
      <trkpt lat="46.57411" lon="6.03712">
        <ele>999.91</ele>
        <time>2013-05-10T14:02:05Z</time>
      </trkpt>
      <trkpt lat="46.5741" lon="6.03722">
        <ele>1002.79</ele>
        <time>2013-05-10T14:02:07Z</time>
      </trkpt>
      <trkpt lat="46.57406" lon="6.03803">
        <ele>1002.31</ele>
        <time>2013-05-10T14:02:25Z</time>
      </trkpt>
      <trkpt lat="46.57416" lon="6.03877">
        <ele>1004.23</ele>
        <time>2013-05-10T14:02:42Z</time>
      </trkpt>
      <trkpt lat="46.57435" lon="6.0394">
        <ele>1006.64</ele>
        <time>2013-05-10T14:02:58Z</time>
      </trkpt>
      <trkpt lat="46.57455" lon="6.03999">
        <ele>1008.56</ele>
        <time>2013-05-10T14:03:12Z</time>
      </trkpt>
      <trkpt lat="46.57473" lon="6.04072">
        <ele>1010.48</ele>
        <time>2013-05-10T14:03:29Z</time>
      </trkpt>
      <trkpt lat="46.57471" lon="6.0414">
        <ele>1012.41</ele>
        <time>2013-05-10T14:03:44Z</time>
      </trkpt>
      <trkpt lat="46.57462" lon="6.04207">
        <ele>1013.85</ele>
        <time>2013-05-10T14:04:00Z</time>
      </trkpt>
      <trkpt lat="46.57461" lon="6.04267">
        <ele>1015.77</ele>
        <time>2013-05-10T14:04:16Z</time>
      </trkpt>
      <trkpt lat="46.57466" lon="6.04298">
        <ele>1016.25</ele>
        <time>2013-05-10T14:04:27Z</time>
      </trkpt>
      <trkpt lat="46.57466" lon="6.04346">
        <ele>1018.17</ele>
        <time>2013-05-10T14:04:41Z</time>
      </trkpt>
      <trkpt lat="46.57463" lon="6.04359">
        <ele>1018.65</ele>
        <time>2013-05-10T14:04:52Z</time>
      </trkpt>
      <trkpt lat="46.57463" lon="6.04361">
        <ele>1019.13</ele>
        <time>2013-05-10T14:05:05Z</time>
      </trkpt>
      <trkpt lat="46.57464" lon="6.04364">
        <ele>1019.13</ele>
        <time>2013-05-10T14:05:27Z</time>
      </trkpt>
      <trkpt lat="46.57464" lon="6.04402">
        <ele>1020.1</ele>
        <time>2013-05-10T14:05:39Z</time>
      </trkpt>
      <trkpt lat="46.57467" lon="6.04451">
        <ele>1021.54</ele>
        <time>2013-05-10T14:05:53Z</time>
      </trkpt>
      <trkpt lat="46.57471" lon="6.04506">
        <ele>1023.46</ele>
        <time>2013-05-10T14:06:07Z</time>
      </trkpt>
      <trkpt lat="46.57474" lon="6.04561">
        <ele>1024.9</ele>
        <time>2013-05-10T14:06:20Z</time>
      </trkpt>
      <trkpt lat="46.57489" lon="6.04595">
        <ele>1025.86</ele>
        <time>2013-05-10T14:06:32Z</time>
      </trkpt>
      <trkpt lat="46.57491" lon="6.04597">
        <ele>1026.34</ele>
        <time>2013-05-10T14:06:33Z</time>
      </trkpt>
      <trkpt lat="46.57492" lon="6.046">
        <ele>1026.34</ele>
        <time>2013-05-10T14:06:34Z</time>
      </trkpt>
      <trkpt lat="46.57494" lon="6.04603">
        <ele>1026.34</ele>
        <time>2013-05-10T14:06:35Z</time>
      </trkpt>
      <trkpt lat="46.57496" lon="6.04605">
        <ele>1026.83</ele>
        <time>2013-05-10T14:06:36Z</time>
      </trkpt>
      <trkpt lat="46.57498" lon="6.04608">
        <ele>1026.83</ele>
        <time>2013-05-10T14:06:37Z</time>
      </trkpt>
      <trkpt lat="46.57499" lon="6.04611">
        <ele>1026.83</ele>
        <time>2013-05-10T14:06:38Z</time>
      </trkpt>
      <trkpt lat="46.57501" lon="6.04613">
        <ele>1026.83</ele>
        <time>2013-05-10T14:06:39Z</time>
      </trkpt>
      <trkpt lat="46.57503" lon="6.04615">
        <ele>1026.83</ele>
        <time>2013-05-10T14:06:40Z</time>
      </trkpt>
      <trkpt lat="46.57522" lon="6.04661">
        <ele>1027.31</ele>
        <time>2013-05-10T14:06:53Z</time>
      </trkpt>
      <trkpt lat="46.57531" lon="6.04713">
        <ele>1026.34</ele>
        <time>2013-05-10T14:07:05Z</time>
      </trkpt>
      <trkpt lat="46.57533" lon="6.04782">
        <ele>1024.9</ele>
        <time>2013-05-10T14:07:18Z</time>
      </trkpt>
      <trkpt lat="46.57532" lon="6.04788">
        <ele>1024.9</ele>
        <time>2013-05-10T14:07:19Z</time>
      </trkpt>
      <trkpt lat="46.57532" lon="6.04794">
        <ele>1024.9</ele>
        <time>2013-05-10T14:07:20Z</time>
      </trkpt>
      <trkpt lat="46.57532" lon="6.048">
        <ele>1024.42</ele>
        <time>2013-05-10T14:07:21Z</time>
      </trkpt>
      <trkpt lat="46.57523" lon="6.04873">
        <ele>1025.38</ele>
        <time>2013-05-10T14:07:35Z</time>
      </trkpt>
      <trkpt lat="46.57515" lon="6.04935">
        <ele>1024.42</ele>
        <time>2013-05-10T14:07:47Z</time>
      </trkpt>
      <trkpt lat="46.57515" lon="6.04935">
        <ele>1024.42</ele>
        <time>2013-05-10T14:08:02Z</time>
      </trkpt>
      <trkpt lat="46.57515" lon="6.04939">
        <ele>1024.42</ele>
        <time>2013-05-10T14:08:17Z</time>
      </trkpt>
      <trkpt lat="46.57515" lon="6.04939">
        <ele>1024.42</ele>
        <time>2013-05-10T14:08:46Z</time>
      </trkpt>
      <trkpt lat="46.57516" lon="6.04941">
        <ele>1023.94</ele>
        <time>2013-05-10T14:09:06Z</time>
      </trkpt>
      <trkpt lat="46.57517" lon="6.04942">
        <ele>1023.94</ele>
        <time>2013-05-10T14:09:07Z</time>
      </trkpt>
      <trkpt lat="46.57539" lon="6.04965">
        <ele>1024.9</ele>
        <time>2013-05-10T14:09:20Z</time>
      </trkpt>
      <trkpt lat="46.57566" lon="6.04994">
        <ele>1026.83</ele>
        <time>2013-05-10T14:09:35Z</time>
      </trkpt>
      <trkpt lat="46.57592" lon="6.0503">
        <ele>1028.27</ele>
        <time>2013-05-10T14:09:50Z</time>
      </trkpt>
      <trkpt lat="46.57616" lon="6.05057">
        <ele>1029.71</ele>
        <time>2013-05-10T14:10:04Z</time>
      </trkpt>
      <trkpt lat="46.57618" lon="6.05055">
        <ele>1029.71</ele>
        <time>2013-05-10T14:10:05Z</time>
      </trkpt>
      <trkpt lat="46.5762" lon="6.05054">
        <ele>1030.19</ele>
        <time>2013-05-10T14:10:06Z</time>
      </trkpt>
      <trkpt lat="46.57633" lon="6.05022">
        <ele>1032.59</ele>
        <time>2013-05-10T14:10:20Z</time>
      </trkpt>
      <trkpt lat="46.57639" lon="6.04981">
        <ele>1032.59</ele>
        <time>2013-05-10T14:10:33Z</time>
      </trkpt>
      <trkpt lat="46.57649" lon="6.04939">
        <ele>1031.63</ele>
        <time>2013-05-10T14:10:44Z</time>
      </trkpt>
      <trkpt lat="46.57651" lon="6.0489">
        <ele>1034.04</ele>
        <time>2013-05-10T14:10:57Z</time>
      </trkpt>
      <trkpt lat="46.57648" lon="6.04848">
        <ele>1035.96</ele>
        <time>2013-05-10T14:11:09Z</time>
      </trkpt>
      <trkpt lat="46.57657" lon="6.04825">
        <ele>1035.96</ele>
        <time>2013-05-10T14:11:17Z</time>
      </trkpt>
      <trkpt lat="46.57656" lon="6.04822">
        <ele>1036.44</ele>
        <time>2013-05-10T14:11:18Z</time>
      </trkpt>
      <trkpt lat="46.57655" lon="6.04818">
        <ele>1035.96</ele>
        <time>2013-05-10T14:11:19Z</time>
      </trkpt>
      <trkpt lat="46.57654" lon="6.04814">
        <ele>1035.96</ele>
        <time>2013-05-10T14:11:20Z</time>
      </trkpt>
      <trkpt lat="46.57653" lon="6.0481">
        <ele>1035.96</ele>
        <time>2013-05-10T14:11:21Z</time>
      </trkpt>
      <trkpt lat="46.57653" lon="6.04805">
        <ele>1035.96</ele>
        <time>2013-05-10T14:11:22Z</time>
      </trkpt>
      <trkpt lat="46.57654" lon="6.04802">
        <ele>1035.96</ele>
        <time>2013-05-10T14:11:23Z</time>
      </trkpt>
      <trkpt lat="46.57655" lon="6.04798">
        <ele>1035.96</ele>
        <time>2013-05-10T14:11:24Z</time>
      </trkpt>
      <trkpt lat="46.57667" lon="6.04767">
        <ele>1034.04</ele>
        <time>2013-05-10T14:11:30Z</time>
      </trkpt>
      <trkpt lat="46.5767" lon="6.04762">
        <ele>1034.04</ele>
        <time>2013-05-10T14:11:31Z</time>
      </trkpt>
      <trkpt lat="46.57685" lon="6.04744">
        <ele>1033.55</ele>
        <time>2013-05-10T14:11:35Z</time>
      </trkpt>
      <trkpt lat="46.57688" lon="6.04741">
        <ele>1033.55</ele>
        <time>2013-05-10T14:11:36Z</time>
      </trkpt>
      <trkpt lat="46.57692" lon="6.04739">
        <ele>1033.55</ele>
        <time>2013-05-10T14:11:37Z</time>
      </trkpt>
      <trkpt lat="46.57696" lon="6.04739">
        <ele>1033.55</ele>
        <time>2013-05-10T14:11:38Z</time>
      </trkpt>
      <trkpt lat="46.57699" lon="6.04742">
        <ele>1033.07</ele>
        <time>2013-05-10T14:11:39Z</time>
      </trkpt>
      <trkpt lat="46.57701" lon="6.04745">
        <ele>1033.55</ele>
        <time>2013-05-10T14:11:40Z</time>
      </trkpt>
      <trkpt lat="46.57702" lon="6.04749">
        <ele>1033.55</ele>
        <time>2013-05-10T14:11:41Z</time>
      </trkpt>
      <trkpt lat="46.57703" lon="6.04753">
        <ele>1033.55</ele>
        <time>2013-05-10T14:11:42Z</time>
      </trkpt>
      <trkpt lat="46.57721" lon="6.04814">
        <ele>1035.96</ele>
        <time>2013-05-10T14:11:58Z</time>
      </trkpt>
      <trkpt lat="46.57742" lon="6.04872">
        <ele>1037.88</ele>
        <time>2013-05-10T14:12:14Z</time>
      </trkpt>
      <trkpt lat="46.5776" lon="6.04929">
        <ele>1040.28</ele>
        <time>2013-05-10T14:12:29Z</time>
      </trkpt>
      <trkpt lat="46.57781" lon="6.04999">
        <ele>1041.73</ele>
        <time>2013-05-10T14:12:46Z</time>
      </trkpt>
      <trkpt lat="46.57806" lon="6.05064">
        <ele>1045.09</ele>
        <time>2013-05-10T14:13:04Z</time>
      </trkpt>
      <trkpt lat="46.57802" lon="6.05114">
        <ele>1047.49</ele>
        <time>2013-05-10T14:13:16Z</time>
      </trkpt>
      <trkpt lat="46.578" lon="6.05189">
        <ele>1050.38</ele>
        <time>2013-05-10T14:13:34Z</time>
      </trkpt>
      <trkpt lat="46.57823" lon="6.05234">
        <ele>1051.34</ele>
        <time>2013-05-10T14:13:48Z</time>
      </trkpt>
      <trkpt lat="46.5783" lon="6.05237">
        <ele>1050.86</ele>
        <time>2013-05-10T14:13:50Z</time>
      </trkpt>
      <trkpt lat="46.57835" lon="6.05239">
        <ele>1050.86</ele>
        <time>2013-05-10T14:13:51Z</time>
      </trkpt>
      <trkpt lat="46.57878" lon="6.05264">
        <ele>1051.34</ele>
        <time>2013-05-10T14:14:04Z</time>
      </trkpt>
      <trkpt lat="46.57889" lon="6.0529">
        <ele>1050.86</ele>
        <time>2013-05-10T14:14:16Z</time>
      </trkpt>
      <trkpt lat="46.5789" lon="6.0533">
        <ele>1051.82</ele>
        <time>2013-05-10T14:14:28Z</time>
      </trkpt>
      <trkpt lat="46.5789" lon="6.05368">
        <ele>1053.74</ele>
        <time>2013-05-10T14:14:40Z</time>
      </trkpt>
      <trkpt lat="46.57889" lon="6.0537">
        <ele>1053.74</ele>
        <time>2013-05-10T14:14:41Z</time>
      </trkpt>
      <trkpt lat="46.57871" lon="6.05397">
        <ele>1051.82</ele>
        <time>2013-05-10T14:14:52Z</time>
      </trkpt>
      <trkpt lat="46.57858" lon="6.05408">
        <ele>1050.38</ele>
        <time>2013-05-10T14:14:56Z</time>
      </trkpt>
      <trkpt lat="46.57854" lon="6.05412">
        <ele>1050.38</ele>
        <time>2013-05-10T14:14:57Z</time>
      </trkpt>
      <trkpt lat="46.57828" lon="6.05453">
        <ele>1048.94</ele>
        <time>2013-05-10T14:15:07Z</time>
      </trkpt>
      <trkpt lat="46.57828" lon="6.05464">
        <ele>1049.42</ele>
        <time>2013-05-10T14:15:19Z</time>
      </trkpt>
      <trkpt lat="46.5783" lon="6.05471">
        <ele>1049.42</ele>
        <time>2013-05-10T14:15:24Z</time>
      </trkpt>
      <trkpt lat="46.5783" lon="6.05475">
        <ele>1049.42</ele>
        <time>2013-05-10T14:15:26Z</time>
      </trkpt>
      <trkpt lat="46.57829" lon="6.05484">
        <ele>1049.42</ele>
        <time>2013-05-10T14:15:35Z</time>
      </trkpt>
      <trkpt lat="46.57828" lon="6.05485">
        <ele>1049.42</ele>
        <time>2013-05-10T14:15:36Z</time>
      </trkpt>
      <trkpt lat="46.57827" lon="6.05487">
        <ele>1049.42</ele>
        <time>2013-05-10T14:15:37Z</time>
      </trkpt>
      <trkpt lat="46.57827" lon="6.0549">
        <ele>1049.42</ele>
        <time>2013-05-10T14:15:38Z</time>
      </trkpt>
      <trkpt lat="46.57827" lon="6.05493">
        <ele>1049.42</ele>
        <time>2013-05-10T14:15:39Z</time>
      </trkpt>
      <trkpt lat="46.57828" lon="6.05506">
        <ele>1049.9</ele>
        <time>2013-05-10T14:15:44Z</time>
      </trkpt>
      <trkpt lat="46.57827" lon="6.05508">
        <ele>1050.38</ele>
        <time>2013-05-10T14:15:45Z</time>
      </trkpt>
      <trkpt lat="46.57826" lon="6.05536">
        <ele>1050.86</ele>
        <time>2013-05-10T14:15:55Z</time>
      </trkpt>
      <trkpt lat="46.57829" lon="6.05542">
        <ele>1050.86</ele>
        <time>2013-05-10T14:15:58Z</time>
      </trkpt>
      <trkpt lat="46.57831" lon="6.05554">
        <ele>1051.34</ele>
        <time>2013-05-10T14:16:02Z</time>
      </trkpt>
      <trkpt lat="46.57834" lon="6.0556">
        <ele>1052.3</ele>
        <time>2013-05-10T14:16:06Z</time>
      </trkpt>
      <trkpt lat="46.57835" lon="6.05562">
        <ele>1052.78</ele>
        <time>2013-05-10T14:16:07Z</time>
      </trkpt>
      <trkpt lat="46.57837" lon="6.05571">
        <ele>1053.26</ele>
        <time>2013-05-10T14:16:11Z</time>
      </trkpt>
      <trkpt lat="46.57844" lon="6.05578">
        <ele>1054.22</ele>
        <time>2013-05-10T14:16:17Z</time>
      </trkpt>
      <trkpt lat="46.5785" lon="6.05592">
        <ele>1055.67</ele>
        <time>2013-05-10T14:16:26Z</time>
      </trkpt>
      <trkpt lat="46.57853" lon="6.05595">
        <ele>1056.15</ele>
        <time>2013-05-10T14:16:28Z</time>
      </trkpt>
      <trkpt lat="46.5786" lon="6.05624">
        <ele>1057.11</ele>
        <time>2013-05-10T14:16:39Z</time>
      </trkpt>
      <trkpt lat="46.57862" lon="6.0563">
        <ele>1057.11</ele>
        <time>2013-05-10T14:16:42Z</time>
      </trkpt>
      <trkpt lat="46.57861" lon="6.05638">
        <ele>1057.59</ele>
        <time>2013-05-10T14:16:45Z</time>
      </trkpt>
      <trkpt lat="46.57862" lon="6.05647">
        <ele>1058.07</ele>
        <time>2013-05-10T14:16:50Z</time>
      </trkpt>
      <trkpt lat="46.57865" lon="6.05661">
        <ele>1059.03</ele>
        <time>2013-05-10T14:16:54Z</time>
      </trkpt>
      <trkpt lat="46.57867" lon="6.05674">
        <ele>1059.03</ele>
        <time>2013-05-10T14:16:57Z</time>
      </trkpt>
      <trkpt lat="46.57871" lon="6.05687">
        <ele>1059.51</ele>
        <time>2013-05-10T14:17:01Z</time>
      </trkpt>
      <trkpt lat="46.57881" lon="6.05706">
        <ele>1060.95</ele>
        <time>2013-05-10T14:17:10Z</time>
      </trkpt>
      <trkpt lat="46.57891" lon="6.05742">
        <ele>1062.39</ele>
        <time>2013-05-10T14:17:20Z</time>
      </trkpt>
      <trkpt lat="46.57894" lon="6.05763">
        <ele>1063.36</ele>
        <time>2013-05-10T14:17:27Z</time>
      </trkpt>
      <trkpt lat="46.57895" lon="6.05773">
        <ele>1064.32</ele>
        <time>2013-05-10T14:17:31Z</time>
      </trkpt>
      <trkpt lat="46.57901" lon="6.05803">
        <ele>1065.28</ele>
        <time>2013-05-10T14:17:40Z</time>
      </trkpt>
      <trkpt lat="46.57904" lon="6.05826">
        <ele>1065.76</ele>
        <time>2013-05-10T14:17:48Z</time>
      </trkpt>
      <trkpt lat="46.57904" lon="6.0584">
        <ele>1066.24</ele>
        <time>2013-05-10T14:17:53Z</time>
      </trkpt>
      <trkpt lat="46.57905" lon="6.05848">
        <ele>1067.2</ele>
        <time>2013-05-10T14:17:59Z</time>
      </trkpt>
      <trkpt lat="46.57907" lon="6.05884">
        <ele>1069.12</ele>
        <time>2013-05-10T14:18:10Z</time>
      </trkpt>
      <trkpt lat="46.57919" lon="6.05918">
        <ele>1068.64</ele>
        <time>2013-05-10T14:18:21Z</time>
      </trkpt>
      <trkpt lat="46.57929" lon="6.05938">
        <ele>1069.12</ele>
        <time>2013-05-10T14:18:36Z</time>
      </trkpt>
      <trkpt lat="46.57929" lon="6.05944">
        <ele>1069.6</ele>
        <time>2013-05-10T14:18:50Z</time>
      </trkpt>
      <trkpt lat="46.57934" lon="6.05951">
        <ele>1070.08</ele>
        <time>2013-05-10T14:18:59Z</time>
      </trkpt>
      <trkpt lat="46.57937" lon="6.05959">
        <ele>1071.05</ele>
        <time>2013-05-10T14:19:04Z</time>
      </trkpt>
      <trkpt lat="46.57942" lon="6.05969">
        <ele>1072.01</ele>
        <time>2013-05-10T14:19:10Z</time>
      </trkpt>
      <trkpt lat="46.57948" lon="6.05992">
        <ele>1073.93</ele>
        <time>2013-05-10T14:19:20Z</time>
      </trkpt>
      <trkpt lat="46.57961" lon="6.06008">
        <ele>1075.85</ele>
        <time>2013-05-10T14:19:32Z</time>
      </trkpt>
      <trkpt lat="46.57963" lon="6.0601">
        <ele>1076.33</ele>
        <time>2013-05-10T14:19:34Z</time>
      </trkpt>
      <trkpt lat="46.57968" lon="6.06016">
        <ele>1076.81</ele>
        <time>2013-05-10T14:19:38Z</time>
      </trkpt>
      <trkpt lat="46.57972" lon="6.06025">
        <ele>1077.29</ele>
        <time>2013-05-10T14:19:44Z</time>
      </trkpt>
      <trkpt lat="46.57983" lon="6.06047">
        <ele>1078.74</ele>
        <time>2013-05-10T14:19:53Z</time>
      </trkpt>
      <trkpt lat="46.57984" lon="6.06051">
        <ele>1079.22</ele>
        <time>2013-05-10T14:19:55Z</time>
      </trkpt>
      <trkpt lat="46.57986" lon="6.06055">
        <ele>1079.7</ele>
        <time>2013-05-10T14:19:58Z</time>
      </trkpt>
      <trkpt lat="46.57986" lon="6.06059">
        <ele>1080.18</ele>
        <time>2013-05-10T14:19:59Z</time>
      </trkpt>
      <trkpt lat="46.57987" lon="6.06065">
        <ele>1080.66</ele>
        <time>2013-05-10T14:20:02Z</time>
      </trkpt>
      <trkpt lat="46.57988" lon="6.06078">
        <ele>1081.62</ele>
        <time>2013-05-10T14:20:13Z</time>
      </trkpt>
      <trkpt lat="46.57991" lon="6.06091">
        <ele>1082.58</ele>
        <time>2013-05-10T14:20:19Z</time>
      </trkpt>
      <trkpt lat="46.5799" lon="6.06116">
        <ele>1084.5</ele>
        <time>2013-05-10T14:20:26Z</time>
      </trkpt>
      <trkpt lat="46.57991" lon="6.06141">
        <ele>1086.43</ele>
        <time>2013-05-10T14:20:34Z</time>
      </trkpt>
      <trkpt lat="46.57989" lon="6.06159">
        <ele>1086.91</ele>
        <time>2013-05-10T14:20:39Z</time>
      </trkpt>
      <trkpt lat="46.57978" lon="6.0619">
        <ele>1087.87</ele>
        <time>2013-05-10T14:20:51Z</time>
      </trkpt>
      <trkpt lat="46.57975" lon="6.06201">
        <ele>1088.35</ele>
        <time>2013-05-10T14:21:01Z</time>
      </trkpt>
      <trkpt lat="46.57965" lon="6.06215">
        <ele>1088.35</ele>
        <time>2013-05-10T14:21:14Z</time>
      </trkpt>
      <trkpt lat="46.57957" lon="6.06233">
        <ele>1088.35</ele>
        <time>2013-05-10T14:21:26Z</time>
      </trkpt>
      <trkpt lat="46.57954" lon="6.06241">
        <ele>1088.35</ele>
        <time>2013-05-10T14:21:36Z</time>
      </trkpt>
      <trkpt lat="46.57954" lon="6.06247">
        <ele>1088.83</ele>
        <time>2013-05-10T14:21:41Z</time>
      </trkpt>
      <trkpt lat="46.57954" lon="6.06267">
        <ele>1089.31</ele>
        <time>2013-05-10T14:21:47Z</time>
      </trkpt>
      <trkpt lat="46.57954" lon="6.06274">
        <ele>1089.79</ele>
        <time>2013-05-10T14:21:49Z</time>
      </trkpt>
      <trkpt lat="46.5796" lon="6.06295">
        <ele>1090.27</ele>
        <time>2013-05-10T14:21:56Z</time>
      </trkpt>
      <trkpt lat="46.57961" lon="6.063">
        <ele>1090.75</ele>
        <time>2013-05-10T14:21:58Z</time>
      </trkpt>
      <trkpt lat="46.57968" lon="6.06324">
        <ele>1091.23</ele>
        <time>2013-05-10T14:22:06Z</time>
      </trkpt>
      <trkpt lat="46.57972" lon="6.0635">
        <ele>1092.2</ele>
        <time>2013-05-10T14:22:15Z</time>
      </trkpt>
      <trkpt lat="46.5798" lon="6.06375">
        <ele>1092.68</ele>
        <time>2013-05-10T14:22:24Z</time>
      </trkpt>
      <trkpt lat="46.57983" lon="6.06418">
        <ele>1092.68</ele>
        <time>2013-05-10T14:22:36Z</time>
      </trkpt>
      <trkpt lat="46.57993" lon="6.06428">
        <ele>1093.16</ele>
        <time>2013-05-10T14:22:44Z</time>
      </trkpt>
      <trkpt lat="46.57994" lon="6.06429">
        <ele>1093.16</ele>
        <time>2013-05-10T14:22:45Z</time>
      </trkpt>
      <trkpt lat="46.58002" lon="6.06433">
        <ele>1093.16</ele>
        <time>2013-05-10T14:22:50Z</time>
      </trkpt>
      <trkpt lat="46.58012" lon="6.06431">
        <ele>1093.16</ele>
        <time>2013-05-10T14:23:04Z</time>
      </trkpt>
      <trkpt lat="46.58015" lon="6.06433">
        <ele>1093.16</ele>
        <time>2013-05-10T14:23:31Z</time>
      </trkpt>
      <trkpt lat="46.58016" lon="6.06435">
        <ele>1093.16</ele>
        <time>2013-05-10T14:23:43Z</time>
      </trkpt>
      <trkpt lat="46.58019" lon="6.06437">
        <ele>1093.64</ele>
        <time>2013-05-10T14:23:46Z</time>
      </trkpt>
      <trkpt lat="46.58021" lon="6.06439">
        <ele>1093.64</ele>
        <time>2013-05-10T14:23:48Z</time>
      </trkpt>
      <trkpt lat="46.58025" lon="6.06447">
        <ele>1093.64</ele>
        <time>2013-05-10T14:23:52Z</time>
      </trkpt>
      <trkpt lat="46.58028" lon="6.06459">
        <ele>1093.64</ele>
        <time>2013-05-10T14:24:00Z</time>
      </trkpt>
      <trkpt lat="46.58032" lon="6.06464">
        <ele>1093.64</ele>
        <time>2013-05-10T14:24:05Z</time>
      </trkpt>
      <trkpt lat="46.58036" lon="6.06473">
        <ele>1093.64</ele>
        <time>2013-05-10T14:24:16Z</time>
      </trkpt>
      <trkpt lat="46.58037" lon="6.06474">
        <ele>1093.64</ele>
        <time>2013-05-10T14:24:17Z</time>
      </trkpt>
      <trkpt lat="46.58049" lon="6.0649">
        <ele>1093.64</ele>
        <time>2013-05-10T14:24:26Z</time>
      </trkpt>
      <trkpt lat="46.5805" lon="6.06497">
        <ele>1093.64</ele>
        <time>2013-05-10T14:24:37Z</time>
      </trkpt>
      <trkpt lat="46.58053" lon="6.06512">
        <ele>1093.64</ele>
        <time>2013-05-10T14:24:49Z</time>
      </trkpt>
      <trkpt lat="46.58054" lon="6.06518">
        <ele>1093.64</ele>
        <time>2013-05-10T14:24:54Z</time>
      </trkpt>
      <trkpt lat="46.5806" lon="6.0654">
        <ele>1093.64</ele>
        <time>2013-05-10T14:25:06Z</time>
      </trkpt>
      <trkpt lat="46.58071" lon="6.06562">
        <ele>1094.12</ele>
        <time>2013-05-10T14:25:15Z</time>
      </trkpt>
      <trkpt lat="46.58087" lon="6.06584">
        <ele>1096.04</ele>
        <time>2013-05-10T14:25:26Z</time>
      </trkpt>
      <trkpt lat="46.58105" lon="6.06607">
        <ele>1098.92</ele>
        <time>2013-05-10T14:25:40Z</time>
      </trkpt>
      <trkpt lat="46.58109" lon="6.06612">
        <ele>1099.4</ele>
        <time>2013-05-10T14:25:43Z</time>
      </trkpt>
      <trkpt lat="46.58111" lon="6.0662">
        <ele>1099.89</ele>
        <time>2013-05-10T14:25:47Z</time>
      </trkpt>
      <trkpt lat="46.58116" lon="6.06636">
        <ele>1100.37</ele>
        <time>2013-05-10T14:25:53Z</time>
      </trkpt>
      <trkpt lat="46.58121" lon="6.06646">
        <ele>1100.85</ele>
        <time>2013-05-10T14:26:04Z</time>
      </trkpt>
      <trkpt lat="46.58122" lon="6.06648">
        <ele>1100.85</ele>
        <time>2013-05-10T14:26:17Z</time>
      </trkpt>
      <trkpt lat="46.58127" lon="6.06652">
        <ele>1100.85</ele>
        <time>2013-05-10T14:26:22Z</time>
      </trkpt>
      <trkpt lat="46.58134" lon="6.06659">
        <ele>1101.33</ele>
        <time>2013-05-10T14:26:36Z</time>
      </trkpt>
      <trkpt lat="46.58137" lon="6.06671">
        <ele>1101.33</ele>
        <time>2013-05-10T14:26:45Z</time>
      </trkpt>
      <trkpt lat="46.58137" lon="6.06673">
        <ele>1101.33</ele>
        <time>2013-05-10T14:26:57Z</time>
      </trkpt>
      <trkpt lat="46.58138" lon="6.06676">
        <ele>1101.81</ele>
        <time>2013-05-10T14:27:00Z</time>
      </trkpt>
      <trkpt lat="46.5814" lon="6.06686">
        <ele>1102.29</ele>
        <time>2013-05-10T14:27:10Z</time>
      </trkpt>
      <trkpt lat="46.58142" lon="6.06698">
        <ele>1102.77</ele>
        <time>2013-05-10T14:27:14Z</time>
      </trkpt>
      <trkpt lat="46.5815" lon="6.0673">
        <ele>1105.17</ele>
        <time>2013-05-10T14:27:25Z</time>
      </trkpt>
      <trkpt lat="46.58156" lon="6.06744">
        <ele>1106.61</ele>
        <time>2013-05-10T14:27:31Z</time>
      </trkpt>
      <trkpt lat="46.58161" lon="6.06762">
        <ele>1108.54</ele>
        <time>2013-05-10T14:27:38Z</time>
      </trkpt>
      <trkpt lat="46.58162" lon="6.06765">
        <ele>1109.02</ele>
        <time>2013-05-10T14:27:40Z</time>
      </trkpt>
      <trkpt lat="46.58166" lon="6.06776">
        <ele>1109.5</ele>
        <time>2013-05-10T14:27:46Z</time>
      </trkpt>
      <trkpt lat="46.58171" lon="6.06784">
        <ele>1110.46</ele>
        <time>2013-05-10T14:27:52Z</time>
      </trkpt>
      <trkpt lat="46.58183" lon="6.06807">
        <ele>1111.42</ele>
        <time>2013-05-10T14:28:05Z</time>
      </trkpt>
      <trkpt lat="46.58196" lon="6.06839">
        <ele>1110.46</ele>
        <time>2013-05-10T14:28:18Z</time>
      </trkpt>
      <trkpt lat="46.58196" lon="6.06844">
        <ele>1109.5</ele>
        <time>2013-05-10T14:28:21Z</time>
      </trkpt>
      <trkpt lat="46.58211" lon="6.0688">
        <ele>1109.5</ele>
        <time>2013-05-10T14:28:31Z</time>
      </trkpt>
      <trkpt lat="46.58215" lon="6.06892">
        <ele>1107.58</ele>
        <time>2013-05-10T14:28:34Z</time>
      </trkpt>
      <trkpt lat="46.58219" lon="6.0691">
        <ele>1106.61</ele>
        <time>2013-05-10T14:28:39Z</time>
      </trkpt>
      <trkpt lat="46.5822" lon="6.06921">
        <ele>1105.17</ele>
        <time>2013-05-10T14:28:42Z</time>
      </trkpt>
      <trkpt lat="46.5822" lon="6.06923">
        <ele>1104.69</ele>
        <time>2013-05-10T14:28:43Z</time>
      </trkpt>
      <trkpt lat="46.58219" lon="6.06958">
        <ele>1101.33</ele>
        <time>2013-05-10T14:28:53Z</time>
      </trkpt>
      <trkpt lat="46.58235" lon="6.06966">
        <ele>1094.6</ele>
        <time>2013-05-10T14:29:03Z</time>
      </trkpt>
      <trkpt lat="46.58237" lon="6.06966">
        <ele>1101.33</ele>
        <time>2013-05-10T14:29:04Z</time>
      </trkpt>
      <trkpt lat="46.58256" lon="6.06974">
        <ele>1099.4</ele>
        <time>2013-05-10T14:29:13Z</time>
      </trkpt>
      <trkpt lat="46.58272" lon="6.06971">
        <ele>1098.44</ele>
        <time>2013-05-10T14:29:19Z</time>
      </trkpt>
      <trkpt lat="46.58282" lon="6.0697">
        <ele>1097.48</ele>
        <time>2013-05-10T14:29:34Z</time>
      </trkpt>
      <trkpt lat="46.58286" lon="6.0697">
        <ele>1097</ele>
        <time>2013-05-10T14:29:46Z</time>
      </trkpt>
      <trkpt lat="46.5829" lon="6.06973">
        <ele>1096.52</ele>
        <time>2013-05-10T14:29:52Z</time>
      </trkpt>
      <trkpt lat="46.58304" lon="6.06979">
        <ele>1095.56</ele>
        <time>2013-05-10T14:30:04Z</time>
      </trkpt>
      <trkpt lat="46.58313" lon="6.06981">
        <ele>1094.6</ele>
        <time>2013-05-10T14:30:15Z</time>
      </trkpt>
      <trkpt lat="46.58317" lon="6.06982">
        <ele>1094.6</ele>
        <time>2013-05-10T14:30:20Z</time>
      </trkpt>
      <trkpt lat="46.58324" lon="6.06993">
        <ele>1094.12</ele>
        <time>2013-05-10T14:30:31Z</time>
      </trkpt>
      <trkpt lat="46.58324" lon="6.06993">
        <ele>1095.56</ele>
        <time>2013-05-10T14:30:32Z</time>
      </trkpt>
      <trkpt lat="46.58324" lon="6.06993">
        <ele>1094.6</ele>
        <time>2013-05-10T14:30:33Z</time>
      </trkpt>
      <trkpt lat="46.58328" lon="6.06993">
        <ele>1094.12</ele>
        <time>2013-05-10T14:30:44Z</time>
      </trkpt>
      <trkpt lat="46.58328" lon="6.06993">
        <ele>1094.6</ele>
        <time>2013-05-10T14:31:14Z</time>
      </trkpt>
      <trkpt lat="46.58337" lon="6.06997">
        <ele>1095.08</ele>
        <time>2013-05-10T14:31:28Z</time>
      </trkpt>
      <trkpt lat="46.5834" lon="6.07">
        <ele>1094.6</ele>
        <time>2013-05-10T14:31:41Z</time>
      </trkpt>
      <trkpt lat="46.58343" lon="6.0702">
        <ele>1094.12</ele>
        <time>2013-05-10T14:31:49Z</time>
      </trkpt>
      <trkpt lat="46.58344" lon="6.07026">
        <ele>1093.64</ele>
        <time>2013-05-10T14:31:52Z</time>
      </trkpt>
      <trkpt lat="46.58346" lon="6.07032">
        <ele>1093.64</ele>
        <time>2013-05-10T14:31:56Z</time>
      </trkpt>
      <trkpt lat="46.58352" lon="6.07041">
        <ele>1092.68</ele>
        <time>2013-05-10T14:32:05Z</time>
      </trkpt>
      <trkpt lat="46.58366" lon="6.07047">
        <ele>1092.68</ele>
        <time>2013-05-10T14:32:16Z</time>
      </trkpt>
      <trkpt lat="46.5837" lon="6.07051">
        <ele>1092.68</ele>
        <time>2013-05-10T14:32:20Z</time>
      </trkpt>
      <trkpt lat="46.58374" lon="6.07048">
        <ele>1092.68</ele>
        <time>2013-05-10T14:32:23Z</time>
      </trkpt>
      <trkpt lat="46.58383" lon="6.0705">
        <ele>1092.68</ele>
        <time>2013-05-10T14:32:28Z</time>
      </trkpt>
      <trkpt lat="46.58388" lon="6.07051">
        <ele>1092.68</ele>
        <time>2013-05-10T14:32:31Z</time>
      </trkpt>
      <trkpt lat="46.58405" lon="6.07052">
        <ele>1093.16</ele>
        <time>2013-05-10T14:32:41Z</time>
      </trkpt>
      <trkpt lat="46.58408" lon="6.07054">
        <ele>1093.64</ele>
        <time>2013-05-10T14:32:55Z</time>
      </trkpt>
      <trkpt lat="46.58408" lon="6.07057">
        <ele>1094.12</ele>
        <time>2013-05-10T14:33:05Z</time>
      </trkpt>
      <trkpt lat="46.58414" lon="6.07087">
        <ele>1094.6</ele>
        <time>2013-05-10T14:33:17Z</time>
      </trkpt>
      <trkpt lat="46.58417" lon="6.07124">
        <ele>1095.56</ele>
        <time>2013-05-10T14:33:27Z</time>
      </trkpt>
      <trkpt lat="46.58421" lon="6.07187">
        <ele>1096.04</ele>
        <time>2013-05-10T14:33:40Z</time>
      </trkpt>
      <trkpt lat="46.58423" lon="6.07251">
        <ele>1097</ele>
        <time>2013-05-10T14:33:53Z</time>
      </trkpt>
      <trkpt lat="46.58425" lon="6.07263">
        <ele>1097</ele>
        <time>2013-05-10T14:33:57Z</time>
      </trkpt>
      <trkpt lat="46.58427" lon="6.07269">
        <ele>1097</ele>
        <time>2013-05-10T14:34:11Z</time>
      </trkpt>
      <trkpt lat="46.58441" lon="6.07292">
        <ele>1094.12</ele>
        <time>2013-05-10T14:34:20Z</time>
      </trkpt>
      <trkpt lat="46.58444" lon="6.07298">
        <ele>1093.64</ele>
        <time>2013-05-10T14:34:21Z</time>
      </trkpt>
      <trkpt lat="46.58445" lon="6.07303">
        <ele>1093.16</ele>
        <time>2013-05-10T14:34:22Z</time>
      </trkpt>
      <trkpt lat="46.58445" lon="6.07309">
        <ele>1092.68</ele>
        <time>2013-05-10T14:34:23Z</time>
      </trkpt>
      <trkpt lat="46.58447" lon="6.07346">
        <ele>1092.2</ele>
        <time>2013-05-10T14:34:32Z</time>
      </trkpt>
      <trkpt lat="46.58456" lon="6.07374">
        <ele>1093.16</ele>
        <time>2013-05-10T14:34:43Z</time>
      </trkpt>
      <trkpt lat="46.58457" lon="6.07375">
        <ele>1093.16</ele>
        <time>2013-05-10T14:34:44Z</time>
      </trkpt>
      <trkpt lat="46.58469" lon="6.07407">
        <ele>1093.16</ele>
        <time>2013-05-10T14:34:56Z</time>
      </trkpt>
      <trkpt lat="46.58478" lon="6.07445">
        <ele>1092.68</ele>
        <time>2013-05-10T14:35:06Z</time>
      </trkpt>
      <trkpt lat="46.58479" lon="6.07449">
        <ele>1092.68</ele>
        <time>2013-05-10T14:35:07Z</time>
      </trkpt>
      <trkpt lat="46.58481" lon="6.07452">
        <ele>1093.16</ele>
        <time>2013-05-10T14:35:08Z</time>
      </trkpt>
      <trkpt lat="46.58495" lon="6.07479">
        <ele>1094.12</ele>
        <time>2013-05-10T14:35:17Z</time>
      </trkpt>
      <trkpt lat="46.58496" lon="6.07482">
        <ele>1094.12</ele>
        <time>2013-05-10T14:35:18Z</time>
      </trkpt>
      <trkpt lat="46.58497" lon="6.07484">
        <ele>1094.12</ele>
        <time>2013-05-10T14:35:19Z</time>
      </trkpt>
      <trkpt lat="46.58499" lon="6.07486">
        <ele>1094.6</ele>
        <time>2013-05-10T14:35:20Z</time>
      </trkpt>
      <trkpt lat="46.58501" lon="6.07488">
        <ele>1094.6</ele>
        <time>2013-05-10T14:35:21Z</time>
      </trkpt>
      <trkpt lat="46.58503" lon="6.07489">
        <ele>1094.6</ele>
        <time>2013-05-10T14:35:22Z</time>
      </trkpt>
      <trkpt lat="46.58504" lon="6.0749">
        <ele>1094.6</ele>
        <time>2013-05-10T14:35:23Z</time>
      </trkpt>
      <trkpt lat="46.58509" lon="6.07493">
        <ele>1095.08</ele>
        <time>2013-05-10T14:35:28Z</time>
      </trkpt>
      <trkpt lat="46.58526" lon="6.07506">
        <ele>1095.08</ele>
        <time>2013-05-10T14:35:36Z</time>
      </trkpt>
      <trkpt lat="46.58539" lon="6.07522">
        <ele>1095.08</ele>
        <time>2013-05-10T14:35:47Z</time>
      </trkpt>
      <trkpt lat="46.5854" lon="6.07524">
        <ele>1095.08</ele>
        <time>2013-05-10T14:35:48Z</time>
      </trkpt>
      <trkpt lat="46.58546" lon="6.07542">
        <ele>1095.08</ele>
        <time>2013-05-10T14:36:01Z</time>
      </trkpt>
      <trkpt lat="46.58547" lon="6.07545">
        <ele>1095.08</ele>
        <time>2013-05-10T14:36:02Z</time>
      </trkpt>
      <trkpt lat="46.58549" lon="6.07547">
        <ele>1095.08</ele>
        <time>2013-05-10T14:36:03Z</time>
      </trkpt>
      <trkpt lat="46.5855" lon="6.0755">
        <ele>1095.08</ele>
        <time>2013-05-10T14:36:04Z</time>
      </trkpt>
      <trkpt lat="46.58551" lon="6.07553">
        <ele>1095.08</ele>
        <time>2013-05-10T14:36:05Z</time>
      </trkpt>
      <trkpt lat="46.58552" lon="6.07556">
        <ele>1095.08</ele>
        <time>2013-05-10T14:36:06Z</time>
      </trkpt>
      <trkpt lat="46.58553" lon="6.07558">
        <ele>1095.08</ele>
        <time>2013-05-10T14:36:07Z</time>
      </trkpt>
      <trkpt lat="46.58555" lon="6.0756">
        <ele>1095.56</ele>
        <time>2013-05-10T14:36:08Z</time>
      </trkpt>
      <trkpt lat="46.58561" lon="6.07565">
        <ele>1095.56</ele>
        <time>2013-05-10T14:36:12Z</time>
      </trkpt>
      <trkpt lat="46.58562" lon="6.07567">
        <ele>1096.04</ele>
        <time>2013-05-10T14:36:13Z</time>
      </trkpt>
      <trkpt lat="46.58564" lon="6.07569">
        <ele>1096.04</ele>
        <time>2013-05-10T14:36:14Z</time>
      </trkpt>
      <trkpt lat="46.58565" lon="6.07571">
        <ele>1096.52</ele>
        <time>2013-05-10T14:36:15Z</time>
      </trkpt>
      <trkpt lat="46.58567" lon="6.07574">
        <ele>1096.52</ele>
        <time>2013-05-10T14:36:16Z</time>
      </trkpt>
      <trkpt lat="46.58568" lon="6.07576">
        <ele>1096.52</ele>
        <time>2013-05-10T14:36:17Z</time>
      </trkpt>
      <trkpt lat="46.58569" lon="6.07578">
        <ele>1096.52</ele>
        <time>2013-05-10T14:36:18Z</time>
      </trkpt>
      <trkpt lat="46.5857" lon="6.07581">
        <ele>1096.52</ele>
        <time>2013-05-10T14:36:19Z</time>
      </trkpt>
      <trkpt lat="46.58572" lon="6.07583">
        <ele>1096.52</ele>
        <time>2013-05-10T14:36:20Z</time>
      </trkpt>
      <trkpt lat="46.58573" lon="6.07586">
        <ele>1096.52</ele>
        <time>2013-05-10T14:36:21Z</time>
      </trkpt>
      <trkpt lat="46.58574" lon="6.07588">
        <ele>1096.52</ele>
        <time>2013-05-10T14:36:22Z</time>
      </trkpt>
      <trkpt lat="46.58575" lon="6.0759">
        <ele>1097</ele>
        <time>2013-05-10T14:36:23Z</time>
      </trkpt>
      <trkpt lat="46.58576" lon="6.07593">
        <ele>1097</ele>
        <time>2013-05-10T14:36:24Z</time>
      </trkpt>
      <trkpt lat="46.58577" lon="6.07596">
        <ele>1097</ele>
        <time>2013-05-10T14:36:25Z</time>
      </trkpt>
      <trkpt lat="46.58578" lon="6.07598">
        <ele>1097</ele>
        <time>2013-05-10T14:36:26Z</time>
      </trkpt>
      <trkpt lat="46.58579" lon="6.07601">
        <ele>1097</ele>
        <time>2013-05-10T14:36:27Z</time>
      </trkpt>
      <trkpt lat="46.58584" lon="6.07632">
        <ele>1097.96</ele>
        <time>2013-05-10T14:36:37Z</time>
      </trkpt>
      <trkpt lat="46.58586" lon="6.07641">
        <ele>1097.96</ele>
        <time>2013-05-10T14:36:40Z</time>
      </trkpt>
      <trkpt lat="46.58596" lon="6.0767">
        <ele>1098.44</ele>
        <time>2013-05-10T14:36:49Z</time>
      </trkpt>
      <trkpt lat="46.58608" lon="6.07701">
        <ele>1098.92</ele>
        <time>2013-05-10T14:37:01Z</time>
      </trkpt>
      <trkpt lat="46.58624" lon="6.07729">
        <ele>1098.92</ele>
        <time>2013-05-10T14:37:14Z</time>
      </trkpt>
      <trkpt lat="46.58647" lon="6.0775">
        <ele>1098.92</ele>
        <time>2013-05-10T14:37:26Z</time>
      </trkpt>
      <trkpt lat="46.58661" lon="6.07756">
        <ele>1097.48</ele>
        <time>2013-05-10T14:37:31Z</time>
      </trkpt>
      <trkpt lat="46.58681" lon="6.07758">
        <ele>1096.04</ele>
        <time>2013-05-10T14:37:41Z</time>
      </trkpt>
      <trkpt lat="46.58708" lon="6.07754">
        <ele>1096.04</ele>
        <time>2013-05-10T14:37:55Z</time>
      </trkpt>
      <trkpt lat="46.58717" lon="6.07752">
        <ele>1096.04</ele>
        <time>2013-05-10T14:38:01Z</time>
      </trkpt>
      <trkpt lat="46.58727" lon="6.07756">
        <ele>1096.52</ele>
        <time>2013-05-10T14:38:10Z</time>
      </trkpt>
      <trkpt lat="46.58739" lon="6.07759">
        <ele>1096.04</ele>
        <time>2013-05-10T14:38:20Z</time>
      </trkpt>
      <trkpt lat="46.58746" lon="6.07759">
        <ele>1096.04</ele>
        <time>2013-05-10T14:38:25Z</time>
      </trkpt>
      <trkpt lat="46.58751" lon="6.07758">
        <ele>1096.04</ele>
        <time>2013-05-10T14:38:30Z</time>
      </trkpt>
      <trkpt lat="46.58759" lon="6.07762">
        <ele>1096.04</ele>
        <time>2013-05-10T14:38:41Z</time>
      </trkpt>
      <trkpt lat="46.58776" lon="6.07763">
        <ele>1096.04</ele>
        <time>2013-05-10T14:38:52Z</time>
      </trkpt>
      <trkpt lat="46.58785" lon="6.07758">
        <ele>1096.04</ele>
        <time>2013-05-10T14:38:54Z</time>
      </trkpt>
      <trkpt lat="46.588" lon="6.07758">
        <ele>1095.56</ele>
        <time>2013-05-10T14:39:06Z</time>
      </trkpt>
      <trkpt lat="46.58801" lon="6.0776">
        <ele>1096.04</ele>
        <time>2013-05-10T14:39:09Z</time>
      </trkpt>
      <trkpt lat="46.58813" lon="6.0777">
        <ele>1097</ele>
        <time>2013-05-10T14:39:19Z</time>
      </trkpt>
      <trkpt lat="46.5883" lon="6.07784">
        <ele>1098.92</ele>
        <time>2013-05-10T14:39:34Z</time>
      </trkpt>
      <trkpt lat="46.58841" lon="6.07791">
        <ele>1100.85</ele>
        <time>2013-05-10T14:39:48Z</time>
      </trkpt>
      <trkpt lat="46.58842" lon="6.07797">
        <ele>1100.85</ele>
        <time>2013-05-10T14:39:56Z</time>
      </trkpt>
      <trkpt lat="46.58841" lon="6.07798">
        <ele>1100.85</ele>
        <time>2013-05-10T14:39:57Z</time>
      </trkpt>
      <trkpt lat="46.58832" lon="6.07808">
        <ele>1100.37</ele>
        <time>2013-05-10T14:40:09Z</time>
      </trkpt>
      <trkpt lat="46.58832" lon="6.07809">
        <ele>1099.89</ele>
        <time>2013-05-10T14:40:28Z</time>
      </trkpt>
      <trkpt lat="46.58832" lon="6.07809">
        <ele>1098.92</ele>
        <time>2013-05-10T14:40:55Z</time>
      </trkpt>
      <trkpt lat="46.58832" lon="6.07809">
        <ele>1099.4</ele>
        <time>2013-05-10T14:41:34Z</time>
      </trkpt>
      <trkpt lat="46.58832" lon="6.07809">
        <ele>1099.4</ele>
        <time>2013-05-10T14:42:09Z</time>
      </trkpt>
      <trkpt lat="46.58832" lon="6.07808">
        <ele>1099.89</ele>
        <time>2013-05-10T14:42:42Z</time>
      </trkpt>
      <trkpt lat="46.58832" lon="6.07808">
        <ele>1099.89</ele>
        <time>2013-05-10T14:43:16Z</time>
      </trkpt>
      <trkpt lat="46.58832" lon="6.07808">
        <ele>1099.89</ele>
        <time>2013-05-10T14:43:49Z</time>
      </trkpt>
      <trkpt lat="46.58832" lon="6.07807">
        <ele>1099.89</ele>
        <time>2013-05-10T14:44:26Z</time>
      </trkpt>
      <trkpt lat="46.58833" lon="6.07807">
        <ele>1099.89</ele>
        <time>2013-05-10T14:44:58Z</time>
      </trkpt>
      <trkpt lat="46.58833" lon="6.07807">
        <ele>1100.37</ele>
        <time>2013-05-10T14:45:32Z</time>
      </trkpt>
      <trkpt lat="46.58833" lon="6.07807">
        <ele>1100.37</ele>
        <time>2013-05-10T14:46:08Z</time>
      </trkpt>
      <trkpt lat="46.58833" lon="6.07807">
        <ele>1100.37</ele>
        <time>2013-05-10T14:46:44Z</time>
      </trkpt>
      <trkpt lat="46.58833" lon="6.07807">
        <ele>1100.85</ele>
        <time>2013-05-10T14:47:17Z</time>
      </trkpt>
      <trkpt lat="46.58833" lon="6.07806">
        <ele>1100.85</ele>
        <time>2013-05-10T14:47:50Z</time>
      </trkpt>
      <trkpt lat="46.58833" lon="6.07806">
        <ele>1100.85</ele>
        <time>2013-05-10T14:48:25Z</time>
      </trkpt>
      <trkpt lat="46.58833" lon="6.07806">
        <ele>1100.85</ele>
        <time>2013-05-10T14:48:53Z</time>
      </trkpt>
      <trkpt lat="46.58833" lon="6.07806">
        <ele>1100.85</ele>
        <time>2013-05-10T14:49:25Z</time>
      </trkpt>
      <trkpt lat="46.58833" lon="6.07806">
        <ele>1101.81</ele>
        <time>2013-05-10T14:49:54Z</time>
      </trkpt>
      <trkpt lat="46.58833" lon="6.07807">
        <ele>1101.81</ele>
        <time>2013-05-10T14:50:08Z</time>
      </trkpt>
      <trkpt lat="46.58834" lon="6.07807">
        <ele>1101.81</ele>
        <time>2013-05-10T14:50:14Z</time>
      </trkpt>
      <trkpt lat="46.58837" lon="6.07808">
        <ele>1101.81</ele>
        <time>2013-05-10T14:50:16Z</time>
      </trkpt>
      <trkpt lat="46.58838" lon="6.07807">
        <ele>1102.29</ele>
        <time>2013-05-10T14:50:17Z</time>
      </trkpt>
      <trkpt lat="46.5884" lon="6.07809">
        <ele>1102.29</ele>
        <time>2013-05-10T14:50:19Z</time>
      </trkpt>
      <trkpt lat="46.58839" lon="6.07813">
        <ele>1101.81</ele>
        <time>2013-05-10T14:50:25Z</time>
      </trkpt>
      <trkpt lat="46.58838" lon="6.07815">
        <ele>1101.81</ele>
        <time>2013-05-10T14:50:26Z</time>
      </trkpt>
      <trkpt lat="46.58837" lon="6.07816">
        <ele>1101.81</ele>
        <time>2013-05-10T14:50:27Z</time>
      </trkpt>
      <trkpt lat="46.58836" lon="6.07818">
        <ele>1101.81</ele>
        <time>2013-05-10T14:50:28Z</time>
      </trkpt>
      <trkpt lat="46.58836" lon="6.07819">
        <ele>1101.81</ele>
        <time>2013-05-10T14:50:29Z</time>
      </trkpt>
      <trkpt lat="46.58823" lon="6.07853">
        <ele>1099.4</ele>
        <time>2013-05-10T14:50:40Z</time>
      </trkpt>
      <trkpt lat="46.58811" lon="6.07881">
        <ele>1097</ele>
        <time>2013-05-10T14:50:51Z</time>
      </trkpt>
      <trkpt lat="46.588" lon="6.07907">
        <ele>1093.64</ele>
        <time>2013-05-10T14:50:59Z</time>
      </trkpt>
      <trkpt lat="46.58797" lon="6.0792">
        <ele>1092.2</ele>
        <time>2013-05-10T14:51:02Z</time>
      </trkpt>
      <trkpt lat="46.58788" lon="6.07953">
        <ele>1091.23</ele>
        <time>2013-05-10T14:51:14Z</time>
      </trkpt>
      <trkpt lat="46.58782" lon="6.07963">
        <ele>1091.23</ele>
        <time>2013-05-10T14:51:25Z</time>
      </trkpt>
      <trkpt lat="46.58777" lon="6.07973">
        <ele>1090.27</ele>
        <time>2013-05-10T14:51:33Z</time>
      </trkpt>
      <trkpt lat="46.58776" lon="6.07975">
        <ele>1089.79</ele>
        <time>2013-05-10T14:51:34Z</time>
      </trkpt>
      <trkpt lat="46.58769" lon="6.07995">
        <ele>1089.31</ele>
        <time>2013-05-10T14:51:44Z</time>
      </trkpt>
      <trkpt lat="46.58768" lon="6.08003">
        <ele>1089.31</ele>
        <time>2013-05-10T14:51:49Z</time>
      </trkpt>
      <trkpt lat="46.58768" lon="6.08004">
        <ele>1089.31</ele>
        <time>2013-05-10T14:51:50Z</time>
      </trkpt>
      <trkpt lat="46.58769" lon="6.08006">
        <ele>1089.31</ele>
        <time>2013-05-10T14:51:51Z</time>
      </trkpt>
      <trkpt lat="46.58771" lon="6.0801">
        <ele>1089.31</ele>
        <time>2013-05-10T14:51:54Z</time>
      </trkpt>
      <trkpt lat="46.58775" lon="6.08013">
        <ele>1090.27</ele>
        <time>2013-05-10T14:51:57Z</time>
      </trkpt>
      <trkpt lat="46.58778" lon="6.08012">
        <ele>1091.23</ele>
        <time>2013-05-10T14:52:07Z</time>
      </trkpt>
      <trkpt lat="46.58786" lon="6.08017">
        <ele>1092.2</ele>
        <time>2013-05-10T14:52:20Z</time>
      </trkpt>
      <trkpt lat="46.5879" lon="6.08023">
        <ele>1091.71</ele>
        <time>2013-05-10T14:52:34Z</time>
      </trkpt>
      <trkpt lat="46.58813" lon="6.08025">
        <ele>1092.2</ele>
        <time>2013-05-10T14:52:47Z</time>
      </trkpt>
      <trkpt lat="46.5882" lon="6.08032">
        <ele>1092.2</ele>
        <time>2013-05-10T14:52:55Z</time>
      </trkpt>
      <trkpt lat="46.58828" lon="6.08039">
        <ele>1091.71</ele>
        <time>2013-05-10T14:53:01Z</time>
      </trkpt>
      <trkpt lat="46.58839" lon="6.08046">
        <ele>1091.71</ele>
        <time>2013-05-10T14:53:10Z</time>
      </trkpt>
      <trkpt lat="46.58852" lon="6.08048">
        <ele>1091.71</ele>
        <time>2013-05-10T14:53:22Z</time>
      </trkpt>
      <trkpt lat="46.58857" lon="6.08045">
        <ele>1091.23</ele>
        <time>2013-05-10T14:53:25Z</time>
      </trkpt>
      <trkpt lat="46.58869" lon="6.08044">
        <ele>1091.23</ele>
        <time>2013-05-10T14:53:36Z</time>
      </trkpt>
      <trkpt lat="46.58878" lon="6.08046">
        <ele>1091.71</ele>
        <time>2013-05-10T14:53:47Z</time>
      </trkpt>
      <trkpt lat="46.58888" lon="6.08048">
        <ele>1091.71</ele>
        <time>2013-05-10T14:53:59Z</time>
      </trkpt>
      <trkpt lat="46.58907" lon="6.08046">
        <ele>1091.23</ele>
        <time>2013-05-10T14:54:13Z</time>
      </trkpt>
      <trkpt lat="46.5892" lon="6.08037">
        <ele>1091.23</ele>
        <time>2013-05-10T14:54:27Z</time>
      </trkpt>
      <trkpt lat="46.58921" lon="6.08032">
        <ele>1091.23</ele>
        <time>2013-05-10T14:54:34Z</time>
      </trkpt>
      <trkpt lat="46.58925" lon="6.08021">
        <ele>1091.71</ele>
        <time>2013-05-10T14:54:44Z</time>
      </trkpt>
      <trkpt lat="46.58928" lon="6.08001">
        <ele>1092.2</ele>
        <time>2013-05-10T14:54:58Z</time>
      </trkpt>
      <trkpt lat="46.58936" lon="6.07988">
        <ele>1092.2</ele>
        <time>2013-05-10T14:55:09Z</time>
      </trkpt>
      <trkpt lat="46.58938" lon="6.07985">
        <ele>1092.2</ele>
        <time>2013-05-10T14:55:12Z</time>
      </trkpt>
      <trkpt lat="46.58949" lon="6.07966">
        <ele>1093.16</ele>
        <time>2013-05-10T14:55:27Z</time>
      </trkpt>
      <trkpt lat="46.58957" lon="6.07967">
        <ele>1093.16</ele>
        <time>2013-05-10T14:55:40Z</time>
      </trkpt>
      <trkpt lat="46.58967" lon="6.0797">
        <ele>1093.64</ele>
        <time>2013-05-10T14:55:52Z</time>
      </trkpt>
      <trkpt lat="46.58974" lon="6.07976">
        <ele>1094.12</ele>
        <time>2013-05-10T14:56:01Z</time>
      </trkpt>
      <trkpt lat="46.58976" lon="6.0798">
        <ele>1094.6</ele>
        <time>2013-05-10T14:56:20Z</time>
      </trkpt>
      <trkpt lat="46.58976" lon="6.0798">
        <ele>1091.71</ele>
        <time>2013-05-10T14:56:22Z</time>
      </trkpt>
      <trkpt lat="46.58976" lon="6.0798">
        <ele>1096.52</ele>
        <time>2013-05-10T14:56:23Z</time>
      </trkpt>
      <trkpt lat="46.58976" lon="6.0798">
        <ele>1093.16</ele>
        <time>2013-05-10T14:56:36Z</time>
      </trkpt>
      <trkpt lat="46.58976" lon="6.0798">
        <ele>1096.04</ele>
        <time>2013-05-10T14:56:38Z</time>
      </trkpt>
      <trkpt lat="46.58976" lon="6.0798">
        <ele>1094.12</ele>
        <time>2013-05-10T14:56:40Z</time>
      </trkpt>
      <trkpt lat="46.58976" lon="6.0798">
        <ele>1095.56</ele>
        <time>2013-05-10T14:56:41Z</time>
      </trkpt>
      <trkpt lat="46.58976" lon="6.0798">
        <ele>1094.12</ele>
        <time>2013-05-10T14:56:42Z</time>
      </trkpt>
      <trkpt lat="46.58976" lon="6.0798">
        <ele>1095.56</ele>
        <time>2013-05-10T14:56:43Z</time>
      </trkpt>
      <trkpt lat="46.58976" lon="6.0798">
        <ele>1096.04</ele>
        <time>2013-05-10T14:56:47Z</time>
      </trkpt>
      <trkpt lat="46.58976" lon="6.0798">
        <ele>1095.56</ele>
        <time>2013-05-10T14:56:52Z</time>
      </trkpt>
      <trkpt lat="46.58976" lon="6.0798">
        <ele>1094.12</ele>
        <time>2013-05-10T14:56:53Z</time>
      </trkpt>
      <trkpt lat="46.58979" lon="6.07988">
        <ele>1095.56</ele>
        <time>2013-05-10T14:57:03Z</time>
      </trkpt>
      <trkpt lat="46.58991" lon="6.07995">
        <ele>1095.08</ele>
        <time>2013-05-10T14:57:15Z</time>
      </trkpt>
      <trkpt lat="46.58997" lon="6.08006">
        <ele>1095.56</ele>
        <time>2013-05-10T14:57:30Z</time>
      </trkpt>
      <trkpt lat="46.59012" lon="6.0801">
        <ele>1096.04</ele>
        <time>2013-05-10T14:57:39Z</time>
      </trkpt>
      <trkpt lat="46.59022" lon="6.08014">
        <ele>1096.52</ele>
        <time>2013-05-10T14:57:51Z</time>
      </trkpt>
      <trkpt lat="46.59023" lon="6.08017">
        <ele>1096.04</ele>
        <time>2013-05-10T14:58:16Z</time>
      </trkpt>
      <trkpt lat="46.59024" lon="6.08019">
        <ele>1096.52</ele>
        <time>2013-05-10T14:58:18Z</time>
      </trkpt>
      <trkpt lat="46.59027" lon="6.08022">
        <ele>1096.52</ele>
        <time>2013-05-10T14:58:21Z</time>
      </trkpt>
      <trkpt lat="46.5903" lon="6.08025">
        <ele>1096.52</ele>
        <time>2013-05-10T14:58:23Z</time>
      </trkpt>
      <trkpt lat="46.59039" lon="6.08036">
        <ele>1097</ele>
        <time>2013-05-10T14:58:31Z</time>
      </trkpt>
      <trkpt lat="46.59049" lon="6.08057">
        <ele>1099.4</ele>
        <time>2013-05-10T14:58:46Z</time>
      </trkpt>
      <trkpt lat="46.59051" lon="6.08061">
        <ele>1100.37</ele>
        <time>2013-05-10T14:58:52Z</time>
      </trkpt>
      <trkpt lat="46.59057" lon="6.08074">
        <ele>1100.85</ele>
        <time>2013-05-10T14:59:02Z</time>
      </trkpt>
      <trkpt lat="46.59061" lon="6.08081">
        <ele>1100.37</ele>
        <time>2013-05-10T14:59:12Z</time>
      </trkpt>
      <trkpt lat="46.59065" lon="6.08087">
        <ele>1099.89</ele>
        <time>2013-05-10T14:59:16Z</time>
      </trkpt>
      <trkpt lat="46.59072" lon="6.08092">
        <ele>1099.89</ele>
        <time>2013-05-10T14:59:23Z</time>
      </trkpt>
      <trkpt lat="46.59084" lon="6.08109">
        <ele>1100.37</ele>
        <time>2013-05-10T14:59:38Z</time>
      </trkpt>
      <trkpt lat="46.59088" lon="6.08115">
        <ele>1100.37</ele>
        <time>2013-05-10T14:59:50Z</time>
      </trkpt>
      <trkpt lat="46.59089" lon="6.08117">
        <ele>1100.37</ele>
        <time>2013-05-10T14:59:52Z</time>
      </trkpt>
      <trkpt lat="46.59099" lon="6.08127">
        <ele>1099.89</ele>
        <time>2013-05-10T15:00:02Z</time>
      </trkpt>
      <trkpt lat="46.59108" lon="6.08136">
        <ele>1099.89</ele>
        <time>2013-05-10T15:00:11Z</time>
      </trkpt>
      <trkpt lat="46.5911" lon="6.08138">
        <ele>1099.4</ele>
        <time>2013-05-10T15:00:13Z</time>
      </trkpt>
      <trkpt lat="46.59119" lon="6.08147">
        <ele>1098.44</ele>
        <time>2013-05-10T15:00:24Z</time>
      </trkpt>
      <trkpt lat="46.59128" lon="6.08148">
        <ele>1097.96</ele>
        <time>2013-05-10T15:00:32Z</time>
      </trkpt>
      <trkpt lat="46.5914" lon="6.08144">
        <ele>1097</ele>
        <time>2013-05-10T15:00:43Z</time>
      </trkpt>
      <trkpt lat="46.59143" lon="6.08143">
        <ele>1097.96</ele>
        <time>2013-05-10T15:00:55Z</time>
      </trkpt>
      <trkpt lat="46.59155" lon="6.08146">
        <ele>1097.48</ele>
        <time>2013-05-10T15:01:05Z</time>
      </trkpt>
      <trkpt lat="46.59165" lon="6.08156">
        <ele>1097.48</ele>
        <time>2013-05-10T15:01:16Z</time>
      </trkpt>
      <trkpt lat="46.59169" lon="6.08158">
        <ele>1097.48</ele>
        <time>2013-05-10T15:01:20Z</time>
      </trkpt>
      <trkpt lat="46.5918" lon="6.08166">
        <ele>1097</ele>
        <time>2013-05-10T15:01:35Z</time>
      </trkpt>
      <trkpt lat="46.59189" lon="6.08172">
        <ele>1097.48</ele>
        <time>2013-05-10T15:01:48Z</time>
      </trkpt>
      <trkpt lat="46.5919" lon="6.0818">
        <ele>1097</ele>
        <time>2013-05-10T15:02:10Z</time>
      </trkpt>
      <trkpt lat="46.59193" lon="6.08189">
        <ele>1096.52</ele>
        <time>2013-05-10T15:02:17Z</time>
      </trkpt>
      <trkpt lat="46.592" lon="6.08203">
        <ele>1096.04</ele>
        <time>2013-05-10T15:02:30Z</time>
      </trkpt>
      <trkpt lat="46.59209" lon="6.08212">
        <ele>1097</ele>
        <time>2013-05-10T15:02:43Z</time>
      </trkpt>
      <trkpt lat="46.59221" lon="6.08213">
        <ele>1098.44</ele>
        <time>2013-05-10T15:02:55Z</time>
      </trkpt>
      <trkpt lat="46.59233" lon="6.08225">
        <ele>1098.92</ele>
        <time>2013-05-10T15:03:08Z</time>
      </trkpt>
      <trkpt lat="46.59235" lon="6.08239">
        <ele>1098.92</ele>
        <time>2013-05-10T15:03:20Z</time>
      </trkpt>
      <trkpt lat="46.59235" lon="6.08245">
        <ele>1098.44</ele>
        <time>2013-05-10T15:03:24Z</time>
      </trkpt>
      <trkpt lat="46.5924" lon="6.0827">
        <ele>1096.52</ele>
        <time>2013-05-10T15:03:35Z</time>
      </trkpt>
      <trkpt lat="46.59239" lon="6.08274">
        <ele>1096.04</ele>
        <time>2013-05-10T15:03:39Z</time>
      </trkpt>
      <trkpt lat="46.59239" lon="6.08278">
        <ele>1095.56</ele>
        <time>2013-05-10T15:03:41Z</time>
      </trkpt>
      <trkpt lat="46.59238" lon="6.08293">
        <ele>1094.6</ele>
        <time>2013-05-10T15:03:46Z</time>
      </trkpt>
      <trkpt lat="46.5924" lon="6.08318">
        <ele>1093.64</ele>
        <time>2013-05-10T15:03:55Z</time>
      </trkpt>
      <trkpt lat="46.59246" lon="6.08338">
        <ele>1093.64</ele>
        <time>2013-05-10T15:04:01Z</time>
      </trkpt>
      <trkpt lat="46.59244" lon="6.08348">
        <ele>1093.64</ele>
        <time>2013-05-10T15:04:10Z</time>
      </trkpt>
      <trkpt lat="46.59243" lon="6.08353">
        <ele>1093.64</ele>
        <time>2013-05-10T15:04:14Z</time>
      </trkpt>
      <trkpt lat="46.59244" lon="6.08357">
        <ele>1094.12</ele>
        <time>2013-05-10T15:04:17Z</time>
      </trkpt>
      <trkpt lat="46.59247" lon="6.08384">
        <ele>1092.68</ele>
        <time>2013-05-10T15:04:31Z</time>
      </trkpt>
      <trkpt lat="46.59246" lon="6.08395">
        <ele>1092.68</ele>
        <time>2013-05-10T15:04:43Z</time>
      </trkpt>
      <trkpt lat="46.59248" lon="6.08398">
        <ele>1092.68</ele>
        <time>2013-05-10T15:04:48Z</time>
      </trkpt>
      <trkpt lat="46.59249" lon="6.0841">
        <ele>1092.68</ele>
        <time>2013-05-10T15:04:58Z</time>
      </trkpt>
      <trkpt lat="46.59246" lon="6.08424">
        <ele>1093.16</ele>
        <time>2013-05-10T15:05:10Z</time>
      </trkpt>
      <trkpt lat="46.59242" lon="6.08428">
        <ele>1093.16</ele>
        <time>2013-05-10T15:05:14Z</time>
      </trkpt>
      <trkpt lat="46.59236" lon="6.08444">
        <ele>1093.64</ele>
        <time>2013-05-10T15:05:28Z</time>
      </trkpt>
      <trkpt lat="46.59227" lon="6.08467">
        <ele>1095.08</ele>
        <time>2013-05-10T15:05:43Z</time>
      </trkpt>
      <trkpt lat="46.59226" lon="6.08472">
        <ele>1094.6</ele>
        <time>2013-05-10T15:05:46Z</time>
      </trkpt>
      <trkpt lat="46.59229" lon="6.08489">
        <ele>1096.04</ele>
        <time>2013-05-10T15:06:00Z</time>
      </trkpt>
      <trkpt lat="46.59228" lon="6.08499">
        <ele>1096.52</ele>
        <time>2013-05-10T15:06:13Z</time>
      </trkpt>
      <trkpt lat="46.59227" lon="6.085">
        <ele>1096.52</ele>
        <time>2013-05-10T15:06:28Z</time>
      </trkpt>
      <trkpt lat="46.59216" lon="6.08519">
        <ele>1097.96</ele>
        <time>2013-05-10T15:06:40Z</time>
      </trkpt>
      <trkpt lat="46.59213" lon="6.08521">
        <ele>1097.96</ele>
        <time>2013-05-10T15:06:43Z</time>
      </trkpt>
      <trkpt lat="46.59212" lon="6.08535">
        <ele>1099.4</ele>
        <time>2013-05-10T15:06:49Z</time>
      </trkpt>
      <trkpt lat="46.59208" lon="6.08547">
        <ele>1100.37</ele>
        <time>2013-05-10T15:06:53Z</time>
      </trkpt>
      <trkpt lat="46.59196" lon="6.08589">
        <ele>1101.33</ele>
        <time>2013-05-10T15:07:08Z</time>
      </trkpt>
      <trkpt lat="46.59196" lon="6.08593">
        <ele>1101.33</ele>
        <time>2013-05-10T15:07:14Z</time>
      </trkpt>
      <trkpt lat="46.59194" lon="6.08608">
        <ele>1101.33</ele>
        <time>2013-05-10T15:07:24Z</time>
      </trkpt>
      <trkpt lat="46.59194" lon="6.08619">
        <ele>1101.81</ele>
        <time>2013-05-10T15:07:30Z</time>
      </trkpt>
      <trkpt lat="46.59195" lon="6.08627">
        <ele>1102.29</ele>
        <time>2013-05-10T15:07:34Z</time>
      </trkpt>
      <trkpt lat="46.59197" lon="6.08632">
        <ele>1102.77</ele>
        <time>2013-05-10T15:07:37Z</time>
      </trkpt>
      <trkpt lat="46.5919" lon="6.08643">
        <ele>1103.25</ele>
        <time>2013-05-10T15:07:48Z</time>
      </trkpt>
      <trkpt lat="46.59184" lon="6.08679">
        <ele>1103.25</ele>
        <time>2013-05-10T15:08:00Z</time>
      </trkpt>
      <trkpt lat="46.59182" lon="6.08683">
        <ele>1103.25</ele>
        <time>2013-05-10T15:08:02Z</time>
      </trkpt>
      <trkpt lat="46.59175" lon="6.08719">
        <ele>1100.37</ele>
        <time>2013-05-10T15:08:14Z</time>
      </trkpt>
      <trkpt lat="46.59173" lon="6.08723">
        <ele>1100.37</ele>
        <time>2013-05-10T15:08:19Z</time>
      </trkpt>
      <trkpt lat="46.59171" lon="6.08743">
        <ele>1100.37</ele>
        <time>2013-05-10T15:08:32Z</time>
      </trkpt>
      <trkpt lat="46.59169" lon="6.08749">
        <ele>1099.89</ele>
        <time>2013-05-10T15:08:37Z</time>
      </trkpt>
      <trkpt lat="46.59163" lon="6.08774">
        <ele>1097.48</ele>
        <time>2013-05-10T15:08:45Z</time>
      </trkpt>
      <trkpt lat="46.59162" lon="6.0878">
        <ele>1096.52</ele>
        <time>2013-05-10T15:08:46Z</time>
      </trkpt>
      <trkpt lat="46.59159" lon="6.08784">
        <ele>1096.52</ele>
        <time>2013-05-10T15:08:47Z</time>
      </trkpt>
      <trkpt lat="46.59153" lon="6.08808">
        <ele>1096.04</ele>
        <time>2013-05-10T15:08:57Z</time>
      </trkpt>
      <trkpt lat="46.5915" lon="6.08816">
        <ele>1096.04</ele>
        <time>2013-05-10T15:09:02Z</time>
      </trkpt>
      <trkpt lat="46.59145" lon="6.0882">
        <ele>1096.04</ele>
        <time>2013-05-10T15:09:13Z</time>
      </trkpt>
      <trkpt lat="46.59144" lon="6.08822">
        <ele>1096.04</ele>
        <time>2013-05-10T15:09:14Z</time>
      </trkpt>
      <trkpt lat="46.59143" lon="6.08828">
        <ele>1096.04</ele>
        <time>2013-05-10T15:09:17Z</time>
      </trkpt>
      <trkpt lat="46.59134" lon="6.0885">
        <ele>1094.12</ele>
        <time>2013-05-10T15:09:26Z</time>
      </trkpt>
      <trkpt lat="46.59133" lon="6.08858">
        <ele>1092.68</ele>
        <time>2013-05-10T15:09:28Z</time>
      </trkpt>
      <trkpt lat="46.59137" lon="6.08874">
        <ele>1091.71</ele>
        <time>2013-05-10T15:09:30Z</time>
      </trkpt>
      <trkpt lat="46.5914" lon="6.08881">
        <ele>1091.23</ele>
        <time>2013-05-10T15:09:31Z</time>
      </trkpt>
      <trkpt lat="46.59143" lon="6.08889">
        <ele>1090.75</ele>
        <time>2013-05-10T15:09:32Z</time>
      </trkpt>
      <trkpt lat="46.59153" lon="6.08918">
        <ele>1089.79</ele>
        <time>2013-05-10T15:09:41Z</time>
      </trkpt>
      <trkpt lat="46.59153" lon="6.08926">
        <ele>1090.27</ele>
        <time>2013-05-10T15:09:50Z</time>
      </trkpt>
      <trkpt lat="46.59153" lon="6.08929">
        <ele>1090.27</ele>
        <time>2013-05-10T15:09:55Z</time>
      </trkpt>
      <trkpt lat="46.59153" lon="6.08934">
        <ele>1090.27</ele>
        <time>2013-05-10T15:09:58Z</time>
      </trkpt>
      <trkpt lat="46.59153" lon="6.08937">
        <ele>1090.27</ele>
        <time>2013-05-10T15:09:59Z</time>
      </trkpt>
      <trkpt lat="46.59152" lon="6.08939">
        <ele>1090.27</ele>
        <time>2013-05-10T15:10:00Z</time>
      </trkpt>
      <trkpt lat="46.59152" lon="6.08942">
        <ele>1090.75</ele>
        <time>2013-05-10T15:10:01Z</time>
      </trkpt>
      <trkpt lat="46.59153" lon="6.08945">
        <ele>1091.23</ele>
        <time>2013-05-10T15:10:02Z</time>
      </trkpt>
      <trkpt lat="46.59154" lon="6.08949">
        <ele>1090.75</ele>
        <time>2013-05-10T15:10:03Z</time>
      </trkpt>
      <trkpt lat="46.59156" lon="6.08953">
        <ele>1090.27</ele>
        <time>2013-05-10T15:10:04Z</time>
      </trkpt>
      <trkpt lat="46.59159" lon="6.08965">
        <ele>1089.79</ele>
        <time>2013-05-10T15:10:07Z</time>
      </trkpt>
      <trkpt lat="46.59177" lon="6.08994">
        <ele>1090.27</ele>
        <time>2013-05-10T15:10:18Z</time>
      </trkpt>
      <trkpt lat="46.59193" lon="6.09015">
        <ele>1090.27</ele>
        <time>2013-05-10T15:10:29Z</time>
      </trkpt>
      <trkpt lat="46.59222" lon="6.09029">
        <ele>1087.39</ele>
        <time>2013-05-10T15:10:39Z</time>
      </trkpt>
      <trkpt lat="46.59251" lon="6.09058">
        <ele>1086.43</ele>
        <time>2013-05-10T15:10:51Z</time>
      </trkpt>
      <trkpt lat="46.59277" lon="6.09084">
        <ele>1087.39</ele>
        <time>2013-05-10T15:11:04Z</time>
      </trkpt>
      <trkpt lat="46.59282" lon="6.09094">
        <ele>1087.87</ele>
        <time>2013-05-10T15:11:09Z</time>
      </trkpt>
      <trkpt lat="46.59283" lon="6.09096">
        <ele>1088.35</ele>
        <time>2013-05-10T15:11:10Z</time>
      </trkpt>
      <trkpt lat="46.59284" lon="6.09098">
        <ele>1087.87</ele>
        <time>2013-05-10T15:11:11Z</time>
      </trkpt>
      <trkpt lat="46.59285" lon="6.09099">
        <ele>1087.87</ele>
        <time>2013-05-10T15:11:12Z</time>
      </trkpt>
      <trkpt lat="46.59286" lon="6.09101">
        <ele>1087.87</ele>
        <time>2013-05-10T15:11:13Z</time>
      </trkpt>
      <trkpt lat="46.59287" lon="6.09103">
        <ele>1087.87</ele>
        <time>2013-05-10T15:11:14Z</time>
      </trkpt>
      <trkpt lat="46.5929" lon="6.09106">
        <ele>1087.87</ele>
        <time>2013-05-10T15:11:16Z</time>
      </trkpt>
      <trkpt lat="46.5929" lon="6.09108">
        <ele>1088.35</ele>
        <time>2013-05-10T15:11:17Z</time>
      </trkpt>
      <trkpt lat="46.59291" lon="6.09109">
        <ele>1088.35</ele>
        <time>2013-05-10T15:11:18Z</time>
      </trkpt>
      <trkpt lat="46.59291" lon="6.09111">
        <ele>1088.35</ele>
        <time>2013-05-10T15:11:19Z</time>
      </trkpt>
      <trkpt lat="46.59292" lon="6.09112">
        <ele>1087.87</ele>
        <time>2013-05-10T15:11:20Z</time>
      </trkpt>
      <trkpt lat="46.59292" lon="6.09114">
        <ele>1087.87</ele>
        <time>2013-05-10T15:11:21Z</time>
      </trkpt>
      <trkpt lat="46.59292" lon="6.09116">
        <ele>1087.87</ele>
        <time>2013-05-10T15:11:22Z</time>
      </trkpt>
      <trkpt lat="46.59292" lon="6.09118">
        <ele>1087.87</ele>
        <time>2013-05-10T15:11:23Z</time>
      </trkpt>
      <trkpt lat="46.59293" lon="6.09122">
        <ele>1087.87</ele>
        <time>2013-05-10T15:11:24Z</time>
      </trkpt>
      <trkpt lat="46.59294" lon="6.09126">
        <ele>1087.39</ele>
        <time>2013-05-10T15:11:25Z</time>
      </trkpt>
      <trkpt lat="46.59295" lon="6.09129">
        <ele>1087.39</ele>
        <time>2013-05-10T15:11:26Z</time>
      </trkpt>
      <trkpt lat="46.59311" lon="6.09165">
        <ele>1089.31</ele>
        <time>2013-05-10T15:11:39Z</time>
      </trkpt>
      <trkpt lat="46.59316" lon="6.09201">
        <ele>1090.75</ele>
        <time>2013-05-10T15:11:50Z</time>
      </trkpt>
      <trkpt lat="46.59324" lon="6.09249">
        <ele>1093.16</ele>
        <time>2013-05-10T15:12:04Z</time>
      </trkpt>
      <trkpt lat="46.59331" lon="6.09295">
        <ele>1092.2</ele>
        <time>2013-05-10T15:12:15Z</time>
      </trkpt>
      <trkpt lat="46.59334" lon="6.09336">
        <ele>1091.23</ele>
        <time>2013-05-10T15:12:24Z</time>
      </trkpt>
      <trkpt lat="46.59326" lon="6.09386">
        <ele>1091.71</ele>
        <time>2013-05-10T15:12:36Z</time>
      </trkpt>
      <trkpt lat="46.59323" lon="6.09423">
        <ele>1092.68</ele>
        <time>2013-05-10T15:12:48Z</time>
      </trkpt>
      <trkpt lat="46.59314" lon="6.0945">
        <ele>1093.16</ele>
        <time>2013-05-10T15:13:00Z</time>
      </trkpt>
      <trkpt lat="46.59303" lon="6.09475">
        <ele>1093.64</ele>
        <time>2013-05-10T15:13:10Z</time>
      </trkpt>
      <trkpt lat="46.59296" lon="6.09499">
        <ele>1093.64</ele>
        <time>2013-05-10T15:13:20Z</time>
      </trkpt>
      <trkpt lat="46.59296" lon="6.09501">
        <ele>1093.64</ele>
        <time>2013-05-10T15:13:21Z</time>
      </trkpt>
      <trkpt lat="46.59296" lon="6.09504">
        <ele>1093.16</ele>
        <time>2013-05-10T15:13:22Z</time>
      </trkpt>
      <trkpt lat="46.59296" lon="6.09508">
        <ele>1093.16</ele>
        <time>2013-05-10T15:13:23Z</time>
      </trkpt>
      <trkpt lat="46.59295" lon="6.09511">
        <ele>1093.16</ele>
        <time>2013-05-10T15:13:24Z</time>
      </trkpt>
      <trkpt lat="46.59294" lon="6.09513">
        <ele>1093.64</ele>
        <time>2013-05-10T15:13:25Z</time>
      </trkpt>
      <trkpt lat="46.59293" lon="6.09515">
        <ele>1093.64</ele>
        <time>2013-05-10T15:13:26Z</time>
      </trkpt>
      <trkpt lat="46.59292" lon="6.09518">
        <ele>1093.16</ele>
        <time>2013-05-10T15:13:27Z</time>
      </trkpt>
      <trkpt lat="46.59291" lon="6.0952">
        <ele>1093.16</ele>
        <time>2013-05-10T15:13:28Z</time>
      </trkpt>
      <trkpt lat="46.59291" lon="6.09523">
        <ele>1093.16</ele>
        <time>2013-05-10T15:13:29Z</time>
      </trkpt>
      <trkpt lat="46.59291" lon="6.09526">
        <ele>1093.16</ele>
        <time>2013-05-10T15:13:30Z</time>
      </trkpt>
      <trkpt lat="46.593" lon="6.09546">
        <ele>1093.16</ele>
        <time>2013-05-10T15:13:42Z</time>
      </trkpt>
      <trkpt lat="46.59301" lon="6.09549">
        <ele>1093.16</ele>
        <time>2013-05-10T15:13:43Z</time>
      </trkpt>
      <trkpt lat="46.59301" lon="6.0955">
        <ele>1093.16</ele>
        <time>2013-05-10T15:13:44Z</time>
      </trkpt>
      <trkpt lat="46.59302" lon="6.09553">
        <ele>1093.16</ele>
        <time>2013-05-10T15:13:45Z</time>
      </trkpt>
      <trkpt lat="46.59302" lon="6.09555">
        <ele>1093.16</ele>
        <time>2013-05-10T15:13:46Z</time>
      </trkpt>
      <trkpt lat="46.59302" lon="6.09557">
        <ele>1093.16</ele>
        <time>2013-05-10T15:13:47Z</time>
      </trkpt>
      <trkpt lat="46.59303" lon="6.09559">
        <ele>1093.16</ele>
        <time>2013-05-10T15:13:48Z</time>
      </trkpt>
      <trkpt lat="46.59304" lon="6.09561">
        <ele>1093.16</ele>
        <time>2013-05-10T15:13:49Z</time>
      </trkpt>
      <trkpt lat="46.59306" lon="6.09563">
        <ele>1093.16</ele>
        <time>2013-05-10T15:13:50Z</time>
      </trkpt>
      <trkpt lat="46.59307" lon="6.09568">
        <ele>1093.16</ele>
        <time>2013-05-10T15:13:53Z</time>
      </trkpt>
      <trkpt lat="46.59308" lon="6.09569">
        <ele>1093.16</ele>
        <time>2013-05-10T15:13:54Z</time>
      </trkpt>
      <trkpt lat="46.59319" lon="6.0958">
        <ele>1092.68</ele>
        <time>2013-05-10T15:14:01Z</time>
      </trkpt>
      <trkpt lat="46.59321" lon="6.09581">
        <ele>1093.16</ele>
        <time>2013-05-10T15:14:02Z</time>
      </trkpt>
      <trkpt lat="46.59323" lon="6.09583">
        <ele>1092.68</ele>
        <time>2013-05-10T15:14:03Z</time>
      </trkpt>
      <trkpt lat="46.59337" lon="6.09597">
        <ele>1092.68</ele>
        <time>2013-05-10T15:14:14Z</time>
      </trkpt>
      <trkpt lat="46.59343" lon="6.09603">
        <ele>1092.2</ele>
        <time>2013-05-10T15:14:18Z</time>
      </trkpt>
      <trkpt lat="46.59344" lon="6.09604">
        <ele>1092.68</ele>
        <time>2013-05-10T15:14:19Z</time>
      </trkpt>
      <trkpt lat="46.59345" lon="6.09604">
        <ele>1092.68</ele>
        <time>2013-05-10T15:14:20Z</time>
      </trkpt>
      <trkpt lat="46.59348" lon="6.09606">
        <ele>1092.68</ele>
        <time>2013-05-10T15:14:31Z</time>
      </trkpt>
      <trkpt lat="46.59351" lon="6.09606">
        <ele>1092.68</ele>
        <time>2013-05-10T15:14:43Z</time>
      </trkpt>
      <trkpt lat="46.59352" lon="6.09604">
        <ele>1092.68</ele>
        <time>2013-05-10T15:14:45Z</time>
      </trkpt>
      <trkpt lat="46.59355" lon="6.09603">
        <ele>1093.16</ele>
        <time>2013-05-10T15:14:47Z</time>
      </trkpt>
      <trkpt lat="46.59361" lon="6.09602">
        <ele>1093.64</ele>
        <time>2013-05-10T15:14:53Z</time>
      </trkpt>
      <trkpt lat="46.59386" lon="6.09594">
        <ele>1095.56</ele>
        <time>2013-05-10T15:15:05Z</time>
      </trkpt>
      <trkpt lat="46.59413" lon="6.09589">
        <ele>1097</ele>
        <time>2013-05-10T15:15:18Z</time>
      </trkpt>
      <trkpt lat="46.59448" lon="6.09594">
        <ele>1097</ele>
        <time>2013-05-10T15:15:33Z</time>
      </trkpt>
      <trkpt lat="46.59482" lon="6.09604">
        <ele>1094.6</ele>
        <time>2013-05-10T15:15:42Z</time>
      </trkpt>
      <trkpt lat="46.59508" lon="6.096">
        <ele>1096.04</ele>
        <time>2013-05-10T15:15:52Z</time>
      </trkpt>
      <trkpt lat="46.59534" lon="6.09609">
        <ele>1096.52</ele>
        <time>2013-05-10T15:16:04Z</time>
      </trkpt>
      <trkpt lat="46.59569" lon="6.09617">
        <ele>1097.48</ele>
        <time>2013-05-10T15:16:16Z</time>
      </trkpt>
      <trkpt lat="46.59596" lon="6.09614">
        <ele>1096.52</ele>
        <time>2013-05-10T15:16:27Z</time>
      </trkpt>
      <trkpt lat="46.59627" lon="6.09573">
        <ele>1094.6</ele>
        <time>2013-05-10T15:16:40Z</time>
      </trkpt>
      <trkpt lat="46.59645" lon="6.0955">
        <ele>1092.2</ele>
        <time>2013-05-10T15:16:45Z</time>
      </trkpt>
      <trkpt lat="46.59655" lon="6.09538">
        <ele>1091.23</ele>
        <time>2013-05-10T15:16:47Z</time>
      </trkpt>
      <trkpt lat="46.5966" lon="6.09532">
        <ele>1090.27</ele>
        <time>2013-05-10T15:16:48Z</time>
      </trkpt>
      <trkpt lat="46.59671" lon="6.09521">
        <ele>1088.35</ele>
        <time>2013-05-10T15:16:50Z</time>
      </trkpt>
      <trkpt lat="46.59681" lon="6.09513">
        <ele>1087.39</ele>
        <time>2013-05-10T15:16:52Z</time>
      </trkpt>
      <trkpt lat="46.59686" lon="6.0951">
        <ele>1086.91</ele>
        <time>2013-05-10T15:16:53Z</time>
      </trkpt>
      <trkpt lat="46.59691" lon="6.09508">
        <ele>1086.91</ele>
        <time>2013-05-10T15:16:54Z</time>
      </trkpt>
      <trkpt lat="46.59699" lon="6.09505">
        <ele>1087.39</ele>
        <time>2013-05-10T15:16:56Z</time>
      </trkpt>
      <trkpt lat="46.59704" lon="6.09503">
        <ele>1086.43</ele>
        <time>2013-05-10T15:16:57Z</time>
      </trkpt>
      <trkpt lat="46.59713" lon="6.095">
        <ele>1084.99</ele>
        <time>2013-05-10T15:16:59Z</time>
      </trkpt>
      <trkpt lat="46.59717" lon="6.09499">
        <ele>1084.5</ele>
        <time>2013-05-10T15:17:00Z</time>
      </trkpt>
      <trkpt lat="46.59722" lon="6.09499">
        <ele>1084.02</ele>
        <time>2013-05-10T15:17:01Z</time>
      </trkpt>
      <trkpt lat="46.5975" lon="6.095">
        <ele>1081.14</ele>
        <time>2013-05-10T15:17:07Z</time>
      </trkpt>
      <trkpt lat="46.59754" lon="6.09499">
        <ele>1080.66</ele>
        <time>2013-05-10T15:17:08Z</time>
      </trkpt>
      <trkpt lat="46.59759" lon="6.09498">
        <ele>1080.18</ele>
        <time>2013-05-10T15:17:09Z</time>
      </trkpt>
      <trkpt lat="46.59769" lon="6.09497">
        <ele>1079.7</ele>
        <time>2013-05-10T15:17:11Z</time>
      </trkpt>
      <trkpt lat="46.59804" lon="6.09497">
        <ele>1080.18</ele>
        <time>2013-05-10T15:17:22Z</time>
      </trkpt>
      <trkpt lat="46.59812" lon="6.09501">
        <ele>1080.18</ele>
        <time>2013-05-10T15:17:28Z</time>
      </trkpt>
      <trkpt lat="46.59813" lon="6.09502">
        <ele>1080.18</ele>
        <time>2013-05-10T15:17:29Z</time>
      </trkpt>
      <trkpt lat="46.59816" lon="6.09504">
        <ele>1080.18</ele>
        <time>2013-05-10T15:17:40Z</time>
      </trkpt>
      <trkpt lat="46.59818" lon="6.09503">
        <ele>1079.7</ele>
        <time>2013-05-10T15:17:41Z</time>
      </trkpt>
      <trkpt lat="46.5982" lon="6.09503">
        <ele>1079.22</ele>
        <time>2013-05-10T15:17:42Z</time>
      </trkpt>
      <trkpt lat="46.59823" lon="6.09502">
        <ele>1079.22</ele>
        <time>2013-05-10T15:17:43Z</time>
      </trkpt>
      <trkpt lat="46.59825" lon="6.09501">
        <ele>1079.22</ele>
        <time>2013-05-10T15:17:44Z</time>
      </trkpt>
      <trkpt lat="46.5986" lon="6.09495">
        <ele>1076.81</ele>
        <time>2013-05-10T15:17:57Z</time>
      </trkpt>
      <trkpt lat="46.59883" lon="6.09495">
        <ele>1075.85</ele>
        <time>2013-05-10T15:18:07Z</time>
      </trkpt>
      <trkpt lat="46.59896" lon="6.09524">
        <ele>1075.85</ele>
        <time>2013-05-10T15:18:19Z</time>
      </trkpt>
      <trkpt lat="46.59902" lon="6.09572">
        <ele>1076.33</ele>
        <time>2013-05-10T15:18:32Z</time>
      </trkpt>
      <trkpt lat="46.599" lon="6.09616">
        <ele>1076.81</ele>
        <time>2013-05-10T15:18:47Z</time>
      </trkpt>
      <trkpt lat="46.599" lon="6.09616">
        <ele>1076.81</ele>
        <time>2013-05-10T15:19:15Z</time>
      </trkpt>
      <trkpt lat="46.599" lon="6.09615">
        <ele>1076.81</ele>
        <time>2013-05-10T15:19:52Z</time>
      </trkpt>
      <trkpt lat="46.599" lon="6.09626">
        <ele>1076.81</ele>
        <time>2013-05-10T15:20:10Z</time>
      </trkpt>
      <trkpt lat="46.599" lon="6.09631">
        <ele>1077.78</ele>
        <time>2013-05-10T15:20:25Z</time>
      </trkpt>
      <trkpt lat="46.599" lon="6.09631">
        <ele>1077.29</ele>
        <time>2013-05-10T15:20:49Z</time>
      </trkpt>
      <trkpt lat="46.599" lon="6.09631">
        <ele>1077.29</ele>
        <time>2013-05-10T15:21:23Z</time>
      </trkpt>
      <trkpt lat="46.59901" lon="6.09631">
        <ele>1076.81</ele>
        <time>2013-05-10T15:21:56Z</time>
      </trkpt>
      <trkpt lat="46.59901" lon="6.09631">
        <ele>1076.81</ele>
        <time>2013-05-10T15:22:22Z</time>
      </trkpt>
      <trkpt lat="46.59901" lon="6.09633">
        <ele>1076.81</ele>
        <time>2013-05-10T15:22:34Z</time>
      </trkpt>
      <trkpt lat="46.59899" lon="6.09635">
        <ele>1076.81</ele>
        <time>2013-05-10T15:22:42Z</time>
      </trkpt>
      <trkpt lat="46.59899" lon="6.09637">
        <ele>1076.81</ele>
        <time>2013-05-10T15:22:43Z</time>
      </trkpt>
      <trkpt lat="46.599" lon="6.0964">
        <ele>1076.81</ele>
        <time>2013-05-10T15:22:54Z</time>
      </trkpt>
      <trkpt lat="46.59901" lon="6.09643">
        <ele>1077.29</ele>
        <time>2013-05-10T15:22:58Z</time>
      </trkpt>
      <trkpt lat="46.59902" lon="6.09646">
        <ele>1076.81</ele>
        <time>2013-05-10T15:23:14Z</time>
      </trkpt>
      <trkpt lat="46.59905" lon="6.09654">
        <ele>1076.81</ele>
        <time>2013-05-10T15:23:31Z</time>
      </trkpt>
      <trkpt lat="46.59911" lon="6.09685">
        <ele>1077.78</ele>
        <time>2013-05-10T15:23:44Z</time>
      </trkpt>
      <trkpt lat="46.59922" lon="6.09734">
        <ele>1077.78</ele>
        <time>2013-05-10T15:23:59Z</time>
      </trkpt>
      <trkpt lat="46.59927" lon="6.0978">
        <ele>1076.81</ele>
        <time>2013-05-10T15:24:10Z</time>
      </trkpt>
      <trkpt lat="46.59929" lon="6.09826">
        <ele>1077.78</ele>
        <time>2013-05-10T15:24:22Z</time>
      </trkpt>
      <trkpt lat="46.59935" lon="6.09859">
        <ele>1077.78</ele>
        <time>2013-05-10T15:24:33Z</time>
      </trkpt>
      <trkpt lat="46.59939" lon="6.09883">
        <ele>1078.26</ele>
        <time>2013-05-10T15:24:46Z</time>
      </trkpt>
      <trkpt lat="46.59943" lon="6.09902">
        <ele>1078.74</ele>
        <time>2013-05-10T15:24:57Z</time>
      </trkpt>
      <trkpt lat="46.59948" lon="6.0993">
        <ele>1078.74</ele>
        <time>2013-05-10T15:25:09Z</time>
      </trkpt>
      <trkpt lat="46.59949" lon="6.09943">
        <ele>1078.74</ele>
        <time>2013-05-10T15:25:19Z</time>
      </trkpt>
      <trkpt lat="46.59948" lon="6.09963">
        <ele>1079.22</ele>
        <time>2013-05-10T15:25:32Z</time>
      </trkpt>
      <trkpt lat="46.59948" lon="6.09966">
        <ele>1079.22</ele>
        <time>2013-05-10T15:25:33Z</time>
      </trkpt>
      <trkpt lat="46.5995" lon="6.09973">
        <ele>1079.22</ele>
        <time>2013-05-10T15:25:36Z</time>
      </trkpt>
      <trkpt lat="46.59957" lon="6.09998">
        <ele>1079.7</ele>
        <time>2013-05-10T15:25:49Z</time>
      </trkpt>
      <trkpt lat="46.59961" lon="6.09999">
        <ele>1079.7</ele>
        <time>2013-05-10T15:25:51Z</time>
      </trkpt>
      <trkpt lat="46.59967" lon="6.10003">
        <ele>1079.7</ele>
        <time>2013-05-10T15:25:57Z</time>
      </trkpt>
      <trkpt lat="46.59968" lon="6.10004">
        <ele>1079.22</ele>
        <time>2013-05-10T15:25:58Z</time>
      </trkpt>
      <trkpt lat="46.59969" lon="6.10006">
        <ele>1079.22</ele>
        <time>2013-05-10T15:25:59Z</time>
      </trkpt>
      <trkpt lat="46.59971" lon="6.10007">
        <ele>1079.22</ele>
        <time>2013-05-10T15:26:00Z</time>
      </trkpt>
      <trkpt lat="46.59972" lon="6.10009">
        <ele>1078.74</ele>
        <time>2013-05-10T15:26:01Z</time>
      </trkpt>
      <trkpt lat="46.59974" lon="6.10011">
        <ele>1078.74</ele>
        <time>2013-05-10T15:26:02Z</time>
      </trkpt>
      <trkpt lat="46.59976" lon="6.10014">
        <ele>1078.26</ele>
        <time>2013-05-10T15:26:03Z</time>
      </trkpt>
      <trkpt lat="46.59978" lon="6.10018">
        <ele>1078.26</ele>
        <time>2013-05-10T15:26:04Z</time>
      </trkpt>
      <trkpt lat="46.5998" lon="6.10021">
        <ele>1078.26</ele>
        <time>2013-05-10T15:26:05Z</time>
      </trkpt>
      <trkpt lat="46.59982" lon="6.10024">
        <ele>1078.74</ele>
        <time>2013-05-10T15:26:06Z</time>
      </trkpt>
      <trkpt lat="46.59983" lon="6.10027">
        <ele>1078.74</ele>
        <time>2013-05-10T15:26:07Z</time>
      </trkpt>
      <trkpt lat="46.59985" lon="6.10029">
        <ele>1078.74</ele>
        <time>2013-05-10T15:26:08Z</time>
      </trkpt>
      <trkpt lat="46.59986" lon="6.10032">
        <ele>1079.22</ele>
        <time>2013-05-10T15:26:09Z</time>
      </trkpt>
      <trkpt lat="46.59987" lon="6.10034">
        <ele>1079.22</ele>
        <time>2013-05-10T15:26:10Z</time>
      </trkpt>
      <trkpt lat="46.59988" lon="6.10036">
        <ele>1079.22</ele>
        <time>2013-05-10T15:26:11Z</time>
      </trkpt>
      <trkpt lat="46.60008" lon="6.10069">
        <ele>1079.22</ele>
        <time>2013-05-10T15:26:20Z</time>
      </trkpt>
      <trkpt lat="46.60036" lon="6.10118">
        <ele>1079.22</ele>
        <time>2013-05-10T15:26:32Z</time>
      </trkpt>
      <trkpt lat="46.60058" lon="6.10151">
        <ele>1079.7</ele>
        <time>2013-05-10T15:26:44Z</time>
      </trkpt>
      <trkpt lat="46.60079" lon="6.10165">
        <ele>1080.18</ele>
        <time>2013-05-10T15:26:57Z</time>
      </trkpt>
      <trkpt lat="46.60087" lon="6.10178">
        <ele>1080.66</ele>
        <time>2013-05-10T15:27:03Z</time>
      </trkpt>
      <trkpt lat="46.60089" lon="6.10178">
        <ele>1080.66</ele>
        <time>2013-05-10T15:27:04Z</time>
      </trkpt>
      <trkpt lat="46.60113" lon="6.10198">
        <ele>1080.66</ele>
        <time>2013-05-10T15:27:15Z</time>
      </trkpt>
      <trkpt lat="46.60119" lon="6.10209">
        <ele>1081.14</ele>
        <time>2013-05-10T15:27:20Z</time>
      </trkpt>
      <trkpt lat="46.60121" lon="6.10212">
        <ele>1081.14</ele>
        <time>2013-05-10T15:27:21Z</time>
      </trkpt>
      <trkpt lat="46.60122" lon="6.10214">
        <ele>1081.14</ele>
        <time>2013-05-10T15:27:22Z</time>
      </trkpt>
      <trkpt lat="46.60122" lon="6.10216">
        <ele>1081.14</ele>
        <time>2013-05-10T15:27:23Z</time>
      </trkpt>
      <trkpt lat="46.60123" lon="6.10218">
        <ele>1081.14</ele>
        <time>2013-05-10T15:27:24Z</time>
      </trkpt>
      <trkpt lat="46.60141" lon="6.10249">
        <ele>1081.62</ele>
        <time>2013-05-10T15:27:34Z</time>
      </trkpt>
      <trkpt lat="46.60168" lon="6.10284">
        <ele>1082.1</ele>
        <time>2013-05-10T15:27:46Z</time>
      </trkpt>
      <trkpt lat="46.60176" lon="6.10335">
        <ele>1083.06</ele>
        <time>2013-05-10T15:27:59Z</time>
      </trkpt>
      <trkpt lat="46.60169" lon="6.10374">
        <ele>1083.54</ele>
        <time>2013-05-10T15:28:11Z</time>
      </trkpt>
      <trkpt lat="46.60153" lon="6.10386">
        <ele>1084.5</ele>
        <time>2013-05-10T15:28:23Z</time>
      </trkpt>
      <trkpt lat="46.60129" lon="6.10412">
        <ele>1086.43</ele>
        <time>2013-05-10T15:28:37Z</time>
      </trkpt>
      <trkpt lat="46.60113" lon="6.10428">
        <ele>1085.95</ele>
        <time>2013-05-10T15:28:46Z</time>
      </trkpt>
      <trkpt lat="46.60093" lon="6.10463">
        <ele>1084.02</ele>
        <time>2013-05-10T15:28:55Z</time>
      </trkpt>
      <trkpt lat="46.6009" lon="6.10468">
        <ele>1084.02</ele>
        <time>2013-05-10T15:28:56Z</time>
      </trkpt>
      <trkpt lat="46.60088" lon="6.10472">
        <ele>1084.02</ele>
        <time>2013-05-10T15:28:57Z</time>
      </trkpt>
      <trkpt lat="46.60085" lon="6.10475">
        <ele>1083.54</ele>
        <time>2013-05-10T15:28:58Z</time>
      </trkpt>
      <trkpt lat="46.60083" lon="6.10477">
        <ele>1084.02</ele>
        <time>2013-05-10T15:28:59Z</time>
      </trkpt>
      <trkpt lat="46.60082" lon="6.10479">
        <ele>1084.02</ele>
        <time>2013-05-10T15:29:00Z</time>
      </trkpt>
      <trkpt lat="46.6008" lon="6.10482">
        <ele>1084.02</ele>
        <time>2013-05-10T15:29:01Z</time>
      </trkpt>
      <trkpt lat="46.60078" lon="6.10485">
        <ele>1085.47</ele>
        <time>2013-05-10T15:29:02Z</time>
      </trkpt>
      <trkpt lat="46.60076" lon="6.10487">
        <ele>1084.02</ele>
        <time>2013-05-10T15:29:03Z</time>
      </trkpt>
      <trkpt lat="46.60074" lon="6.1049">
        <ele>1084.02</ele>
        <time>2013-05-10T15:29:04Z</time>
      </trkpt>
      <trkpt lat="46.60073" lon="6.10492">
        <ele>1084.02</ele>
        <time>2013-05-10T15:29:05Z</time>
      </trkpt>
      <trkpt lat="46.60071" lon="6.10495">
        <ele>1083.54</ele>
        <time>2013-05-10T15:29:06Z</time>
      </trkpt>
      <trkpt lat="46.60069" lon="6.10498">
        <ele>1083.54</ele>
        <time>2013-05-10T15:29:07Z</time>
      </trkpt>
      <trkpt lat="46.60068" lon="6.10501">
        <ele>1083.54</ele>
        <time>2013-05-10T15:29:08Z</time>
      </trkpt>
      <trkpt lat="46.60055" lon="6.10521">
        <ele>1084.5</ele>
        <time>2013-05-10T15:29:20Z</time>
      </trkpt>
      <trkpt lat="46.60044" lon="6.10541">
        <ele>1084.02</ele>
        <time>2013-05-10T15:29:29Z</time>
      </trkpt>
      <trkpt lat="46.60035" lon="6.10579">
        <ele>1084.99</ele>
        <time>2013-05-10T15:29:42Z</time>
      </trkpt>
      <trkpt lat="46.60044" lon="6.10601">
        <ele>1084.02</ele>
        <time>2013-05-10T15:29:48Z</time>
      </trkpt>
      <trkpt lat="46.60051" lon="6.10622">
        <ele>1081.62</ele>
        <time>2013-05-10T15:29:51Z</time>
      </trkpt>
      <trkpt lat="46.60052" lon="6.10631">
        <ele>1081.62</ele>
        <time>2013-05-10T15:29:52Z</time>
      </trkpt>
      <trkpt lat="46.60058" lon="6.10666">
        <ele>1080.18</ele>
        <time>2013-05-10T15:29:56Z</time>
      </trkpt>
      <trkpt lat="46.60075" lon="6.10721">
        <ele>1080.66</ele>
        <time>2013-05-10T15:30:05Z</time>
      </trkpt>
      <trkpt lat="46.60072" lon="6.10793">
        <ele>1081.14</ele>
        <time>2013-05-10T15:30:19Z</time>
      </trkpt>
      <trkpt lat="46.60061" lon="6.10864">
        <ele>1081.14</ele>
        <time>2013-05-10T15:30:31Z</time>
      </trkpt>
      <trkpt lat="46.60032" lon="6.10948">
        <ele>1082.1</ele>
        <time>2013-05-10T15:30:47Z</time>
      </trkpt>
      <trkpt lat="46.60022" lon="6.10987">
        <ele>1081.62</ele>
        <time>2013-05-10T15:30:54Z</time>
      </trkpt>
      <trkpt lat="46.60021" lon="6.10993">
        <ele>1081.62</ele>
        <time>2013-05-10T15:30:55Z</time>
      </trkpt>
      <trkpt lat="46.60004" lon="6.11057">
        <ele>1084.02</ele>
        <time>2013-05-10T15:31:09Z</time>
      </trkpt>
      <trkpt lat="46.5999" lon="6.11113">
        <ele>1086.91</ele>
        <time>2013-05-10T15:31:23Z</time>
      </trkpt>
      <trkpt lat="46.5998" lon="6.11154">
        <ele>1090.27</ele>
        <time>2013-05-10T15:31:36Z</time>
      </trkpt>
      <trkpt lat="46.59971" lon="6.11195">
        <ele>1093.16</ele>
        <time>2013-05-10T15:31:49Z</time>
      </trkpt>
      <trkpt lat="46.59965" lon="6.11243">
        <ele>1092.2</ele>
        <time>2013-05-10T15:32:04Z</time>
      </trkpt>
      <trkpt lat="46.59965" lon="6.11247">
        <ele>1097.48</ele>
        <time>2013-05-10T15:32:05Z</time>
      </trkpt>
      <trkpt lat="46.59952" lon="6.11302">
        <ele>1100.85</ele>
        <time>2013-05-10T15:32:21Z</time>
      </trkpt>
      <trkpt lat="46.59932" lon="6.11346">
        <ele>1098.44</ele>
        <time>2013-05-10T15:32:34Z</time>
      </trkpt>
      <trkpt lat="46.59915" lon="6.11369">
        <ele>1095.56</ele>
        <time>2013-05-10T15:32:39Z</time>
      </trkpt>
      <trkpt lat="46.59911" lon="6.11372">
        <ele>1095.56</ele>
        <time>2013-05-10T15:32:40Z</time>
      </trkpt>
      <trkpt lat="46.59903" lon="6.1139">
        <ele>1095.56</ele>
        <time>2013-05-10T15:32:46Z</time>
      </trkpt>
      <trkpt lat="46.59904" lon="6.11393">
        <ele>1095.08</ele>
        <time>2013-05-10T15:32:47Z</time>
      </trkpt>
      <trkpt lat="46.59907" lon="6.11395">
        <ele>1095.08</ele>
        <time>2013-05-10T15:32:48Z</time>
      </trkpt>
      <trkpt lat="46.59909" lon="6.11397">
        <ele>1095.08</ele>
        <time>2013-05-10T15:32:49Z</time>
      </trkpt>
      <trkpt lat="46.59912" lon="6.11399">
        <ele>1095.08</ele>
        <time>2013-05-10T15:32:50Z</time>
      </trkpt>
      <trkpt lat="46.59914" lon="6.11401">
        <ele>1092.68</ele>
        <time>2013-05-10T15:32:51Z</time>
      </trkpt>
      <trkpt lat="46.59917" lon="6.11404">
        <ele>1096.52</ele>
        <time>2013-05-10T15:32:52Z</time>
      </trkpt>
      <trkpt lat="46.59955" lon="6.11434">
        <ele>1096.04</ele>
        <time>2013-05-10T15:33:04Z</time>
      </trkpt>
      <trkpt lat="46.5998" lon="6.11453">
        <ele>1094.12</ele>
        <time>2013-05-10T15:33:13Z</time>
      </trkpt>
      <trkpt lat="46.59983" lon="6.11453">
        <ele>1094.12</ele>
        <time>2013-05-10T15:33:14Z</time>
      </trkpt>
      <trkpt lat="46.59987" lon="6.11454">
        <ele>1094.12</ele>
        <time>2013-05-10T15:33:15Z</time>
      </trkpt>
      <trkpt lat="46.60036" lon="6.11465">
        <ele>1091.23</ele>
        <time>2013-05-10T15:33:25Z</time>
      </trkpt>
      <trkpt lat="46.60093" lon="6.11461">
        <ele>1092.2</ele>
        <time>2013-05-10T15:33:38Z</time>
      </trkpt>
      <trkpt lat="46.60141" lon="6.1144">
        <ele>1094.12</ele>
        <time>2013-05-10T15:33:52Z</time>
      </trkpt>
      <trkpt lat="46.60178" lon="6.1141">
        <ele>1095.08</ele>
        <time>2013-05-10T15:34:07Z</time>
      </trkpt>
      <trkpt lat="46.60208" lon="6.11371">
        <ele>1094.6</ele>
        <time>2013-05-10T15:34:19Z</time>
      </trkpt>
      <trkpt lat="46.60231" lon="6.11335">
        <ele>1094.6</ele>
        <time>2013-05-10T15:34:30Z</time>
      </trkpt>
      <trkpt lat="46.60261" lon="6.11303">
        <ele>1092.68</ele>
        <time>2013-05-10T15:34:40Z</time>
      </trkpt>
      <trkpt lat="46.60265" lon="6.113">
        <ele>1092.68</ele>
        <time>2013-05-10T15:34:41Z</time>
      </trkpt>
      <trkpt lat="46.60299" lon="6.1128">
        <ele>1092.68</ele>
        <time>2013-05-10T15:34:51Z</time>
      </trkpt>
      <trkpt lat="46.60301" lon="6.11281">
        <ele>1092.68</ele>
        <time>2013-05-10T15:34:52Z</time>
      </trkpt>
      <trkpt lat="46.60302" lon="6.11283">
        <ele>1093.16</ele>
        <time>2013-05-10T15:34:53Z</time>
      </trkpt>
      <trkpt lat="46.60303" lon="6.11285">
        <ele>1093.16</ele>
        <time>2013-05-10T15:34:54Z</time>
      </trkpt>
      <trkpt lat="46.60304" lon="6.11287">
        <ele>1093.16</ele>
        <time>2013-05-10T15:34:55Z</time>
      </trkpt>
      <trkpt lat="46.60306" lon="6.1129">
        <ele>1093.16</ele>
        <time>2013-05-10T15:35:07Z</time>
      </trkpt>
      <trkpt lat="46.60306" lon="6.1129">
        <ele>1093.16</ele>
        <time>2013-05-10T15:35:25Z</time>
      </trkpt>
      <trkpt lat="46.60306" lon="6.1129">
        <ele>1093.16</ele>
        <time>2013-05-10T15:36:05Z</time>
      </trkpt>
      <trkpt lat="46.60307" lon="6.1129">
        <ele>1093.16</ele>
        <time>2013-05-10T15:36:38Z</time>
      </trkpt>
      <trkpt lat="46.60306" lon="6.11288">
        <ele>1093.16</ele>
        <time>2013-05-10T15:36:51Z</time>
      </trkpt>
      <trkpt lat="46.60306" lon="6.11288">
        <ele>1092.68</ele>
        <time>2013-05-10T15:36:56Z</time>
      </trkpt>
      <trkpt lat="46.60305" lon="6.11286">
        <ele>1092.68</ele>
        <time>2013-05-10T15:36:57Z</time>
      </trkpt>
      <trkpt lat="46.60305" lon="6.11284">
        <ele>1092.68</ele>
        <time>2013-05-10T15:36:58Z</time>
      </trkpt>
      <trkpt lat="46.60305" lon="6.11281">
        <ele>1092.2</ele>
        <time>2013-05-10T15:36:59Z</time>
      </trkpt>
      <trkpt lat="46.60306" lon="6.11277">
        <ele>1091.71</ele>
        <time>2013-05-10T15:37:00Z</time>
      </trkpt>
      <trkpt lat="46.60308" lon="6.11274">
        <ele>1091.71</ele>
        <time>2013-05-10T15:37:01Z</time>
      </trkpt>
      <trkpt lat="46.6031" lon="6.11272">
        <ele>1092.2</ele>
        <time>2013-05-10T15:37:02Z</time>
      </trkpt>
      <trkpt lat="46.60313" lon="6.1127">
        <ele>1092.2</ele>
        <time>2013-05-10T15:37:03Z</time>
      </trkpt>
      <trkpt lat="46.60347" lon="6.11237">
        <ele>1093.64</ele>
        <time>2013-05-10T15:37:18Z</time>
      </trkpt>
      <trkpt lat="46.60372" lon="6.11209">
        <ele>1099.4</ele>
        <time>2013-05-10T15:37:30Z</time>
      </trkpt>
      <trkpt lat="46.60373" lon="6.11207">
        <ele>1094.12</ele>
        <time>2013-05-10T15:37:31Z</time>
      </trkpt>
      <trkpt lat="46.60375" lon="6.11204">
        <ele>1097.48</ele>
        <time>2013-05-10T15:37:32Z</time>
      </trkpt>
      <trkpt lat="46.60405" lon="6.1117">
        <ele>1096.52</ele>
        <time>2013-05-10T15:37:45Z</time>
      </trkpt>
      <trkpt lat="46.60449" lon="6.11157">
        <ele>1097.48</ele>
        <time>2013-05-10T15:37:59Z</time>
      </trkpt>
      <trkpt lat="46.60489" lon="6.11161">
        <ele>1097.48</ele>
        <time>2013-05-10T15:38:11Z</time>
      </trkpt>
      <trkpt lat="46.60532" lon="6.11171">
        <ele>1098.92</ele>
        <time>2013-05-10T15:38:25Z</time>
      </trkpt>
      <trkpt lat="46.60571" lon="6.11195">
        <ele>1099.89</ele>
        <time>2013-05-10T15:38:37Z</time>
      </trkpt>
      <trkpt lat="46.60609" lon="6.1122">
        <ele>1100.37</ele>
        <time>2013-05-10T15:38:50Z</time>
      </trkpt>
      <trkpt lat="46.60651" lon="6.1125">
        <ele>1100.85</ele>
        <time>2013-05-10T15:39:05Z</time>
      </trkpt>
      <trkpt lat="46.6068" lon="6.11268">
        <ele>1101.81</ele>
        <time>2013-05-10T15:39:15Z</time>
      </trkpt>
      <trkpt lat="46.60713" lon="6.11277">
        <ele>1103.25</ele>
        <time>2013-05-10T15:39:28Z</time>
      </trkpt>
      <trkpt lat="46.60735" lon="6.11278">
        <ele>1105.17</ele>
        <time>2013-05-10T15:39:41Z</time>
      </trkpt>
      <trkpt lat="46.60762" lon="6.113">
        <ele>1108.06</ele>
        <time>2013-05-10T15:39:47Z</time>
      </trkpt>
      <trkpt lat="46.60806" lon="6.11361">
        <ele>1109.02</ele>
        <time>2013-05-10T15:40:00Z</time>
      </trkpt>
      <trkpt lat="46.60834" lon="6.11401">
        <ele>1109.02</ele>
        <time>2013-05-10T15:40:13Z</time>
      </trkpt>
      <trkpt lat="46.60845" lon="6.11417">
        <ele>1108.06</ele>
        <time>2013-05-10T15:40:21Z</time>
      </trkpt>
      <trkpt lat="46.60846" lon="6.11419">
        <ele>1108.06</ele>
        <time>2013-05-10T15:40:22Z</time>
      </trkpt>
      <trkpt lat="46.60853" lon="6.1147">
        <ele>1107.58</ele>
        <time>2013-05-10T15:40:32Z</time>
      </trkpt>
      <trkpt lat="46.60852" lon="6.11494">
        <ele>1109.02</ele>
        <time>2013-05-10T15:40:37Z</time>
      </trkpt>
      <trkpt lat="46.60833" lon="6.11534">
        <ele>1110.46</ele>
        <time>2013-05-10T15:40:48Z</time>
      </trkpt>
      <trkpt lat="46.60824" lon="6.11562">
        <ele>1111.9</ele>
        <time>2013-05-10T15:40:55Z</time>
      </trkpt>
      <trkpt lat="46.60798" lon="6.11597">
        <ele>1113.34</ele>
        <time>2013-05-10T15:41:06Z</time>
      </trkpt>
      <trkpt lat="46.60789" lon="6.11606">
        <ele>1113.34</ele>
        <time>2013-05-10T15:41:09Z</time>
      </trkpt>
      <trkpt lat="46.60787" lon="6.11608">
        <ele>1113.34</ele>
        <time>2013-05-10T15:41:10Z</time>
      </trkpt>
      <trkpt lat="46.6078" lon="6.11621">
        <ele>1113.34</ele>
        <time>2013-05-10T15:41:19Z</time>
      </trkpt>
      <trkpt lat="46.6078" lon="6.11621">
        <ele>1112.86</ele>
        <time>2013-05-10T15:41:47Z</time>
      </trkpt>
      <trkpt lat="46.6078" lon="6.11621">
        <ele>1111.42</ele>
        <time>2013-05-10T15:42:07Z</time>
      </trkpt>
      <trkpt lat="46.6078" lon="6.11621">
        <ele>1114.79</ele>
        <time>2013-05-10T15:42:08Z</time>
      </trkpt>
      <trkpt lat="46.6078" lon="6.11621">
        <ele>1111.42</ele>
        <time>2013-05-10T15:42:12Z</time>
      </trkpt>
      <trkpt lat="46.6078" lon="6.11621">
        <ele>1115.27</ele>
        <time>2013-05-10T15:42:13Z</time>
      </trkpt>
      <trkpt lat="46.6078" lon="6.11621">
        <ele>1111.42</ele>
        <time>2013-05-10T15:42:26Z</time>
      </trkpt>
      <trkpt lat="46.6078" lon="6.11621">
        <ele>1114.79</ele>
        <time>2013-05-10T15:42:27Z</time>
      </trkpt>
      <trkpt lat="46.60782" lon="6.11628">
        <ele>1113.34</ele>
        <time>2013-05-10T15:42:36Z</time>
      </trkpt>
      <trkpt lat="46.60781" lon="6.11631">
        <ele>1113.34</ele>
        <time>2013-05-10T15:42:37Z</time>
      </trkpt>
      <trkpt lat="46.60779" lon="6.11633">
        <ele>1112.86</ele>
        <time>2013-05-10T15:42:38Z</time>
      </trkpt>
      <trkpt lat="46.60778" lon="6.11636">
        <ele>1112.86</ele>
        <time>2013-05-10T15:42:39Z</time>
      </trkpt>
      <trkpt lat="46.60777" lon="6.1164">
        <ele>1112.38</ele>
        <time>2013-05-10T15:42:40Z</time>
      </trkpt>
      <trkpt lat="46.60776" lon="6.11643">
        <ele>1112.38</ele>
        <time>2013-05-10T15:42:41Z</time>
      </trkpt>
      <trkpt lat="46.60774" lon="6.11645">
        <ele>1112.38</ele>
        <time>2013-05-10T15:42:42Z</time>
      </trkpt>
      <trkpt lat="46.60772" lon="6.11646">
        <ele>1112.38</ele>
        <time>2013-05-10T15:42:43Z</time>
      </trkpt>
      <trkpt lat="46.60752" lon="6.11653">
        <ele>1112.86</ele>
        <time>2013-05-10T15:42:54Z</time>
      </trkpt>
      <trkpt lat="46.6075" lon="6.11653">
        <ele>1112.86</ele>
        <time>2013-05-10T15:42:56Z</time>
      </trkpt>
      <trkpt lat="46.60752" lon="6.11658">
        <ele>1112.86</ele>
        <time>2013-05-10T15:42:58Z</time>
      </trkpt>
      <trkpt lat="46.60822" lon="6.1175">
        <ele>1112.86</ele>
        <time>2013-05-10T15:43:04Z</time>
      </trkpt>
      <trkpt lat="46.6082" lon="6.11781">
        <ele>1114.79</ele>
        <time>2013-05-10T15:43:13Z</time>
      </trkpt>
      <trkpt lat="46.6083" lon="6.11802">
        <ele>1115.75</ele>
        <time>2013-05-10T15:43:20Z</time>
      </trkpt>
      <trkpt lat="46.60838" lon="6.11814">
        <ele>1116.23</ele>
        <time>2013-05-10T15:43:24Z</time>
      </trkpt>
      <trkpt lat="46.60852" lon="6.11837">
        <ele>1116.71</ele>
        <time>2013-05-10T15:43:31Z</time>
      </trkpt>
      <trkpt lat="46.60866" lon="6.11861">
        <ele>1117.19</ele>
        <time>2013-05-10T15:43:41Z</time>
      </trkpt>
      <trkpt lat="46.60866" lon="6.11868">
        <ele>1117.19</ele>
        <time>2013-05-10T15:43:46Z</time>
      </trkpt>
      <trkpt lat="46.60866" lon="6.11885">
        <ele>1116.23</ele>
        <time>2013-05-10T15:43:54Z</time>
      </trkpt>
      <trkpt lat="46.60867" lon="6.11903">
        <ele>1115.75</ele>
        <time>2013-05-10T15:44:05Z</time>
      </trkpt>
      <trkpt lat="46.6087" lon="6.11913">
        <ele>1115.75</ele>
        <time>2013-05-10T15:44:11Z</time>
      </trkpt>
      <trkpt lat="46.60878" lon="6.11937">
        <ele>1115.27</ele>
        <time>2013-05-10T15:44:20Z</time>
      </trkpt>
      <trkpt lat="46.60881" lon="6.11949">
        <ele>1115.75</ele>
        <time>2013-05-10T15:44:25Z</time>
      </trkpt>
      <trkpt lat="46.60881" lon="6.11955">
        <ele>1116.23</ele>
        <time>2013-05-10T15:44:28Z</time>
      </trkpt>
      <trkpt lat="46.60891" lon="6.11971">
        <ele>1116.23</ele>
        <time>2013-05-10T15:44:34Z</time>
      </trkpt>
      <trkpt lat="46.60908" lon="6.11997">
        <ele>1116.71</ele>
        <time>2013-05-10T15:44:43Z</time>
      </trkpt>
      <trkpt lat="46.60915" lon="6.1201">
        <ele>1117.19</ele>
        <time>2013-05-10T15:44:47Z</time>
      </trkpt>
      <trkpt lat="46.60934" lon="6.12028">
        <ele>1118.15</ele>
        <time>2013-05-10T15:44:54Z</time>
      </trkpt>
      <trkpt lat="46.60971" lon="6.12043">
        <ele>1117.19</ele>
        <time>2013-05-10T15:45:06Z</time>
      </trkpt>
      <trkpt lat="46.61001" lon="6.12077">
        <ele>1116.71</ele>
        <time>2013-05-10T15:45:17Z</time>
      </trkpt>
      <trkpt lat="46.61022" lon="6.1211">
        <ele>1116.23</ele>
        <time>2013-05-10T15:45:28Z</time>
      </trkpt>
      <trkpt lat="46.61023" lon="6.12111">
        <ele>1116.23</ele>
        <time>2013-05-10T15:45:29Z</time>
      </trkpt>
      <trkpt lat="46.61026" lon="6.12114">
        <ele>1116.23</ele>
        <time>2013-05-10T15:45:33Z</time>
      </trkpt>
      <trkpt lat="46.61039" lon="6.12142">
        <ele>1113.82</ele>
        <time>2013-05-10T15:45:46Z</time>
      </trkpt>
      <trkpt lat="46.61051" lon="6.12162">
        <ele>1113.82</ele>
        <time>2013-05-10T15:45:55Z</time>
      </trkpt>
      <trkpt lat="46.61076" lon="6.12176">
        <ele>1113.82</ele>
        <time>2013-05-10T15:46:05Z</time>
      </trkpt>
      <trkpt lat="46.61104" lon="6.12198">
        <ele>1115.27</ele>
        <time>2013-05-10T15:46:16Z</time>
      </trkpt>
      <trkpt lat="46.61117" lon="6.12212">
        <ele>1115.27</ele>
        <time>2013-05-10T15:46:21Z</time>
      </trkpt>
      <trkpt lat="46.61122" lon="6.12228">
        <ele>1115.27</ele>
        <time>2013-05-10T15:46:26Z</time>
      </trkpt>
      <trkpt lat="46.61146" lon="6.12256">
        <ele>1116.71</ele>
        <time>2013-05-10T15:46:35Z</time>
      </trkpt>
      <trkpt lat="46.61165" lon="6.1226">
        <ele>1116.71</ele>
        <time>2013-05-10T15:46:41Z</time>
      </trkpt>
      <trkpt lat="46.61176" lon="6.12261">
        <ele>1117.19</ele>
        <time>2013-05-10T15:46:45Z</time>
      </trkpt>
      <trkpt lat="46.61187" lon="6.12251">
        <ele>1118.63</ele>
        <time>2013-05-10T15:46:51Z</time>
      </trkpt>
      <trkpt lat="46.61188" lon="6.12237">
        <ele>1118.63</ele>
        <time>2013-05-10T15:46:56Z</time>
      </trkpt>
      <trkpt lat="46.61195" lon="6.12218">
        <ele>1120.07</ele>
        <time>2013-05-10T15:47:04Z</time>
      </trkpt>
      <trkpt lat="46.612" lon="6.12205">
        <ele>1119.11</ele>
        <time>2013-05-10T15:47:07Z</time>
      </trkpt>
      <trkpt lat="46.61207" lon="6.12187">
        <ele>1120.55</ele>
        <time>2013-05-10T15:47:10Z</time>
      </trkpt>
      <trkpt lat="46.61213" lon="6.1218">
        <ele>1122</ele>
        <time>2013-05-10T15:47:12Z</time>
      </trkpt>
      <trkpt lat="46.61219" lon="6.12174">
        <ele>1123.92</ele>
        <time>2013-05-10T15:47:14Z</time>
      </trkpt>
      <trkpt lat="46.61265" lon="6.12176">
        <ele>1124.4</ele>
        <time>2013-05-10T15:47:24Z</time>
      </trkpt>
      <trkpt lat="46.61282" lon="6.12177">
        <ele>1124.88</ele>
        <time>2013-05-10T15:47:28Z</time>
      </trkpt>
      <trkpt lat="46.61293" lon="6.1217">
        <ele>1125.36</ele>
        <time>2013-05-10T15:47:32Z</time>
      </trkpt>
      <trkpt lat="46.61294" lon="6.12166">
        <ele>1125.84</ele>
        <time>2013-05-10T15:47:33Z</time>
      </trkpt>
      <trkpt lat="46.61295" lon="6.12164">
        <ele>1125.84</ele>
        <time>2013-05-10T15:47:34Z</time>
      </trkpt>
      <trkpt lat="46.61303" lon="6.12158">
        <ele>1127.28</ele>
        <time>2013-05-10T15:47:38Z</time>
      </trkpt>
      <trkpt lat="46.61305" lon="6.12152">
        <ele>1127.28</ele>
        <time>2013-05-10T15:47:41Z</time>
      </trkpt>
      <trkpt lat="46.61303" lon="6.12147">
        <ele>1127.76</ele>
        <time>2013-05-10T15:47:43Z</time>
      </trkpt>
      <trkpt lat="46.61304" lon="6.1214">
        <ele>1127.76</ele>
        <time>2013-05-10T15:47:46Z</time>
      </trkpt>
      <trkpt lat="46.61309" lon="6.12133">
        <ele>1128.24</ele>
        <time>2013-05-10T15:47:50Z</time>
      </trkpt>
      <trkpt lat="46.6131" lon="6.1213">
        <ele>1129.69</ele>
        <time>2013-05-10T15:47:51Z</time>
      </trkpt>
      <trkpt lat="46.61312" lon="6.12127">
        <ele>1128.73</ele>
        <time>2013-05-10T15:47:52Z</time>
      </trkpt>
      <trkpt lat="46.61316" lon="6.1212">
        <ele>1129.21</ele>
        <time>2013-05-10T15:47:55Z</time>
      </trkpt>
      <trkpt lat="46.61321" lon="6.12119">
        <ele>1130.17</ele>
        <time>2013-05-10T15:47:57Z</time>
      </trkpt>
      <trkpt lat="46.61347" lon="6.12114">
        <ele>1131.13</ele>
        <time>2013-05-10T15:48:07Z</time>
      </trkpt>
      <trkpt lat="46.61352" lon="6.12097">
        <ele>1130.17</ele>
        <time>2013-05-10T15:48:12Z</time>
      </trkpt>
      <trkpt lat="46.61354" lon="6.12092">
        <ele>1131.13</ele>
        <time>2013-05-10T15:48:14Z</time>
      </trkpt>
      <trkpt lat="46.61376" lon="6.12059">
        <ele>1129.69</ele>
        <time>2013-05-10T15:48:21Z</time>
      </trkpt>
      <trkpt lat="46.61379" lon="6.12053">
        <ele>1129.69</ele>
        <time>2013-05-10T15:48:22Z</time>
      </trkpt>
      <trkpt lat="46.61399" lon="6.12041">
        <ele>1130.65</ele>
        <time>2013-05-10T15:48:27Z</time>
      </trkpt>
      <trkpt lat="46.61403" lon="6.12039">
        <ele>1130.65</ele>
        <time>2013-05-10T15:48:28Z</time>
      </trkpt>
      <trkpt lat="46.61405" lon="6.12036">
        <ele>1130.65</ele>
        <time>2013-05-10T15:48:29Z</time>
      </trkpt>
      <trkpt lat="46.61432" lon="6.12008">
        <ele>1130.17</ele>
        <time>2013-05-10T15:48:39Z</time>
      </trkpt>
      <trkpt lat="46.61455" lon="6.12003">
        <ele>1132.09</ele>
        <time>2013-05-10T15:48:44Z</time>
      </trkpt>
      <trkpt lat="46.61456" lon="6.12">
        <ele>1131.61</ele>
        <time>2013-05-10T15:48:45Z</time>
      </trkpt>
      <trkpt lat="46.6146" lon="6.11991">
        <ele>1129.69</ele>
        <time>2013-05-10T15:48:48Z</time>
      </trkpt>
      <trkpt lat="46.61467" lon="6.11991">
        <ele>1129.69</ele>
        <time>2013-05-10T15:48:52Z</time>
      </trkpt>
      <trkpt lat="46.61503" lon="6.12002">
        <ele>1130.65</ele>
        <time>2013-05-10T15:48:58Z</time>
      </trkpt>
      <trkpt lat="46.61514" lon="6.12003">
        <ele>1130.65</ele>
        <time>2013-05-10T15:48:59Z</time>
      </trkpt>
      <trkpt lat="46.61566" lon="6.11986">
        <ele>1131.61</ele>
        <time>2013-05-10T15:49:09Z</time>
      </trkpt>
      <trkpt lat="46.61588" lon="6.11961">
        <ele>1131.61</ele>
        <time>2013-05-10T15:49:16Z</time>
      </trkpt>
      <trkpt lat="46.61592" lon="6.11957">
        <ele>1131.13</ele>
        <time>2013-05-10T15:49:17Z</time>
      </trkpt>
      <trkpt lat="46.61594" lon="6.11953">
        <ele>1127.76</ele>
        <time>2013-05-10T15:49:18Z</time>
      </trkpt>
      <trkpt lat="46.61596" lon="6.11949">
        <ele>1134.97</ele>
        <time>2013-05-10T15:49:19Z</time>
      </trkpt>
      <trkpt lat="46.61599" lon="6.11946">
        <ele>1128.24</ele>
        <time>2013-05-10T15:49:20Z</time>
      </trkpt>
      <trkpt lat="46.61601" lon="6.11944">
        <ele>1134.49</ele>
        <time>2013-05-10T15:49:21Z</time>
      </trkpt>
      <trkpt lat="46.61603" lon="6.11941">
        <ele>1128.24</ele>
        <time>2013-05-10T15:49:22Z</time>
      </trkpt>
      <trkpt lat="46.61608" lon="6.11939">
        <ele>1130.17</ele>
        <time>2013-05-10T15:49:23Z</time>
      </trkpt>
      <trkpt lat="46.61611" lon="6.11938">
        <ele>1134.01</ele>
        <time>2013-05-10T15:49:24Z</time>
      </trkpt>
      <trkpt lat="46.61614" lon="6.11935">
        <ele>1131.61</ele>
        <time>2013-05-10T15:49:25Z</time>
      </trkpt>
      <trkpt lat="46.61627" lon="6.11931">
        <ele>1134.97</ele>
        <time>2013-05-10T15:49:29Z</time>
      </trkpt>
      <trkpt lat="46.6163" lon="6.11931">
        <ele>1132.57</ele>
        <time>2013-05-10T15:49:30Z</time>
      </trkpt>
      <trkpt lat="46.61659" lon="6.11931">
        <ele>1133.05</ele>
        <time>2013-05-10T15:49:38Z</time>
      </trkpt>
      <trkpt lat="46.61691" lon="6.11929">
        <ele>1134.01</ele>
        <time>2013-05-10T15:49:48Z</time>
      </trkpt>
      <trkpt lat="46.61692" lon="6.11928">
        <ele>1134.01</ele>
        <time>2013-05-10T15:49:49Z</time>
      </trkpt>
      <trkpt lat="46.6173" lon="6.11904">
        <ele>1134.01</ele>
        <time>2013-05-10T15:50:00Z</time>
      </trkpt>
      <trkpt lat="46.61753" lon="6.1186">
        <ele>1134.49</ele>
        <time>2013-05-10T15:50:10Z</time>
      </trkpt>
      <trkpt lat="46.61764" lon="6.11823">
        <ele>1134.01</ele>
        <time>2013-05-10T15:50:17Z</time>
      </trkpt>
      <trkpt lat="46.61769" lon="6.11812">
        <ele>1133.53</ele>
        <time>2013-05-10T15:50:19Z</time>
      </trkpt>
      <trkpt lat="46.61774" lon="6.11801">
        <ele>1133.05</ele>
        <time>2013-05-10T15:50:21Z</time>
      </trkpt>
      <trkpt lat="46.61778" lon="6.11789">
        <ele>1133.05</ele>
        <time>2013-05-10T15:50:23Z</time>
      </trkpt>
      <trkpt lat="46.61779" lon="6.11783">
        <ele>1133.05</ele>
        <time>2013-05-10T15:50:24Z</time>
      </trkpt>
      <trkpt lat="46.61781" lon="6.11778">
        <ele>1133.53</ele>
        <time>2013-05-10T15:50:25Z</time>
      </trkpt>
      <trkpt lat="46.61783" lon="6.11772">
        <ele>1133.53</ele>
        <time>2013-05-10T15:50:26Z</time>
      </trkpt>
      <trkpt lat="46.61786" lon="6.11767">
        <ele>1133.53</ele>
        <time>2013-05-10T15:50:27Z</time>
      </trkpt>
      <trkpt lat="46.61792" lon="6.11749">
        <ele>1133.53</ele>
        <time>2013-05-10T15:50:30Z</time>
      </trkpt>
      <trkpt lat="46.61794" lon="6.11736">
        <ele>1133.05</ele>
        <time>2013-05-10T15:50:32Z</time>
      </trkpt>
      <trkpt lat="46.61797" lon="6.11717">
        <ele>1133.53</ele>
        <time>2013-05-10T15:50:35Z</time>
      </trkpt>
      <trkpt lat="46.61798" lon="6.11711">
        <ele>1133.53</ele>
        <time>2013-05-10T15:50:36Z</time>
      </trkpt>
      <trkpt lat="46.61811" lon="6.11683">
        <ele>1133.05</ele>
        <time>2013-05-10T15:50:41Z</time>
      </trkpt>
      <trkpt lat="46.61814" lon="6.11677">
        <ele>1133.05</ele>
        <time>2013-05-10T15:50:42Z</time>
      </trkpt>
      <trkpt lat="46.6182" lon="6.11665">
        <ele>1133.05</ele>
        <time>2013-05-10T15:50:44Z</time>
      </trkpt>
      <trkpt lat="46.61821" lon="6.11659">
        <ele>1132.57</ele>
        <time>2013-05-10T15:50:45Z</time>
      </trkpt>
      <trkpt lat="46.61823" lon="6.11652">
        <ele>1132.09</ele>
        <time>2013-05-10T15:50:46Z</time>
      </trkpt>
      <trkpt lat="46.61831" lon="6.11628">
        <ele>1132.09</ele>
        <time>2013-05-10T15:50:50Z</time>
      </trkpt>
      <trkpt lat="46.61834" lon="6.11623">
        <ele>1132.09</ele>
        <time>2013-05-10T15:50:51Z</time>
      </trkpt>
      <trkpt lat="46.61841" lon="6.11612">
        <ele>1131.61</ele>
        <time>2013-05-10T15:50:53Z</time>
      </trkpt>
      <trkpt lat="46.61843" lon="6.11605">
        <ele>1131.61</ele>
        <time>2013-05-10T15:50:54Z</time>
      </trkpt>
      <trkpt lat="46.61849" lon="6.11574">
        <ele>1132.09</ele>
        <time>2013-05-10T15:50:59Z</time>
      </trkpt>
      <trkpt lat="46.61859" lon="6.11524">
        <ele>1132.57</ele>
        <time>2013-05-10T15:51:09Z</time>
      </trkpt>
      <trkpt lat="46.61865" lon="6.11512">
        <ele>1132.09</ele>
        <time>2013-05-10T15:51:16Z</time>
      </trkpt>
      <trkpt lat="46.61868" lon="6.11513">
        <ele>1132.09</ele>
        <time>2013-05-10T15:51:17Z</time>
      </trkpt>
      <trkpt lat="46.61871" lon="6.11514">
        <ele>1132.57</ele>
        <time>2013-05-10T15:51:18Z</time>
      </trkpt>
      <trkpt lat="46.61873" lon="6.11514">
        <ele>1132.57</ele>
        <time>2013-05-10T15:51:19Z</time>
      </trkpt>
      <trkpt lat="46.61875" lon="6.11516">
        <ele>1133.05</ele>
        <time>2013-05-10T15:51:20Z</time>
      </trkpt>
      <trkpt lat="46.61879" lon="6.11518">
        <ele>1133.05</ele>
        <time>2013-05-10T15:51:21Z</time>
      </trkpt>
      <trkpt lat="46.61883" lon="6.11519">
        <ele>1133.53</ele>
        <time>2013-05-10T15:51:22Z</time>
      </trkpt>
      <trkpt lat="46.61887" lon="6.11521">
        <ele>1134.01</ele>
        <time>2013-05-10T15:51:24Z</time>
      </trkpt>
      <trkpt lat="46.61914" lon="6.11527">
        <ele>1134.01</ele>
        <time>2013-05-10T15:51:31Z</time>
      </trkpt>
      <trkpt lat="46.61918" lon="6.11528">
        <ele>1134.49</ele>
        <time>2013-05-10T15:51:32Z</time>
      </trkpt>
      <trkpt lat="46.61922" lon="6.11529">
        <ele>1134.49</ele>
        <time>2013-05-10T15:51:33Z</time>
      </trkpt>
      <trkpt lat="46.61925" lon="6.11531">
        <ele>1134.97</ele>
        <time>2013-05-10T15:51:34Z</time>
      </trkpt>
      <trkpt lat="46.61928" lon="6.11533">
        <ele>1134.97</ele>
        <time>2013-05-10T15:51:35Z</time>
      </trkpt>
      <trkpt lat="46.61932" lon="6.11535">
        <ele>1135.45</ele>
        <time>2013-05-10T15:51:36Z</time>
      </trkpt>
      <trkpt lat="46.61936" lon="6.11537">
        <ele>1134.97</ele>
        <time>2013-05-10T15:51:37Z</time>
      </trkpt>
      <trkpt lat="46.6194" lon="6.11539">
        <ele>1134.97</ele>
        <time>2013-05-10T15:51:38Z</time>
      </trkpt>
      <trkpt lat="46.61943" lon="6.11541">
        <ele>1134.49</ele>
        <time>2013-05-10T15:51:39Z</time>
      </trkpt>
      <trkpt lat="46.61947" lon="6.11542">
        <ele>1134.97</ele>
        <time>2013-05-10T15:51:40Z</time>
      </trkpt>
      <trkpt lat="46.61969" lon="6.11537">
        <ele>1136.42</ele>
        <time>2013-05-10T15:51:48Z</time>
      </trkpt>
      <trkpt lat="46.61971" lon="6.11538">
        <ele>1136.42</ele>
        <time>2013-05-10T15:51:49Z</time>
      </trkpt>
      <trkpt lat="46.61972" lon="6.1154">
        <ele>1136.42</ele>
        <time>2013-05-10T15:51:50Z</time>
      </trkpt>
      <trkpt lat="46.61974" lon="6.11543">
        <ele>1136.42</ele>
        <time>2013-05-10T15:51:51Z</time>
      </trkpt>
      <trkpt lat="46.61975" lon="6.11547">
        <ele>1136.9</ele>
        <time>2013-05-10T15:51:52Z</time>
      </trkpt>
      <trkpt lat="46.61976" lon="6.1155">
        <ele>1135.94</ele>
        <time>2013-05-10T15:51:53Z</time>
      </trkpt>
      <trkpt lat="46.61987" lon="6.11586">
        <ele>1135.45</ele>
        <time>2013-05-10T15:52:01Z</time>
      </trkpt>
      <trkpt lat="46.62" lon="6.11611">
        <ele>1136.42</ele>
        <time>2013-05-10T15:52:10Z</time>
      </trkpt>
      <trkpt lat="46.62015" lon="6.11631">
        <ele>1139.78</ele>
        <time>2013-05-10T15:52:17Z</time>
      </trkpt>
      <trkpt lat="46.62016" lon="6.11638">
        <ele>1141.7</ele>
        <time>2013-05-10T15:52:20Z</time>
      </trkpt>
      <trkpt lat="46.62016" lon="6.1164">
        <ele>1142.18</ele>
        <time>2013-05-10T15:52:21Z</time>
      </trkpt>
      <trkpt lat="46.62017" lon="6.11643">
        <ele>1142.66</ele>
        <time>2013-05-10T15:52:22Z</time>
      </trkpt>
      <trkpt lat="46.62022" lon="6.11656">
        <ele>1145.07</ele>
        <time>2013-05-10T15:52:27Z</time>
      </trkpt>
      <trkpt lat="46.62023" lon="6.11658">
        <ele>1145.55</ele>
        <time>2013-05-10T15:52:28Z</time>
      </trkpt>
      <trkpt lat="46.62025" lon="6.11661">
        <ele>1146.03</ele>
        <time>2013-05-10T15:52:29Z</time>
      </trkpt>
      <trkpt lat="46.62027" lon="6.11663">
        <ele>1146.03</ele>
        <time>2013-05-10T15:52:30Z</time>
      </trkpt>
      <trkpt lat="46.62028" lon="6.11664">
        <ele>1146.51</ele>
        <time>2013-05-10T15:52:31Z</time>
      </trkpt>
      <trkpt lat="46.62053" lon="6.11677">
        <ele>1146.51</ele>
        <time>2013-05-10T15:52:43Z</time>
      </trkpt>
      <trkpt lat="46.62056" lon="6.11681">
        <ele>1146.51</ele>
        <time>2013-05-10T15:52:46Z</time>
      </trkpt>
      <trkpt lat="46.62058" lon="6.11683">
        <ele>1146.99</ele>
        <time>2013-05-10T15:52:47Z</time>
      </trkpt>
      <trkpt lat="46.62059" lon="6.11685">
        <ele>1146.99</ele>
        <time>2013-05-10T15:52:48Z</time>
      </trkpt>
      <trkpt lat="46.62061" lon="6.11687">
        <ele>1146.99</ele>
        <time>2013-05-10T15:52:49Z</time>
      </trkpt>
      <trkpt lat="46.62074" lon="6.11701">
        <ele>1148.43</ele>
        <time>2013-05-10T15:52:58Z</time>
      </trkpt>
      <trkpt lat="46.62092" lon="6.11721">
        <ele>1150.35</ele>
        <time>2013-05-10T15:53:08Z</time>
      </trkpt>
      <trkpt lat="46.62099" lon="6.11729">
        <ele>1151.32</ele>
        <time>2013-05-10T15:53:11Z</time>
      </trkpt>
      <trkpt lat="46.621" lon="6.11732">
        <ele>1151.8</ele>
        <time>2013-05-10T15:53:12Z</time>
      </trkpt>
      <trkpt lat="46.62101" lon="6.11734">
        <ele>1152.28</ele>
        <time>2013-05-10T15:53:13Z</time>
      </trkpt>
      <trkpt lat="46.62102" lon="6.11735">
        <ele>1152.28</ele>
        <time>2013-05-10T15:53:14Z</time>
      </trkpt>
      <trkpt lat="46.62104" lon="6.11736">
        <ele>1152.28</ele>
        <time>2013-05-10T15:53:15Z</time>
      </trkpt>
      <trkpt lat="46.62105" lon="6.11738">
        <ele>1151.8</ele>
        <time>2013-05-10T15:53:16Z</time>
      </trkpt>
      <trkpt lat="46.62108" lon="6.1174">
        <ele>1152.28</ele>
        <time>2013-05-10T15:53:17Z</time>
      </trkpt>
      <trkpt lat="46.6211" lon="6.11743">
        <ele>1152.28</ele>
        <time>2013-05-10T15:53:18Z</time>
      </trkpt>
      <trkpt lat="46.62112" lon="6.11745">
        <ele>1152.28</ele>
        <time>2013-05-10T15:53:19Z</time>
      </trkpt>
      <trkpt lat="46.62114" lon="6.11747">
        <ele>1152.28</ele>
        <time>2013-05-10T15:53:20Z</time>
      </trkpt>
      <trkpt lat="46.62121" lon="6.1176">
        <ele>1155.16</ele>
        <time>2013-05-10T15:53:29Z</time>
      </trkpt>
      <trkpt lat="46.62139" lon="6.11782">
        <ele>1157.56</ele>
        <time>2013-05-10T15:53:43Z</time>
      </trkpt>
      <trkpt lat="46.62142" lon="6.11787">
        <ele>1158.05</ele>
        <time>2013-05-10T15:53:46Z</time>
      </trkpt>
      <trkpt lat="46.62143" lon="6.11789">
        <ele>1159.01</ele>
        <time>2013-05-10T15:54:00Z</time>
      </trkpt>
      <trkpt lat="46.62144" lon="6.11789">
        <ele>1159.01</ele>
        <time>2013-05-10T15:54:30Z</time>
      </trkpt>
      <trkpt lat="46.62148" lon="6.11793">
        <ele>1159.49</ele>
        <time>2013-05-10T15:54:51Z</time>
      </trkpt>
      <trkpt lat="46.6216" lon="6.11812">
        <ele>1160.93</ele>
        <time>2013-05-10T15:55:02Z</time>
      </trkpt>
      <trkpt lat="46.62163" lon="6.11819">
        <ele>1161.41</ele>
        <time>2013-05-10T15:55:15Z</time>
      </trkpt>
      <trkpt lat="46.62163" lon="6.11819">
        <ele>1161.41</ele>
        <time>2013-05-10T15:55:41Z</time>
      </trkpt>
      <trkpt lat="46.62164" lon="6.1182">
        <ele>1161.41</ele>
        <time>2013-05-10T15:56:14Z</time>
      </trkpt>
      <trkpt lat="46.62165" lon="6.11821">
        <ele>1161.89</ele>
        <time>2013-05-10T15:56:25Z</time>
      </trkpt>
      <trkpt lat="46.62165" lon="6.11821">
        <ele>1161.41</ele>
        <time>2013-05-10T15:56:55Z</time>
      </trkpt>
      <trkpt lat="46.62165" lon="6.11823">
        <ele>1161.89</ele>
        <time>2013-05-10T15:57:16Z</time>
      </trkpt>
      <trkpt lat="46.6218" lon="6.11836">
        <ele>1160.93</ele>
        <time>2013-05-10T15:57:26Z</time>
      </trkpt>
      <trkpt lat="46.62181" lon="6.11839">
        <ele>1161.41</ele>
        <time>2013-05-10T15:57:28Z</time>
      </trkpt>
      <trkpt lat="46.62183" lon="6.1184">
        <ele>1161.41</ele>
        <time>2013-05-10T15:57:29Z</time>
      </trkpt>
      <trkpt lat="46.62185" lon="6.11841">
        <ele>1161.89</ele>
        <time>2013-05-10T15:57:30Z</time>
      </trkpt>
      <trkpt lat="46.62204" lon="6.11837">
        <ele>1164.77</ele>
        <time>2013-05-10T15:57:41Z</time>
      </trkpt>
      <trkpt lat="46.62205" lon="6.11836">
        <ele>1164.77</ele>
        <time>2013-05-10T15:57:42Z</time>
      </trkpt>
      <trkpt lat="46.62207" lon="6.11834">
        <ele>1165.74</ele>
        <time>2013-05-10T15:57:43Z</time>
      </trkpt>
      <trkpt lat="46.62209" lon="6.11833">
        <ele>1166.7</ele>
        <time>2013-05-10T15:57:44Z</time>
      </trkpt>
      <trkpt lat="46.62229" lon="6.11811">
        <ele>1168.62</ele>
        <time>2013-05-10T15:57:57Z</time>
      </trkpt>
      <trkpt lat="46.62237" lon="6.11781">
        <ele>1166.7</ele>
        <time>2013-05-10T15:58:03Z</time>
      </trkpt>
      <trkpt lat="46.62239" lon="6.11774">
        <ele>1166.22</ele>
        <time>2013-05-10T15:58:04Z</time>
      </trkpt>
      <trkpt lat="46.62242" lon="6.1177">
        <ele>1166.7</ele>
        <time>2013-05-10T15:58:05Z</time>
      </trkpt>
      <trkpt lat="46.62245" lon="6.11767">
        <ele>1167.18</ele>
        <time>2013-05-10T15:58:06Z</time>
      </trkpt>
      <trkpt lat="46.62248" lon="6.11766">
        <ele>1167.66</ele>
        <time>2013-05-10T15:58:07Z</time>
      </trkpt>
      <trkpt lat="46.62252" lon="6.11765">
        <ele>1168.14</ele>
        <time>2013-05-10T15:58:08Z</time>
      </trkpt>
      <trkpt lat="46.62255" lon="6.11763">
        <ele>1168.62</ele>
        <time>2013-05-10T15:58:09Z</time>
      </trkpt>
      <trkpt lat="46.62258" lon="6.11763">
        <ele>1169.1</ele>
        <time>2013-05-10T15:58:10Z</time>
      </trkpt>
      <trkpt lat="46.62261" lon="6.11762">
        <ele>1169.1</ele>
        <time>2013-05-10T15:58:11Z</time>
      </trkpt>
      <trkpt lat="46.62271" lon="6.11759">
        <ele>1169.1</ele>
        <time>2013-05-10T15:58:15Z</time>
      </trkpt>
      <trkpt lat="46.62274" lon="6.11759">
        <ele>1168.62</ele>
        <time>2013-05-10T15:58:16Z</time>
      </trkpt>
      <trkpt lat="46.62277" lon="6.11758">
        <ele>1167.66</ele>
        <time>2013-05-10T15:58:17Z</time>
      </trkpt>
      <trkpt lat="46.6228" lon="6.11756">
        <ele>1166.7</ele>
        <time>2013-05-10T15:58:18Z</time>
      </trkpt>
      <trkpt lat="46.62281" lon="6.11755">
        <ele>1165.74</ele>
        <time>2013-05-10T15:58:19Z</time>
      </trkpt>
      <trkpt lat="46.6232" lon="6.11751">
        <ele>1166.22</ele>
        <time>2013-05-10T15:58:30Z</time>
      </trkpt>
      <trkpt lat="46.62343" lon="6.11777">
        <ele>1168.62</ele>
        <time>2013-05-10T15:58:39Z</time>
      </trkpt>
      <trkpt lat="46.62344" lon="6.11787">
        <ele>1170.06</ele>
        <time>2013-05-10T15:58:42Z</time>
      </trkpt>
      <trkpt lat="46.6236" lon="6.11818">
        <ele>1171.5</ele>
        <time>2013-05-10T15:58:52Z</time>
      </trkpt>
      <trkpt lat="46.62385" lon="6.11827">
        <ele>1172.95</ele>
        <time>2013-05-10T15:59:06Z</time>
      </trkpt>
      <trkpt lat="46.62387" lon="6.11826">
        <ele>1172.47</ele>
        <time>2013-05-10T15:59:07Z</time>
      </trkpt>
      <trkpt lat="46.62389" lon="6.11824">
        <ele>1171.5</ele>
        <time>2013-05-10T15:59:08Z</time>
      </trkpt>
      <trkpt lat="46.62391" lon="6.11821">
        <ele>1171.5</ele>
        <time>2013-05-10T15:59:09Z</time>
      </trkpt>
      <trkpt lat="46.62394" lon="6.11818">
        <ele>1171.02</ele>
        <time>2013-05-10T15:59:10Z</time>
      </trkpt>
      <trkpt lat="46.62397" lon="6.11813">
        <ele>1169.58</ele>
        <time>2013-05-10T15:59:11Z</time>
      </trkpt>
      <trkpt lat="46.62403" lon="6.11809">
        <ele>1169.1</ele>
        <time>2013-05-10T15:59:12Z</time>
      </trkpt>
      <trkpt lat="46.62407" lon="6.11804">
        <ele>1169.1</ele>
        <time>2013-05-10T15:59:13Z</time>
      </trkpt>
      <trkpt lat="46.62414" lon="6.11792">
        <ele>1167.66</ele>
        <time>2013-05-10T15:59:15Z</time>
      </trkpt>
      <trkpt lat="46.62417" lon="6.11784">
        <ele>1166.22</ele>
        <time>2013-05-10T15:59:16Z</time>
      </trkpt>
      <trkpt lat="46.62419" lon="6.11776">
        <ele>1165.74</ele>
        <time>2013-05-10T15:59:17Z</time>
      </trkpt>
      <trkpt lat="46.6242" lon="6.11768">
        <ele>1164.77</ele>
        <time>2013-05-10T15:59:18Z</time>
      </trkpt>
      <trkpt lat="46.6242" lon="6.1176">
        <ele>1164.77</ele>
        <time>2013-05-10T15:59:19Z</time>
      </trkpt>
      <trkpt lat="46.6242" lon="6.11752">
        <ele>1163.81</ele>
        <time>2013-05-10T15:59:20Z</time>
      </trkpt>
      <trkpt lat="46.62419" lon="6.11744">
        <ele>1162.85</ele>
        <time>2013-05-10T15:59:21Z</time>
      </trkpt>
      <trkpt lat="46.62414" lon="6.11727">
        <ele>1160.93</ele>
        <time>2013-05-10T15:59:23Z</time>
      </trkpt>
      <trkpt lat="46.62404" lon="6.11697">
        <ele>1158.05</ele>
        <time>2013-05-10T15:59:27Z</time>
      </trkpt>
      <trkpt lat="46.62401" lon="6.1169">
        <ele>1157.08</ele>
        <time>2013-05-10T15:59:28Z</time>
      </trkpt>
      <trkpt lat="46.62398" lon="6.11675">
        <ele>1155.64</ele>
        <time>2013-05-10T15:59:30Z</time>
      </trkpt>
      <trkpt lat="46.62397" lon="6.11657">
        <ele>1152.76</ele>
        <time>2013-05-10T15:59:32Z</time>
      </trkpt>
      <trkpt lat="46.62398" lon="6.11602">
        <ele>1148.91</ele>
        <time>2013-05-10T15:59:38Z</time>
      </trkpt>
      <trkpt lat="46.62398" lon="6.11593">
        <ele>1147.47</ele>
        <time>2013-05-10T15:59:39Z</time>
      </trkpt>
      <trkpt lat="46.62398" lon="6.11584">
        <ele>1146.51</ele>
        <time>2013-05-10T15:59:40Z</time>
      </trkpt>
      <trkpt lat="46.62396" lon="6.11567">
        <ele>1145.55</ele>
        <time>2013-05-10T15:59:42Z</time>
      </trkpt>
      <trkpt lat="46.62395" lon="6.11558">
        <ele>1144.59</ele>
        <time>2013-05-10T15:59:43Z</time>
      </trkpt>
      <trkpt lat="46.62394" lon="6.1155">
        <ele>1144.59</ele>
        <time>2013-05-10T15:59:44Z</time>
      </trkpt>
      <trkpt lat="46.62388" lon="6.11516">
        <ele>1142.18</ele>
        <time>2013-05-10T15:59:49Z</time>
      </trkpt>
      <trkpt lat="46.62387" lon="6.11509">
        <ele>1142.18</ele>
        <time>2013-05-10T15:59:50Z</time>
      </trkpt>
      <trkpt lat="46.62385" lon="6.11504">
        <ele>1141.7</ele>
        <time>2013-05-10T15:59:51Z</time>
      </trkpt>
      <trkpt lat="46.62371" lon="6.11467">
        <ele>1138.34</ele>
        <time>2013-05-10T15:59:57Z</time>
      </trkpt>
      <trkpt lat="46.6237" lon="6.1146">
        <ele>1137.86</ele>
        <time>2013-05-10T15:59:58Z</time>
      </trkpt>
      <trkpt lat="46.62369" lon="6.11453">
        <ele>1137.38</ele>
        <time>2013-05-10T15:59:59Z</time>
      </trkpt>
      <trkpt lat="46.62367" lon="6.1144">
        <ele>1137.86</ele>
        <time>2013-05-10T16:00:01Z</time>
      </trkpt>
      <trkpt lat="46.62367" lon="6.11436">
        <ele>1137.86</ele>
        <time>2013-05-10T16:00:02Z</time>
      </trkpt>
      <trkpt lat="46.62361" lon="6.11395">
        <ele>1135.94</ele>
        <time>2013-05-10T16:00:10Z</time>
      </trkpt>
      <trkpt lat="46.62355" lon="6.11355">
        <ele>1136.42</ele>
        <time>2013-05-10T16:00:20Z</time>
      </trkpt>
      <trkpt lat="46.62354" lon="6.11344">
        <ele>1137.38</ele>
        <time>2013-05-10T16:00:23Z</time>
      </trkpt>
      <trkpt lat="46.62354" lon="6.1134">
        <ele>1137.38</ele>
        <time>2013-05-10T16:00:24Z</time>
      </trkpt>
      <trkpt lat="46.62354" lon="6.11337">
        <ele>1137.38</ele>
        <time>2013-05-10T16:00:25Z</time>
      </trkpt>
      <trkpt lat="46.62355" lon="6.11334">
        <ele>1137.86</ele>
        <time>2013-05-10T16:00:26Z</time>
      </trkpt>
      <trkpt lat="46.62355" lon="6.11331">
        <ele>1137.86</ele>
        <time>2013-05-10T16:00:27Z</time>
      </trkpt>
      <trkpt lat="46.62356" lon="6.11329">
        <ele>1137.86</ele>
        <time>2013-05-10T16:00:28Z</time>
      </trkpt>
      <trkpt lat="46.62357" lon="6.11289">
        <ele>1137.86</ele>
        <time>2013-05-10T16:00:39Z</time>
      </trkpt>
      <trkpt lat="46.62358" lon="6.11282">
        <ele>1139.78</ele>
        <time>2013-05-10T16:00:42Z</time>
      </trkpt>
      <trkpt lat="46.62357" lon="6.11279">
        <ele>1138.34</ele>
        <time>2013-05-10T16:00:43Z</time>
      </trkpt>
      <trkpt lat="46.62354" lon="6.11273">
        <ele>1138.34</ele>
        <time>2013-05-10T16:00:45Z</time>
      </trkpt>
      <trkpt lat="46.62342" lon="6.11264">
        <ele>1138.34</ele>
        <time>2013-05-10T16:00:54Z</time>
      </trkpt>
      <trkpt lat="46.62345" lon="6.11265">
        <ele>1138.34</ele>
        <time>2013-05-10T16:01:14Z</time>
      </trkpt>
      <trkpt lat="46.6234" lon="6.11261">
        <ele>1137.86</ele>
        <time>2013-05-10T16:01:27Z</time>
      </trkpt>
      <trkpt lat="46.62341" lon="6.11252">
        <ele>1137.86</ele>
        <time>2013-05-10T16:01:36Z</time>
      </trkpt>
      <trkpt lat="46.62341" lon="6.11249">
        <ele>1137.86</ele>
        <time>2013-05-10T16:01:37Z</time>
      </trkpt>
      <trkpt lat="46.62342" lon="6.11246">
        <ele>1137.86</ele>
        <time>2013-05-10T16:01:38Z</time>
      </trkpt>
      <trkpt lat="46.62344" lon="6.11243">
        <ele>1137.38</ele>
        <time>2013-05-10T16:01:39Z</time>
      </trkpt>
      <trkpt lat="46.62346" lon="6.11241">
        <ele>1137.86</ele>
        <time>2013-05-10T16:01:40Z</time>
      </trkpt>
      <trkpt lat="46.62348" lon="6.11238">
        <ele>1137.86</ele>
        <time>2013-05-10T16:01:42Z</time>
      </trkpt>
      <trkpt lat="46.6235" lon="6.11233">
        <ele>1137.86</ele>
        <time>2013-05-10T16:01:44Z</time>
      </trkpt>
      <trkpt lat="46.6235" lon="6.11231">
        <ele>1137.86</ele>
        <time>2013-05-10T16:01:45Z</time>
      </trkpt>
      <trkpt lat="46.62349" lon="6.11227">
        <ele>1137.86</ele>
        <time>2013-05-10T16:01:49Z</time>
      </trkpt>
      <trkpt lat="46.62351" lon="6.11226">
        <ele>1137.86</ele>
        <time>2013-05-10T16:01:50Z</time>
      </trkpt>
      <trkpt lat="46.62355" lon="6.11217">
        <ele>1138.34</ele>
        <time>2013-05-10T16:01:59Z</time>
      </trkpt>
      <trkpt lat="46.62359" lon="6.11206">
        <ele>1138.34</ele>
        <time>2013-05-10T16:02:07Z</time>
      </trkpt>
      <trkpt lat="46.62364" lon="6.11196">
        <ele>1138.34</ele>
        <time>2013-05-10T16:02:13Z</time>
      </trkpt>
      <trkpt lat="46.62364" lon="6.11194">
        <ele>1138.34</ele>
        <time>2013-05-10T16:02:14Z</time>
      </trkpt>
      <trkpt lat="46.62366" lon="6.11188">
        <ele>1138.34</ele>
        <time>2013-05-10T16:02:17Z</time>
      </trkpt>
      <trkpt lat="46.6237" lon="6.11177">
        <ele>1138.34</ele>
        <time>2013-05-10T16:02:27Z</time>
      </trkpt>
      <trkpt lat="46.62371" lon="6.11172">
        <ele>1138.34</ele>
        <time>2013-05-10T16:02:31Z</time>
      </trkpt>
      <trkpt lat="46.62372" lon="6.11167">
        <ele>1138.34</ele>
        <time>2013-05-10T16:02:35Z</time>
      </trkpt>
      <trkpt lat="46.62374" lon="6.11166">
        <ele>1138.82</ele>
        <time>2013-05-10T16:02:36Z</time>
      </trkpt>
      <trkpt lat="46.62382" lon="6.11155">
        <ele>1139.78</ele>
        <time>2013-05-10T16:02:51Z</time>
      </trkpt>
      <trkpt lat="46.62382" lon="6.11154">
        <ele>1139.78</ele>
        <time>2013-05-10T16:02:54Z</time>
      </trkpt>
      <trkpt lat="46.62384" lon="6.11143">
        <ele>1140.26</ele>
        <time>2013-05-10T16:02:58Z</time>
      </trkpt>
      <trkpt lat="46.62385" lon="6.11139">
        <ele>1139.78</ele>
        <time>2013-05-10T16:03:00Z</time>
      </trkpt>
      <trkpt lat="46.62385" lon="6.11127">
        <ele>1139.78</ele>
        <time>2013-05-10T16:03:07Z</time>
      </trkpt>
      <trkpt lat="46.62386" lon="6.11124">
        <ele>1139.78</ele>
        <time>2013-05-10T16:03:08Z</time>
      </trkpt>
      <trkpt lat="46.62382" lon="6.11106">
        <ele>1140.26</ele>
        <time>2013-05-10T16:03:17Z</time>
      </trkpt>
      <trkpt lat="46.6238" lon="6.11093">
        <ele>1140.26</ele>
        <time>2013-05-10T16:03:22Z</time>
      </trkpt>
      <trkpt lat="46.62379" lon="6.11091">
        <ele>1140.74</ele>
        <time>2013-05-10T16:03:24Z</time>
      </trkpt>
      <trkpt lat="46.62379" lon="6.11089">
        <ele>1140.74</ele>
        <time>2013-05-10T16:03:25Z</time>
      </trkpt>
      <trkpt lat="46.62381" lon="6.11084">
        <ele>1141.22</ele>
        <time>2013-05-10T16:03:27Z</time>
      </trkpt>
      <trkpt lat="46.6239" lon="6.11053">
        <ele>1142.18</ele>
        <time>2013-05-10T16:03:40Z</time>
      </trkpt>
      <trkpt lat="46.62394" lon="6.11051">
        <ele>1144.11</ele>
        <time>2013-05-10T16:03:47Z</time>
      </trkpt>
      <trkpt lat="46.62405" lon="6.1104">
        <ele>1146.03</ele>
        <time>2013-05-10T16:03:56Z</time>
      </trkpt>
      <trkpt lat="46.6242" lon="6.11037">
        <ele>1146.51</ele>
        <time>2013-05-10T16:04:09Z</time>
      </trkpt>
      <trkpt lat="46.62421" lon="6.11037">
        <ele>1146.99</ele>
        <time>2013-05-10T16:04:10Z</time>
      </trkpt>
      <trkpt lat="46.62438" lon="6.11035">
        <ele>1146.99</ele>
        <time>2013-05-10T16:04:22Z</time>
      </trkpt>
      <trkpt lat="46.62444" lon="6.1103">
        <ele>1147.95</ele>
        <time>2013-05-10T16:04:30Z</time>
      </trkpt>
      <trkpt lat="46.62446" lon="6.11024">
        <ele>1148.43</ele>
        <time>2013-05-10T16:04:41Z</time>
      </trkpt>
      <trkpt lat="46.6245" lon="6.1102">
        <ele>1148.43</ele>
        <time>2013-05-10T16:04:45Z</time>
      </trkpt>
      <trkpt lat="46.62456" lon="6.11011">
        <ele>1148.91</ele>
        <time>2013-05-10T16:04:54Z</time>
      </trkpt>
      <trkpt lat="46.62455" lon="6.10998">
        <ele>1151.32</ele>
        <time>2013-05-10T16:05:03Z</time>
      </trkpt>
      <trkpt lat="46.62456" lon="6.10987">
        <ele>1152.28</ele>
        <time>2013-05-10T16:05:12Z</time>
      </trkpt>
      <trkpt lat="46.62455" lon="6.10982">
        <ele>1152.76</ele>
        <time>2013-05-10T16:05:16Z</time>
      </trkpt>
      <trkpt lat="46.62453" lon="6.10973">
        <ele>1152.76</ele>
        <time>2013-05-10T16:05:27Z</time>
      </trkpt>
      <trkpt lat="46.62449" lon="6.10962">
        <ele>1153.72</ele>
        <time>2013-05-10T16:05:40Z</time>
      </trkpt>
      <trkpt lat="46.62445" lon="6.10946">
        <ele>1154.68</ele>
        <time>2013-05-10T16:05:48Z</time>
      </trkpt>
      <trkpt lat="46.6244" lon="6.10926">
        <ele>1155.16</ele>
        <time>2013-05-10T16:05:56Z</time>
      </trkpt>
      <trkpt lat="46.62437" lon="6.10921">
        <ele>1155.64</ele>
        <time>2013-05-10T16:05:59Z</time>
      </trkpt>
      <trkpt lat="46.62438" lon="6.10916">
        <ele>1156.12</ele>
        <time>2013-05-10T16:06:02Z</time>
      </trkpt>
      <trkpt lat="46.6244" lon="6.10914">
        <ele>1156.12</ele>
        <time>2013-05-10T16:06:04Z</time>
      </trkpt>
      <trkpt lat="46.62461" lon="6.10918">
        <ele>1159.49</ele>
        <time>2013-05-10T16:06:18Z</time>
      </trkpt>
      <trkpt lat="46.62465" lon="6.10919">
        <ele>1160.45</ele>
        <time>2013-05-10T16:06:20Z</time>
      </trkpt>
      <trkpt lat="46.62468" lon="6.10919">
        <ele>1160.93</ele>
        <time>2013-05-10T16:06:23Z</time>
      </trkpt>
      <trkpt lat="46.62482" lon="6.10915">
        <ele>1163.81</ele>
        <time>2013-05-10T16:06:31Z</time>
      </trkpt>
      <trkpt lat="46.62488" lon="6.10908">
        <ele>1164.77</ele>
        <time>2013-05-10T16:06:36Z</time>
      </trkpt>
      <trkpt lat="46.62518" lon="6.10897">
        <ele>1167.18</ele>
        <time>2013-05-10T16:06:50Z</time>
      </trkpt>
      <trkpt lat="46.62545" lon="6.1089">
        <ele>1167.18</ele>
        <time>2013-05-10T16:07:00Z</time>
      </trkpt>
      <trkpt lat="46.62572" lon="6.10882">
        <ele>1168.14</ele>
        <time>2013-05-10T16:07:11Z</time>
      </trkpt>
      <trkpt lat="46.626" lon="6.10891">
        <ele>1169.58</ele>
        <time>2013-05-10T16:07:21Z</time>
      </trkpt>
      <trkpt lat="46.6263" lon="6.10914">
        <ele>1168.14</ele>
        <time>2013-05-10T16:07:31Z</time>
      </trkpt>
      <trkpt lat="46.62635" lon="6.10917">
        <ele>1167.66</ele>
        <time>2013-05-10T16:07:32Z</time>
      </trkpt>
      <trkpt lat="46.62679" lon="6.10937">
        <ele>1168.14</ele>
        <time>2013-05-10T16:07:43Z</time>
      </trkpt>
      <trkpt lat="46.62708" lon="6.10939">
        <ele>1171.5</ele>
        <time>2013-05-10T16:07:51Z</time>
      </trkpt>
      <trkpt lat="46.62739" lon="6.10926">
        <ele>1174.39</ele>
        <time>2013-05-10T16:08:00Z</time>
      </trkpt>
      <trkpt lat="46.62741" lon="6.10921">
        <ele>1174.39</ele>
        <time>2013-05-10T16:08:01Z</time>
      </trkpt>
      <trkpt lat="46.62761" lon="6.10876">
        <ele>1177.75</ele>
        <time>2013-05-10T16:08:11Z</time>
      </trkpt>
      <trkpt lat="46.62785" lon="6.10851">
        <ele>1179.19</ele>
        <time>2013-05-10T16:08:21Z</time>
      </trkpt>
      <trkpt lat="46.62801" lon="6.10829">
        <ele>1182.56</ele>
        <time>2013-05-10T16:08:31Z</time>
      </trkpt>
      <trkpt lat="46.62805" lon="6.10825">
        <ele>1182.56</ele>
        <time>2013-05-10T16:08:33Z</time>
      </trkpt>
      <trkpt lat="46.62806" lon="6.10825">
        <ele>1183.04</ele>
        <time>2013-05-10T16:08:34Z</time>
      </trkpt>
      <trkpt lat="46.62808" lon="6.10826">
        <ele>1183.52</ele>
        <time>2013-05-10T16:08:35Z</time>
      </trkpt>
      <trkpt lat="46.62809" lon="6.10827">
        <ele>1184</ele>
        <time>2013-05-10T16:08:36Z</time>
      </trkpt>
      <trkpt lat="46.6281" lon="6.10829">
        <ele>1184</ele>
        <time>2013-05-10T16:08:37Z</time>
      </trkpt>
      <trkpt lat="46.62811" lon="6.10831">
        <ele>1184.48</ele>
        <time>2013-05-10T16:08:38Z</time>
      </trkpt>
      <trkpt lat="46.62812" lon="6.10833">
        <ele>1184.48</ele>
        <time>2013-05-10T16:08:39Z</time>
      </trkpt>
      <trkpt lat="46.62812" lon="6.10836">
        <ele>1184.96</ele>
        <time>2013-05-10T16:08:40Z</time>
      </trkpt>
      <trkpt lat="46.62813" lon="6.10838">
        <ele>1184.96</ele>
        <time>2013-05-10T16:08:41Z</time>
      </trkpt>
      <trkpt lat="46.62825" lon="6.10865">
        <ele>1187.37</ele>
        <time>2013-05-10T16:08:53Z</time>
      </trkpt>
      <trkpt lat="46.62844" lon="6.10872">
        <ele>1188.81</ele>
        <time>2013-05-10T16:09:03Z</time>
      </trkpt>
      <trkpt lat="46.62857" lon="6.10868">
        <ele>1192.17</ele>
        <time>2013-05-10T16:09:12Z</time>
      </trkpt>
      <trkpt lat="46.62858" lon="6.10867">
        <ele>1192.17</ele>
        <time>2013-05-10T16:09:13Z</time>
      </trkpt>
      <trkpt lat="46.62859" lon="6.10866">
        <ele>1192.17</ele>
        <time>2013-05-10T16:09:14Z</time>
      </trkpt>
      <trkpt lat="46.62876" lon="6.10849">
        <ele>1193.61</ele>
        <time>2013-05-10T16:09:26Z</time>
      </trkpt>
      <trkpt lat="46.62878" lon="6.1085">
        <ele>1194.09</ele>
        <time>2013-05-10T16:09:28Z</time>
      </trkpt>
      <trkpt lat="46.62879" lon="6.10851">
        <ele>1194.09</ele>
        <time>2013-05-10T16:09:29Z</time>
      </trkpt>
      <trkpt lat="46.6288" lon="6.10852">
        <ele>1194.09</ele>
        <time>2013-05-10T16:09:30Z</time>
      </trkpt>
      <trkpt lat="46.62881" lon="6.10853">
        <ele>1194.58</ele>
        <time>2013-05-10T16:09:31Z</time>
      </trkpt>
      <trkpt lat="46.62882" lon="6.10856">
        <ele>1194.58</ele>
        <time>2013-05-10T16:09:32Z</time>
      </trkpt>
      <trkpt lat="46.62884" lon="6.10858">
        <ele>1195.06</ele>
        <time>2013-05-10T16:09:33Z</time>
      </trkpt>
      <trkpt lat="46.62885" lon="6.10863">
        <ele>1196.02</ele>
        <time>2013-05-10T16:09:36Z</time>
      </trkpt>
      <trkpt lat="46.62888" lon="6.10875">
        <ele>1197.46</ele>
        <time>2013-05-10T16:09:42Z</time>
      </trkpt>
      <trkpt lat="46.62887" lon="6.10879">
        <ele>1197.94</ele>
        <time>2013-05-10T16:09:45Z</time>
      </trkpt>
      <trkpt lat="46.62888" lon="6.10884">
        <ele>1198.42</ele>
        <time>2013-05-10T16:09:47Z</time>
      </trkpt>
      <trkpt lat="46.62889" lon="6.10887">
        <ele>1198.42</ele>
        <time>2013-05-10T16:09:48Z</time>
      </trkpt>
      <trkpt lat="46.6289" lon="6.1089">
        <ele>1198.9</ele>
        <time>2013-05-10T16:09:49Z</time>
      </trkpt>
      <trkpt lat="46.62891" lon="6.10892">
        <ele>1198.9</ele>
        <time>2013-05-10T16:09:50Z</time>
      </trkpt>
      <trkpt lat="46.62901" lon="6.10914">
        <ele>1199.86</ele>
        <time>2013-05-10T16:10:00Z</time>
      </trkpt>
      <trkpt lat="46.62914" lon="6.1093">
        <ele>1200.34</ele>
        <time>2013-05-10T16:10:10Z</time>
      </trkpt>
      <trkpt lat="46.62921" lon="6.10946">
        <ele>1200.82</ele>
        <time>2013-05-10T16:10:15Z</time>
      </trkpt>
      <trkpt lat="46.62922" lon="6.10947">
        <ele>1200.82</ele>
        <time>2013-05-10T16:10:16Z</time>
      </trkpt>
      <trkpt lat="46.62924" lon="6.1095">
        <ele>1200.82</ele>
        <time>2013-05-10T16:10:17Z</time>
      </trkpt>
      <trkpt lat="46.62926" lon="6.10952">
        <ele>1200.82</ele>
        <time>2013-05-10T16:10:18Z</time>
      </trkpt>
      <trkpt lat="46.62928" lon="6.10953">
        <ele>1200.82</ele>
        <time>2013-05-10T16:10:19Z</time>
      </trkpt>
      <trkpt lat="46.6293" lon="6.10955">
        <ele>1200.82</ele>
        <time>2013-05-10T16:10:20Z</time>
      </trkpt>
      <trkpt lat="46.62932" lon="6.10956">
        <ele>1200.82</ele>
        <time>2013-05-10T16:10:21Z</time>
      </trkpt>
      <trkpt lat="46.62934" lon="6.10957">
        <ele>1200.82</ele>
        <time>2013-05-10T16:10:22Z</time>
      </trkpt>
      <trkpt lat="46.62951" lon="6.10968">
        <ele>1201.3</ele>
        <time>2013-05-10T16:10:31Z</time>
      </trkpt>
      <trkpt lat="46.62956" lon="6.10971">
        <ele>1201.79</ele>
        <time>2013-05-10T16:10:34Z</time>
      </trkpt>
      <trkpt lat="46.62957" lon="6.10973">
        <ele>1201.3</ele>
        <time>2013-05-10T16:10:35Z</time>
      </trkpt>
      <trkpt lat="46.62958" lon="6.10974">
        <ele>1201.79</ele>
        <time>2013-05-10T16:10:36Z</time>
      </trkpt>
      <trkpt lat="46.62974" lon="6.10993">
        <ele>1202.27</ele>
        <time>2013-05-10T16:10:46Z</time>
      </trkpt>
      <trkpt lat="46.62982" lon="6.11">
        <ele>1202.27</ele>
        <time>2013-05-10T16:10:50Z</time>
      </trkpt>
      <trkpt lat="46.62984" lon="6.11002">
        <ele>1202.27</ele>
        <time>2013-05-10T16:10:51Z</time>
      </trkpt>
      <trkpt lat="46.62986" lon="6.11003">
        <ele>1202.27</ele>
        <time>2013-05-10T16:10:52Z</time>
      </trkpt>
      <trkpt lat="46.62991" lon="6.11011">
        <ele>1202.75</ele>
        <time>2013-05-10T16:10:56Z</time>
      </trkpt>
      <trkpt lat="46.63011" lon="6.11024">
        <ele>1203.23</ele>
        <time>2013-05-10T16:11:07Z</time>
      </trkpt>
      <trkpt lat="46.63018" lon="6.11028">
        <ele>1203.23</ele>
        <time>2013-05-10T16:11:12Z</time>
      </trkpt>
      <trkpt lat="46.63023" lon="6.1103">
        <ele>1203.23</ele>
        <time>2013-05-10T16:11:18Z</time>
      </trkpt>
      <trkpt lat="46.63024" lon="6.11032">
        <ele>1203.23</ele>
        <time>2013-05-10T16:11:19Z</time>
      </trkpt>
      <trkpt lat="46.63025" lon="6.11034">
        <ele>1203.71</ele>
        <time>2013-05-10T16:11:20Z</time>
      </trkpt>
      <trkpt lat="46.63026" lon="6.11037">
        <ele>1203.71</ele>
        <time>2013-05-10T16:11:21Z</time>
      </trkpt>
      <trkpt lat="46.63028" lon="6.11039">
        <ele>1203.23</ele>
        <time>2013-05-10T16:11:22Z</time>
      </trkpt>
      <trkpt lat="46.6303" lon="6.11042">
        <ele>1203.71</ele>
        <time>2013-05-10T16:11:24Z</time>
      </trkpt>
      <trkpt lat="46.63033" lon="6.11045">
        <ele>1203.71</ele>
        <time>2013-05-10T16:11:25Z</time>
      </trkpt>
      <trkpt lat="46.63035" lon="6.11049">
        <ele>1203.71</ele>
        <time>2013-05-10T16:11:26Z</time>
      </trkpt>
      <trkpt lat="46.63036" lon="6.11051">
        <ele>1203.71</ele>
        <time>2013-05-10T16:11:27Z</time>
      </trkpt>
      <trkpt lat="46.63052" lon="6.1107">
        <ele>1204.67</ele>
        <time>2013-05-10T16:11:32Z</time>
      </trkpt>
      <trkpt lat="46.63053" lon="6.11073">
        <ele>1204.67</ele>
        <time>2013-05-10T16:11:33Z</time>
      </trkpt>
      <trkpt lat="46.63054" lon="6.11076">
        <ele>1204.67</ele>
        <time>2013-05-10T16:11:34Z</time>
      </trkpt>
      <trkpt lat="46.63056" lon="6.1108">
        <ele>1205.15</ele>
        <time>2013-05-10T16:11:35Z</time>
      </trkpt>
      <trkpt lat="46.63058" lon="6.11083">
        <ele>1205.15</ele>
        <time>2013-05-10T16:11:36Z</time>
      </trkpt>
      <trkpt lat="46.63058" lon="6.11085">
        <ele>1205.63</ele>
        <time>2013-05-10T16:11:37Z</time>
      </trkpt>
      <trkpt lat="46.63063" lon="6.11112">
        <ele>1208.51</ele>
        <time>2013-05-10T16:11:47Z</time>
      </trkpt>
      <trkpt lat="46.63064" lon="6.11117">
        <ele>1209</ele>
        <time>2013-05-10T16:11:48Z</time>
      </trkpt>
      <trkpt lat="46.63065" lon="6.11121">
        <ele>1209.48</ele>
        <time>2013-05-10T16:11:49Z</time>
      </trkpt>
      <trkpt lat="46.63066" lon="6.11124">
        <ele>1209.48</ele>
        <time>2013-05-10T16:11:50Z</time>
      </trkpt>
      <trkpt lat="46.63075" lon="6.11149">
        <ele>1211.4</ele>
        <time>2013-05-10T16:12:00Z</time>
      </trkpt>
      <trkpt lat="46.63078" lon="6.11157">
        <ele>1212.84</ele>
        <time>2013-05-10T16:12:04Z</time>
      </trkpt>
      <trkpt lat="46.63083" lon="6.11163">
        <ele>1213.32</ele>
        <time>2013-05-10T16:12:07Z</time>
      </trkpt>
      <trkpt lat="46.6309" lon="6.11179">
        <ele>1214.28</ele>
        <time>2013-05-10T16:12:12Z</time>
      </trkpt>
      <trkpt lat="46.63102" lon="6.11215">
        <ele>1216.21</ele>
        <time>2013-05-10T16:12:24Z</time>
      </trkpt>
      <trkpt lat="46.63108" lon="6.11239">
        <ele>1217.65</ele>
        <time>2013-05-10T16:12:31Z</time>
      </trkpt>
      <trkpt lat="46.63115" lon="6.11289">
        <ele>1217.65</ele>
        <time>2013-05-10T16:12:45Z</time>
      </trkpt>
      <trkpt lat="46.63119" lon="6.11298">
        <ele>1218.13</ele>
        <time>2013-05-10T16:12:50Z</time>
      </trkpt>
      <trkpt lat="46.63121" lon="6.11299">
        <ele>1217.65</ele>
        <time>2013-05-10T16:12:51Z</time>
      </trkpt>
      <trkpt lat="46.63122" lon="6.113">
        <ele>1217.65</ele>
        <time>2013-05-10T16:12:52Z</time>
      </trkpt>
      <trkpt lat="46.63124" lon="6.11303">
        <ele>1217.17</ele>
        <time>2013-05-10T16:12:53Z</time>
      </trkpt>
      <trkpt lat="46.63126" lon="6.11304">
        <ele>1216.69</ele>
        <time>2013-05-10T16:12:54Z</time>
      </trkpt>
      <trkpt lat="46.63129" lon="6.11308">
        <ele>1216.69</ele>
        <time>2013-05-10T16:12:56Z</time>
      </trkpt>
      <trkpt lat="46.63131" lon="6.1131">
        <ele>1217.17</ele>
        <time>2013-05-10T16:12:57Z</time>
      </trkpt>
      <trkpt lat="46.63145" lon="6.11319">
        <ele>1217.65</ele>
        <time>2013-05-10T16:13:04Z</time>
      </trkpt>
      <trkpt lat="46.63147" lon="6.1132">
        <ele>1217.65</ele>
        <time>2013-05-10T16:13:05Z</time>
      </trkpt>
      <trkpt lat="46.63149" lon="6.1132">
        <ele>1217.65</ele>
        <time>2013-05-10T16:13:06Z</time>
      </trkpt>
      <trkpt lat="46.63179" lon="6.11313">
        <ele>1215.72</ele>
        <time>2013-05-10T16:13:16Z</time>
      </trkpt>
      <trkpt lat="46.63191" lon="6.11309">
        <ele>1216.21</ele>
        <time>2013-05-10T16:13:24Z</time>
      </trkpt>
      <trkpt lat="46.63195" lon="6.11308">
        <ele>1215.72</ele>
        <time>2013-05-10T16:13:30Z</time>
      </trkpt>
      <trkpt lat="46.63198" lon="6.1131">
        <ele>1215.72</ele>
        <time>2013-05-10T16:13:31Z</time>
      </trkpt>
      <trkpt lat="46.63198" lon="6.11312">
        <ele>1215.72</ele>
        <time>2013-05-10T16:13:32Z</time>
      </trkpt>
      <trkpt lat="46.63201" lon="6.11311">
        <ele>1215.72</ele>
        <time>2013-05-10T16:13:36Z</time>
      </trkpt>
      <trkpt lat="46.63202" lon="6.11308">
        <ele>1215.24</ele>
        <time>2013-05-10T16:13:37Z</time>
      </trkpt>
      <trkpt lat="46.63203" lon="6.11305">
        <ele>1215.24</ele>
        <time>2013-05-10T16:13:38Z</time>
      </trkpt>
      <trkpt lat="46.63207" lon="6.11295">
        <ele>1214.76</ele>
        <time>2013-05-10T16:13:41Z</time>
      </trkpt>
      <trkpt lat="46.63208" lon="6.11294">
        <ele>1214.28</ele>
        <time>2013-05-10T16:13:42Z</time>
      </trkpt>
      <trkpt lat="46.63209" lon="6.11292">
        <ele>1214.28</ele>
        <time>2013-05-10T16:13:43Z</time>
      </trkpt>
      <trkpt lat="46.63219" lon="6.11282">
        <ele>1211.4</ele>
        <time>2013-05-10T16:13:49Z</time>
      </trkpt>
      <trkpt lat="46.63224" lon="6.11279">
        <ele>1210.92</ele>
        <time>2013-05-10T16:13:53Z</time>
      </trkpt>
      <trkpt lat="46.63226" lon="6.11279">
        <ele>1210.92</ele>
        <time>2013-05-10T16:13:55Z</time>
      </trkpt>
      <trkpt lat="46.63242" lon="6.11271">
        <ele>1209</ele>
        <time>2013-05-10T16:14:07Z</time>
      </trkpt>
      <trkpt lat="46.63257" lon="6.11252">
        <ele>1208.51</ele>
        <time>2013-05-10T16:14:20Z</time>
      </trkpt>
      <trkpt lat="46.63264" lon="6.11242">
        <ele>1208.51</ele>
        <time>2013-05-10T16:14:32Z</time>
      </trkpt>
      <trkpt lat="46.63267" lon="6.11236">
        <ele>1208.51</ele>
        <time>2013-05-10T16:14:35Z</time>
      </trkpt>
      <trkpt lat="46.63267" lon="6.11234">
        <ele>1208.51</ele>
        <time>2013-05-10T16:14:36Z</time>
      </trkpt>
      <trkpt lat="46.63268" lon="6.11233">
        <ele>1208.03</ele>
        <time>2013-05-10T16:14:37Z</time>
      </trkpt>
      <trkpt lat="46.63268" lon="6.11231">
        <ele>1208.03</ele>
        <time>2013-05-10T16:14:38Z</time>
      </trkpt>
      <trkpt lat="46.6327" lon="6.11225">
        <ele>1208.03</ele>
        <time>2013-05-10T16:14:42Z</time>
      </trkpt>
      <trkpt lat="46.63271" lon="6.11218">
        <ele>1208.03</ele>
        <time>2013-05-10T16:14:49Z</time>
      </trkpt>
      <trkpt lat="46.63277" lon="6.11209">
        <ele>1208.03</ele>
        <time>2013-05-10T16:14:53Z</time>
      </trkpt>
      <trkpt lat="46.63292" lon="6.11196">
        <ele>1208.03</ele>
        <time>2013-05-10T16:15:06Z</time>
      </trkpt>
      <trkpt lat="46.63309" lon="6.11187">
        <ele>1208.51</ele>
        <time>2013-05-10T16:15:18Z</time>
      </trkpt>
      <trkpt lat="46.63323" lon="6.11174">
        <ele>1208.51</ele>
        <time>2013-05-10T16:15:32Z</time>
      </trkpt>
      <trkpt lat="46.63331" lon="6.11162">
        <ele>1208.51</ele>
        <time>2013-05-10T16:15:42Z</time>
      </trkpt>
      <trkpt lat="46.63337" lon="6.11145">
        <ele>1208.51</ele>
        <time>2013-05-10T16:15:53Z</time>
      </trkpt>
      <trkpt lat="46.63341" lon="6.1113">
        <ele>1208.51</ele>
        <time>2013-05-10T16:16:00Z</time>
      </trkpt>
      <trkpt lat="46.63348" lon="6.11106">
        <ele>1208.03</ele>
        <time>2013-05-10T16:16:14Z</time>
      </trkpt>
      <trkpt lat="46.63353" lon="6.11094">
        <ele>1208.03</ele>
        <time>2013-05-10T16:16:20Z</time>
      </trkpt>
      <trkpt lat="46.63355" lon="6.11088">
        <ele>1208.03</ele>
        <time>2013-05-10T16:16:23Z</time>
      </trkpt>
      <trkpt lat="46.63363" lon="6.11072">
        <ele>1207.55</ele>
        <time>2013-05-10T16:16:35Z</time>
      </trkpt>
      <trkpt lat="46.63367" lon="6.11065">
        <ele>1207.07</ele>
        <time>2013-05-10T16:16:40Z</time>
      </trkpt>
      <trkpt lat="46.63371" lon="6.1105">
        <ele>1207.07</ele>
        <time>2013-05-10T16:16:53Z</time>
      </trkpt>
      <trkpt lat="46.63371" lon="6.11049">
        <ele>1207.07</ele>
        <time>2013-05-10T16:17:02Z</time>
      </trkpt>
      <trkpt lat="46.63374" lon="6.11042">
        <ele>1207.07</ele>
        <time>2013-05-10T16:17:06Z</time>
      </trkpt>
      <trkpt lat="46.63384" lon="6.11017">
        <ele>1207.55</ele>
        <time>2013-05-10T16:17:17Z</time>
      </trkpt>
      <trkpt lat="46.63386" lon="6.11011">
        <ele>1208.03</ele>
        <time>2013-05-10T16:17:20Z</time>
      </trkpt>
      <trkpt lat="46.63387" lon="6.10995">
        <ele>1207.55</ele>
        <time>2013-05-10T16:17:31Z</time>
      </trkpt>
      <trkpt lat="46.63388" lon="6.10992">
        <ele>1208.03</ele>
        <time>2013-05-10T16:17:33Z</time>
      </trkpt>
      <trkpt lat="46.63397" lon="6.10976">
        <ele>1207.55</ele>
        <time>2013-05-10T16:17:44Z</time>
      </trkpt>
      <trkpt lat="46.63409" lon="6.10953">
        <ele>1207.55</ele>
        <time>2013-05-10T16:17:55Z</time>
      </trkpt>
      <trkpt lat="46.6341" lon="6.1095">
        <ele>1208.03</ele>
        <time>2013-05-10T16:17:57Z</time>
      </trkpt>
      <trkpt lat="46.63411" lon="6.10947">
        <ele>1208.03</ele>
        <time>2013-05-10T16:18:00Z</time>
      </trkpt>
      <trkpt lat="46.63422" lon="6.10922">
        <ele>1208.03</ele>
        <time>2013-05-10T16:18:14Z</time>
      </trkpt>
      <trkpt lat="46.63434" lon="6.10904">
        <ele>1208.03</ele>
        <time>2013-05-10T16:18:29Z</time>
      </trkpt>
      <trkpt lat="46.63447" lon="6.10899">
        <ele>1208.51</ele>
        <time>2013-05-10T16:18:42Z</time>
      </trkpt>
      <trkpt lat="46.63463" lon="6.10899">
        <ele>1209</ele>
        <time>2013-05-10T16:18:51Z</time>
      </trkpt>
      <trkpt lat="46.63479" lon="6.10901">
        <ele>1209</ele>
        <time>2013-05-10T16:19:04Z</time>
      </trkpt>
      <trkpt lat="46.63496" lon="6.10913">
        <ele>1208.51</ele>
        <time>2013-05-10T16:19:17Z</time>
      </trkpt>
      <trkpt lat="46.63526" lon="6.10936">
        <ele>1209.48</ele>
        <time>2013-05-10T16:19:29Z</time>
      </trkpt>
      <trkpt lat="46.63556" lon="6.10948">
        <ele>1210.44</ele>
        <time>2013-05-10T16:19:40Z</time>
      </trkpt>
      <trkpt lat="46.63576" lon="6.10984">
        <ele>1210.92</ele>
        <time>2013-05-10T16:19:52Z</time>
      </trkpt>
      <trkpt lat="46.63572" lon="6.11041">
        <ele>1211.4</ele>
        <time>2013-05-10T16:20:04Z</time>
      </trkpt>
      <trkpt lat="46.63562" lon="6.11111">
        <ele>1211.4</ele>
        <time>2013-05-10T16:20:18Z</time>
      </trkpt>
      <trkpt lat="46.63577" lon="6.11167">
        <ele>1211.88</ele>
        <time>2013-05-10T16:20:30Z</time>
      </trkpt>
      <trkpt lat="46.63616" lon="6.11194">
        <ele>1212.84</ele>
        <time>2013-05-10T16:20:42Z</time>
      </trkpt>
      <trkpt lat="46.63664" lon="6.11213">
        <ele>1211.88</ele>
        <time>2013-05-10T16:20:55Z</time>
      </trkpt>
      <trkpt lat="46.63686" lon="6.11239">
        <ele>1212.84</ele>
        <time>2013-05-10T16:21:04Z</time>
      </trkpt>
      <trkpt lat="46.63709" lon="6.11272">
        <ele>1213.32</ele>
        <time>2013-05-10T16:21:15Z</time>
      </trkpt>
      <trkpt lat="46.6371" lon="6.11276">
        <ele>1213.32</ele>
        <time>2013-05-10T16:21:17Z</time>
      </trkpt>
      <trkpt lat="46.63716" lon="6.11286">
        <ele>1213.8</ele>
        <time>2013-05-10T16:21:21Z</time>
      </trkpt>
      <trkpt lat="46.63732" lon="6.11323">
        <ele>1214.28</ele>
        <time>2013-05-10T16:21:31Z</time>
      </trkpt>
      <trkpt lat="46.63747" lon="6.11365">
        <ele>1213.8</ele>
        <time>2013-05-10T16:21:40Z</time>
      </trkpt>
      <trkpt lat="46.63753" lon="6.1138">
        <ele>1213.32</ele>
        <time>2013-05-10T16:21:43Z</time>
      </trkpt>
      <trkpt lat="46.63766" lon="6.11426">
        <ele>1212.84</ele>
        <time>2013-05-10T16:21:52Z</time>
      </trkpt>
      <trkpt lat="46.63768" lon="6.11442">
        <ele>1213.32</ele>
        <time>2013-05-10T16:21:59Z</time>
      </trkpt>
      <trkpt lat="46.63769" lon="6.11451">
        <ele>1213.32</ele>
        <time>2013-05-10T16:22:03Z</time>
      </trkpt>
      <trkpt lat="46.63773" lon="6.11468">
        <ele>1213.32</ele>
        <time>2013-05-10T16:22:13Z</time>
      </trkpt>
      <trkpt lat="46.63776" lon="6.11498">
        <ele>1213.32</ele>
        <time>2013-05-10T16:22:21Z</time>
      </trkpt>
      <trkpt lat="46.63778" lon="6.11526">
        <ele>1214.28</ele>
        <time>2013-05-10T16:22:31Z</time>
      </trkpt>
      <trkpt lat="46.63783" lon="6.11537">
        <ele>1215.24</ele>
        <time>2013-05-10T16:22:41Z</time>
      </trkpt>
      <trkpt lat="46.63782" lon="6.11551">
        <ele>1213.8</ele>
        <time>2013-05-10T16:22:50Z</time>
      </trkpt>
      <trkpt lat="46.63789" lon="6.11572">
        <ele>1213.8</ele>
        <time>2013-05-10T16:23:02Z</time>
      </trkpt>
      <trkpt lat="46.63796" lon="6.11593">
        <ele>1214.28</ele>
        <time>2013-05-10T16:23:10Z</time>
      </trkpt>
      <trkpt lat="46.63797" lon="6.11596">
        <ele>1214.28</ele>
        <time>2013-05-10T16:23:11Z</time>
      </trkpt>
      <trkpt lat="46.63798" lon="6.11599">
        <ele>1213.8</ele>
        <time>2013-05-10T16:23:12Z</time>
      </trkpt>
      <trkpt lat="46.63799" lon="6.11602">
        <ele>1213.8</ele>
        <time>2013-05-10T16:23:13Z</time>
      </trkpt>
      <trkpt lat="46.638" lon="6.11607">
        <ele>1213.32</ele>
        <time>2013-05-10T16:23:14Z</time>
      </trkpt>
      <trkpt lat="46.63801" lon="6.11613">
        <ele>1213.8</ele>
        <time>2013-05-10T16:23:15Z</time>
      </trkpt>
      <trkpt lat="46.63802" lon="6.11617">
        <ele>1213.8</ele>
        <time>2013-05-10T16:23:16Z</time>
      </trkpt>
      <trkpt lat="46.6382" lon="6.11673">
        <ele>1214.76</ele>
        <time>2013-05-10T16:23:26Z</time>
      </trkpt>
      <trkpt lat="46.63836" lon="6.11712">
        <ele>1215.24</ele>
        <time>2013-05-10T16:23:37Z</time>
      </trkpt>
      <trkpt lat="46.63837" lon="6.11716">
        <ele>1215.72</ele>
        <time>2013-05-10T16:23:38Z</time>
      </trkpt>
      <trkpt lat="46.63837" lon="6.1172">
        <ele>1215.72</ele>
        <time>2013-05-10T16:23:39Z</time>
      </trkpt>
      <trkpt lat="46.63837" lon="6.11725">
        <ele>1215.72</ele>
        <time>2013-05-10T16:23:40Z</time>
      </trkpt>
      <trkpt lat="46.63838" lon="6.11728">
        <ele>1215.24</ele>
        <time>2013-05-10T16:23:41Z</time>
      </trkpt>
      <trkpt lat="46.63839" lon="6.11732">
        <ele>1215.72</ele>
        <time>2013-05-10T16:23:42Z</time>
      </trkpt>
      <trkpt lat="46.6384" lon="6.11735">
        <ele>1215.24</ele>
        <time>2013-05-10T16:23:43Z</time>
      </trkpt>
      <trkpt lat="46.63841" lon="6.11737">
        <ele>1215.72</ele>
        <time>2013-05-10T16:23:44Z</time>
      </trkpt>
      <trkpt lat="46.63858" lon="6.11779">
        <ele>1215.72</ele>
        <time>2013-05-10T16:23:54Z</time>
      </trkpt>
      <trkpt lat="46.6388" lon="6.1181">
        <ele>1216.21</ele>
        <time>2013-05-10T16:24:04Z</time>
      </trkpt>
      <trkpt lat="46.63882" lon="6.11813">
        <ele>1216.21</ele>
        <time>2013-05-10T16:24:05Z</time>
      </trkpt>
      <trkpt lat="46.63885" lon="6.11814">
        <ele>1216.21</ele>
        <time>2013-05-10T16:24:06Z</time>
      </trkpt>
      <trkpt lat="46.63887" lon="6.11817">
        <ele>1216.21</ele>
        <time>2013-05-10T16:24:07Z</time>
      </trkpt>
      <trkpt lat="46.6389" lon="6.1182">
        <ele>1216.21</ele>
        <time>2013-05-10T16:24:08Z</time>
      </trkpt>
      <trkpt lat="46.63893" lon="6.11822">
        <ele>1216.21</ele>
        <time>2013-05-10T16:24:09Z</time>
      </trkpt>
      <trkpt lat="46.63916" lon="6.11846">
        <ele>1216.69</ele>
        <time>2013-05-10T16:24:17Z</time>
      </trkpt>
      <trkpt lat="46.63953" lon="6.11869">
        <ele>1217.17</ele>
        <time>2013-05-10T16:24:28Z</time>
      </trkpt>
      <trkpt lat="46.63984" lon="6.11883">
        <ele>1217.17</ele>
        <time>2013-05-10T16:24:37Z</time>
      </trkpt>
      <trkpt lat="46.64036" lon="6.11872">
        <ele>1216.69</ele>
        <time>2013-05-10T16:24:50Z</time>
      </trkpt>
      <trkpt lat="46.64086" lon="6.11858">
        <ele>1217.17</ele>
        <time>2013-05-10T16:25:03Z</time>
      </trkpt>
      <trkpt lat="46.6409" lon="6.11859">
        <ele>1217.17</ele>
        <time>2013-05-10T16:25:04Z</time>
      </trkpt>
      <trkpt lat="46.64093" lon="6.11859">
        <ele>1217.17</ele>
        <time>2013-05-10T16:25:05Z</time>
      </trkpt>
      <trkpt lat="46.64111" lon="6.11863">
        <ele>1219.09</ele>
        <time>2013-05-10T16:25:11Z</time>
      </trkpt>
      <trkpt lat="46.64113" lon="6.11863">
        <ele>1219.09</ele>
        <time>2013-05-10T16:25:12Z</time>
      </trkpt>
      <trkpt lat="46.64115" lon="6.11862">
        <ele>1219.57</ele>
        <time>2013-05-10T16:25:13Z</time>
      </trkpt>
      <trkpt lat="46.64116" lon="6.11861">
        <ele>1219.57</ele>
        <time>2013-05-10T16:25:14Z</time>
      </trkpt>
      <trkpt lat="46.64118" lon="6.11858">
        <ele>1219.57</ele>
        <time>2013-05-10T16:25:15Z</time>
      </trkpt>
      <trkpt lat="46.6412" lon="6.11856">
        <ele>1219.57</ele>
        <time>2013-05-10T16:25:16Z</time>
      </trkpt>
      <trkpt lat="46.64125" lon="6.11852">
        <ele>1219.57</ele>
        <time>2013-05-10T16:25:18Z</time>
      </trkpt>
      <trkpt lat="46.64127" lon="6.11849">
        <ele>1219.57</ele>
        <time>2013-05-10T16:25:19Z</time>
      </trkpt>
      <trkpt lat="46.64128" lon="6.11847">
        <ele>1219.57</ele>
        <time>2013-05-10T16:25:20Z</time>
      </trkpt>
      <trkpt lat="46.64129" lon="6.11846">
        <ele>1219.57</ele>
        <time>2013-05-10T16:25:21Z</time>
      </trkpt>
      <trkpt lat="46.64146" lon="6.11836">
        <ele>1215.72</ele>
        <time>2013-05-10T16:25:29Z</time>
      </trkpt>
      <trkpt lat="46.64146" lon="6.11835">
        <ele>1220.05</ele>
        <time>2013-05-10T16:25:30Z</time>
      </trkpt>
      <trkpt lat="46.64148" lon="6.11833">
        <ele>1215.24</ele>
        <time>2013-05-10T16:25:31Z</time>
      </trkpt>
      <trkpt lat="46.64149" lon="6.11832">
        <ele>1218.61</ele>
        <time>2013-05-10T16:25:32Z</time>
      </trkpt>
      <trkpt lat="46.64182" lon="6.11809">
        <ele>1219.09</ele>
        <time>2013-05-10T16:25:44Z</time>
      </trkpt>
      <trkpt lat="46.64189" lon="6.11804">
        <ele>1217.65</ele>
        <time>2013-05-10T16:25:46Z</time>
      </trkpt>
      <trkpt lat="46.64199" lon="6.11801">
        <ele>1214.76</ele>
        <time>2013-05-10T16:25:53Z</time>
      </trkpt>
      <trkpt lat="46.642" lon="6.118">
        <ele>1214.28</ele>
        <time>2013-05-10T16:25:54Z</time>
      </trkpt>
      <trkpt lat="46.6421" lon="6.11787">
        <ele>1211.88</ele>
        <time>2013-05-10T16:26:00Z</time>
      </trkpt>
      <trkpt lat="46.64212" lon="6.11786">
        <ele>1211.4</ele>
        <time>2013-05-10T16:26:01Z</time>
      </trkpt>
      <trkpt lat="46.64214" lon="6.11783">
        <ele>1211.4</ele>
        <time>2013-05-10T16:26:02Z</time>
      </trkpt>
      <trkpt lat="46.64216" lon="6.1178">
        <ele>1210.92</ele>
        <time>2013-05-10T16:26:03Z</time>
      </trkpt>
      <trkpt lat="46.64219" lon="6.11778">
        <ele>1210.92</ele>
        <time>2013-05-10T16:26:04Z</time>
      </trkpt>
      <trkpt lat="46.64219" lon="6.11777">
        <ele>1210.44</ele>
        <time>2013-05-10T16:26:05Z</time>
      </trkpt>
      <trkpt lat="46.6421" lon="6.11766">
        <ele>1208.03</ele>
        <time>2013-05-10T16:26:18Z</time>
      </trkpt>
      <trkpt lat="46.6423" lon="6.11757">
        <ele>1207.55</ele>
        <time>2013-05-10T16:26:20Z</time>
      </trkpt>
      <trkpt lat="46.64257" lon="6.1174">
        <ele>1205.63</ele>
        <time>2013-05-10T16:26:34Z</time>
      </trkpt>
      <trkpt lat="46.64273" lon="6.11734">
        <ele>1205.15</ele>
        <time>2013-05-10T16:26:36Z</time>
      </trkpt>
      <trkpt lat="46.64287" lon="6.11719">
        <ele>1202.27</ele>
        <time>2013-05-10T16:26:41Z</time>
      </trkpt>
      <trkpt lat="46.64295" lon="6.11691">
        <ele>1200.34</ele>
        <time>2013-05-10T16:26:48Z</time>
      </trkpt>
      <trkpt lat="46.64383" lon="6.11641">
        <ele>1198.9</ele>
        <time>2013-05-10T16:26:57Z</time>
      </trkpt>
      <trkpt lat="46.64392" lon="6.11628">
        <ele>1198.9</ele>
        <time>2013-05-10T16:27:08Z</time>
      </trkpt>
      <trkpt lat="46.6439" lon="6.11615">
        <ele>1200.34</ele>
        <time>2013-05-10T16:27:15Z</time>
      </trkpt>
      <trkpt lat="46.644" lon="6.11589">
        <ele>1199.86</ele>
        <time>2013-05-10T16:27:23Z</time>
      </trkpt>
      <trkpt lat="46.64405" lon="6.11579">
        <ele>1200.34</ele>
        <time>2013-05-10T16:27:36Z</time>
      </trkpt>
      <trkpt lat="46.64407" lon="6.11573">
        <ele>1200.34</ele>
        <time>2013-05-10T16:27:44Z</time>
      </trkpt>
      <trkpt lat="46.64407" lon="6.11561">
        <ele>1200.82</ele>
        <time>2013-05-10T16:27:48Z</time>
      </trkpt>
      <trkpt lat="46.64412" lon="6.11547">
        <ele>1200.34</ele>
        <time>2013-05-10T16:27:52Z</time>
      </trkpt>
      <trkpt lat="46.64422" lon="6.11529">
        <ele>1200.34</ele>
        <time>2013-05-10T16:28:01Z</time>
      </trkpt>
      <trkpt lat="46.64425" lon="6.11523">
        <ele>1200.34</ele>
        <time>2013-05-10T16:28:05Z</time>
      </trkpt>
      <trkpt lat="46.6443" lon="6.11513">
        <ele>1200.34</ele>
        <time>2013-05-10T16:28:09Z</time>
      </trkpt>
      <trkpt lat="46.64436" lon="6.11489">
        <ele>1200.34</ele>
        <time>2013-05-10T16:28:14Z</time>
      </trkpt>
      <trkpt lat="46.64438" lon="6.11485">
        <ele>1199.86</ele>
        <time>2013-05-10T16:28:15Z</time>
      </trkpt>
      <trkpt lat="46.64439" lon="6.11482">
        <ele>1200.34</ele>
        <time>2013-05-10T16:28:16Z</time>
      </trkpt>
      <trkpt lat="46.64441" lon="6.11479">
        <ele>1200.34</ele>
        <time>2013-05-10T16:28:17Z</time>
      </trkpt>
      <trkpt lat="46.64442" lon="6.11475">
        <ele>1200.34</ele>
        <time>2013-05-10T16:28:18Z</time>
      </trkpt>
      <trkpt lat="46.64444" lon="6.1147">
        <ele>1200.34</ele>
        <time>2013-05-10T16:28:19Z</time>
      </trkpt>
      <trkpt lat="46.64463" lon="6.11428">
        <ele>1199.86</ele>
        <time>2013-05-10T16:28:29Z</time>
      </trkpt>
      <trkpt lat="46.64482" lon="6.11391">
        <ele>1199.38</ele>
        <time>2013-05-10T16:28:36Z</time>
      </trkpt>
      <trkpt lat="46.645" lon="6.11343">
        <ele>1198.9</ele>
        <time>2013-05-10T16:28:46Z</time>
      </trkpt>
      <trkpt lat="46.64501" lon="6.11338">
        <ele>1198.9</ele>
        <time>2013-05-10T16:28:47Z</time>
      </trkpt>
      <trkpt lat="46.6452" lon="6.11295">
        <ele>1198.9</ele>
        <time>2013-05-10T16:28:57Z</time>
      </trkpt>
      <trkpt lat="46.64528" lon="6.11279">
        <ele>1199.38</ele>
        <time>2013-05-10T16:29:02Z</time>
      </trkpt>
      <trkpt lat="46.64529" lon="6.11274">
        <ele>1199.38</ele>
        <time>2013-05-10T16:29:03Z</time>
      </trkpt>
      <trkpt lat="46.64537" lon="6.11252">
        <ele>1199.38</ele>
        <time>2013-05-10T16:29:09Z</time>
      </trkpt>
      <trkpt lat="46.64547" lon="6.11242">
        <ele>1199.38</ele>
        <time>2013-05-10T16:29:13Z</time>
      </trkpt>
      <trkpt lat="46.64548" lon="6.11237">
        <ele>1199.38</ele>
        <time>2013-05-10T16:29:14Z</time>
      </trkpt>
      <trkpt lat="46.64555" lon="6.1121">
        <ele>1199.86</ele>
        <time>2013-05-10T16:29:24Z</time>
      </trkpt>
      <trkpt lat="46.6456" lon="6.11193">
        <ele>1199.86</ele>
        <time>2013-05-10T16:29:32Z</time>
      </trkpt>
      <trkpt lat="46.64562" lon="6.11172">
        <ele>1200.34</ele>
        <time>2013-05-10T16:29:46Z</time>
      </trkpt>
      <trkpt lat="46.64564" lon="6.11164">
        <ele>1200.34</ele>
        <time>2013-05-10T16:29:50Z</time>
      </trkpt>
      <trkpt lat="46.64572" lon="6.1115">
        <ele>1200.34</ele>
        <time>2013-05-10T16:30:02Z</time>
      </trkpt>
      <trkpt lat="46.64577" lon="6.11132">
        <ele>1200.34</ele>
        <time>2013-05-10T16:30:14Z</time>
      </trkpt>
      <trkpt lat="46.64584" lon="6.11105">
        <ele>1200.82</ele>
        <time>2013-05-10T16:30:29Z</time>
      </trkpt>
      <trkpt lat="46.64592" lon="6.11083">
        <ele>1200.82</ele>
        <time>2013-05-10T16:30:43Z</time>
      </trkpt>
      <trkpt lat="46.64593" lon="6.11079">
        <ele>1200.34</ele>
        <time>2013-05-10T16:30:44Z</time>
      </trkpt>
      <trkpt lat="46.64593" lon="6.11077">
        <ele>1200.82</ele>
        <time>2013-05-10T16:30:45Z</time>
      </trkpt>
      <trkpt lat="46.64594" lon="6.11074">
        <ele>1200.82</ele>
        <time>2013-05-10T16:30:46Z</time>
      </trkpt>
      <trkpt lat="46.64596" lon="6.1107">
        <ele>1200.82</ele>
        <time>2013-05-10T16:30:47Z</time>
      </trkpt>
      <trkpt lat="46.64597" lon="6.11066">
        <ele>1200.82</ele>
        <time>2013-05-10T16:30:48Z</time>
      </trkpt>
      <trkpt lat="46.64599" lon="6.11062">
        <ele>1200.82</ele>
        <time>2013-05-10T16:30:49Z</time>
      </trkpt>
      <trkpt lat="46.646" lon="6.11059">
        <ele>1200.82</ele>
        <time>2013-05-10T16:30:50Z</time>
      </trkpt>
      <trkpt lat="46.64602" lon="6.1105">
        <ele>1200.82</ele>
        <time>2013-05-10T16:30:53Z</time>
      </trkpt>
      <trkpt lat="46.64603" lon="6.11047">
        <ele>1201.3</ele>
        <time>2013-05-10T16:30:54Z</time>
      </trkpt>
      <trkpt lat="46.64605" lon="6.11044">
        <ele>1201.3</ele>
        <time>2013-05-10T16:30:55Z</time>
      </trkpt>
      <trkpt lat="46.64612" lon="6.11011">
        <ele>1202.27</ele>
        <time>2013-05-10T16:31:07Z</time>
      </trkpt>
      <trkpt lat="46.64615" lon="6.11002">
        <ele>1202.75</ele>
        <time>2013-05-10T16:31:11Z</time>
      </trkpt>
      <trkpt lat="46.64619" lon="6.1098">
        <ele>1202.75</ele>
        <time>2013-05-10T16:31:22Z</time>
      </trkpt>
      <trkpt lat="46.6462" lon="6.10966">
        <ele>1202.75</ele>
        <time>2013-05-10T16:31:25Z</time>
      </trkpt>
      <trkpt lat="46.64621" lon="6.10961">
        <ele>1202.75</ele>
        <time>2013-05-10T16:31:26Z</time>
      </trkpt>
      <trkpt lat="46.64622" lon="6.10948">
        <ele>1203.23</ele>
        <time>2013-05-10T16:31:29Z</time>
      </trkpt>
      <trkpt lat="46.64621" lon="6.10938">
        <ele>1203.71</ele>
        <time>2013-05-10T16:31:32Z</time>
      </trkpt>
      <trkpt lat="46.64622" lon="6.10934">
        <ele>1203.71</ele>
        <time>2013-05-10T16:31:33Z</time>
      </trkpt>
      <trkpt lat="46.64622" lon="6.10929">
        <ele>1204.19</ele>
        <time>2013-05-10T16:31:34Z</time>
      </trkpt>
      <trkpt lat="46.64625" lon="6.10898">
        <ele>1205.63</ele>
        <time>2013-05-10T16:31:46Z</time>
      </trkpt>
      <trkpt lat="46.64625" lon="6.10888">
        <ele>1206.11</ele>
        <time>2013-05-10T16:31:52Z</time>
      </trkpt>
      <trkpt lat="46.64625" lon="6.10887">
        <ele>1206.11</ele>
        <time>2013-05-10T16:31:53Z</time>
      </trkpt>
      <trkpt lat="46.64624" lon="6.10881">
        <ele>1206.59</ele>
        <time>2013-05-10T16:31:57Z</time>
      </trkpt>
      <trkpt lat="46.64624" lon="6.10879">
        <ele>1206.11</ele>
        <time>2013-05-10T16:31:58Z</time>
      </trkpt>
      <trkpt lat="46.64617" lon="6.10856">
        <ele>1206.59</ele>
        <time>2013-05-10T16:32:14Z</time>
      </trkpt>
      <trkpt lat="46.64616" lon="6.10844">
        <ele>1206.59</ele>
        <time>2013-05-10T16:32:23Z</time>
      </trkpt>
      <trkpt lat="46.64615" lon="6.10841">
        <ele>1206.59</ele>
        <time>2013-05-10T16:32:24Z</time>
      </trkpt>
      <trkpt lat="46.64609" lon="6.10805">
        <ele>1207.55</ele>
        <time>2013-05-10T16:32:34Z</time>
      </trkpt>
      <trkpt lat="46.64609" lon="6.10801">
        <ele>1208.03</ele>
        <time>2013-05-10T16:32:35Z</time>
      </trkpt>
      <trkpt lat="46.64608" lon="6.10798">
        <ele>1208.03</ele>
        <time>2013-05-10T16:32:36Z</time>
      </trkpt>
      <trkpt lat="46.64608" lon="6.10795">
        <ele>1208.03</ele>
        <time>2013-05-10T16:32:37Z</time>
      </trkpt>
      <trkpt lat="46.64609" lon="6.10771">
        <ele>1209</ele>
        <time>2013-05-10T16:32:46Z</time>
      </trkpt>
      <trkpt lat="46.64609" lon="6.10769">
        <ele>1209.48</ele>
        <time>2013-05-10T16:32:47Z</time>
      </trkpt>
      <trkpt lat="46.64609" lon="6.10766">
        <ele>1209</ele>
        <time>2013-05-10T16:32:48Z</time>
      </trkpt>
      <trkpt lat="46.64609" lon="6.10764">
        <ele>1209.48</ele>
        <time>2013-05-10T16:32:49Z</time>
      </trkpt>
      <trkpt lat="46.64609" lon="6.10761">
        <ele>1209.48</ele>
        <time>2013-05-10T16:32:50Z</time>
      </trkpt>
      <trkpt lat="46.64609" lon="6.10759">
        <ele>1209.48</ele>
        <time>2013-05-10T16:32:51Z</time>
      </trkpt>
      <trkpt lat="46.64609" lon="6.10756">
        <ele>1209.48</ele>
        <time>2013-05-10T16:32:52Z</time>
      </trkpt>
      <trkpt lat="46.64609" lon="6.10753">
        <ele>1209.48</ele>
        <time>2013-05-10T16:32:53Z</time>
      </trkpt>
      <trkpt lat="46.64609" lon="6.10735">
        <ele>1210.44</ele>
        <time>2013-05-10T16:33:01Z</time>
      </trkpt>
      <trkpt lat="46.64609" lon="6.10733">
        <ele>1210.44</ele>
        <time>2013-05-10T16:33:02Z</time>
      </trkpt>
      <trkpt lat="46.64609" lon="6.10731">
        <ele>1210.92</ele>
        <time>2013-05-10T16:33:03Z</time>
      </trkpt>
      <trkpt lat="46.64609" lon="6.10728">
        <ele>1210.92</ele>
        <time>2013-05-10T16:33:04Z</time>
      </trkpt>
      <trkpt lat="46.64608" lon="6.10726">
        <ele>1210.92</ele>
        <time>2013-05-10T16:33:05Z</time>
      </trkpt>
      <trkpt lat="46.64608" lon="6.10724">
        <ele>1210.92</ele>
        <time>2013-05-10T16:33:06Z</time>
      </trkpt>
      <trkpt lat="46.64607" lon="6.10722">
        <ele>1210.92</ele>
        <time>2013-05-10T16:33:07Z</time>
      </trkpt>
      <trkpt lat="46.64607" lon="6.1072">
        <ele>1211.4</ele>
        <time>2013-05-10T16:33:08Z</time>
      </trkpt>
      <trkpt lat="46.64606" lon="6.10718">
        <ele>1211.4</ele>
        <time>2013-05-10T16:33:09Z</time>
      </trkpt>
      <trkpt lat="46.64605" lon="6.10715">
        <ele>1210.92</ele>
        <time>2013-05-10T16:33:10Z</time>
      </trkpt>
      <trkpt lat="46.64598" lon="6.10694">
        <ele>1212.36</ele>
        <time>2013-05-10T16:33:21Z</time>
      </trkpt>
      <trkpt lat="46.64599" lon="6.10682">
        <ele>1212.84</ele>
        <time>2013-05-10T16:33:33Z</time>
      </trkpt>
      <trkpt lat="46.646" lon="6.10671">
        <ele>1212.84</ele>
        <time>2013-05-10T16:33:39Z</time>
      </trkpt>
      <trkpt lat="46.64601" lon="6.10668">
        <ele>1211.4</ele>
        <time>2013-05-10T16:33:40Z</time>
      </trkpt>
      <trkpt lat="46.64602" lon="6.10663">
        <ele>1210.92</ele>
        <time>2013-05-10T16:33:41Z</time>
      </trkpt>
      <trkpt lat="46.64603" lon="6.10658">
        <ele>1209.96</ele>
        <time>2013-05-10T16:33:42Z</time>
      </trkpt>
      <trkpt lat="46.64603" lon="6.10652">
        <ele>1209.96</ele>
        <time>2013-05-10T16:33:43Z</time>
      </trkpt>
      <trkpt lat="46.64603" lon="6.10633">
        <ele>1209.96</ele>
        <time>2013-05-10T16:33:49Z</time>
      </trkpt>
      <trkpt lat="46.64607" lon="6.10624">
        <ele>1208.51</ele>
        <time>2013-05-10T16:33:52Z</time>
      </trkpt>
      <trkpt lat="46.64608" lon="6.106">
        <ele>1204.67</ele>
        <time>2013-05-10T16:33:56Z</time>
      </trkpt>
      <trkpt lat="46.64607" lon="6.10582">
        <ele>1201.79</ele>
        <time>2013-05-10T16:33:58Z</time>
      </trkpt>
      <trkpt lat="46.64607" lon="6.10573">
        <ele>1200.34</ele>
        <time>2013-05-10T16:33:59Z</time>
      </trkpt>
      <trkpt lat="46.64606" lon="6.10566">
        <ele>1199.38</ele>
        <time>2013-05-10T16:34:00Z</time>
      </trkpt>
      <trkpt lat="46.64605" lon="6.1056">
        <ele>1198.9</ele>
        <time>2013-05-10T16:34:01Z</time>
      </trkpt>
      <trkpt lat="46.64604" lon="6.10554">
        <ele>1197.94</ele>
        <time>2013-05-10T16:34:02Z</time>
      </trkpt>
      <trkpt lat="46.64603" lon="6.10548">
        <ele>1197.94</ele>
        <time>2013-05-10T16:34:03Z</time>
      </trkpt>
      <trkpt lat="46.64599" lon="6.1052">
        <ele>1196.5</ele>
        <time>2013-05-10T16:34:11Z</time>
      </trkpt>
      <trkpt lat="46.64591" lon="6.10495">
        <ele>1197.46</ele>
        <time>2013-05-10T16:34:24Z</time>
      </trkpt>
      <trkpt lat="46.64585" lon="6.10485">
        <ele>1196.5</ele>
        <time>2013-05-10T16:34:31Z</time>
      </trkpt>
      <trkpt lat="46.6458" lon="6.1048">
        <ele>1196.02</ele>
        <time>2013-05-10T16:34:34Z</time>
      </trkpt>
      <trkpt lat="46.64578" lon="6.10477">
        <ele>1195.54</ele>
        <time>2013-05-10T16:34:35Z</time>
      </trkpt>
      <trkpt lat="46.64577" lon="6.10474">
        <ele>1195.06</ele>
        <time>2013-05-10T16:34:36Z</time>
      </trkpt>
      <trkpt lat="46.64574" lon="6.10463">
        <ele>1193.61</ele>
        <time>2013-05-10T16:34:40Z</time>
      </trkpt>
      <trkpt lat="46.64574" lon="6.10454">
        <ele>1193.13</ele>
        <time>2013-05-10T16:34:44Z</time>
      </trkpt>
      <trkpt lat="46.64575" lon="6.10443">
        <ele>1192.65</ele>
        <time>2013-05-10T16:34:48Z</time>
      </trkpt>
      <trkpt lat="46.64574" lon="6.1044">
        <ele>1192.65</ele>
        <time>2013-05-10T16:34:49Z</time>
      </trkpt>
      <trkpt lat="46.64573" lon="6.10438">
        <ele>1192.65</ele>
        <time>2013-05-10T16:34:50Z</time>
      </trkpt>
      <trkpt lat="46.6457" lon="6.10434">
        <ele>1192.65</ele>
        <time>2013-05-10T16:34:52Z</time>
      </trkpt>
      <trkpt lat="46.64568" lon="6.10432">
        <ele>1192.65</ele>
        <time>2013-05-10T16:34:53Z</time>
      </trkpt>
      <trkpt lat="46.64566" lon="6.10429">
        <ele>1192.65</ele>
        <time>2013-05-10T16:34:54Z</time>
      </trkpt>
      <trkpt lat="46.64565" lon="6.10427">
        <ele>1192.65</ele>
        <time>2013-05-10T16:34:55Z</time>
      </trkpt>
      <trkpt lat="46.64563" lon="6.10425">
        <ele>1192.65</ele>
        <time>2013-05-10T16:34:56Z</time>
      </trkpt>
      <trkpt lat="46.64559" lon="6.10418">
        <ele>1193.13</ele>
        <time>2013-05-10T16:35:02Z</time>
      </trkpt>
      <trkpt lat="46.64553" lon="6.104">
        <ele>1193.61</ele>
        <time>2013-05-10T16:35:11Z</time>
      </trkpt>
      <trkpt lat="46.64552" lon="6.10398">
        <ele>1193.61</ele>
        <time>2013-05-10T16:35:12Z</time>
      </trkpt>
      <trkpt lat="46.64545" lon="6.10378">
        <ele>1194.58</ele>
        <time>2013-05-10T16:35:24Z</time>
      </trkpt>
      <trkpt lat="46.64538" lon="6.10372">
        <ele>1193.61</ele>
        <time>2013-05-10T16:35:33Z</time>
      </trkpt>
      <trkpt lat="46.64536" lon="6.10371">
        <ele>1193.61</ele>
        <time>2013-05-10T16:35:34Z</time>
      </trkpt>
      <trkpt lat="46.64534" lon="6.10369">
        <ele>1192.65</ele>
        <time>2013-05-10T16:35:35Z</time>
      </trkpt>
      <trkpt lat="46.64532" lon="6.10366">
        <ele>1192.17</ele>
        <time>2013-05-10T16:35:36Z</time>
      </trkpt>
      <trkpt lat="46.64529" lon="6.10364">
        <ele>1191.69</ele>
        <time>2013-05-10T16:35:37Z</time>
      </trkpt>
      <trkpt lat="46.64527" lon="6.10361">
        <ele>1191.69</ele>
        <time>2013-05-10T16:35:38Z</time>
      </trkpt>
      <trkpt lat="46.64524" lon="6.10359">
        <ele>1191.69</ele>
        <time>2013-05-10T16:35:39Z</time>
      </trkpt>
      <trkpt lat="46.64522" lon="6.10359">
        <ele>1191.21</ele>
        <time>2013-05-10T16:35:40Z</time>
      </trkpt>
      <trkpt lat="46.6452" lon="6.10358">
        <ele>1191.21</ele>
        <time>2013-05-10T16:35:41Z</time>
      </trkpt>
      <trkpt lat="46.64517" lon="6.10351">
        <ele>1191.69</ele>
        <time>2013-05-10T16:35:45Z</time>
      </trkpt>
      <trkpt lat="46.64507" lon="6.1034">
        <ele>1191.21</ele>
        <time>2013-05-10T16:35:50Z</time>
      </trkpt>
      <trkpt lat="46.64504" lon="6.10338">
        <ele>1191.21</ele>
        <time>2013-05-10T16:35:51Z</time>
      </trkpt>
      <trkpt lat="46.64503" lon="6.10335">
        <ele>1191.69</ele>
        <time>2013-05-10T16:35:52Z</time>
      </trkpt>
      <trkpt lat="46.64503" lon="6.10332">
        <ele>1191.69</ele>
        <time>2013-05-10T16:35:53Z</time>
      </trkpt>
      <trkpt lat="46.64503" lon="6.1033">
        <ele>1191.69</ele>
        <time>2013-05-10T16:35:54Z</time>
      </trkpt>
      <trkpt lat="46.64503" lon="6.10327">
        <ele>1191.69</ele>
        <time>2013-05-10T16:35:55Z</time>
      </trkpt>
      <trkpt lat="46.64503" lon="6.10325">
        <ele>1191.69</ele>
        <time>2013-05-10T16:35:56Z</time>
      </trkpt>
      <trkpt lat="46.64503" lon="6.10321">
        <ele>1191.69</ele>
        <time>2013-05-10T16:35:57Z</time>
      </trkpt>
      <trkpt lat="46.64503" lon="6.10318">
        <ele>1191.69</ele>
        <time>2013-05-10T16:35:58Z</time>
      </trkpt>
      <trkpt lat="46.64502" lon="6.10315">
        <ele>1191.69</ele>
        <time>2013-05-10T16:35:59Z</time>
      </trkpt>
      <trkpt lat="46.64502" lon="6.10312">
        <ele>1191.69</ele>
        <time>2013-05-10T16:36:00Z</time>
      </trkpt>
      <trkpt lat="46.64501" lon="6.10308">
        <ele>1191.69</ele>
        <time>2013-05-10T16:36:01Z</time>
      </trkpt>
      <trkpt lat="46.645" lon="6.10305">
        <ele>1191.69</ele>
        <time>2013-05-10T16:36:02Z</time>
      </trkpt>
      <trkpt lat="46.64497" lon="6.10291">
        <ele>1192.17</ele>
        <time>2013-05-10T16:36:09Z</time>
      </trkpt>
      <trkpt lat="46.6449" lon="6.10271">
        <ele>1192.17</ele>
        <time>2013-05-10T16:36:18Z</time>
      </trkpt>
      <trkpt lat="46.64488" lon="6.10267">
        <ele>1192.65</ele>
        <time>2013-05-10T16:36:20Z</time>
      </trkpt>
      <trkpt lat="46.64487" lon="6.10265">
        <ele>1192.65</ele>
        <time>2013-05-10T16:36:21Z</time>
      </trkpt>
      <trkpt lat="46.64486" lon="6.10263">
        <ele>1192.65</ele>
        <time>2013-05-10T16:36:22Z</time>
      </trkpt>
      <trkpt lat="46.64486" lon="6.10262">
        <ele>1192.65</ele>
        <time>2013-05-10T16:36:23Z</time>
      </trkpt>
      <trkpt lat="46.64485" lon="6.10261">
        <ele>1192.65</ele>
        <time>2013-05-10T16:36:24Z</time>
      </trkpt>
      <trkpt lat="46.64484" lon="6.1026">
        <ele>1192.65</ele>
        <time>2013-05-10T16:36:25Z</time>
      </trkpt>
      <trkpt lat="46.64478" lon="6.10246">
        <ele>1191.69</ele>
        <time>2013-05-10T16:36:37Z</time>
      </trkpt>
      <trkpt lat="46.64478" lon="6.10243">
        <ele>1191.69</ele>
        <time>2013-05-10T16:36:38Z</time>
      </trkpt>
      <trkpt lat="46.64477" lon="6.10239">
        <ele>1191.21</ele>
        <time>2013-05-10T16:36:39Z</time>
      </trkpt>
      <trkpt lat="46.64475" lon="6.10235">
        <ele>1191.21</ele>
        <time>2013-05-10T16:36:40Z</time>
      </trkpt>
      <trkpt lat="46.64473" lon="6.10232">
        <ele>1190.73</ele>
        <time>2013-05-10T16:36:41Z</time>
      </trkpt>
      <trkpt lat="46.64472" lon="6.1023">
        <ele>1191.21</ele>
        <time>2013-05-10T16:36:42Z</time>
      </trkpt>
      <trkpt lat="46.64467" lon="6.10218">
        <ele>1190.73</ele>
        <time>2013-05-10T16:36:46Z</time>
      </trkpt>
      <trkpt lat="46.64465" lon="6.10215">
        <ele>1190.73</ele>
        <time>2013-05-10T16:36:47Z</time>
      </trkpt>
      <trkpt lat="46.64463" lon="6.10213">
        <ele>1190.73</ele>
        <time>2013-05-10T16:36:48Z</time>
      </trkpt>
      <trkpt lat="46.6444" lon="6.10186">
        <ele>1189.77</ele>
        <time>2013-05-10T16:36:59Z</time>
      </trkpt>
      <trkpt lat="46.64431" lon="6.10158">
        <ele>1191.21</ele>
        <time>2013-05-10T16:37:09Z</time>
      </trkpt>
      <trkpt lat="46.64431" lon="6.10154">
        <ele>1191.21</ele>
        <time>2013-05-10T16:37:10Z</time>
      </trkpt>
      <trkpt lat="46.6443" lon="6.10151">
        <ele>1191.21</ele>
        <time>2013-05-10T16:37:11Z</time>
      </trkpt>
      <trkpt lat="46.64429" lon="6.10148">
        <ele>1191.69</ele>
        <time>2013-05-10T16:37:12Z</time>
      </trkpt>
      <trkpt lat="46.64428" lon="6.10145">
        <ele>1191.69</ele>
        <time>2013-05-10T16:37:13Z</time>
      </trkpt>
      <trkpt lat="46.64428" lon="6.10141">
        <ele>1192.17</ele>
        <time>2013-05-10T16:37:14Z</time>
      </trkpt>
      <trkpt lat="46.64419" lon="6.10124">
        <ele>1192.65</ele>
        <time>2013-05-10T16:37:20Z</time>
      </trkpt>
      <trkpt lat="46.64417" lon="6.10121">
        <ele>1192.65</ele>
        <time>2013-05-10T16:37:21Z</time>
      </trkpt>
      <trkpt lat="46.64396" lon="6.10091">
        <ele>1193.13</ele>
        <time>2013-05-10T16:37:33Z</time>
      </trkpt>
      <trkpt lat="46.64395" lon="6.10089">
        <ele>1192.65</ele>
        <time>2013-05-10T16:37:34Z</time>
      </trkpt>
      <trkpt lat="46.64393" lon="6.10087">
        <ele>1192.17</ele>
        <time>2013-05-10T16:37:35Z</time>
      </trkpt>
      <trkpt lat="46.64383" lon="6.10079">
        <ele>1188.81</ele>
        <time>2013-05-10T16:37:40Z</time>
      </trkpt>
      <trkpt lat="46.64381" lon="6.10077">
        <ele>1187.85</ele>
        <time>2013-05-10T16:37:41Z</time>
      </trkpt>
      <trkpt lat="46.64379" lon="6.10075">
        <ele>1186.88</ele>
        <time>2013-05-10T16:37:42Z</time>
      </trkpt>
      <trkpt lat="46.64378" lon="6.10073">
        <ele>1185.92</ele>
        <time>2013-05-10T16:37:43Z</time>
      </trkpt>
      <trkpt lat="46.64371" lon="6.10062">
        <ele>1183.04</ele>
        <time>2013-05-10T16:37:46Z</time>
      </trkpt>
      <trkpt lat="46.64366" lon="6.10056">
        <ele>1182.56</ele>
        <time>2013-05-10T16:37:48Z</time>
      </trkpt>
      <trkpt lat="46.64364" lon="6.10053">
        <ele>1182.08</ele>
        <time>2013-05-10T16:37:49Z</time>
      </trkpt>
      <trkpt lat="46.64363" lon="6.10049">
        <ele>1182.08</ele>
        <time>2013-05-10T16:37:50Z</time>
      </trkpt>
      <trkpt lat="46.64362" lon="6.10046">
        <ele>1182.08</ele>
        <time>2013-05-10T16:37:51Z</time>
      </trkpt>
      <trkpt lat="46.6436" lon="6.10043">
        <ele>1182.08</ele>
        <time>2013-05-10T16:37:52Z</time>
      </trkpt>
      <trkpt lat="46.64359" lon="6.10042">
        <ele>1182.08</ele>
        <time>2013-05-10T16:37:53Z</time>
      </trkpt>
      <trkpt lat="46.64341" lon="6.10004">
        <ele>1183.04</ele>
        <time>2013-05-10T16:38:04Z</time>
      </trkpt>
      <trkpt lat="46.64334" lon="6.0998">
        <ele>1183.52</ele>
        <time>2013-05-10T16:38:09Z</time>
      </trkpt>
      <trkpt lat="46.64333" lon="6.09975">
        <ele>1183.52</ele>
        <time>2013-05-10T16:38:10Z</time>
      </trkpt>
      <trkpt lat="46.64323" lon="6.09932">
        <ele>1185.92</ele>
        <time>2013-05-10T16:38:22Z</time>
      </trkpt>
      <trkpt lat="46.64303" lon="6.09891">
        <ele>1183.04</ele>
        <time>2013-05-10T16:38:32Z</time>
      </trkpt>
      <trkpt lat="46.643" lon="6.09886">
        <ele>1182.08</ele>
        <time>2013-05-10T16:38:33Z</time>
      </trkpt>
      <trkpt lat="46.64297" lon="6.09883">
        <ele>1182.08</ele>
        <time>2013-05-10T16:38:34Z</time>
      </trkpt>
      <trkpt lat="46.6429" lon="6.09875">
        <ele>1183.52</ele>
        <time>2013-05-10T16:38:43Z</time>
      </trkpt>
      <trkpt lat="46.64286" lon="6.09861">
        <ele>1186.4</ele>
        <time>2013-05-10T16:38:56Z</time>
      </trkpt>
      <trkpt lat="46.64281" lon="6.09853">
        <ele>1187.37</ele>
        <time>2013-05-10T16:39:02Z</time>
      </trkpt>
      <trkpt lat="46.64272" lon="6.09847">
        <ele>1188.81</ele>
        <time>2013-05-10T16:39:15Z</time>
      </trkpt>
      <trkpt lat="46.64271" lon="6.09846">
        <ele>1188.81</ele>
        <time>2013-05-10T16:39:16Z</time>
      </trkpt>
      <trkpt lat="46.64269" lon="6.09844">
        <ele>1188.81</ele>
        <time>2013-05-10T16:39:17Z</time>
      </trkpt>
      <trkpt lat="46.64268" lon="6.09842">
        <ele>1188.33</ele>
        <time>2013-05-10T16:39:18Z</time>
      </trkpt>
      <trkpt lat="46.64262" lon="6.09836">
        <ele>1186.88</ele>
        <time>2013-05-10T16:39:22Z</time>
      </trkpt>
      <trkpt lat="46.6426" lon="6.09835">
        <ele>1185.92</ele>
        <time>2013-05-10T16:39:23Z</time>
      </trkpt>
      <trkpt lat="46.64251" lon="6.09825">
        <ele>1184</ele>
        <time>2013-05-10T16:39:27Z</time>
      </trkpt>
      <trkpt lat="46.6425" lon="6.09823">
        <ele>1183.52</ele>
        <time>2013-05-10T16:39:28Z</time>
      </trkpt>
      <trkpt lat="46.64246" lon="6.09815">
        <ele>1183.04</ele>
        <time>2013-05-10T16:39:31Z</time>
      </trkpt>
      <trkpt lat="46.64246" lon="6.09812">
        <ele>1183.04</ele>
        <time>2013-05-10T16:39:32Z</time>
      </trkpt>
      <trkpt lat="46.64245" lon="6.09808">
        <ele>1182.56</ele>
        <time>2013-05-10T16:39:33Z</time>
      </trkpt>
      <trkpt lat="46.64245" lon="6.09804">
        <ele>1182.56</ele>
        <time>2013-05-10T16:39:34Z</time>
      </trkpt>
      <trkpt lat="46.64243" lon="6.09801">
        <ele>1181.6</ele>
        <time>2013-05-10T16:39:35Z</time>
      </trkpt>
      <trkpt lat="46.64235" lon="6.09773">
        <ele>1180.64</ele>
        <time>2013-05-10T16:39:42Z</time>
      </trkpt>
      <trkpt lat="46.64231" lon="6.09737">
        <ele>1178.71</ele>
        <time>2013-05-10T16:39:52Z</time>
      </trkpt>
      <trkpt lat="46.6423" lon="6.09729">
        <ele>1178.23</ele>
        <time>2013-05-10T16:39:54Z</time>
      </trkpt>
      <trkpt lat="46.64229" lon="6.09725">
        <ele>1177.75</ele>
        <time>2013-05-10T16:39:55Z</time>
      </trkpt>
      <trkpt lat="46.64229" lon="6.09722">
        <ele>1177.27</ele>
        <time>2013-05-10T16:39:56Z</time>
      </trkpt>
      <trkpt lat="46.64223" lon="6.09701">
        <ele>1173.91</ele>
        <time>2013-05-10T16:40:01Z</time>
      </trkpt>
      <trkpt lat="46.64208" lon="6.09677">
        <ele>1171.98</ele>
        <time>2013-05-10T16:40:10Z</time>
      </trkpt>
      <trkpt lat="46.64208" lon="6.09677">
        <ele>1172.95</ele>
        <time>2013-05-10T16:40:22Z</time>
      </trkpt>
      <trkpt lat="46.64211" lon="6.09671">
        <ele>1173.43</ele>
        <time>2013-05-10T16:40:31Z</time>
      </trkpt>
      <trkpt lat="46.64217" lon="6.09639">
        <ele>1175.35</ele>
        <time>2013-05-10T16:40:39Z</time>
      </trkpt>
      <trkpt lat="46.64224" lon="6.0959">
        <ele>1174.39</ele>
        <time>2013-05-10T16:40:49Z</time>
      </trkpt>
      <trkpt lat="46.6424" lon="6.09544">
        <ele>1175.83</ele>
        <time>2013-05-10T16:40:59Z</time>
      </trkpt>
      <trkpt lat="46.64254" lon="6.09522">
        <ele>1176.31</ele>
        <time>2013-05-10T16:41:08Z</time>
      </trkpt>
      <trkpt lat="46.64256" lon="6.09517">
        <ele>1176.31</ele>
        <time>2013-05-10T16:41:10Z</time>
      </trkpt>
      <trkpt lat="46.64263" lon="6.09492">
        <ele>1175.83</ele>
        <time>2013-05-10T16:41:17Z</time>
      </trkpt>
      <trkpt lat="46.64269" lon="6.09473">
        <ele>1175.83</ele>
        <time>2013-05-10T16:41:22Z</time>
      </trkpt>
      <trkpt lat="46.64273" lon="6.09456">
        <ele>1175.83</ele>
        <time>2013-05-10T16:41:25Z</time>
      </trkpt>
      <trkpt lat="46.64273" lon="6.09437">
        <ele>1175.35</ele>
        <time>2013-05-10T16:41:29Z</time>
      </trkpt>
      <trkpt lat="46.64274" lon="6.09429">
        <ele>1175.35</ele>
        <time>2013-05-10T16:41:31Z</time>
      </trkpt>
      <trkpt lat="46.64273" lon="6.09413">
        <ele>1173.91</ele>
        <time>2013-05-10T16:41:35Z</time>
      </trkpt>
      <trkpt lat="46.64277" lon="6.09399">
        <ele>1172.47</ele>
        <time>2013-05-10T16:41:40Z</time>
      </trkpt>
      <trkpt lat="46.64283" lon="6.094">
        <ele>1172.47</ele>
        <time>2013-05-10T16:41:44Z</time>
      </trkpt>
      <trkpt lat="46.64295" lon="6.09387">
        <ele>1172.47</ele>
        <time>2013-05-10T16:41:49Z</time>
      </trkpt>
      <trkpt lat="46.64312" lon="6.09343">
        <ele>1172.95</ele>
        <time>2013-05-10T16:41:59Z</time>
      </trkpt>
      <trkpt lat="46.64323" lon="6.09324">
        <ele>1173.43</ele>
        <time>2013-05-10T16:42:06Z</time>
      </trkpt>
      <trkpt lat="46.64338" lon="6.093">
        <ele>1173.91</ele>
        <time>2013-05-10T16:42:15Z</time>
      </trkpt>
      <trkpt lat="46.64345" lon="6.09292">
        <ele>1173.91</ele>
        <time>2013-05-10T16:42:28Z</time>
      </trkpt>
      <trkpt lat="46.64345" lon="6.09292">
        <ele>1173.91</ele>
        <time>2013-05-10T16:43:05Z</time>
      </trkpt>
      <trkpt lat="46.64345" lon="6.09292">
        <ele>1173.91</ele>
        <time>2013-05-10T16:43:30Z</time>
      </trkpt>
      <trkpt lat="46.64345" lon="6.09292">
        <ele>1174.39</ele>
        <time>2013-05-10T16:43:55Z</time>
      </trkpt>
      <trkpt lat="46.64345" lon="6.09292">
        <ele>1174.39</ele>
        <time>2013-05-10T16:44:20Z</time>
      </trkpt>
      <trkpt lat="46.64345" lon="6.09293">
        <ele>1173.91</ele>
        <time>2013-05-10T16:44:44Z</time>
      </trkpt>
      <trkpt lat="46.64345" lon="6.09293">
        <ele>1173.91</ele>
        <time>2013-05-10T16:45:14Z</time>
      </trkpt>
      <trkpt lat="46.64345" lon="6.09293">
        <ele>1173.91</ele>
        <time>2013-05-10T16:45:43Z</time>
      </trkpt>
      <trkpt lat="46.64345" lon="6.09293">
        <ele>1173.91</ele>
        <time>2013-05-10T16:45:54Z</time>
      </trkpt>
      <trkpt lat="46.64353" lon="6.09289">
        <ele>1173.91</ele>
        <time>2013-05-10T16:45:59Z</time>
      </trkpt>
      <trkpt lat="46.64364" lon="6.09292">
        <ele>1173.91</ele>
        <time>2013-05-10T16:46:04Z</time>
      </trkpt>
      <trkpt lat="46.6438" lon="6.09292">
        <ele>1171.5</ele>
        <time>2013-05-10T16:46:11Z</time>
      </trkpt>
      <trkpt lat="46.64402" lon="6.09297">
        <ele>1165.74</ele>
        <time>2013-05-10T16:46:17Z</time>
      </trkpt>
      <trkpt lat="46.64415" lon="6.09299">
        <ele>1162.37</ele>
        <time>2013-05-10T16:46:21Z</time>
      </trkpt>
      <trkpt lat="46.64427" lon="6.09295">
        <ele>1159.01</ele>
        <time>2013-05-10T16:46:24Z</time>
      </trkpt>
      <trkpt lat="46.64452" lon="6.0927">
        <ele>1155.16</ele>
        <time>2013-05-10T16:46:30Z</time>
      </trkpt>
      <trkpt lat="46.64457" lon="6.09264">
        <ele>1154.2</ele>
        <time>2013-05-10T16:46:31Z</time>
      </trkpt>
      <trkpt lat="46.64463" lon="6.09257">
        <ele>1151.8</ele>
        <time>2013-05-10T16:46:32Z</time>
      </trkpt>
      <trkpt lat="46.64492" lon="6.09224">
        <ele>1148.91</ele>
        <time>2013-05-10T16:46:39Z</time>
      </trkpt>
      <trkpt lat="46.64503" lon="6.09212">
        <ele>1145.55</ele>
        <time>2013-05-10T16:46:42Z</time>
      </trkpt>
      <trkpt lat="46.64507" lon="6.09208">
        <ele>1144.11</ele>
        <time>2013-05-10T16:46:43Z</time>
      </trkpt>
      <trkpt lat="46.64524" lon="6.09196">
        <ele>1139.78</ele>
        <time>2013-05-10T16:46:46Z</time>
      </trkpt>
      <trkpt lat="46.64545" lon="6.09165">
        <ele>1135.45</ele>
        <time>2013-05-10T16:46:51Z</time>
      </trkpt>
      <trkpt lat="46.64559" lon="6.09142">
        <ele>1131.13</ele>
        <time>2013-05-10T16:46:57Z</time>
      </trkpt>
      <trkpt lat="46.6456" lon="6.0914">
        <ele>1130.65</ele>
        <time>2013-05-10T16:46:58Z</time>
      </trkpt>
      <trkpt lat="46.64567" lon="6.09137">
        <ele>1126.32</ele>
        <time>2013-05-10T16:47:03Z</time>
      </trkpt>
      <trkpt lat="46.64569" lon="6.09136">
        <ele>1123.92</ele>
        <time>2013-05-10T16:47:05Z</time>
      </trkpt>
      <trkpt lat="46.64593" lon="6.09134">
        <ele>1121.03</ele>
        <time>2013-05-10T16:47:12Z</time>
      </trkpt>
      <trkpt lat="46.64606" lon="6.09144">
        <ele>1118.15</ele>
        <time>2013-05-10T16:47:19Z</time>
      </trkpt>
      <trkpt lat="46.64625" lon="6.09134">
        <ele>1113.82</ele>
        <time>2013-05-10T16:47:24Z</time>
      </trkpt>
      <trkpt lat="46.64634" lon="6.09128">
        <ele>1110.94</ele>
        <time>2013-05-10T16:47:27Z</time>
      </trkpt>
      <trkpt lat="46.64661" lon="6.0911">
        <ele>1107.1</ele>
        <time>2013-05-10T16:47:33Z</time>
      </trkpt>
      <trkpt lat="46.64664" lon="6.09076">
        <ele>1100.37</ele>
        <time>2013-05-10T16:47:38Z</time>
      </trkpt>
      <trkpt lat="46.64663" lon="6.09057">
        <ele>1096.52</ele>
        <time>2013-05-10T16:47:41Z</time>
      </trkpt>
      <trkpt lat="46.64658" lon="6.09032">
        <ele>1093.16</ele>
        <time>2013-05-10T16:47:44Z</time>
      </trkpt>
      <trkpt lat="46.64661" lon="6.09">
        <ele>1088.35</ele>
        <time>2013-05-10T16:47:49Z</time>
      </trkpt>
      <trkpt lat="46.64671" lon="6.08972">
        <ele>1084.5</ele>
        <time>2013-05-10T16:47:54Z</time>
      </trkpt>
      <trkpt lat="46.64694" lon="6.08917">
        <ele>1081.14</ele>
        <time>2013-05-10T16:48:03Z</time>
      </trkpt>
      <trkpt lat="46.64701" lon="6.08895">
        <ele>1081.62</ele>
        <time>2013-05-10T16:48:10Z</time>
      </trkpt>
      <trkpt lat="46.64716" lon="6.08861">
        <ele>1081.62</ele>
        <time>2013-05-10T16:48:20Z</time>
      </trkpt>
      <trkpt lat="46.64724" lon="6.08848">
        <ele>1079.7</ele>
        <time>2013-05-10T16:48:24Z</time>
      </trkpt>
      <trkpt lat="46.64728" lon="6.08843">
        <ele>1078.74</ele>
        <time>2013-05-10T16:48:26Z</time>
      </trkpt>
      <trkpt lat="46.64736" lon="6.08832">
        <ele>1075.37</ele>
        <time>2013-05-10T16:48:30Z</time>
      </trkpt>
      <trkpt lat="46.64751" lon="6.08804">
        <ele>1072.01</ele>
        <time>2013-05-10T16:48:36Z</time>
      </trkpt>
      <trkpt lat="46.64753" lon="6.08798">
        <ele>1071.53</ele>
        <time>2013-05-10T16:48:37Z</time>
      </trkpt>
      <trkpt lat="46.64757" lon="6.08794">
        <ele>1071.05</ele>
        <time>2013-05-10T16:48:38Z</time>
      </trkpt>
      <trkpt lat="46.64762" lon="6.0879">
        <ele>1070.08</ele>
        <time>2013-05-10T16:48:39Z</time>
      </trkpt>
      <trkpt lat="46.64766" lon="6.08788">
        <ele>1069.12</ele>
        <time>2013-05-10T16:48:40Z</time>
      </trkpt>
      <trkpt lat="46.64771" lon="6.08788">
        <ele>1067.68</ele>
        <time>2013-05-10T16:48:41Z</time>
      </trkpt>
      <trkpt lat="46.6478" lon="6.08795">
        <ele>1066.24</ele>
        <time>2013-05-10T16:48:43Z</time>
      </trkpt>
      <trkpt lat="46.64783" lon="6.08799">
        <ele>1065.28</ele>
        <time>2013-05-10T16:48:44Z</time>
      </trkpt>
      <trkpt lat="46.64786" lon="6.08803">
        <ele>1063.36</ele>
        <time>2013-05-10T16:48:45Z</time>
      </trkpt>
      <trkpt lat="46.64788" lon="6.08806">
        <ele>1062.39</ele>
        <time>2013-05-10T16:48:46Z</time>
      </trkpt>
      <trkpt lat="46.6479" lon="6.0881">
        <ele>1061.91</ele>
        <time>2013-05-10T16:48:47Z</time>
      </trkpt>
      <trkpt lat="46.64791" lon="6.08813">
        <ele>1060.95</ele>
        <time>2013-05-10T16:48:48Z</time>
      </trkpt>
      <trkpt lat="46.64793" lon="6.08817">
        <ele>1059.51</ele>
        <time>2013-05-10T16:48:49Z</time>
      </trkpt>
      <trkpt lat="46.64797" lon="6.08826">
        <ele>1056.15</ele>
        <time>2013-05-10T16:48:52Z</time>
      </trkpt>
      <trkpt lat="46.64799" lon="6.08836">
        <ele>1054.22</ele>
        <time>2013-05-10T16:48:54Z</time>
      </trkpt>
      <trkpt lat="46.648" lon="6.08842">
        <ele>1053.74</ele>
        <time>2013-05-10T16:48:55Z</time>
      </trkpt>
      <trkpt lat="46.64803" lon="6.08853">
        <ele>1052.78</ele>
        <time>2013-05-10T16:48:57Z</time>
      </trkpt>
      <trkpt lat="46.64805" lon="6.08862">
        <ele>1051.82</ele>
        <time>2013-05-10T16:48:59Z</time>
      </trkpt>
      <trkpt lat="46.64815" lon="6.08879">
        <ele>1048.45</ele>
        <time>2013-05-10T16:49:03Z</time>
      </trkpt>
      <trkpt lat="46.64816" lon="6.08881">
        <ele>1047.49</ele>
        <time>2013-05-10T16:49:04Z</time>
      </trkpt>
      <trkpt lat="46.6482" lon="6.08882">
        <ele>1047.01</ele>
        <time>2013-05-10T16:49:05Z</time>
      </trkpt>
      <trkpt lat="46.64823" lon="6.08882">
        <ele>1046.05</ele>
        <time>2013-05-10T16:49:06Z</time>
      </trkpt>
      <trkpt lat="46.64825" lon="6.0888">
        <ele>1045.57</ele>
        <time>2013-05-10T16:49:07Z</time>
      </trkpt>
      <trkpt lat="46.64837" lon="6.08873">
        <ele>1042.21</ele>
        <time>2013-05-10T16:49:11Z</time>
      </trkpt>
      <trkpt lat="46.64843" lon="6.08868">
        <ele>1041.25</ele>
        <time>2013-05-10T16:49:13Z</time>
      </trkpt>
      <trkpt lat="46.64847" lon="6.08864">
        <ele>1040.28</ele>
        <time>2013-05-10T16:49:14Z</time>
      </trkpt>
      <trkpt lat="46.64851" lon="6.0886">
        <ele>1039.8</ele>
        <time>2013-05-10T16:49:15Z</time>
      </trkpt>
      <trkpt lat="46.64855" lon="6.08857">
        <ele>1039.32</ele>
        <time>2013-05-10T16:49:16Z</time>
      </trkpt>
      <trkpt lat="46.64859" lon="6.08855">
        <ele>1039.32</ele>
        <time>2013-05-10T16:49:17Z</time>
      </trkpt>
      <trkpt lat="46.64864" lon="6.08853">
        <ele>1038.36</ele>
        <time>2013-05-10T16:49:18Z</time>
      </trkpt>
      <trkpt lat="46.64907" lon="6.08851">
        <ele>1036.92</ele>
        <time>2013-05-10T16:49:28Z</time>
      </trkpt>
      <trkpt lat="46.64918" lon="6.08849">
        <ele>1035.48</ele>
        <time>2013-05-10T16:49:31Z</time>
      </trkpt>
      <trkpt lat="46.64921" lon="6.08847">
        <ele>1034.52</ele>
        <time>2013-05-10T16:49:32Z</time>
      </trkpt>
      <trkpt lat="46.64925" lon="6.08844">
        <ele>1033.55</ele>
        <time>2013-05-10T16:49:33Z</time>
      </trkpt>
      <trkpt lat="46.64938" lon="6.08832">
        <ele>1030.67</ele>
        <time>2013-05-10T16:49:36Z</time>
      </trkpt>
      <trkpt lat="46.64948" lon="6.08822">
        <ele>1028.75</ele>
        <time>2013-05-10T16:49:38Z</time>
      </trkpt>
      <trkpt lat="46.6499" lon="6.08766">
        <ele>1025.86</ele>
        <time>2013-05-10T16:49:47Z</time>
      </trkpt>
      <trkpt lat="46.65015" lon="6.08734">
        <ele>1023.46</ele>
        <time>2013-05-10T16:49:52Z</time>
      </trkpt>
      <trkpt lat="46.65018" lon="6.08729">
        <ele>1023.46</ele>
        <time>2013-05-10T16:49:53Z</time>
      </trkpt>
      <trkpt lat="46.65022" lon="6.08724">
        <ele>1023.46</ele>
        <time>2013-05-10T16:49:54Z</time>
      </trkpt>
      <trkpt lat="46.6503" lon="6.08712">
        <ele>1024.9</ele>
        <time>2013-05-10T16:49:58Z</time>
      </trkpt>
      <trkpt lat="46.6503" lon="6.08708">
        <ele>1025.38</ele>
        <time>2013-05-10T16:49:59Z</time>
      </trkpt>
      <trkpt lat="46.6503" lon="6.08705">
        <ele>1025.38</ele>
        <time>2013-05-10T16:50:00Z</time>
      </trkpt>
      <trkpt lat="46.65029" lon="6.08701">
        <ele>1025.86</ele>
        <time>2013-05-10T16:50:01Z</time>
      </trkpt>
      <trkpt lat="46.65029" lon="6.08698">
        <ele>1025.86</ele>
        <time>2013-05-10T16:50:02Z</time>
      </trkpt>
      <trkpt lat="46.65029" lon="6.08694">
        <ele>1025.86</ele>
        <time>2013-05-10T16:50:03Z</time>
      </trkpt>
      <trkpt lat="46.65028" lon="6.0869">
        <ele>1025.86</ele>
        <time>2013-05-10T16:50:04Z</time>
      </trkpt>
      <trkpt lat="46.65027" lon="6.08686">
        <ele>1025.86</ele>
        <time>2013-05-10T16:50:05Z</time>
      </trkpt>
      <trkpt lat="46.65025" lon="6.08682">
        <ele>1025.38</ele>
        <time>2013-05-10T16:50:06Z</time>
      </trkpt>
      <trkpt lat="46.65011" lon="6.08649">
        <ele>1026.34</ele>
        <time>2013-05-10T16:50:17Z</time>
      </trkpt>
      <trkpt lat="46.64997" lon="6.08614">
        <ele>1025.86</ele>
        <time>2013-05-10T16:50:28Z</time>
      </trkpt>
      <trkpt lat="46.64995" lon="6.08613">
        <ele>1025.86</ele>
        <time>2013-05-10T16:50:29Z</time>
      </trkpt>
      <trkpt lat="46.64993" lon="6.08612">
        <ele>1025.86</ele>
        <time>2013-05-10T16:50:30Z</time>
      </trkpt>
      <trkpt lat="46.64965" lon="6.08599">
        <ele>1022.02</ele>
        <time>2013-05-10T16:50:37Z</time>
      </trkpt>
      <trkpt lat="46.64935" lon="6.08586">
        <ele>1018.65</ele>
        <time>2013-05-10T16:50:42Z</time>
      </trkpt>
      <trkpt lat="46.64887" lon="6.08569">
        <ele>1018.17</ele>
        <time>2013-05-10T16:50:54Z</time>
      </trkpt>
      <trkpt lat="46.64866" lon="6.0856">
        <ele>1019.13</ele>
        <time>2013-05-10T16:51:03Z</time>
      </trkpt>
      <trkpt lat="46.64836" lon="6.08541">
        <ele>1022.02</ele>
        <time>2013-05-10T16:51:14Z</time>
      </trkpt>
      <trkpt lat="46.64807" lon="6.08516">
        <ele>1023.46</ele>
        <time>2013-05-10T16:51:24Z</time>
      </trkpt>
      <trkpt lat="46.64774" lon="6.08468">
        <ele>1025.86</ele>
        <time>2013-05-10T16:51:38Z</time>
      </trkpt>
      <trkpt lat="46.6474" lon="6.08432">
        <ele>1029.23</ele>
        <time>2013-05-10T16:51:52Z</time>
      </trkpt>
      <trkpt lat="46.64721" lon="6.0842">
        <ele>1032.11</ele>
        <time>2013-05-10T16:51:59Z</time>
      </trkpt>
      <trkpt lat="46.64694" lon="6.08386">
        <ele>1031.63</ele>
        <time>2013-05-10T16:52:10Z</time>
      </trkpt>
      <trkpt lat="46.64654" lon="6.08332">
        <ele>1033.55</ele>
        <time>2013-05-10T16:52:25Z</time>
      </trkpt>
      <trkpt lat="46.64612" lon="6.08293">
        <ele>1033.07</ele>
        <time>2013-05-10T16:52:38Z</time>
      </trkpt>
      <trkpt lat="46.64584" lon="6.0826">
        <ele>1033.55</ele>
        <time>2013-05-10T16:52:47Z</time>
      </trkpt>
      <trkpt lat="46.64581" lon="6.08253">
        <ele>1033.07</ele>
        <time>2013-05-10T16:52:48Z</time>
      </trkpt>
      <trkpt lat="46.64568" lon="6.08234">
        <ele>1031.63</ele>
        <time>2013-05-10T16:52:51Z</time>
      </trkpt>
      <trkpt lat="46.64544" lon="6.08197">
        <ele>1028.75</ele>
        <time>2013-05-10T16:52:58Z</time>
      </trkpt>
      <trkpt lat="46.64541" lon="6.08194">
        <ele>1028.27</ele>
        <time>2013-05-10T16:52:59Z</time>
      </trkpt>
      <trkpt lat="46.6454" lon="6.0819">
        <ele>1027.79</ele>
        <time>2013-05-10T16:53:00Z</time>
      </trkpt>
      <trkpt lat="46.6454" lon="6.08187">
        <ele>1027.79</ele>
        <time>2013-05-10T16:53:01Z</time>
      </trkpt>
      <trkpt lat="46.6454" lon="6.08183">
        <ele>1027.31</ele>
        <time>2013-05-10T16:53:02Z</time>
      </trkpt>
      <trkpt lat="46.64541" lon="6.08179">
        <ele>1026.34</ele>
        <time>2013-05-10T16:53:03Z</time>
      </trkpt>
      <trkpt lat="46.64544" lon="6.08175">
        <ele>1025.86</ele>
        <time>2013-05-10T16:53:04Z</time>
      </trkpt>
      <trkpt lat="46.64547" lon="6.08173">
        <ele>1025.38</ele>
        <time>2013-05-10T16:53:05Z</time>
      </trkpt>
      <trkpt lat="46.64551" lon="6.08172">
        <ele>1025.38</ele>
        <time>2013-05-10T16:53:06Z</time>
      </trkpt>
      <trkpt lat="46.64554" lon="6.08169">
        <ele>1025.38</ele>
        <time>2013-05-10T16:53:07Z</time>
      </trkpt>
      <trkpt lat="46.64558" lon="6.08165">
        <ele>1024.9</ele>
        <time>2013-05-10T16:53:08Z</time>
      </trkpt>
      <trkpt lat="46.64561" lon="6.0816">
        <ele>1024.42</ele>
        <time>2013-05-10T16:53:09Z</time>
      </trkpt>
      <trkpt lat="46.64563" lon="6.08155">
        <ele>1024.42</ele>
        <time>2013-05-10T16:53:10Z</time>
      </trkpt>
      <trkpt lat="46.64584" lon="6.08119">
        <ele>1023.94</ele>
        <time>2013-05-10T16:53:19Z</time>
      </trkpt>
      <trkpt lat="46.646" lon="6.08071">
        <ele>1021.54</ele>
        <time>2013-05-10T16:53:31Z</time>
      </trkpt>
      <trkpt lat="46.64621" lon="6.08026">
        <ele>1020.1</ele>
        <time>2013-05-10T16:53:41Z</time>
      </trkpt>
      <trkpt lat="46.6466" lon="6.07945">
        <ele>1017.21</ele>
        <time>2013-05-10T16:53:55Z</time>
      </trkpt>
      <trkpt lat="46.64672" lon="6.07926">
        <ele>1017.69</ele>
        <time>2013-05-10T16:53:58Z</time>
      </trkpt>
      <trkpt lat="46.64676" lon="6.0792">
        <ele>1018.17</ele>
        <time>2013-05-10T16:53:59Z</time>
      </trkpt>
      <trkpt lat="46.64684" lon="6.07909">
        <ele>1018.17</ele>
        <time>2013-05-10T16:54:01Z</time>
      </trkpt>
      <trkpt lat="46.64687" lon="6.07905">
        <ele>1017.69</ele>
        <time>2013-05-10T16:54:02Z</time>
      </trkpt>
      <trkpt lat="46.64695" lon="6.07896">
        <ele>1018.17</ele>
        <time>2013-05-10T16:54:04Z</time>
      </trkpt>
      <trkpt lat="46.64722" lon="6.07854">
        <ele>1019.13</ele>
        <time>2013-05-10T16:54:14Z</time>
      </trkpt>
      <trkpt lat="46.64723" lon="6.07848">
        <ele>1019.62</ele>
        <time>2013-05-10T16:54:15Z</time>
      </trkpt>
      <trkpt lat="46.64724" lon="6.07842">
        <ele>1019.13</ele>
        <time>2013-05-10T16:54:16Z</time>
      </trkpt>
      <trkpt lat="46.64723" lon="6.07836">
        <ele>1019.62</ele>
        <time>2013-05-10T16:54:17Z</time>
      </trkpt>
      <trkpt lat="46.64722" lon="6.0783">
        <ele>1019.62</ele>
        <time>2013-05-10T16:54:18Z</time>
      </trkpt>
      <trkpt lat="46.64721" lon="6.07825">
        <ele>1019.62</ele>
        <time>2013-05-10T16:54:19Z</time>
      </trkpt>
      <trkpt lat="46.6472" lon="6.07819">
        <ele>1019.62</ele>
        <time>2013-05-10T16:54:20Z</time>
      </trkpt>
      <trkpt lat="46.64704" lon="6.07773">
        <ele>1019.62</ele>
        <time>2013-05-10T16:54:29Z</time>
      </trkpt>
      <trkpt lat="46.64701" lon="6.0776">
        <ele>1020.1</ele>
        <time>2013-05-10T16:54:31Z</time>
      </trkpt>
      <trkpt lat="46.64691" lon="6.07734">
        <ele>1018.17</ele>
        <time>2013-05-10T16:54:35Z</time>
      </trkpt>
      <trkpt lat="46.64689" lon="6.07727">
        <ele>1018.17</ele>
        <time>2013-05-10T16:54:36Z</time>
      </trkpt>
      <trkpt lat="46.64674" lon="6.0769">
        <ele>1016.25</ele>
        <time>2013-05-10T16:54:41Z</time>
      </trkpt>
      <trkpt lat="46.64666" lon="6.07664">
        <ele>1014.81</ele>
        <time>2013-05-10T16:54:44Z</time>
      </trkpt>
      <trkpt lat="46.64664" lon="6.07654">
        <ele>1014.33</ele>
        <time>2013-05-10T16:54:45Z</time>
      </trkpt>
      <trkpt lat="46.64664" lon="6.07644">
        <ele>1014.33</ele>
        <time>2013-05-10T16:54:46Z</time>
      </trkpt>
      <trkpt lat="46.64664" lon="6.07633">
        <ele>1013.37</ele>
        <time>2013-05-10T16:54:47Z</time>
      </trkpt>
      <trkpt lat="46.64665" lon="6.07623">
        <ele>1013.37</ele>
        <time>2013-05-10T16:54:48Z</time>
      </trkpt>
      <trkpt lat="46.64668" lon="6.07612">
        <ele>1012.41</ele>
        <time>2013-05-10T16:54:49Z</time>
      </trkpt>
      <trkpt lat="46.64672" lon="6.07603">
        <ele>1011.93</ele>
        <time>2013-05-10T16:54:50Z</time>
      </trkpt>
      <trkpt lat="46.64676" lon="6.07594">
        <ele>1010.96</ele>
        <time>2013-05-10T16:54:51Z</time>
      </trkpt>
      <trkpt lat="46.64682" lon="6.07585">
        <ele>1010.48</ele>
        <time>2013-05-10T16:54:52Z</time>
      </trkpt>
      <trkpt lat="46.64688" lon="6.07577">
        <ele>1010.48</ele>
        <time>2013-05-10T16:54:53Z</time>
      </trkpt>
      <trkpt lat="46.64701" lon="6.0756">
        <ele>1009.04</ele>
        <time>2013-05-10T16:54:55Z</time>
      </trkpt>
      <trkpt lat="46.64729" lon="6.07526">
        <ele>1005.68</ele>
        <time>2013-05-10T16:54:59Z</time>
      </trkpt>
      <trkpt lat="46.6476" lon="6.07489">
        <ele>1001.83</ele>
        <time>2013-05-10T16:55:03Z</time>
      </trkpt>
      <trkpt lat="46.64795" lon="6.0745">
        <ele>1000.39</ele>
        <time>2013-05-10T16:55:08Z</time>
      </trkpt>
      <trkpt lat="46.64802" lon="6.07447">
        <ele>1000.39</ele>
        <time>2013-05-10T16:55:09Z</time>
      </trkpt>
      <trkpt lat="46.64809" lon="6.07447">
        <ele>1000.39</ele>
        <time>2013-05-10T16:55:10Z</time>
      </trkpt>
      <trkpt lat="46.64815" lon="6.0745">
        <ele>999.91</ele>
        <time>2013-05-10T16:55:11Z</time>
      </trkpt>
      <trkpt lat="46.64819" lon="6.07454">
        <ele>999.91</ele>
        <time>2013-05-10T16:55:12Z</time>
      </trkpt>
      <trkpt lat="46.64823" lon="6.07454">
        <ele>999.91</ele>
        <time>2013-05-10T16:55:13Z</time>
      </trkpt>
      <trkpt lat="46.64826" lon="6.07453">
        <ele>999.91</ele>
        <time>2013-05-10T16:55:14Z</time>
      </trkpt>
      <trkpt lat="46.64829" lon="6.07452">
        <ele>999.43</ele>
        <time>2013-05-10T16:55:15Z</time>
      </trkpt>
      <trkpt lat="46.64841" lon="6.07442">
        <ele>997.51</ele>
        <time>2013-05-10T16:55:25Z</time>
      </trkpt>
      <trkpt lat="46.64846" lon="6.07438">
        <ele>997.51</ele>
        <time>2013-05-10T16:55:49Z</time>
      </trkpt>
      <trkpt lat="46.64849" lon="6.07441">
        <ele>997.02</ele>
        <time>2013-05-10T16:55:57Z</time>
      </trkpt>
      <trkpt lat="46.64849" lon="6.07446">
        <ele>996.54</ele>
        <time>2013-05-10T16:56:10Z</time>
      </trkpt>
      <trkpt lat="46.6485" lon="6.07446">
        <ele>996.54</ele>
        <time>2013-05-10T16:56:30Z</time>
      </trkpt>
      <trkpt lat="46.6485" lon="6.07446">
        <ele>996.06</ele>
        <time>2013-05-10T16:56:46Z</time>
      </trkpt>
      <trkpt lat="46.64851" lon="6.07445">
        <ele>995.1</ele>
        <time>2013-05-10T16:57:01Z</time>
      </trkpt>
      <trkpt lat="46.64851" lon="6.07445">
        <ele>996.06</ele>
        <time>2013-05-10T16:57:02Z</time>
      </trkpt>
      <trkpt lat="46.64839" lon="6.07422">
        <ele>991.26</ele>
        <time>2013-05-10T19:04:14Z</time>
      </trkpt>
      <trkpt lat="46.64839" lon="6.07421">
        <ele>991.26</ele>
        <time>2013-05-10T19:04:15Z</time>
      </trkpt>
      <trkpt lat="46.64842" lon="6.07434">
        <ele>991.26</ele>
        <time>2013-05-10T19:04:39Z</time>
      </trkpt>
      <trkpt lat="46.64844" lon="6.07438">
        <ele>991.74</ele>
        <time>2013-05-10T19:05:07Z</time>
      </trkpt>
      <trkpt lat="46.64843" lon="6.07438">
        <ele>991.26</ele>
        <time>2013-05-10T19:05:28Z</time>
      </trkpt>
      <trkpt lat="46.64839" lon="6.07436">
        <ele>989.33</ele>
        <time>2013-05-10T19:05:53Z</time>
      </trkpt>
      <trkpt lat="46.64844" lon="6.0744">
        <ele>989.33</ele>
        <time>2013-05-10T19:06:24Z</time>
      </trkpt>
      <trkpt lat="46.64844" lon="6.0744">
        <ele>987.89</ele>
        <time>2013-05-10T19:06:40Z</time>
      </trkpt>
    </trkseg>
  </trk>
</gpx>